<?xml version="1.0" encoding="UTF-8"?>
<gpx version="1.1" creator="https://www.www-youtrack-es.amenigma.com" xsi:schemaLocation="http://www.topografix.com/GPX/1/1 http://www.topografix.com/GPX/1/1/gpx.xsd http://www.garmin.com/xmlschemas/GpxExtensions/v3 http://www.garmin.com/xmlschemas/GpxExtensionsv3.xsd http://www.garmin.com/xmlschemas/TrackPointExtension/v1 http://www.garmin.com/xmlschemas/TrackPointExtensionv1.xsd" xmlns:gpxtpx="http://www.garmin.com/xmlschemas/TrackPointExtension/v1" xmlns:gpxx="http://www.garmin.com/xmlschemas/GpxExtensions/v3" xmlns:xsi="http://www.w3.org/2001/XMLSchema-instance">
  <metadata>
    <author>
      <name>Eduardo Bellini</name>
      <email id="eduardo.bellini" domain="gmail.com"/>
    </author>
    <link href="https://www.www-youtrack-es.amenigma.com">
      <text>YouTrack.es</text>
    </link>
    <time>2026-08-31T05:09:11Z</time>
  </metadata>
  <trk>
    <src>https://www.www-youtrack-es.amenigma.com</src>
    <link href="https://www.www-youtrack-es.amenigma.com/ruta/2600-sancho-cortafuegos">
      <text>YouTrack.es</text>
    </link>
    <trkseg>
      <trkpt lat="36.079381" lon="-5.643723">
        <ele>86.5999984741211</ele>
        <time>2018-10-17T07:31:36.000Z</time>
      </trkpt>
      <trkpt lat="36.079345" lon="-5.643712">
        <ele>103</ele>
        <time>2018-10-17T07:31:39.000Z</time>
      </trkpt>
      <trkpt lat="36.079302" lon="-5.643711">
        <ele>103</ele>
        <time>2018-10-17T07:31:41.000Z</time>
      </trkpt>
      <trkpt lat="36.079255" lon="-5.643718">
        <ele>103</ele>
        <time>2018-10-17T07:31:43.000Z</time>
      </trkpt>
      <trkpt lat="36.079208" lon="-5.643744">
        <ele>103</ele>
        <time>2018-10-17T07:31:45.000Z</time>
      </trkpt>
      <trkpt lat="36.079164" lon="-5.643772">
        <ele>103.700002560033</ele>
        <time>2018-10-17T07:31:47.000Z</time>
      </trkpt>
      <trkpt lat="36.07912" lon="-5.643791">
        <ele>104</ele>
        <time>2018-10-17T07:31:49.000Z</time>
      </trkpt>
      <trkpt lat="36.079075" lon="-5.6438">
        <ele>103</ele>
        <time>2018-10-17T07:31:51.000Z</time>
      </trkpt>
      <trkpt lat="36.079026" lon="-5.643812">
        <ele>103</ele>
        <time>2018-10-17T07:31:53.000Z</time>
      </trkpt>
      <trkpt lat="36.078985" lon="-5.643829">
        <ele>103</ele>
        <time>2018-10-17T07:31:55.000Z</time>
      </trkpt>
      <trkpt lat="36.078939" lon="-5.643846">
        <ele>103</ele>
        <time>2018-10-17T07:31:57.000Z</time>
      </trkpt>
      <trkpt lat="36.078892" lon="-5.64386">
        <ele>103</ele>
        <time>2018-10-17T07:31:59.000Z</time>
      </trkpt>
      <trkpt lat="36.078849" lon="-5.643876">
        <ele>102.679611771139</ele>
        <time>2018-10-17T07:32:01.000Z</time>
      </trkpt>
      <trkpt lat="36.078802" lon="-5.643895">
        <ele>103</ele>
        <time>2018-10-17T07:32:03.000Z</time>
      </trkpt>
      <trkpt lat="36.078758" lon="-5.643905">
        <ele>104</ele>
        <time>2018-10-17T07:32:05.000Z</time>
      </trkpt>
      <trkpt lat="36.078714" lon="-5.643926">
        <ele>104</ele>
        <time>2018-10-17T07:32:07.000Z</time>
      </trkpt>
      <trkpt lat="36.078671" lon="-5.643943">
        <ele>104</ele>
        <time>2018-10-17T07:32:09.000Z</time>
      </trkpt>
      <trkpt lat="36.078624" lon="-5.643959">
        <ele>104</ele>
        <time>2018-10-17T07:32:11.000Z</time>
      </trkpt>
      <trkpt lat="36.078581" lon="-5.643974">
        <ele>104</ele>
        <time>2018-10-17T07:32:13.000Z</time>
      </trkpt>
      <trkpt lat="36.078539" lon="-5.643988">
        <ele>104</ele>
        <time>2018-10-17T07:32:15.000Z</time>
      </trkpt>
      <trkpt lat="36.078496" lon="-5.644002">
        <ele>104</ele>
        <time>2018-10-17T07:32:17.000Z</time>
      </trkpt>
      <trkpt lat="36.078455" lon="-5.644021">
        <ele>104</ele>
        <time>2018-10-17T07:32:19.000Z</time>
      </trkpt>
      <trkpt lat="36.078411" lon="-5.644041">
        <ele>104</ele>
        <time>2018-10-17T07:32:21.000Z</time>
      </trkpt>
      <trkpt lat="36.078366" lon="-5.644065">
        <ele>104</ele>
        <time>2018-10-17T07:32:23.000Z</time>
      </trkpt>
      <trkpt lat="36.078319" lon="-5.644095">
        <ele>104</ele>
        <time>2018-10-17T07:32:25.000Z</time>
      </trkpt>
      <trkpt lat="36.078275" lon="-5.644122">
        <ele>104</ele>
        <time>2018-10-17T07:32:27.000Z</time>
      </trkpt>
      <trkpt lat="36.07823" lon="-5.644153">
        <ele>104</ele>
        <time>2018-10-17T07:32:29.000Z</time>
      </trkpt>
      <trkpt lat="36.078187" lon="-5.644175">
        <ele>104</ele>
        <time>2018-10-17T07:32:31.000Z</time>
      </trkpt>
      <trkpt lat="36.078141" lon="-5.644194">
        <ele>104</ele>
        <time>2018-10-17T07:32:33.000Z</time>
      </trkpt>
      <trkpt lat="36.078098" lon="-5.644213">
        <ele>103.576924970461</ele>
        <time>2018-10-17T07:32:35.000Z</time>
      </trkpt>
      <trkpt lat="36.078055" lon="-5.644234">
        <ele>102.662927327379</ele>
        <time>2018-10-17T07:32:37.000Z</time>
      </trkpt>
      <trkpt lat="36.078011" lon="-5.644259">
        <ele>103</ele>
        <time>2018-10-17T07:32:39.000Z</time>
      </trkpt>
      <trkpt lat="36.077963" lon="-5.64429">
        <ele>103</ele>
        <time>2018-10-17T07:32:41.000Z</time>
      </trkpt>
      <trkpt lat="36.077919" lon="-5.64432">
        <ele>103</ele>
        <time>2018-10-17T07:32:43.000Z</time>
      </trkpt>
      <trkpt lat="36.077868" lon="-5.644349">
        <ele>102</ele>
        <time>2018-10-17T07:32:45.000Z</time>
      </trkpt>
      <trkpt lat="36.077817" lon="-5.644376">
        <ele>102</ele>
        <time>2018-10-17T07:32:47.000Z</time>
      </trkpt>
      <trkpt lat="36.077771" lon="-5.644407">
        <ele>102</ele>
        <time>2018-10-17T07:32:49.000Z</time>
      </trkpt>
      <trkpt lat="36.077721" lon="-5.644434">
        <ele>102</ele>
        <time>2018-10-17T07:32:51.000Z</time>
      </trkpt>
      <trkpt lat="36.077669" lon="-5.644463">
        <ele>102</ele>
        <time>2018-10-17T07:32:53.000Z</time>
      </trkpt>
      <trkpt lat="36.077618" lon="-5.644487">
        <ele>101.299997439967</ele>
        <time>2018-10-17T07:32:55.000Z</time>
      </trkpt>
      <trkpt lat="36.077576" lon="-5.644508">
        <ele>101</ele>
        <time>2018-10-17T07:32:57.000Z</time>
      </trkpt>
      <trkpt lat="36.077531" lon="-5.644533">
        <ele>101</ele>
        <time>2018-10-17T07:32:59.000Z</time>
      </trkpt>
      <trkpt lat="36.077485" lon="-5.64456">
        <ele>101</ele>
        <time>2018-10-17T07:33:01.000Z</time>
      </trkpt>
      <trkpt lat="36.077436" lon="-5.644582">
        <ele>101</ele>
        <time>2018-10-17T07:33:03.000Z</time>
      </trkpt>
      <trkpt lat="36.077388" lon="-5.644611">
        <ele>100.660375307926</ele>
        <time>2018-10-17T07:33:05.000Z</time>
      </trkpt>
      <trkpt lat="36.077342" lon="-5.644637">
        <ele>101</ele>
        <time>2018-10-17T07:33:07.000Z</time>
      </trkpt>
      <trkpt lat="36.077297" lon="-5.644657">
        <ele>101</ele>
        <time>2018-10-17T07:33:09.000Z</time>
      </trkpt>
      <trkpt lat="36.07725" lon="-5.644698">
        <ele>101</ele>
        <time>2018-10-17T07:33:11.000Z</time>
      </trkpt>
      <trkpt lat="36.07721" lon="-5.644723">
        <ele>100</ele>
        <time>2018-10-17T07:33:13.000Z</time>
      </trkpt>
      <trkpt lat="36.077177" lon="-5.644746">
        <ele>100</ele>
        <time>2018-10-17T07:33:15.000Z</time>
      </trkpt>
      <trkpt lat="36.077141" lon="-5.644766">
        <ele>101</ele>
        <time>2018-10-17T07:33:17.000Z</time>
      </trkpt>
      <trkpt lat="36.077102" lon="-5.644792">
        <ele>101</ele>
        <time>2018-10-17T07:33:19.000Z</time>
      </trkpt>
      <trkpt lat="36.077053" lon="-5.644812">
        <ele>100</ele>
        <time>2018-10-17T07:33:21.000Z</time>
      </trkpt>
      <trkpt lat="36.077003" lon="-5.644832">
        <ele>100</ele>
        <time>2018-10-17T07:33:23.000Z</time>
      </trkpt>
      <trkpt lat="36.076951" lon="-5.64485">
        <ele>101</ele>
        <time>2018-10-17T07:33:25.000Z</time>
      </trkpt>
      <trkpt lat="36.076897" lon="-5.644855">
        <ele>101</ele>
        <time>2018-10-17T07:33:27.000Z</time>
      </trkpt>
      <trkpt lat="36.076845" lon="-5.644873">
        <ele>101</ele>
        <time>2018-10-17T07:33:29.000Z</time>
      </trkpt>
      <trkpt lat="36.076793" lon="-5.644899">
        <ele>100.351850096001</ele>
        <time>2018-10-17T07:33:31.000Z</time>
      </trkpt>
      <trkpt lat="36.076747" lon="-5.644931">
        <ele>100</ele>
        <time>2018-10-17T07:33:33.000Z</time>
      </trkpt>
      <trkpt lat="36.076701" lon="-5.644956">
        <ele>99</ele>
        <time>2018-10-17T07:33:35.000Z</time>
      </trkpt>
      <trkpt lat="36.076659" lon="-5.644981">
        <ele>99</ele>
        <time>2018-10-17T07:33:37.000Z</time>
      </trkpt>
      <trkpt lat="36.076609" lon="-5.644998">
        <ele>99</ele>
        <time>2018-10-17T07:33:39.000Z</time>
      </trkpt>
      <trkpt lat="36.076554" lon="-5.645021">
        <ele>98</ele>
        <time>2018-10-17T07:33:41.000Z</time>
      </trkpt>
      <trkpt lat="36.07651" lon="-5.645048">
        <ele>98</ele>
        <time>2018-10-17T07:33:43.000Z</time>
      </trkpt>
      <trkpt lat="36.076463" lon="-5.645077">
        <ele>98</ele>
        <time>2018-10-17T07:33:45.000Z</time>
      </trkpt>
      <trkpt lat="36.076418" lon="-5.645098">
        <ele>98</ele>
        <time>2018-10-17T07:33:47.000Z</time>
      </trkpt>
      <trkpt lat="36.076373" lon="-5.645117">
        <ele>98</ele>
        <time>2018-10-17T07:33:49.000Z</time>
      </trkpt>
      <trkpt lat="36.076327" lon="-5.64514">
        <ele>98</ele>
        <time>2018-10-17T07:33:51.000Z</time>
      </trkpt>
      <trkpt lat="36.076283" lon="-5.645164">
        <ele>98</ele>
        <time>2018-10-17T07:33:53.000Z</time>
      </trkpt>
      <trkpt lat="36.076238" lon="-5.645191">
        <ele>99</ele>
        <time>2018-10-17T07:33:55.000Z</time>
      </trkpt>
      <trkpt lat="36.076187" lon="-5.645211">
        <ele>99</ele>
        <time>2018-10-17T07:33:57.000Z</time>
      </trkpt>
      <trkpt lat="36.076142" lon="-5.645245">
        <ele>99</ele>
        <time>2018-10-17T07:33:59.000Z</time>
      </trkpt>
      <trkpt lat="36.076092" lon="-5.645266">
        <ele>98</ele>
        <time>2018-10-17T07:34:01.000Z</time>
      </trkpt>
      <trkpt lat="36.076044" lon="-5.645282">
        <ele>98</ele>
        <time>2018-10-17T07:34:03.000Z</time>
      </trkpt>
      <trkpt lat="36.075996" lon="-5.645307">
        <ele>98</ele>
        <time>2018-10-17T07:34:05.000Z</time>
      </trkpt>
      <trkpt lat="36.075945" lon="-5.645338">
        <ele>98</ele>
        <time>2018-10-17T07:34:07.000Z</time>
      </trkpt>
      <trkpt lat="36.075906" lon="-5.645379">
        <ele>98</ele>
        <time>2018-10-17T07:34:09.000Z</time>
      </trkpt>
      <trkpt lat="36.075868" lon="-5.64542">
        <ele>98</ele>
        <time>2018-10-17T07:34:11.000Z</time>
      </trkpt>
      <trkpt lat="36.07582" lon="-5.645459">
        <ele>98</ele>
        <time>2018-10-17T07:34:13.000Z</time>
      </trkpt>
      <trkpt lat="36.075776" lon="-5.645501">
        <ele>98</ele>
        <time>2018-10-17T07:34:15.000Z</time>
      </trkpt>
      <trkpt lat="36.075727" lon="-5.645528">
        <ele>97</ele>
        <time>2018-10-17T07:34:17.000Z</time>
      </trkpt>
      <trkpt lat="36.075684" lon="-5.64556">
        <ele>97</ele>
        <time>2018-10-17T07:34:19.000Z</time>
      </trkpt>
      <trkpt lat="36.07564" lon="-5.645596">
        <ele>96.3693696810351</ele>
        <time>2018-10-17T07:34:21.000Z</time>
      </trkpt>
      <trkpt lat="36.075602" lon="-5.645631">
        <ele>96</ele>
        <time>2018-10-17T07:34:23.000Z</time>
      </trkpt>
      <trkpt lat="36.075556" lon="-5.645672">
        <ele>96</ele>
        <time>2018-10-17T07:34:25.000Z</time>
      </trkpt>
      <trkpt lat="36.075508" lon="-5.645703">
        <ele>96</ele>
        <time>2018-10-17T07:34:27.000Z</time>
      </trkpt>
      <trkpt lat="36.075456" lon="-5.645725">
        <ele>94.33696</ele>
        <time>2018-10-17T07:34:29.000Z</time>
      </trkpt>
      <trkpt lat="36.07541" lon="-5.645751">
        <ele>94</ele>
        <time>2018-10-17T07:34:31.000Z</time>
      </trkpt>
      <trkpt lat="36.07536" lon="-5.645779">
        <ele>94</ele>
        <time>2018-10-17T07:34:33.000Z</time>
      </trkpt>
      <trkpt lat="36.07531" lon="-5.645819">
        <ele>94</ele>
        <time>2018-10-17T07:34:35.000Z</time>
      </trkpt>
      <trkpt lat="36.075266" lon="-5.64586">
        <ele>94</ele>
        <time>2018-10-17T07:34:37.000Z</time>
      </trkpt>
      <trkpt lat="36.075236" lon="-5.645904">
        <ele>95</ele>
        <time>2018-10-17T07:34:39.000Z</time>
      </trkpt>
      <trkpt lat="36.075202" lon="-5.645945">
        <ele>95</ele>
        <time>2018-10-17T07:34:41.000Z</time>
      </trkpt>
      <trkpt lat="36.075165" lon="-5.64598">
        <ele>95</ele>
        <time>2018-10-17T07:34:43.000Z</time>
      </trkpt>
      <trkpt lat="36.07513" lon="-5.646014">
        <ele>95</ele>
        <time>2018-10-17T07:34:45.000Z</time>
      </trkpt>
      <trkpt lat="36.075054" lon="-5.646127">
        <ele>94.3157951467953</ele>
        <time>2018-10-17T07:34:50.000Z</time>
      </trkpt>
      <trkpt lat="36.075016" lon="-5.646188">
        <ele>94</ele>
        <time>2018-10-17T07:34:52.000Z</time>
      </trkpt>
      <trkpt lat="36.074982" lon="-5.646242">
        <ele>94</ele>
        <time>2018-10-17T07:34:54.000Z</time>
      </trkpt>
      <trkpt lat="36.07495" lon="-5.64629">
        <ele>94</ele>
        <time>2018-10-17T07:34:56.000Z</time>
      </trkpt>
      <trkpt lat="36.074863" lon="-5.646393">
        <ele>94</ele>
        <time>2018-10-17T07:35:01.000Z</time>
      </trkpt>
      <trkpt lat="36.074768" lon="-5.646456">
        <ele>94</ele>
        <time>2018-10-17T07:35:06.000Z</time>
      </trkpt>
      <trkpt lat="36.074676" lon="-5.646536">
        <ele>94.6730707692308</ele>
        <time>2018-10-17T07:35:11.000Z</time>
      </trkpt>
      <trkpt lat="36.07461" lon="-5.646664">
        <ele>96</ele>
        <time>2018-10-17T07:35:17.000Z</time>
      </trkpt>
      <trkpt lat="36.074573" lon="-5.64674">
        <ele>98</ele>
        <time>2018-10-17T07:35:21.000Z</time>
      </trkpt>
      <trkpt lat="36.074525" lon="-5.646888">
        <ele>98</ele>
        <time>2018-10-17T07:35:27.000Z</time>
      </trkpt>
      <trkpt lat="36.074466" lon="-5.647004">
        <ele>100</ele>
        <time>2018-10-17T07:35:34.000Z</time>
      </trkpt>
      <trkpt lat="36.074392" lon="-5.647094">
        <ele>101</ele>
        <time>2018-10-17T07:35:40.000Z</time>
      </trkpt>
      <trkpt lat="36.074405" lon="-5.647232">
        <ele>102</ele>
        <time>2018-10-17T07:35:46.000Z</time>
      </trkpt>
      <trkpt lat="36.074459" lon="-5.647363">
        <ele>102.597396768402</ele>
        <time>2018-10-17T07:35:51.000Z</time>
      </trkpt>
      <trkpt lat="36.074583" lon="-5.647358">
        <ele>103.680855699443</ele>
        <time>2018-10-17T07:35:57.000Z</time>
      </trkpt>
      <trkpt lat="36.074688" lon="-5.647292">
        <ele>104</ele>
        <time>2018-10-17T07:36:03.000Z</time>
      </trkpt>
      <trkpt lat="36.074803" lon="-5.647288">
        <ele>105.693882082495</ele>
        <time>2018-10-17T07:36:09.000Z</time>
      </trkpt>
      <trkpt lat="36.074714" lon="-5.647373">
        <ele>107</ele>
        <time>2018-10-17T07:36:19.000Z</time>
      </trkpt>
      <trkpt lat="36.074606" lon="-5.647449">
        <ele>107</ele>
        <time>2018-10-17T07:36:25.000Z</time>
      </trkpt>
      <trkpt lat="36.074513" lon="-5.647519">
        <ele>107</ele>
        <time>2018-10-17T07:36:30.000Z</time>
      </trkpt>
      <trkpt lat="36.074411" lon="-5.647618">
        <ele>107.696964211833</ele>
        <time>2018-10-17T07:36:36.000Z</time>
      </trkpt>
      <trkpt lat="36.07448" lon="-5.647729">
        <ele>109</ele>
        <time>2018-10-17T07:36:43.000Z</time>
      </trkpt>
      <trkpt lat="36.074597" lon="-5.647689">
        <ele>110</ele>
        <time>2018-10-17T07:36:50.000Z</time>
      </trkpt>
      <trkpt lat="36.074712" lon="-5.647655">
        <ele>112</ele>
        <time>2018-10-17T07:36:56.000Z</time>
      </trkpt>
      <trkpt lat="36.074832" lon="-5.647648">
        <ele>113.594589452199</ele>
        <time>2018-10-17T07:37:02.000Z</time>
      </trkpt>
      <trkpt lat="36.074729" lon="-5.64772">
        <ele>114</ele>
        <time>2018-10-17T07:37:12.000Z</time>
      </trkpt>
      <trkpt lat="36.074615" lon="-5.64783">
        <ele>115</ele>
        <time>2018-10-17T07:37:21.000Z</time>
      </trkpt>
      <trkpt lat="36.074553" lon="-5.647954">
        <ele>121</ele>
        <time>2018-10-17T07:37:29.000Z</time>
      </trkpt>
      <trkpt lat="36.074511" lon="-5.648065">
        <ele>122.445861222759</ele>
        <time>2018-10-17T07:37:36.000Z</time>
      </trkpt>
      <trkpt lat="36.074453" lon="-5.64817">
        <ele>128</ele>
        <time>2018-10-17T07:37:50.000Z</time>
      </trkpt>
      <trkpt lat="36.074346" lon="-5.648193">
        <ele>128</ele>
        <time>2018-10-17T07:37:55.000Z</time>
      </trkpt>
      <trkpt lat="36.074244" lon="-5.648246">
        <ele>128</ele>
        <time>2018-10-17T07:38:00.000Z</time>
      </trkpt>
      <trkpt lat="36.074148" lon="-5.648319">
        <ele>128.699997440033</ele>
        <time>2018-10-17T07:38:06.000Z</time>
      </trkpt>
      <trkpt lat="36.074055" lon="-5.648426">
        <ele>130</ele>
        <time>2018-10-17T07:38:13.000Z</time>
      </trkpt>
      <trkpt lat="36.073986" lon="-5.648532">
        <ele>130</ele>
        <time>2018-10-17T07:38:18.000Z</time>
      </trkpt>
      <trkpt lat="36.073899" lon="-5.64864">
        <ele>130</ele>
        <time>2018-10-17T07:38:21.000Z</time>
      </trkpt>
      <trkpt lat="36.073817" lon="-5.648743">
        <ele>131</ele>
        <time>2018-10-17T07:38:28.000Z</time>
      </trkpt>
      <trkpt lat="36.073722" lon="-5.648839">
        <ele>132.673083076923</ele>
        <time>2018-10-17T07:38:36.000Z</time>
      </trkpt>
      <trkpt lat="36.073647" lon="-5.648947">
        <ele>134</ele>
        <time>2018-10-17T07:38:42.000Z</time>
      </trkpt>
      <trkpt lat="36.073603" lon="-5.649082">
        <ele>134</ele>
        <time>2018-10-17T07:38:46.000Z</time>
      </trkpt>
      <trkpt lat="36.073579" lon="-5.649227">
        <ele>134</ele>
        <time>2018-10-17T07:38:49.000Z</time>
      </trkpt>
      <trkpt lat="36.073561" lon="-5.649288">
        <ele>134</ele>
        <time>2018-10-17T07:38:51.000Z</time>
      </trkpt>
      <trkpt lat="36.07355" lon="-5.649356">
        <ele>134</ele>
        <time>2018-10-17T07:38:53.000Z</time>
      </trkpt>
      <trkpt lat="36.073539" lon="-5.649411">
        <ele>134.655554449391</ele>
        <time>2018-10-17T07:38:55.000Z</time>
      </trkpt>
      <trkpt lat="36.073525" lon="-5.649542">
        <ele>136</ele>
        <time>2018-10-17T07:39:01.000Z</time>
      </trkpt>
      <trkpt lat="36.073561" lon="-5.64967">
        <ele>137</ele>
        <time>2018-10-17T07:39:06.000Z</time>
      </trkpt>
      <trkpt lat="36.073642" lon="-5.649758">
        <ele>139</ele>
        <time>2018-10-17T07:39:14.000Z</time>
      </trkpt>
      <trkpt lat="36.073756" lon="-5.649714">
        <ele>141.616156392222</ele>
        <time>2018-10-17T07:39:22.000Z</time>
      </trkpt>
      <trkpt lat="36.073837" lon="-5.649632">
        <ele>146</ele>
        <time>2018-10-17T07:39:31.000Z</time>
      </trkpt>
      <trkpt lat="36.073925" lon="-5.649534">
        <ele>147</ele>
        <time>2018-10-17T07:39:38.000Z</time>
      </trkpt>
      <trkpt lat="36.073983" lon="-5.649421">
        <ele>149</ele>
        <time>2018-10-17T07:39:49.000Z</time>
      </trkpt>
      <trkpt lat="36.074069" lon="-5.649519">
        <ele>150</ele>
        <time>2018-10-17T07:39:58.000Z</time>
      </trkpt>
      <trkpt lat="36.074142" lon="-5.649485">
        <ele>152.444449711997</ele>
        <time>2018-10-17T07:40:05.000Z</time>
      </trkpt>
      <trkpt lat="36.074175" lon="-5.649473">
        <ele>155</ele>
        <time>2018-10-17T07:40:10.000Z</time>
      </trkpt>
      <trkpt lat="36.074218" lon="-5.649451">
        <ele>156</ele>
        <time>2018-10-17T07:40:14.000Z</time>
      </trkpt>
      <trkpt lat="36.07425" lon="-5.649407">
        <ele>158</ele>
        <time>2018-10-17T07:40:18.000Z</time>
      </trkpt>
      <trkpt lat="36.07428" lon="-5.649369">
        <ele>158.700002560033</ele>
        <time>2018-10-17T07:40:21.000Z</time>
      </trkpt>
      <trkpt lat="36.074321" lon="-5.649338">
        <ele>160</ele>
        <time>2018-10-17T07:40:24.000Z</time>
      </trkpt>
      <trkpt lat="36.074354" lon="-5.649302">
        <ele>160.565214165136</ele>
        <time>2018-10-17T07:40:28.000Z</time>
      </trkpt>
      <trkpt lat="36.074393" lon="-5.649281">
        <ele>162</ele>
        <time>2018-10-17T07:40:32.000Z</time>
      </trkpt>
      <trkpt lat="36.074428" lon="-5.649259">
        <ele>163</ele>
        <time>2018-10-17T07:40:34.000Z</time>
      </trkpt>
      <trkpt lat="36.074467" lon="-5.64925">
        <ele>164</ele>
        <time>2018-10-17T07:40:38.000Z</time>
      </trkpt>
      <trkpt lat="36.074523" lon="-5.649249">
        <ele>165</ele>
        <time>2018-10-17T07:40:42.000Z</time>
      </trkpt>
      <trkpt lat="36.074549" lon="-5.649216">
        <ele>165</ele>
        <time>2018-10-17T07:40:44.000Z</time>
      </trkpt>
      <trkpt lat="36.0746" lon="-5.649179">
        <ele>165</ele>
        <time>2018-10-17T07:40:48.000Z</time>
      </trkpt>
      <trkpt lat="36.074725" lon="-5.649191">
        <ele>167</ele>
        <time>2018-10-17T07:40:55.000Z</time>
      </trkpt>
      <trkpt lat="36.07478" lon="-5.649199">
        <ele>167.690718112481</ele>
        <time>2018-10-17T07:40:58.000Z</time>
      </trkpt>
      <trkpt lat="36.074903" lon="-5.649195">
        <ele>169</ele>
        <time>2018-10-17T07:41:04.000Z</time>
      </trkpt>
      <trkpt lat="36.074956" lon="-5.64921">
        <ele>169</ele>
        <time>2018-10-17T07:41:08.000Z</time>
      </trkpt>
      <trkpt lat="36.075028" lon="-5.649211">
        <ele>170.679611771139</ele>
        <time>2018-10-17T07:41:13.000Z</time>
      </trkpt>
      <trkpt lat="36.074978" lon="-5.649315">
        <ele>175</ele>
        <time>2018-10-17T07:41:29.000Z</time>
      </trkpt>
      <trkpt lat="36.074859" lon="-5.649316">
        <ele>177</ele>
        <time>2018-10-17T07:41:36.000Z</time>
      </trkpt>
      <trkpt lat="36.074785" lon="-5.649411">
        <ele>177</ele>
        <time>2018-10-17T07:41:42.000Z</time>
      </trkpt>
      <trkpt lat="36.074754" lon="-5.649531">
        <ele>177.693065166147</ele>
        <time>2018-10-17T07:41:47.000Z</time>
      </trkpt>
      <trkpt lat="36.07474" lon="-5.649582">
        <ele>178.651680545368</ele>
        <time>2018-10-17T07:41:50.000Z</time>
      </trkpt>
      <trkpt lat="36.074748" lon="-5.649626">
        <ele>179</ele>
        <time>2018-10-17T07:41:53.000Z</time>
      </trkpt>
      <trkpt lat="36.074756" lon="-5.649682">
        <ele>179.5</ele>
        <time>2018-10-17T07:41:55.000Z</time>
      </trkpt>
      <trkpt lat="36.074755" lon="-5.64975">
        <ele>180.619465117069</ele>
        <time>2018-10-17T07:41:57.000Z</time>
      </trkpt>
      <trkpt lat="36.074745" lon="-5.64983">
        <ele>181</ele>
        <time>2018-10-17T07:41:59.000Z</time>
      </trkpt>
      <trkpt lat="36.074741" lon="-5.649977">
        <ele>182</ele>
        <time>2018-10-17T07:42:04.000Z</time>
      </trkpt>
      <trkpt lat="36.074784" lon="-5.6501">
        <ele>182</ele>
        <time>2018-10-17T07:42:10.000Z</time>
      </trkpt>
      <trkpt lat="36.074749" lon="-5.650231">
        <ele>183</ele>
        <time>2018-10-17T07:42:18.000Z</time>
      </trkpt>
      <trkpt lat="36.074723" lon="-5.650382">
        <ele>183</ele>
        <time>2018-10-17T07:42:24.000Z</time>
      </trkpt>
      <trkpt lat="36.074675" lon="-5.650525">
        <ele>183.686866466694</ele>
        <time>2018-10-17T07:42:29.000Z</time>
      </trkpt>
      <trkpt lat="36.074628" lon="-5.650655">
        <ele>185</ele>
        <time>2018-10-17T07:42:36.000Z</time>
      </trkpt>
      <trkpt lat="36.074549" lon="-5.650757">
        <ele>185.552241942571</ele>
        <time>2018-10-17T07:42:41.000Z</time>
      </trkpt>
      <trkpt lat="36.074529" lon="-5.650825">
        <ele>186</ele>
        <time>2018-10-17T07:42:43.000Z</time>
      </trkpt>
      <trkpt lat="36.0745" lon="-5.651005">
        <ele>185.67741580302</ele>
        <time>2018-10-17T07:42:48.000Z</time>
      </trkpt>
      <trkpt lat="36.074519" lon="-5.651161">
        <ele>187</ele>
        <time>2018-10-17T07:42:51.000Z</time>
      </trkpt>
      <trkpt lat="36.074572" lon="-5.6513">
        <ele>189</ele>
        <time>2018-10-17T07:42:56.000Z</time>
      </trkpt>
      <trkpt lat="36.07463" lon="-5.651436">
        <ele>189</ele>
        <time>2018-10-17T07:43:02.000Z</time>
      </trkpt>
      <trkpt lat="36.074652" lon="-5.651573">
        <ele>190.700002560033</ele>
        <time>2018-10-17T07:43:09.000Z</time>
      </trkpt>
      <trkpt lat="36.074763" lon="-5.65154">
        <ele>193</ele>
        <time>2018-10-17T07:43:18.000Z</time>
      </trkpt>
      <trkpt lat="36.074772" lon="-5.651421">
        <ele>193</ele>
        <time>2018-10-17T07:43:21.000Z</time>
      </trkpt>
      <trkpt lat="36.074804" lon="-5.651284">
        <ele>194</ele>
        <time>2018-10-17T07:43:26.000Z</time>
      </trkpt>
      <trkpt lat="36.074787" lon="-5.65115">
        <ele>195</ele>
        <time>2018-10-17T07:43:32.000Z</time>
      </trkpt>
      <trkpt lat="36.074785" lon="-5.651009">
        <ele>195</ele>
        <time>2018-10-17T07:43:37.000Z</time>
      </trkpt>
      <trkpt lat="36.0748" lon="-5.650873">
        <ele>195</ele>
        <time>2018-10-17T07:43:41.000Z</time>
      </trkpt>
      <trkpt lat="36.074826" lon="-5.650715">
        <ele>195</ele>
        <time>2018-10-17T07:43:46.000Z</time>
      </trkpt>
      <trkpt lat="36.074868" lon="-5.650569">
        <ele>195</ele>
        <time>2018-10-17T07:43:51.000Z</time>
      </trkpt>
      <trkpt lat="36.074896" lon="-5.650419">
        <ele>195</ele>
        <time>2018-10-17T07:43:56.000Z</time>
      </trkpt>
      <trkpt lat="36.074922" lon="-5.650289">
        <ele>195</ele>
        <time>2018-10-17T07:44:01.000Z</time>
      </trkpt>
      <trkpt lat="36.074968" lon="-5.650162">
        <ele>195</ele>
        <time>2018-10-17T07:44:07.000Z</time>
      </trkpt>
      <trkpt lat="36.075037" lon="-5.650044">
        <ele>195</ele>
        <time>2018-10-17T07:44:13.000Z</time>
      </trkpt>
      <trkpt lat="36.075042" lon="-5.650025">
        <ele>195.0355196748</ele>
        <time>2018-10-17T07:44:14.000Z</time>
      </trkpt>
      <trkpt lat="36.075068" lon="-5.649938">
        <ele>196.972956482069</ele>
        <time>2018-10-17T07:45:02.000Z</time>
      </trkpt>
      <trkpt lat="36.075083" lon="-5.649916">
        <ele>197</ele>
        <time>2018-10-17T07:45:05.000Z</time>
      </trkpt>
      <trkpt lat="36.075121" lon="-5.649953">
        <ele>197.642202050331</ele>
        <time>2018-10-17T07:45:08.000Z</time>
      </trkpt>
      <trkpt lat="36.075157" lon="-5.650005">
        <ele>199</ele>
        <time>2018-10-17T07:45:11.000Z</time>
      </trkpt>
      <trkpt lat="36.075183" lon="-5.650037">
        <ele>200.696973223175</ele>
        <time>2018-10-17T07:45:13.000Z</time>
      </trkpt>
      <trkpt lat="36.075206" lon="-5.650071">
        <ele>201.076930650825</ele>
        <time>2018-10-17T07:45:17.000Z</time>
      </trkpt>
      <trkpt lat="36.075223" lon="-5.65012">
        <ele>204</ele>
        <time>2018-10-17T07:45:21.000Z</time>
      </trkpt>
      <trkpt lat="36.07524" lon="-5.650157">
        <ele>205</ele>
        <time>2018-10-17T07:45:24.000Z</time>
      </trkpt>
      <trkpt lat="36.075269" lon="-5.650195">
        <ele>207</ele>
        <time>2018-10-17T07:45:28.000Z</time>
      </trkpt>
      <trkpt lat="36.075297" lon="-5.650227">
        <ele>207</ele>
        <time>2018-10-17T07:45:31.000Z</time>
      </trkpt>
      <trkpt lat="36.075332" lon="-5.650235">
        <ele>208</ele>
        <time>2018-10-17T07:45:34.000Z</time>
      </trkpt>
      <trkpt lat="36.075365" lon="-5.650208">
        <ele>209.5</ele>
        <time>2018-10-17T07:45:38.000Z</time>
      </trkpt>
      <trkpt lat="36.075388" lon="-5.650169">
        <ele>211</ele>
        <time>2018-10-17T07:45:42.000Z</time>
      </trkpt>
      <trkpt lat="36.075426" lon="-5.650166">
        <ele>213</ele>
        <time>2018-10-17T07:45:48.000Z</time>
      </trkpt>
      <trkpt lat="36.075465" lon="-5.650157">
        <ele>214</ele>
        <time>2018-10-17T07:45:53.000Z</time>
      </trkpt>
      <trkpt lat="36.0755" lon="-5.650127">
        <ele>216</ele>
        <time>2018-10-17T07:45:57.000Z</time>
      </trkpt>
      <trkpt lat="36.075527" lon="-5.650096">
        <ele>216</ele>
        <time>2018-10-17T07:46:01.000Z</time>
      </trkpt>
      <trkpt lat="36.075563" lon="-5.650087">
        <ele>218</ele>
        <time>2018-10-17T07:46:04.000Z</time>
      </trkpt>
      <trkpt lat="36.075612" lon="-5.650085">
        <ele>218</ele>
        <time>2018-10-17T07:46:07.000Z</time>
      </trkpt>
      <trkpt lat="36.075648" lon="-5.650076">
        <ele>218.677425126624</ele>
        <time>2018-10-17T07:46:09.000Z</time>
      </trkpt>
      <trkpt lat="36.075693" lon="-5.650068">
        <ele>220</ele>
        <time>2018-10-17T07:46:12.000Z</time>
      </trkpt>
      <trkpt lat="36.07573" lon="-5.650075">
        <ele>220</ele>
        <time>2018-10-17T07:46:15.000Z</time>
      </trkpt>
      <trkpt lat="36.075766" lon="-5.650053">
        <ele>220</ele>
        <time>2018-10-17T07:46:19.000Z</time>
      </trkpt>
      <trkpt lat="36.075805" lon="-5.650065">
        <ele>222</ele>
        <time>2018-10-17T07:46:23.000Z</time>
      </trkpt>
      <trkpt lat="36.07585" lon="-5.65008">
        <ele>222</ele>
        <time>2018-10-17T07:46:25.000Z</time>
      </trkpt>
      <trkpt lat="36.075895" lon="-5.650099">
        <ele>223.492960031729</ele>
        <time>2018-10-17T07:46:28.000Z</time>
      </trkpt>
      <trkpt lat="36.075926" lon="-5.65011">
        <ele>225</ele>
        <time>2018-10-17T07:46:30.000Z</time>
      </trkpt>
      <trkpt lat="36.075961" lon="-5.650125">
        <ele>225</ele>
        <time>2018-10-17T07:46:34.000Z</time>
      </trkpt>
      <trkpt lat="36.075996" lon="-5.650117">
        <ele>226</ele>
        <time>2018-10-17T07:46:37.000Z</time>
      </trkpt>
      <trkpt lat="36.07603" lon="-5.650117">
        <ele>227.699997440033</ele>
        <time>2018-10-17T07:46:40.000Z</time>
      </trkpt>
      <trkpt lat="36.07607" lon="-5.650133">
        <ele>228.696964211833</ele>
        <time>2018-10-17T07:46:46.000Z</time>
      </trkpt>
      <trkpt lat="36.076105" lon="-5.650133">
        <ele>230</ele>
        <time>2018-10-17T07:46:49.000Z</time>
      </trkpt>
      <trkpt lat="36.076204" lon="-5.650211">
        <ele>233</ele>
        <time>2018-10-17T07:46:58.000Z</time>
      </trkpt>
      <trkpt lat="36.076216" lon="-5.650308">
        <ele>236.977011578808</ele>
        <time>2018-10-17T07:47:07.000Z</time>
      </trkpt>
      <trkpt lat="36.0762" lon="-5.65035">
        <ele>238</ele>
        <time>2018-10-17T07:47:10.000Z</time>
      </trkpt>
      <trkpt lat="36.076168" lon="-5.650379">
        <ele>238</ele>
        <time>2018-10-17T07:47:14.000Z</time>
      </trkpt>
      <trkpt lat="36.076139" lon="-5.650419">
        <ele>239</ele>
        <time>2018-10-17T07:47:18.000Z</time>
      </trkpt>
      <trkpt lat="36.076126" lon="-5.650467">
        <ele>240.693882082495</ele>
        <time>2018-10-17T07:47:21.000Z</time>
      </trkpt>
      <trkpt lat="36.076158" lon="-5.650508">
        <ele>241</ele>
        <time>2018-10-17T07:47:24.000Z</time>
      </trkpt>
      <trkpt lat="36.076197" lon="-5.650528">
        <ele>242.700002560033</ele>
        <time>2018-10-17T07:47:27.000Z</time>
      </trkpt>
      <trkpt lat="36.076235" lon="-5.650529">
        <ele>243</ele>
        <time>2018-10-17T07:47:31.000Z</time>
      </trkpt>
      <trkpt lat="36.076272" lon="-5.650497">
        <ele>244</ele>
        <time>2018-10-17T07:47:34.000Z</time>
      </trkpt>
      <trkpt lat="36.076343" lon="-5.650492">
        <ele>247.5</ele>
        <time>2018-10-17T07:47:41.000Z</time>
      </trkpt>
      <trkpt lat="36.076398" lon="-5.650501">
        <ele>248</ele>
        <time>2018-10-17T07:47:46.000Z</time>
      </trkpt>
      <trkpt lat="36.076457" lon="-5.650519">
        <ele>250</ele>
        <time>2018-10-17T07:47:52.000Z</time>
      </trkpt>
      <trkpt lat="36.07649" lon="-5.650536">
        <ele>250</ele>
        <time>2018-10-17T07:47:55.000Z</time>
      </trkpt>
      <trkpt lat="36.076526" lon="-5.650556">
        <ele>252</ele>
        <time>2018-10-17T07:47:58.000Z</time>
      </trkpt>
      <trkpt lat="36.076556" lon="-5.650587">
        <ele>252.700002560033</ele>
        <time>2018-10-17T07:48:01.000Z</time>
      </trkpt>
      <trkpt lat="36.07659" lon="-5.650614">
        <ele>253</ele>
        <time>2018-10-17T07:48:04.000Z</time>
      </trkpt>
      <trkpt lat="36.076622" lon="-5.650638">
        <ele>254.68084642828</ele>
        <time>2018-10-17T07:48:06.000Z</time>
      </trkpt>
      <trkpt lat="36.076662" lon="-5.650648">
        <ele>255</ele>
        <time>2018-10-17T07:48:09.000Z</time>
      </trkpt>
      <trkpt lat="36.076727" lon="-5.65064">
        <ele>257</ele>
        <time>2018-10-17T07:48:12.000Z</time>
      </trkpt>
      <trkpt lat="36.076774" lon="-5.650657">
        <ele>257</ele>
        <time>2018-10-17T07:48:15.000Z</time>
      </trkpt>
      <trkpt lat="36.076802" lon="-5.650704">
        <ele>259</ele>
        <time>2018-10-17T07:48:18.000Z</time>
      </trkpt>
      <trkpt lat="36.076829" lon="-5.650745">
        <ele>259</ele>
        <time>2018-10-17T07:48:21.000Z</time>
      </trkpt>
      <trkpt lat="36.076869" lon="-5.650781">
        <ele>260</ele>
        <time>2018-10-17T07:48:24.000Z</time>
      </trkpt>
      <trkpt lat="36.076931" lon="-5.650879">
        <ele>262.696973223175</ele>
        <time>2018-10-17T07:48:29.000Z</time>
      </trkpt>
      <trkpt lat="36.076968" lon="-5.650901">
        <ele>263</ele>
        <time>2018-10-17T07:48:32.000Z</time>
      </trkpt>
      <trkpt lat="36.077015" lon="-5.650903">
        <ele>263</ele>
        <time>2018-10-17T07:48:35.000Z</time>
      </trkpt>
      <trkpt lat="36.077073" lon="-5.650907">
        <ele>263</ele>
        <time>2018-10-17T07:48:37.000Z</time>
      </trkpt>
      <trkpt lat="36.077121" lon="-5.650921">
        <ele>263.643675793376</ele>
        <time>2018-10-17T07:48:40.000Z</time>
      </trkpt>
      <trkpt lat="36.077186" lon="-5.650929">
        <ele>264</ele>
        <time>2018-10-17T07:48:42.000Z</time>
      </trkpt>
      <trkpt lat="36.077237" lon="-5.650922">
        <ele>264</ele>
        <time>2018-10-17T07:48:44.000Z</time>
      </trkpt>
      <trkpt lat="36.077285" lon="-5.65092">
        <ele>264</ele>
        <time>2018-10-17T07:48:46.000Z</time>
      </trkpt>
      <trkpt lat="36.077335" lon="-5.650931">
        <ele>265.37631060727</ele>
        <time>2018-10-17T07:48:49.000Z</time>
      </trkpt>
      <trkpt lat="36.077449" lon="-5.650932">
        <ele>269</ele>
        <time>2018-10-17T07:48:59.000Z</time>
      </trkpt>
      <trkpt lat="36.077554" lon="-5.650954">
        <ele>272.538459266261</ele>
        <time>2018-10-17T07:49:09.000Z</time>
      </trkpt>
      <trkpt lat="36.077634" lon="-5.65103">
        <ele>276.699997440033</ele>
        <time>2018-10-17T07:49:20.000Z</time>
      </trkpt>
      <trkpt lat="36.077747" lon="-5.651056">
        <ele>281</ele>
        <time>2018-10-17T07:49:33.000Z</time>
      </trkpt>
      <trkpt lat="36.077854" lon="-5.65108">
        <ele>286</ele>
        <time>2018-10-17T07:49:45.000Z</time>
      </trkpt>
      <trkpt lat="36.077954" lon="-5.651134">
        <ele>290</ele>
        <time>2018-10-17T07:49:57.000Z</time>
      </trkpt>
      <trkpt lat="36.078047" lon="-5.651214">
        <ele>290</ele>
        <time>2018-10-17T07:50:03.000Z</time>
      </trkpt>
      <trkpt lat="36.07809" lon="-5.651209">
        <ele>291</ele>
        <time>2018-10-17T07:50:06.000Z</time>
      </trkpt>
      <trkpt lat="36.07813" lon="-5.651199">
        <ele>293</ele>
        <time>2018-10-17T07:50:10.000Z</time>
      </trkpt>
      <trkpt lat="36.078171" lon="-5.651202">
        <ele>293</ele>
        <time>2018-10-17T07:50:13.000Z</time>
      </trkpt>
      <trkpt lat="36.078208" lon="-5.651206">
        <ele>294</ele>
        <time>2018-10-17T07:50:17.000Z</time>
      </trkpt>
      <trkpt lat="36.078247" lon="-5.65119">
        <ele>295</ele>
        <time>2018-10-17T07:50:21.000Z</time>
      </trkpt>
      <trkpt lat="36.078285" lon="-5.651162">
        <ele>296</ele>
        <time>2018-10-17T07:50:24.000Z</time>
      </trkpt>
      <trkpt lat="36.078352" lon="-5.65112">
        <ele>299.423078816521</ele>
        <time>2018-10-17T07:50:32.000Z</time>
      </trkpt>
      <trkpt lat="36.078395" lon="-5.651106">
        <ele>300</ele>
        <time>2018-10-17T07:50:35.000Z</time>
      </trkpt>
      <trkpt lat="36.078504" lon="-5.651122">
        <ele>304.558824636699</ele>
        <time>2018-10-17T07:50:45.000Z</time>
      </trkpt>
      <trkpt lat="36.078603" lon="-5.651108">
        <ele>307</ele>
        <time>2018-10-17T07:50:58.000Z</time>
      </trkpt>
      <trkpt lat="36.078645" lon="-5.651123">
        <ele>310</ele>
        <time>2018-10-17T07:51:03.000Z</time>
      </trkpt>
      <trkpt lat="36.078685" lon="-5.651133">
        <ele>310.819665939231</ele>
        <time>2018-10-17T07:51:06.000Z</time>
      </trkpt>
      <trkpt lat="36.078726" lon="-5.651148">
        <ele>312</ele>
        <time>2018-10-17T07:51:09.000Z</time>
      </trkpt>
      <trkpt lat="36.078778" lon="-5.651156">
        <ele>312</ele>
        <time>2018-10-17T07:51:12.000Z</time>
      </trkpt>
      <trkpt lat="36.078825" lon="-5.651145">
        <ele>312</ele>
        <time>2018-10-17T07:51:15.000Z</time>
      </trkpt>
      <trkpt lat="36.078869" lon="-5.651149">
        <ele>313</ele>
        <time>2018-10-17T07:51:18.000Z</time>
      </trkpt>
      <trkpt lat="36.078941" lon="-5.6512">
        <ele>315</ele>
        <time>2018-10-17T07:51:24.000Z</time>
      </trkpt>
      <trkpt lat="36.07899" lon="-5.651207">
        <ele>316.662927327379</ele>
        <time>2018-10-17T07:51:27.000Z</time>
      </trkpt>
      <trkpt lat="36.079039" lon="-5.651208">
        <ele>317</ele>
        <time>2018-10-17T07:51:29.000Z</time>
      </trkpt>
      <trkpt lat="36.079076" lon="-5.651211">
        <ele>318</ele>
        <time>2018-10-17T07:51:32.000Z</time>
      </trkpt>
      <trkpt lat="36.079112" lon="-5.651222">
        <ele>318.603447134376</ele>
        <time>2018-10-17T07:51:36.000Z</time>
      </trkpt>
      <trkpt lat="36.079144" lon="-5.651231">
        <ele>320</ele>
        <time>2018-10-17T07:51:42.000Z</time>
      </trkpt>
      <trkpt lat="36.079237" lon="-5.651259">
        <ele>326</ele>
        <time>2018-10-17T07:52:00.000Z</time>
      </trkpt>
      <trkpt lat="36.079337" lon="-5.651298">
        <ele>330</ele>
        <time>2018-10-17T07:52:11.000Z</time>
      </trkpt>
      <trkpt lat="36.079448" lon="-5.651314">
        <ele>333</ele>
        <time>2018-10-17T07:52:21.000Z</time>
      </trkpt>
      <trkpt lat="36.079486" lon="-5.651311">
        <ele>334</ele>
        <time>2018-10-17T07:52:23.000Z</time>
      </trkpt>
      <trkpt lat="36.079587" lon="-5.651335">
        <ele>338</ele>
        <time>2018-10-17T07:52:36.000Z</time>
      </trkpt>
      <trkpt lat="36.079635" lon="-5.651382">
        <ele>339.642197848654</ele>
        <time>2018-10-17T07:52:41.000Z</time>
      </trkpt>
      <trkpt lat="36.079668" lon="-5.651406">
        <ele>340</ele>
        <time>2018-10-17T07:52:44.000Z</time>
      </trkpt>
      <trkpt lat="36.079706" lon="-5.651383">
        <ele>342</ele>
        <time>2018-10-17T07:52:47.000Z</time>
      </trkpt>
      <trkpt lat="36.079757" lon="-5.65138">
        <ele>342.473281025571</ele>
        <time>2018-10-17T07:52:51.000Z</time>
      </trkpt>
      <trkpt lat="36.079818" lon="-5.651401">
        <ele>344</ele>
        <time>2018-10-17T07:52:57.000Z</time>
      </trkpt>
      <trkpt lat="36.079858" lon="-5.651398">
        <ele>345</ele>
        <time>2018-10-17T07:53:00.000Z</time>
      </trkpt>
      <trkpt lat="36.079908" lon="-5.651424">
        <ele>346</ele>
        <time>2018-10-17T07:53:04.000Z</time>
      </trkpt>
      <trkpt lat="36.079948" lon="-5.65144">
        <ele>349</ele>
        <time>2018-10-17T07:53:10.000Z</time>
      </trkpt>
      <trkpt lat="36.079996" lon="-5.651462">
        <ele>349</ele>
        <time>2018-10-17T07:53:14.000Z</time>
      </trkpt>
      <trkpt lat="36.080036" lon="-5.651484">
        <ele>349</ele>
        <time>2018-10-17T07:53:16.000Z</time>
      </trkpt>
      <trkpt lat="36.080076" lon="-5.651504">
        <ele>350</ele>
        <time>2018-10-17T07:53:18.000Z</time>
      </trkpt>
      <trkpt lat="36.080118" lon="-5.651526">
        <ele>351.603449417373</ele>
        <time>2018-10-17T07:53:21.000Z</time>
      </trkpt>
      <trkpt lat="36.080158" lon="-5.651541">
        <ele>352.630634578351</ele>
        <time>2018-10-17T07:53:24.000Z</time>
      </trkpt>
      <trkpt lat="36.080193" lon="-5.65157">
        <ele>354</ele>
        <time>2018-10-17T07:53:29.000Z</time>
      </trkpt>
      <trkpt lat="36.08023" lon="-5.65158">
        <ele>355</ele>
        <time>2018-10-17T07:53:32.000Z</time>
      </trkpt>
      <trkpt lat="36.08027" lon="-5.651592">
        <ele>355</ele>
        <time>2018-10-17T07:53:35.000Z</time>
      </trkpt>
      <trkpt lat="36.080296" lon="-5.651638">
        <ele>356</ele>
        <time>2018-10-17T07:53:38.000Z</time>
      </trkpt>
      <trkpt lat="36.080282" lon="-5.651692">
        <ele>356.464297142857</ele>
        <time>2018-10-17T07:53:41.000Z</time>
      </trkpt>
      <trkpt lat="36.080284" lon="-5.651748">
        <ele>357.699997440033</ele>
        <time>2018-10-17T07:53:44.000Z</time>
      </trkpt>
      <trkpt lat="36.080316" lon="-5.65178">
        <ele>358</ele>
        <time>2018-10-17T07:53:47.000Z</time>
      </trkpt>
      <trkpt lat="36.08035" lon="-5.651803">
        <ele>358.65420963227</ele>
        <time>2018-10-17T07:53:50.000Z</time>
      </trkpt>
      <trkpt lat="36.080376" lon="-5.651832">
        <ele>360</ele>
        <time>2018-10-17T07:53:53.000Z</time>
      </trkpt>
      <trkpt lat="36.080406" lon="-5.65186">
        <ele>361</ele>
        <time>2018-10-17T07:53:56.000Z</time>
      </trkpt>
      <trkpt lat="36.080416" lon="-5.651902">
        <ele>361</ele>
        <time>2018-10-17T07:54:00.000Z</time>
      </trkpt>
      <trkpt lat="36.080402" lon="-5.65195">
        <ele>362</ele>
        <time>2018-10-17T07:54:05.000Z</time>
      </trkpt>
      <trkpt lat="36.080392" lon="-5.651991">
        <ele>364</ele>
        <time>2018-10-17T07:54:10.000Z</time>
      </trkpt>
      <trkpt lat="36.080406" lon="-5.65204">
        <ele>365</ele>
        <time>2018-10-17T07:54:13.000Z</time>
      </trkpt>
      <trkpt lat="36.080435" lon="-5.652071">
        <ele>366.651157944871</ele>
        <time>2018-10-17T07:54:16.000Z</time>
      </trkpt>
      <trkpt lat="36.080473" lon="-5.652085">
        <ele>367</ele>
        <time>2018-10-17T07:54:20.000Z</time>
      </trkpt>
      <trkpt lat="36.080521" lon="-5.652086">
        <ele>367</ele>
        <time>2018-10-17T07:54:24.000Z</time>
      </trkpt>
      <trkpt lat="36.080534" lon="-5.652139">
        <ele>368.624994285714</ele>
        <time>2018-10-17T07:54:27.000Z</time>
      </trkpt>
      <trkpt lat="36.080555" lon="-5.652177">
        <ele>369</ele>
        <time>2018-10-17T07:54:29.000Z</time>
      </trkpt>
      <trkpt lat="36.080596" lon="-5.652213">
        <ele>369</ele>
        <time>2018-10-17T07:54:32.000Z</time>
      </trkpt>
      <trkpt lat="36.080623" lon="-5.652264">
        <ele>371</ele>
        <time>2018-10-17T07:54:35.000Z</time>
      </trkpt>
      <trkpt lat="36.080642" lon="-5.652311">
        <ele>370</ele>
        <time>2018-10-17T07:54:37.000Z</time>
      </trkpt>
      <trkpt lat="36.080662" lon="-5.652352">
        <ele>371.700002560033</ele>
        <time>2018-10-17T07:54:39.000Z</time>
      </trkpt>
      <trkpt lat="36.080686" lon="-5.652387">
        <ele>372</ele>
        <time>2018-10-17T07:54:41.000Z</time>
      </trkpt>
      <trkpt lat="36.080701" lon="-5.65244">
        <ele>372.686276478265</ele>
        <time>2018-10-17T07:54:44.000Z</time>
      </trkpt>
      <trkpt lat="36.080769" lon="-5.65254">
        <ele>374</ele>
        <time>2018-10-17T07:54:51.000Z</time>
      </trkpt>
      <trkpt lat="36.080798" lon="-5.652658">
        <ele>375</ele>
        <time>2018-10-17T07:54:57.000Z</time>
      </trkpt>
      <trkpt lat="36.080804" lon="-5.652709">
        <ele>376</ele>
        <time>2018-10-17T07:55:00.000Z</time>
      </trkpt>
      <trkpt lat="36.080834" lon="-5.652748">
        <ele>376</ele>
        <time>2018-10-17T07:55:03.000Z</time>
      </trkpt>
      <trkpt lat="36.080882" lon="-5.652755">
        <ele>376.67741580302</ele>
        <time>2018-10-17T07:55:06.000Z</time>
      </trkpt>
      <trkpt lat="36.080921" lon="-5.652755">
        <ele>378</ele>
        <time>2018-10-17T07:55:08.000Z</time>
      </trkpt>
      <trkpt lat="36.080966" lon="-5.652745">
        <ele>378.476920956244</ele>
        <time>2018-10-17T07:55:11.000Z</time>
      </trkpt>
      <trkpt lat="36.080999" lon="-5.652761">
        <ele>379</ele>
        <time>2018-10-17T07:55:13.000Z</time>
      </trkpt>
      <trkpt lat="36.081036" lon="-5.652806">
        <ele>379</ele>
        <time>2018-10-17T07:55:16.000Z</time>
      </trkpt>
      <trkpt lat="36.081066" lon="-5.65286">
        <ele>380</ele>
        <time>2018-10-17T07:55:19.000Z</time>
      </trkpt>
      <trkpt lat="36.081081" lon="-5.652905">
        <ele>380.690727227141</ele>
        <time>2018-10-17T07:55:21.000Z</time>
      </trkpt>
      <trkpt lat="36.081081" lon="-5.652952">
        <ele>381.632185260928</ele>
        <time>2018-10-17T07:55:23.000Z</time>
      </trkpt>
      <trkpt lat="36.081068" lon="-5.653008">
        <ele>382</ele>
        <time>2018-10-17T07:55:25.000Z</time>
      </trkpt>
      <trkpt lat="36.081063" lon="-5.65306">
        <ele>383.552231392328</ele>
        <time>2018-10-17T07:55:28.000Z</time>
      </trkpt>
      <trkpt lat="36.08105" lon="-5.6531">
        <ele>384</ele>
        <time>2018-10-17T07:55:30.000Z</time>
      </trkpt>
      <trkpt lat="36.081042" lon="-5.653152">
        <ele>384</ele>
        <time>2018-10-17T07:55:32.000Z</time>
      </trkpt>
      <trkpt lat="36.08104" lon="-5.653212">
        <ele>384</ele>
        <time>2018-10-17T07:55:35.000Z</time>
      </trkpt>
      <trkpt lat="36.081058" lon="-5.653267">
        <ele>385.699997440033</ele>
        <time>2018-10-17T07:55:38.000Z</time>
      </trkpt>
      <trkpt lat="36.081078" lon="-5.653319">
        <ele>386.700002560033</ele>
        <time>2018-10-17T07:55:41.000Z</time>
      </trkpt>
      <trkpt lat="36.081088" lon="-5.65336">
        <ele>387</ele>
        <time>2018-10-17T07:55:43.000Z</time>
      </trkpt>
      <trkpt lat="36.081091" lon="-5.653408">
        <ele>387</ele>
        <time>2018-10-17T07:55:45.000Z</time>
      </trkpt>
      <trkpt lat="36.081102" lon="-5.653452">
        <ele>387</ele>
        <time>2018-10-17T07:55:47.000Z</time>
      </trkpt>
      <trkpt lat="36.081119" lon="-5.653501">
        <ele>387.565224650317</ele>
        <time>2018-10-17T07:55:49.000Z</time>
      </trkpt>
      <trkpt lat="36.081137" lon="-5.653549">
        <ele>388</ele>
        <time>2018-10-17T07:55:51.000Z</time>
      </trkpt>
      <trkpt lat="36.081168" lon="-5.653606">
        <ele>388</ele>
        <time>2018-10-17T07:55:54.000Z</time>
      </trkpt>
      <trkpt lat="36.081194" lon="-5.653636">
        <ele>389</ele>
        <time>2018-10-17T07:55:56.000Z</time>
      </trkpt>
      <trkpt lat="36.08122" lon="-5.653679">
        <ele>389</ele>
        <time>2018-10-17T07:55:58.000Z</time>
      </trkpt>
      <trkpt lat="36.081243" lon="-5.653718">
        <ele>389.598217142857</ele>
        <time>2018-10-17T07:56:00.000Z</time>
      </trkpt>
      <trkpt lat="36.08127" lon="-5.653761">
        <ele>391</ele>
        <time>2018-10-17T07:56:02.000Z</time>
      </trkpt>
      <trkpt lat="36.081301" lon="-5.653815">
        <ele>391</ele>
        <time>2018-10-17T07:56:05.000Z</time>
      </trkpt>
      <trkpt lat="36.081325" lon="-5.653871">
        <ele>391</ele>
        <time>2018-10-17T07:56:08.000Z</time>
      </trkpt>
      <trkpt lat="36.081348" lon="-5.653911">
        <ele>391.347821247704</ele>
        <time>2018-10-17T07:56:10.000Z</time>
      </trkpt>
      <trkpt lat="36.081363" lon="-5.653958">
        <ele>392</ele>
        <time>2018-10-17T07:56:12.000Z</time>
      </trkpt>
      <trkpt lat="36.081377" lon="-5.654007">
        <ele>392</ele>
        <time>2018-10-17T07:56:14.000Z</time>
      </trkpt>
      <trkpt lat="36.081395" lon="-5.654049">
        <ele>393</ele>
        <time>2018-10-17T07:56:16.000Z</time>
      </trkpt>
      <trkpt lat="36.081424" lon="-5.654081">
        <ele>393</ele>
        <time>2018-10-17T07:56:18.000Z</time>
      </trkpt>
      <trkpt lat="36.081454" lon="-5.654125">
        <ele>394</ele>
        <time>2018-10-17T07:56:21.000Z</time>
      </trkpt>
      <trkpt lat="36.081477" lon="-5.654162">
        <ele>394.648149903999</ele>
        <time>2018-10-17T07:56:23.000Z</time>
      </trkpt>
      <trkpt lat="36.081502" lon="-5.654208">
        <ele>397</ele>
        <time>2018-10-17T07:56:26.000Z</time>
      </trkpt>
      <trkpt lat="36.081529" lon="-5.654249">
        <ele>397</ele>
        <time>2018-10-17T07:56:29.000Z</time>
      </trkpt>
      <trkpt lat="36.081546" lon="-5.654305">
        <ele>398.630630318965</ele>
        <time>2018-10-17T07:56:33.000Z</time>
      </trkpt>
      <trkpt lat="36.081555" lon="-5.654346">
        <ele>399.700002560033</ele>
        <time>2018-10-17T07:56:35.000Z</time>
      </trkpt>
      <trkpt lat="36.081559" lon="-5.654409">
        <ele>400</ele>
        <time>2018-10-17T07:56:38.000Z</time>
      </trkpt>
      <trkpt lat="36.081563" lon="-5.654467">
        <ele>401</ele>
        <time>2018-10-17T07:56:41.000Z</time>
      </trkpt>
      <trkpt lat="36.081562" lon="-5.654524">
        <ele>401</ele>
        <time>2018-10-17T07:56:44.000Z</time>
      </trkpt>
      <trkpt lat="36.081574" lon="-5.65458">
        <ele>402</ele>
        <time>2018-10-17T07:56:47.000Z</time>
      </trkpt>
      <trkpt lat="36.081595" lon="-5.654634">
        <ele>402</ele>
        <time>2018-10-17T07:56:50.000Z</time>
      </trkpt>
      <trkpt lat="36.081622" lon="-5.654679">
        <ele>404</ele>
        <time>2018-10-17T07:56:53.000Z</time>
      </trkpt>
      <trkpt lat="36.081636" lon="-5.654719">
        <ele>404.670323796664</ele>
        <time>2018-10-17T07:56:56.000Z</time>
      </trkpt>
      <trkpt lat="36.081639" lon="-5.65476">
        <ele>405</ele>
        <time>2018-10-17T07:56:59.000Z</time>
      </trkpt>
      <trkpt lat="36.081647" lon="-5.654808">
        <ele>406.699997440033</ele>
        <time>2018-10-17T07:57:02.000Z</time>
      </trkpt>
      <trkpt lat="36.081656" lon="-5.654861">
        <ele>407</ele>
        <time>2018-10-17T07:57:05.000Z</time>
      </trkpt>
      <trkpt lat="36.081673" lon="-5.654907">
        <ele>408</ele>
        <time>2018-10-17T07:57:08.000Z</time>
      </trkpt>
      <trkpt lat="36.081702" lon="-5.654954">
        <ele>409</ele>
        <time>2018-10-17T07:57:11.000Z</time>
      </trkpt>
      <trkpt lat="36.081726" lon="-5.654996">
        <ele>410.696964211833</ele>
        <time>2018-10-17T07:57:14.000Z</time>
      </trkpt>
      <trkpt lat="36.081743" lon="-5.655036">
        <ele>411.693882082495</ele>
        <time>2018-10-17T07:57:17.000Z</time>
      </trkpt>
      <trkpt lat="36.08175" lon="-5.655076">
        <ele>413</ele>
        <time>2018-10-17T07:57:20.000Z</time>
      </trkpt>
      <trkpt lat="36.08176" lon="-5.655123">
        <ele>413</ele>
        <time>2018-10-17T07:57:23.000Z</time>
      </trkpt>
      <trkpt lat="36.081766" lon="-5.65517">
        <ele>414</ele>
        <time>2018-10-17T07:57:27.000Z</time>
      </trkpt>
      <trkpt lat="36.081779" lon="-5.65521">
        <ele>415.700002560033</ele>
        <time>2018-10-17T07:57:31.000Z</time>
      </trkpt>
      <trkpt lat="36.081783" lon="-5.655256">
        <ele>417</ele>
        <time>2018-10-17T07:57:35.000Z</time>
      </trkpt>
      <trkpt lat="36.081792" lon="-5.655303">
        <ele>419</ele>
        <time>2018-10-17T07:57:39.000Z</time>
      </trkpt>
      <trkpt lat="36.081808" lon="-5.655343">
        <ele>419</ele>
        <time>2018-10-17T07:57:42.000Z</time>
      </trkpt>
      <trkpt lat="36.081821" lon="-5.655403">
        <ele>419.919536847681</ele>
        <time>2018-10-17T07:57:46.000Z</time>
      </trkpt>
      <trkpt lat="36.081831" lon="-5.655456">
        <ele>421</ele>
        <time>2018-10-17T07:57:49.000Z</time>
      </trkpt>
      <trkpt lat="36.081837" lon="-5.655502">
        <ele>422.65420963227</ele>
        <time>2018-10-17T07:57:52.000Z</time>
      </trkpt>
      <trkpt lat="36.081837" lon="-5.655551">
        <ele>425</ele>
        <time>2018-10-17T07:57:55.000Z</time>
      </trkpt>
      <trkpt lat="36.08185" lon="-5.655598">
        <ele>425</ele>
        <time>2018-10-17T07:57:59.000Z</time>
      </trkpt>
      <trkpt lat="36.081875" lon="-5.655634">
        <ele>425.565214165136</ele>
        <time>2018-10-17T07:58:02.000Z</time>
      </trkpt>
      <trkpt lat="36.081904" lon="-5.655665">
        <ele>426</ele>
        <time>2018-10-17T07:58:04.000Z</time>
      </trkpt>
      <trkpt lat="36.081937" lon="-5.655687">
        <ele>426</ele>
        <time>2018-10-17T07:58:06.000Z</time>
      </trkpt>
      <trkpt lat="36.08199" lon="-5.655689">
        <ele>426</ele>
        <time>2018-10-17T07:58:09.000Z</time>
      </trkpt>
      <trkpt lat="36.082028" lon="-5.655674">
        <ele>426</ele>
        <time>2018-10-17T07:58:11.000Z</time>
      </trkpt>
      <trkpt lat="36.082065" lon="-5.655644">
        <ele>427</ele>
        <time>2018-10-17T07:58:14.000Z</time>
      </trkpt>
      <trkpt lat="36.082111" lon="-5.655625">
        <ele>428</ele>
        <time>2018-10-17T07:58:17.000Z</time>
      </trkpt>
      <trkpt lat="36.082152" lon="-5.65561">
        <ele>430.522390340822</ele>
        <time>2018-10-17T07:58:20.000Z</time>
      </trkpt>
      <trkpt lat="36.082183" lon="-5.655587">
        <ele>431</ele>
        <time>2018-10-17T07:58:22.000Z</time>
      </trkpt>
      <trkpt lat="36.082218" lon="-5.655565">
        <ele>431</ele>
        <time>2018-10-17T07:58:24.000Z</time>
      </trkpt>
      <trkpt lat="36.082262" lon="-5.65557">
        <ele>432</ele>
        <time>2018-10-17T07:58:28.000Z</time>
      </trkpt>
      <trkpt lat="36.082297" lon="-5.655547">
        <ele>433</ele>
        <time>2018-10-17T07:58:31.000Z</time>
      </trkpt>
      <trkpt lat="36.08233" lon="-5.655527">
        <ele>435</ele>
        <time>2018-10-17T07:58:34.000Z</time>
      </trkpt>
      <trkpt lat="36.082363" lon="-5.655505">
        <ele>436</ele>
        <time>2018-10-17T07:58:37.000Z</time>
      </trkpt>
      <trkpt lat="36.082388" lon="-5.655467">
        <ele>437.700002560033</ele>
        <time>2018-10-17T07:58:43.000Z</time>
      </trkpt>
      <trkpt lat="36.082418" lon="-5.655449">
        <ele>438</ele>
        <time>2018-10-17T07:58:47.000Z</time>
      </trkpt>
      <trkpt lat="36.082462" lon="-5.655451">
        <ele>439</ele>
        <time>2018-10-17T07:58:50.000Z</time>
      </trkpt>
      <trkpt lat="36.082504" lon="-5.655444">
        <ele>440</ele>
        <time>2018-10-17T07:58:52.000Z</time>
      </trkpt>
      <trkpt lat="36.082555" lon="-5.655425">
        <ele>439.34579036773</ele>
        <time>2018-10-17T07:58:54.000Z</time>
      </trkpt>
      <trkpt lat="36.082603" lon="-5.655406">
        <ele>439</ele>
        <time>2018-10-17T07:58:56.000Z</time>
      </trkpt>
      <trkpt lat="36.082657" lon="-5.655405">
        <ele>439</ele>
        <time>2018-10-17T07:58:58.000Z</time>
      </trkpt>
      <trkpt lat="36.082718" lon="-5.655414">
        <ele>438</ele>
        <time>2018-10-17T07:59:00.000Z</time>
      </trkpt>
      <trkpt lat="36.082772" lon="-5.655422">
        <ele>437.363634247946</ele>
        <time>2018-10-17T07:59:02.000Z</time>
      </trkpt>
      <trkpt lat="36.082828" lon="-5.655434">
        <ele>436</ele>
        <time>2018-10-17T07:59:04.000Z</time>
      </trkpt>
      <trkpt lat="36.082884" lon="-5.655448">
        <ele>436</ele>
        <time>2018-10-17T07:59:06.000Z</time>
      </trkpt>
      <trkpt lat="36.082938" lon="-5.655467">
        <ele>436</ele>
        <time>2018-10-17T07:59:08.000Z</time>
      </trkpt>
      <trkpt lat="36.082954" lon="-5.655506">
        <ele>435</ele>
        <time>2018-10-17T07:59:10.000Z</time>
      </trkpt>
      <trkpt lat="36.08293" lon="-5.655562">
        <ele>434</ele>
        <time>2018-10-17T07:59:12.000Z</time>
      </trkpt>
      <trkpt lat="36.082894" lon="-5.655616">
        <ele>434</ele>
        <time>2018-10-17T07:59:14.000Z</time>
      </trkpt>
      <trkpt lat="36.08286" lon="-5.655675">
        <ele>432.436894169111</ele>
        <time>2018-10-17T07:59:16.000Z</time>
      </trkpt>
      <trkpt lat="36.082822" lon="-5.655741">
        <ele>432</ele>
        <time>2018-10-17T07:59:18.000Z</time>
      </trkpt>
      <trkpt lat="36.082778" lon="-5.65581">
        <ele>432</ele>
        <time>2018-10-17T07:59:20.000Z</time>
      </trkpt>
      <trkpt lat="36.082756" lon="-5.655852">
        <ele>431.299997439967</ele>
        <time>2018-10-17T07:59:21.000Z</time>
      </trkpt>
      <trkpt lat="36.082734" lon="-5.655896">
        <ele>431</ele>
        <time>2018-10-17T07:59:22.000Z</time>
      </trkpt>
      <trkpt lat="36.082712" lon="-5.655941">
        <ele>431</ele>
        <time>2018-10-17T07:59:23.000Z</time>
      </trkpt>
      <trkpt lat="36.082688" lon="-5.655983">
        <ele>430</ele>
        <time>2018-10-17T07:59:24.000Z</time>
      </trkpt>
      <trkpt lat="36.082664" lon="-5.656023">
        <ele>430</ele>
        <time>2018-10-17T07:59:25.000Z</time>
      </trkpt>
      <trkpt lat="36.082642" lon="-5.65606">
        <ele>428.727268495892</ele>
        <time>2018-10-17T07:59:26.000Z</time>
      </trkpt>
      <trkpt lat="36.08262" lon="-5.656109">
        <ele>427.571428571429</ele>
        <time>2018-10-17T07:59:27.000Z</time>
      </trkpt>
      <trkpt lat="36.082598" lon="-5.656146">
        <ele>427</ele>
        <time>2018-10-17T07:59:28.000Z</time>
      </trkpt>
      <trkpt lat="36.082566" lon="-5.656177">
        <ele>426.299997439967</ele>
        <time>2018-10-17T07:59:29.000Z</time>
      </trkpt>
      <trkpt lat="36.082508" lon="-5.656218">
        <ele>425</ele>
        <time>2018-10-17T07:59:31.000Z</time>
      </trkpt>
      <trkpt lat="36.082452" lon="-5.656244">
        <ele>425</ele>
        <time>2018-10-17T07:59:33.000Z</time>
      </trkpt>
      <trkpt lat="36.082399" lon="-5.65626">
        <ele>426</ele>
        <time>2018-10-17T07:59:35.000Z</time>
      </trkpt>
      <trkpt lat="36.082346" lon="-5.656264">
        <ele>426</ele>
        <time>2018-10-17T07:59:37.000Z</time>
      </trkpt>
      <trkpt lat="36.082296" lon="-5.656262">
        <ele>426</ele>
        <time>2018-10-17T07:59:39.000Z</time>
      </trkpt>
      <trkpt lat="36.082242" lon="-5.65625">
        <ele>426</ele>
        <time>2018-10-17T07:59:41.000Z</time>
      </trkpt>
      <trkpt lat="36.082192" lon="-5.656233">
        <ele>426</ele>
        <time>2018-10-17T07:59:43.000Z</time>
      </trkpt>
      <trkpt lat="36.082138" lon="-5.656214">
        <ele>426</ele>
        <time>2018-10-17T07:59:45.000Z</time>
      </trkpt>
      <trkpt lat="36.082084" lon="-5.656186">
        <ele>426</ele>
        <time>2018-10-17T07:59:47.000Z</time>
      </trkpt>
      <trkpt lat="36.082044" lon="-5.656159">
        <ele>427</ele>
        <time>2018-10-17T07:59:49.000Z</time>
      </trkpt>
      <trkpt lat="36.082002" lon="-5.656132">
        <ele>427</ele>
        <time>2018-10-17T07:59:51.000Z</time>
      </trkpt>
      <trkpt lat="36.08197" lon="-5.656106">
        <ele>428</ele>
        <time>2018-10-17T07:59:53.000Z</time>
      </trkpt>
      <trkpt lat="36.081956" lon="-5.656065">
        <ele>428.51145157508</ele>
        <time>2018-10-17T07:59:55.000Z</time>
      </trkpt>
      <trkpt lat="36.081942" lon="-5.656046">
        <ele>429</ele>
        <time>2018-10-17T07:59:56.000Z</time>
      </trkpt>
      <trkpt lat="36.081938" lon="-5.655986">
        <ele>429.99684449742</ele>
        <time>2018-10-17T08:01:31.000Z</time>
      </trkpt>
      <trkpt lat="36.081951" lon="-5.655957">
        <ele>431</ele>
        <time>2018-10-17T08:01:33.000Z</time>
      </trkpt>
      <trkpt lat="36.081972" lon="-5.655901">
        <ele>430.552231392328</ele>
        <time>2018-10-17T08:01:36.000Z</time>
      </trkpt>
      <trkpt lat="36.081999" lon="-5.655865">
        <ele>431</ele>
        <time>2018-10-17T08:01:39.000Z</time>
      </trkpt>
      <trkpt lat="36.082013" lon="-5.655814">
        <ele>431</ele>
        <time>2018-10-17T08:01:42.000Z</time>
      </trkpt>
      <trkpt lat="36.082029" lon="-5.655773">
        <ele>431</ele>
        <time>2018-10-17T08:01:45.000Z</time>
      </trkpt>
      <trkpt lat="36.082055" lon="-5.655732">
        <ele>431</ele>
        <time>2018-10-17T08:01:48.000Z</time>
      </trkpt>
      <trkpt lat="36.082077" lon="-5.655695">
        <ele>431</ele>
        <time>2018-10-17T08:01:50.000Z</time>
      </trkpt>
      <trkpt lat="36.082104" lon="-5.655649">
        <ele>431.699997440033</ele>
        <time>2018-10-17T08:01:54.000Z</time>
      </trkpt>
      <trkpt lat="36.082138" lon="-5.655622">
        <ele>432</ele>
        <time>2018-10-17T08:01:57.000Z</time>
      </trkpt>
      <trkpt lat="36.082171" lon="-5.655584">
        <ele>433</ele>
        <time>2018-10-17T08:02:01.000Z</time>
      </trkpt>
      <trkpt lat="36.082204" lon="-5.655553">
        <ele>433</ele>
        <time>2018-10-17T08:02:05.000Z</time>
      </trkpt>
      <trkpt lat="36.082243" lon="-5.655567">
        <ele>436</ele>
        <time>2018-10-17T08:02:11.000Z</time>
      </trkpt>
      <trkpt lat="36.082274" lon="-5.655549">
        <ele>437</ele>
        <time>2018-10-17T08:02:14.000Z</time>
      </trkpt>
      <trkpt lat="36.082308" lon="-5.655516">
        <ele>438.53126</ele>
        <time>2018-10-17T08:02:19.000Z</time>
      </trkpt>
      <trkpt lat="36.08233" lon="-5.655494">
        <ele>440</ele>
        <time>2018-10-17T08:02:23.000Z</time>
      </trkpt>
      <trkpt lat="36.082361" lon="-5.655468">
        <ele>441</ele>
        <time>2018-10-17T08:02:27.000Z</time>
      </trkpt>
      <trkpt lat="36.082388" lon="-5.655447">
        <ele>442</ele>
        <time>2018-10-17T08:02:30.000Z</time>
      </trkpt>
      <trkpt lat="36.082427" lon="-5.655438">
        <ele>442.673083076923</ele>
        <time>2018-10-17T08:02:34.000Z</time>
      </trkpt>
      <trkpt lat="36.08246" lon="-5.655423">
        <ele>443</ele>
        <time>2018-10-17T08:02:37.000Z</time>
      </trkpt>
      <trkpt lat="36.082516" lon="-5.655417">
        <ele>443</ele>
        <time>2018-10-17T08:02:40.000Z</time>
      </trkpt>
      <trkpt lat="36.082558" lon="-5.655409">
        <ele>443</ele>
        <time>2018-10-17T08:02:42.000Z</time>
      </trkpt>
      <trkpt lat="36.082602" lon="-5.655399">
        <ele>443</ele>
        <time>2018-10-17T08:02:44.000Z</time>
      </trkpt>
      <trkpt lat="36.082642" lon="-5.655404">
        <ele>442.300002559967</ele>
        <time>2018-10-17T08:02:46.000Z</time>
      </trkpt>
      <trkpt lat="36.082692" lon="-5.655413">
        <ele>443</ele>
        <time>2018-10-17T08:02:48.000Z</time>
      </trkpt>
      <trkpt lat="36.082746" lon="-5.655417">
        <ele>443</ele>
        <time>2018-10-17T08:02:50.000Z</time>
      </trkpt>
      <trkpt lat="36.082807" lon="-5.65542">
        <ele>440.600002844424</ele>
        <time>2018-10-17T08:02:52.000Z</time>
      </trkpt>
      <trkpt lat="36.082837" lon="-5.655419">
        <ele>440</ele>
        <time>2018-10-17T08:02:53.000Z</time>
      </trkpt>
      <trkpt lat="36.082894" lon="-5.655421">
        <ele>440</ele>
        <time>2018-10-17T08:02:55.000Z</time>
      </trkpt>
      <trkpt lat="36.082956" lon="-5.655425">
        <ele>439.306934833853</ele>
        <time>2018-10-17T08:02:57.000Z</time>
      </trkpt>
      <trkpt lat="36.083006" lon="-5.655428">
        <ele>438</ele>
        <time>2018-10-17T08:02:59.000Z</time>
      </trkpt>
      <trkpt lat="36.083057" lon="-5.655429">
        <ele>438.673915463172</ele>
        <time>2018-10-17T08:03:01.000Z</time>
      </trkpt>
      <trkpt lat="36.0831" lon="-5.655416">
        <ele>439</ele>
        <time>2018-10-17T08:03:03.000Z</time>
      </trkpt>
      <trkpt lat="36.08314" lon="-5.655384">
        <ele>439.655912794539</ele>
        <time>2018-10-17T08:03:05.000Z</time>
      </trkpt>
      <trkpt lat="36.083179" lon="-5.655348">
        <ele>440</ele>
        <time>2018-10-17T08:03:07.000Z</time>
      </trkpt>
      <trkpt lat="36.083209" lon="-5.655306">
        <ele>441</ele>
        <time>2018-10-17T08:03:09.000Z</time>
      </trkpt>
      <trkpt lat="36.083247" lon="-5.655264">
        <ele>441</ele>
        <time>2018-10-17T08:03:11.000Z</time>
      </trkpt>
      <trkpt lat="36.083282" lon="-5.65523">
        <ele>442</ele>
        <time>2018-10-17T08:03:13.000Z</time>
      </trkpt>
      <trkpt lat="36.083322" lon="-5.655206">
        <ele>442</ele>
        <time>2018-10-17T08:03:15.000Z</time>
      </trkpt>
      <trkpt lat="36.083364" lon="-5.655168">
        <ele>442</ele>
        <time>2018-10-17T08:03:17.000Z</time>
      </trkpt>
      <trkpt lat="36.083402" lon="-5.655132">
        <ele>442.648149903999</ele>
        <time>2018-10-17T08:03:19.000Z</time>
      </trkpt>
      <trkpt lat="36.083436" lon="-5.655096">
        <ele>443</ele>
        <time>2018-10-17T08:03:21.000Z</time>
      </trkpt>
      <trkpt lat="36.083467" lon="-5.655054">
        <ele>443</ele>
        <time>2018-10-17T08:03:23.000Z</time>
      </trkpt>
      <trkpt lat="36.083505" lon="-5.65501">
        <ele>443</ele>
        <time>2018-10-17T08:03:25.000Z</time>
      </trkpt>
      <trkpt lat="36.083537" lon="-5.65496">
        <ele>443</ele>
        <time>2018-10-17T08:03:27.000Z</time>
      </trkpt>
      <trkpt lat="36.083575" lon="-5.65491">
        <ele>443</ele>
        <time>2018-10-17T08:03:29.000Z</time>
      </trkpt>
      <trkpt lat="36.083614" lon="-5.654857">
        <ele>443.476187573652</ele>
        <time>2018-10-17T08:03:31.000Z</time>
      </trkpt>
      <trkpt lat="36.083648" lon="-5.654814">
        <ele>444</ele>
        <time>2018-10-17T08:03:33.000Z</time>
      </trkpt>
      <trkpt lat="36.083685" lon="-5.65477">
        <ele>444</ele>
        <time>2018-10-17T08:03:35.000Z</time>
      </trkpt>
      <trkpt lat="36.083724" lon="-5.654739">
        <ele>444</ele>
        <time>2018-10-17T08:03:37.000Z</time>
      </trkpt>
      <trkpt lat="36.083761" lon="-5.6547">
        <ele>445</ele>
        <time>2018-10-17T08:03:39.000Z</time>
      </trkpt>
      <trkpt lat="36.083798" lon="-5.654654">
        <ele>445</ele>
        <time>2018-10-17T08:03:42.000Z</time>
      </trkpt>
      <trkpt lat="36.083831" lon="-5.654621">
        <ele>445.48717808459</ele>
        <time>2018-10-17T08:03:44.000Z</time>
      </trkpt>
      <trkpt lat="36.083865" lon="-5.654586">
        <ele>446</ele>
        <time>2018-10-17T08:03:46.000Z</time>
      </trkpt>
      <trkpt lat="36.08389" lon="-5.654552">
        <ele>447.699997440033</ele>
        <time>2018-10-17T08:03:48.000Z</time>
      </trkpt>
      <trkpt lat="36.083919" lon="-5.654522">
        <ele>448</ele>
        <time>2018-10-17T08:03:50.000Z</time>
      </trkpt>
      <trkpt lat="36.083951" lon="-5.654499">
        <ele>448</ele>
        <time>2018-10-17T08:03:52.000Z</time>
      </trkpt>
      <trkpt lat="36.083989" lon="-5.654472">
        <ele>449</ele>
        <time>2018-10-17T08:03:54.000Z</time>
      </trkpt>
      <trkpt lat="36.084024" lon="-5.654442">
        <ele>449</ele>
        <time>2018-10-17T08:03:56.000Z</time>
      </trkpt>
      <trkpt lat="36.084058" lon="-5.654422">
        <ele>450.68084642828</ele>
        <time>2018-10-17T08:03:58.000Z</time>
      </trkpt>
      <trkpt lat="36.084089" lon="-5.654402">
        <ele>451</ele>
        <time>2018-10-17T08:04:00.000Z</time>
      </trkpt>
      <trkpt lat="36.084138" lon="-5.654384">
        <ele>451</ele>
        <time>2018-10-17T08:04:03.000Z</time>
      </trkpt>
      <trkpt lat="36.084187" lon="-5.654356">
        <ele>452</ele>
        <time>2018-10-17T08:04:06.000Z</time>
      </trkpt>
      <trkpt lat="36.084232" lon="-5.654338">
        <ele>452</ele>
        <time>2018-10-17T08:04:08.000Z</time>
      </trkpt>
      <trkpt lat="36.08428" lon="-5.654326">
        <ele>452</ele>
        <time>2018-10-17T08:04:10.000Z</time>
      </trkpt>
      <trkpt lat="36.084329" lon="-5.654312">
        <ele>452</ele>
        <time>2018-10-17T08:04:12.000Z</time>
      </trkpt>
      <trkpt lat="36.084376" lon="-5.654296">
        <ele>453</ele>
        <time>2018-10-17T08:04:14.000Z</time>
      </trkpt>
      <trkpt lat="36.084413" lon="-5.654284">
        <ele>453</ele>
        <time>2018-10-17T08:04:16.000Z</time>
      </trkpt>
      <trkpt lat="36.08445" lon="-5.654276">
        <ele>453</ele>
        <time>2018-10-17T08:04:18.000Z</time>
      </trkpt>
      <trkpt lat="36.08449" lon="-5.654262">
        <ele>453.634141392067</ele>
        <time>2018-10-17T08:04:20.000Z</time>
      </trkpt>
      <trkpt lat="36.084529" lon="-5.654249">
        <ele>454</ele>
        <time>2018-10-17T08:04:22.000Z</time>
      </trkpt>
      <trkpt lat="36.084578" lon="-5.654221">
        <ele>455.547827345176</ele>
        <time>2018-10-17T08:04:25.000Z</time>
      </trkpt>
      <trkpt lat="36.084618" lon="-5.654206">
        <ele>456</ele>
        <time>2018-10-17T08:04:27.000Z</time>
      </trkpt>
      <trkpt lat="36.084669" lon="-5.654192">
        <ele>456</ele>
        <time>2018-10-17T08:04:29.000Z</time>
      </trkpt>
      <trkpt lat="36.08472" lon="-5.654178">
        <ele>457</ele>
        <time>2018-10-17T08:04:31.000Z</time>
      </trkpt>
      <trkpt lat="36.084769" lon="-5.65417">
        <ele>457</ele>
        <time>2018-10-17T08:04:33.000Z</time>
      </trkpt>
      <trkpt lat="36.084815" lon="-5.654168">
        <ele>457</ele>
        <time>2018-10-17T08:04:35.000Z</time>
      </trkpt>
      <trkpt lat="36.084858" lon="-5.65416">
        <ele>459</ele>
        <time>2018-10-17T08:04:37.000Z</time>
      </trkpt>
      <trkpt lat="36.084899" lon="-5.654157">
        <ele>459</ele>
        <time>2018-10-17T08:04:39.000Z</time>
      </trkpt>
      <trkpt lat="36.084948" lon="-5.654154">
        <ele>459</ele>
        <time>2018-10-17T08:04:41.000Z</time>
      </trkpt>
      <trkpt lat="36.084994" lon="-5.654156">
        <ele>459</ele>
        <time>2018-10-17T08:04:43.000Z</time>
      </trkpt>
      <trkpt lat="36.085037" lon="-5.654166">
        <ele>458</ele>
        <time>2018-10-17T08:04:45.000Z</time>
      </trkpt>
      <trkpt lat="36.085088" lon="-5.654174">
        <ele>458</ele>
        <time>2018-10-17T08:04:47.000Z</time>
      </trkpt>
      <trkpt lat="36.085143" lon="-5.654183">
        <ele>458.680855699443</ele>
        <time>2018-10-17T08:04:49.000Z</time>
      </trkpt>
      <trkpt lat="36.085198" lon="-5.654196">
        <ele>459</ele>
        <time>2018-10-17T08:04:51.000Z</time>
      </trkpt>
      <trkpt lat="36.08525" lon="-5.65421">
        <ele>459</ele>
        <time>2018-10-17T08:04:53.000Z</time>
      </trkpt>
      <trkpt lat="36.085302" lon="-5.654226">
        <ele>458.364711020089</ele>
        <time>2018-10-17T08:04:55.000Z</time>
      </trkpt>
      <trkpt lat="36.085354" lon="-5.65425">
        <ele>458</ele>
        <time>2018-10-17T08:04:57.000Z</time>
      </trkpt>
      <trkpt lat="36.085405" lon="-5.654268">
        <ele>458</ele>
        <time>2018-10-17T08:04:59.000Z</time>
      </trkpt>
      <trkpt lat="36.085455" lon="-5.654275">
        <ele>458</ele>
        <time>2018-10-17T08:05:01.000Z</time>
      </trkpt>
      <trkpt lat="36.085508" lon="-5.654287">
        <ele>458</ele>
        <time>2018-10-17T08:05:03.000Z</time>
      </trkpt>
      <trkpt lat="36.085556" lon="-5.654295">
        <ele>458</ele>
        <time>2018-10-17T08:05:05.000Z</time>
      </trkpt>
      <trkpt lat="36.085608" lon="-5.654304">
        <ele>458</ele>
        <time>2018-10-17T08:05:07.000Z</time>
      </trkpt>
      <trkpt lat="36.085659" lon="-5.654311">
        <ele>458.608695168238</ele>
        <time>2018-10-17T08:05:09.000Z</time>
      </trkpt>
      <trkpt lat="36.085709" lon="-5.654318">
        <ele>459</ele>
        <time>2018-10-17T08:05:11.000Z</time>
      </trkpt>
      <trkpt lat="36.085763" lon="-5.654325">
        <ele>459</ele>
        <time>2018-10-17T08:05:13.000Z</time>
      </trkpt>
      <trkpt lat="36.085817" lon="-5.654332">
        <ele>459</ele>
        <time>2018-10-17T08:05:15.000Z</time>
      </trkpt>
      <trkpt lat="36.085868" lon="-5.654342">
        <ele>459</ele>
        <time>2018-10-17T08:05:17.000Z</time>
      </trkpt>
      <trkpt lat="36.08592" lon="-5.654351">
        <ele>459</ele>
        <time>2018-10-17T08:05:19.000Z</time>
      </trkpt>
      <trkpt lat="36.085972" lon="-5.654356">
        <ele>459</ele>
        <time>2018-10-17T08:05:21.000Z</time>
      </trkpt>
      <trkpt lat="36.086028" lon="-5.654358">
        <ele>459</ele>
        <time>2018-10-17T08:05:23.000Z</time>
      </trkpt>
      <trkpt lat="36.086081" lon="-5.654359">
        <ele>458.560006143974</ele>
        <time>2018-10-17T08:05:25.000Z</time>
      </trkpt>
      <trkpt lat="36.086136" lon="-5.654356">
        <ele>459</ele>
        <time>2018-10-17T08:05:27.000Z</time>
      </trkpt>
      <trkpt lat="36.086194" lon="-5.654357">
        <ele>460</ele>
        <time>2018-10-17T08:05:29.000Z</time>
      </trkpt>
      <trkpt lat="36.086249" lon="-5.654356">
        <ele>460</ele>
        <time>2018-10-17T08:05:31.000Z</time>
      </trkpt>
      <trkpt lat="36.086303" lon="-5.654361">
        <ele>459</ele>
        <time>2018-10-17T08:05:33.000Z</time>
      </trkpt>
      <trkpt lat="36.086352" lon="-5.654369">
        <ele>459</ele>
        <time>2018-10-17T08:05:35.000Z</time>
      </trkpt>
      <trkpt lat="36.086402" lon="-5.654373">
        <ele>459</ele>
        <time>2018-10-17T08:05:37.000Z</time>
      </trkpt>
      <trkpt lat="36.086453" lon="-5.654378">
        <ele>459</ele>
        <time>2018-10-17T08:05:39.000Z</time>
      </trkpt>
      <trkpt lat="36.086499" lon="-5.654386">
        <ele>459</ele>
        <time>2018-10-17T08:05:41.000Z</time>
      </trkpt>
      <trkpt lat="36.086538" lon="-5.654402">
        <ele>459.700002560033</ele>
        <time>2018-10-17T08:05:43.000Z</time>
      </trkpt>
      <trkpt lat="36.086571" lon="-5.654429">
        <ele>460</ele>
        <time>2018-10-17T08:05:45.000Z</time>
      </trkpt>
      <trkpt lat="36.086605" lon="-5.654445">
        <ele>460.578508637378</ele>
        <time>2018-10-17T08:05:47.000Z</time>
      </trkpt>
      <trkpt lat="36.086657" lon="-5.654452">
        <ele>461</ele>
        <time>2018-10-17T08:05:50.000Z</time>
      </trkpt>
      <trkpt lat="36.086698" lon="-5.654458">
        <ele>462</ele>
        <time>2018-10-17T08:05:52.000Z</time>
      </trkpt>
      <trkpt lat="36.086744" lon="-5.654468">
        <ele>462</ele>
        <time>2018-10-17T08:05:54.000Z</time>
      </trkpt>
      <trkpt lat="36.086792" lon="-5.65448">
        <ele>462</ele>
        <time>2018-10-17T08:05:56.000Z</time>
      </trkpt>
      <trkpt lat="36.086836" lon="-5.654492">
        <ele>462</ele>
        <time>2018-10-17T08:05:58.000Z</time>
      </trkpt>
      <trkpt lat="36.086879" lon="-5.654499">
        <ele>462.523810460087</ele>
        <time>2018-10-17T08:06:00.000Z</time>
      </trkpt>
      <trkpt lat="36.086923" lon="-5.654508">
        <ele>463.625005714286</ele>
        <time>2018-10-17T08:06:02.000Z</time>
      </trkpt>
      <trkpt lat="36.086966" lon="-5.654513">
        <ele>464</ele>
        <time>2018-10-17T08:06:04.000Z</time>
      </trkpt>
      <trkpt lat="36.087008" lon="-5.654508">
        <ele>464</ele>
        <time>2018-10-17T08:06:06.000Z</time>
      </trkpt>
      <trkpt lat="36.087051" lon="-5.654498">
        <ele>464.65420963227</ele>
        <time>2018-10-17T08:06:08.000Z</time>
      </trkpt>
      <trkpt lat="36.08709" lon="-5.654504">
        <ele>465.699997440033</ele>
        <time>2018-10-17T08:06:10.000Z</time>
      </trkpt>
      <trkpt lat="36.087125" lon="-5.654522">
        <ele>467</ele>
        <time>2018-10-17T08:06:12.000Z</time>
      </trkpt>
      <trkpt lat="36.087146" lon="-5.65457">
        <ele>467</ele>
        <time>2018-10-17T08:06:15.000Z</time>
      </trkpt>
      <trkpt lat="36.087152" lon="-5.654614">
        <ele>467.571433795966</ele>
        <time>2018-10-17T08:06:17.000Z</time>
      </trkpt>
      <trkpt lat="36.08715" lon="-5.654662">
        <ele>468</ele>
        <time>2018-10-17T08:06:19.000Z</time>
      </trkpt>
      <trkpt lat="36.087141" lon="-5.654708">
        <ele>469.660375307926</ele>
        <time>2018-10-17T08:06:21.000Z</time>
      </trkpt>
      <trkpt lat="36.087127" lon="-5.654748">
        <ele>470</ele>
        <time>2018-10-17T08:06:23.000Z</time>
      </trkpt>
      <trkpt lat="36.08711" lon="-5.654787">
        <ele>470</ele>
        <time>2018-10-17T08:06:25.000Z</time>
      </trkpt>
      <trkpt lat="36.087084" lon="-5.654824">
        <ele>470</ele>
        <time>2018-10-17T08:06:27.000Z</time>
      </trkpt>
      <trkpt lat="36.087053" lon="-5.654876">
        <ele>471</ele>
        <time>2018-10-17T08:06:30.000Z</time>
      </trkpt>
      <trkpt lat="36.087037" lon="-5.654921">
        <ele>471.982246728066</ele>
        <time>2018-10-17T08:06:32.000Z</time>
      </trkpt>
      <trkpt lat="36.087017" lon="-5.654962">
        <ele>472</ele>
        <time>2018-10-17T08:06:34.000Z</time>
      </trkpt>
      <trkpt lat="36.086997" lon="-5.655006">
        <ele>473</ele>
        <time>2018-10-17T08:06:36.000Z</time>
      </trkpt>
      <trkpt lat="36.086973" lon="-5.655046">
        <ele>473.670323796664</ele>
        <time>2018-10-17T08:06:38.000Z</time>
      </trkpt>
      <trkpt lat="36.086954" lon="-5.655085">
        <ele>474</ele>
        <time>2018-10-17T08:06:40.000Z</time>
      </trkpt>
      <trkpt lat="36.086937" lon="-5.655128">
        <ele>474</ele>
        <time>2018-10-17T08:06:42.000Z</time>
      </trkpt>
      <trkpt lat="36.086923" lon="-5.655174">
        <ele>474.68084642828</ele>
        <time>2018-10-17T08:06:44.000Z</time>
      </trkpt>
      <trkpt lat="36.086903" lon="-5.655216">
        <ele>475</ele>
        <time>2018-10-17T08:06:46.000Z</time>
      </trkpt>
      <trkpt lat="36.086887" lon="-5.655261">
        <ele>475.630634578351</ele>
        <time>2018-10-17T08:06:48.000Z</time>
      </trkpt>
      <trkpt lat="36.086877" lon="-5.655312">
        <ele>476</ele>
        <time>2018-10-17T08:06:50.000Z</time>
      </trkpt>
      <trkpt lat="36.086863" lon="-5.655362">
        <ele>476</ele>
        <time>2018-10-17T08:06:52.000Z</time>
      </trkpt>
      <trkpt lat="36.08685" lon="-5.65542">
        <ele>476</ele>
        <time>2018-10-17T08:06:54.000Z</time>
      </trkpt>
      <trkpt lat="36.086843" lon="-5.65547">
        <ele>476</ele>
        <time>2018-10-17T08:06:56.000Z</time>
      </trkpt>
      <trkpt lat="36.086846" lon="-5.65552">
        <ele>475.496125261706</ele>
        <time>2018-10-17T08:06:58.000Z</time>
      </trkpt>
      <trkpt lat="36.086834" lon="-5.655568">
        <ele>476</ele>
        <time>2018-10-17T08:07:00.000Z</time>
      </trkpt>
      <trkpt lat="36.086827" lon="-5.655625">
        <ele>476</ele>
        <time>2018-10-17T08:07:02.000Z</time>
      </trkpt>
      <trkpt lat="36.086833" lon="-5.655672">
        <ele>475</ele>
        <time>2018-10-17T08:07:04.000Z</time>
      </trkpt>
      <trkpt lat="36.086848" lon="-5.655724">
        <ele>476</ele>
        <time>2018-10-17T08:07:07.000Z</time>
      </trkpt>
      <trkpt lat="36.086863" lon="-5.655763">
        <ele>477</ele>
        <time>2018-10-17T08:07:10.000Z</time>
      </trkpt>
      <trkpt lat="36.086889" lon="-5.655801">
        <ele>478</ele>
        <time>2018-10-17T08:07:15.000Z</time>
      </trkpt>
      <trkpt lat="36.086905" lon="-5.655839">
        <ele>480.700002560033</ele>
        <time>2018-10-17T08:07:21.000Z</time>
      </trkpt>
      <trkpt lat="36.086928" lon="-5.655874">
        <ele>482</ele>
        <time>2018-10-17T08:07:27.000Z</time>
      </trkpt>
      <trkpt lat="36.086935" lon="-5.655919">
        <ele>484</ele>
        <time>2018-10-17T08:07:32.000Z</time>
      </trkpt>
      <trkpt lat="36.086929" lon="-5.655962">
        <ele>484</ele>
        <time>2018-10-17T08:07:35.000Z</time>
      </trkpt>
      <trkpt lat="36.086944" lon="-5.656011">
        <ele>484.642197848654</ele>
        <time>2018-10-17T08:07:39.000Z</time>
      </trkpt>
      <trkpt lat="36.08694" lon="-5.656059">
        <ele>486</ele>
        <time>2018-10-17T08:07:43.000Z</time>
      </trkpt>
      <trkpt lat="36.086942" lon="-5.656111">
        <ele>487</ele>
        <time>2018-10-17T08:07:48.000Z</time>
      </trkpt>
      <trkpt lat="36.086967" lon="-5.656153">
        <ele>488</ele>
        <time>2018-10-17T08:07:53.000Z</time>
      </trkpt>
      <trkpt lat="36.086976" lon="-5.656196">
        <ele>489</ele>
        <time>2018-10-17T08:07:57.000Z</time>
      </trkpt>
      <trkpt lat="36.086968" lon="-5.656239">
        <ele>490</ele>
        <time>2018-10-17T08:08:01.000Z</time>
      </trkpt>
      <trkpt lat="36.086974" lon="-5.656285">
        <ele>491</ele>
        <time>2018-10-17T08:08:04.000Z</time>
      </trkpt>
      <trkpt lat="36.086971" lon="-5.656333">
        <ele>491</ele>
        <time>2018-10-17T08:08:07.000Z</time>
      </trkpt>
      <trkpt lat="36.086956" lon="-5.656386">
        <ele>492</ele>
        <time>2018-10-17T08:08:10.000Z</time>
      </trkpt>
      <trkpt lat="36.086937" lon="-5.656436">
        <ele>492.5</ele>
        <time>2018-10-17T08:08:13.000Z</time>
      </trkpt>
      <trkpt lat="36.086931" lon="-5.656482">
        <ele>493</ele>
        <time>2018-10-17T08:08:16.000Z</time>
      </trkpt>
      <trkpt lat="36.086926" lon="-5.656532">
        <ele>493</ele>
        <time>2018-10-17T08:08:19.000Z</time>
      </trkpt>
      <trkpt lat="36.086923" lon="-5.656587">
        <ele>494</ele>
        <time>2018-10-17T08:08:22.000Z</time>
      </trkpt>
      <trkpt lat="36.08693" lon="-5.656636">
        <ele>495</ele>
        <time>2018-10-17T08:08:25.000Z</time>
      </trkpt>
      <trkpt lat="36.08694" lon="-5.656684">
        <ele>496</ele>
        <time>2018-10-17T08:08:28.000Z</time>
      </trkpt>
      <trkpt lat="36.086953" lon="-5.656741">
        <ele>496</ele>
        <time>2018-10-17T08:08:31.000Z</time>
      </trkpt>
      <trkpt lat="36.086969" lon="-5.656793">
        <ele>497</ele>
        <time>2018-10-17T08:08:34.000Z</time>
      </trkpt>
      <trkpt lat="36.08699" lon="-5.656839">
        <ele>497</ele>
        <time>2018-10-17T08:08:37.000Z</time>
      </trkpt>
      <trkpt lat="36.087021" lon="-5.656879">
        <ele>498.603447134376</ele>
        <time>2018-10-17T08:08:40.000Z</time>
      </trkpt>
      <trkpt lat="36.087043" lon="-5.656922">
        <ele>499</ele>
        <time>2018-10-17T08:08:43.000Z</time>
      </trkpt>
      <trkpt lat="36.087071" lon="-5.656952">
        <ele>500</ele>
        <time>2018-10-17T08:08:46.000Z</time>
      </trkpt>
      <trkpt lat="36.087105" lon="-5.656976">
        <ele>500</ele>
        <time>2018-10-17T08:08:49.000Z</time>
      </trkpt>
      <trkpt lat="36.087142" lon="-5.656996">
        <ele>500</ele>
        <time>2018-10-17T08:08:52.000Z</time>
      </trkpt>
      <trkpt lat="36.087184" lon="-5.657016">
        <ele>501</ele>
        <time>2018-10-17T08:08:55.000Z</time>
      </trkpt>
      <trkpt lat="36.087223" lon="-5.657035">
        <ele>502</ele>
        <time>2018-10-17T08:08:58.000Z</time>
      </trkpt>
      <trkpt lat="36.087257" lon="-5.657053">
        <ele>502</ele>
        <time>2018-10-17T08:09:01.000Z</time>
      </trkpt>
      <trkpt lat="36.087288" lon="-5.657076">
        <ele>502</ele>
        <time>2018-10-17T08:09:04.000Z</time>
      </trkpt>
      <trkpt lat="36.08733" lon="-5.657102">
        <ele>502</ele>
        <time>2018-10-17T08:09:07.000Z</time>
      </trkpt>
      <trkpt lat="36.087375" lon="-5.657129">
        <ele>502</ele>
        <time>2018-10-17T08:09:10.000Z</time>
      </trkpt>
      <trkpt lat="36.087414" lon="-5.657163">
        <ele>502</ele>
        <time>2018-10-17T08:09:13.000Z</time>
      </trkpt>
      <trkpt lat="36.08745" lon="-5.657197">
        <ele>502</ele>
        <time>2018-10-17T08:09:16.000Z</time>
      </trkpt>
      <trkpt lat="36.087486" lon="-5.657243">
        <ele>503</ele>
        <time>2018-10-17T08:09:19.000Z</time>
      </trkpt>
      <trkpt lat="36.087525" lon="-5.657292">
        <ele>503</ele>
        <time>2018-10-17T08:09:21.000Z</time>
      </trkpt>
      <trkpt lat="36.087564" lon="-5.657339">
        <ele>503</ele>
        <time>2018-10-17T08:09:23.000Z</time>
      </trkpt>
      <trkpt lat="36.0876" lon="-5.657389">
        <ele>503</ele>
        <time>2018-10-17T08:09:25.000Z</time>
      </trkpt>
      <trkpt lat="36.087634" lon="-5.657444">
        <ele>503</ele>
        <time>2018-10-17T08:09:27.000Z</time>
      </trkpt>
      <trkpt lat="36.087665" lon="-5.657498">
        <ele>502.556391773413</ele>
        <time>2018-10-17T08:09:29.000Z</time>
      </trkpt>
      <trkpt lat="36.087694" lon="-5.657551">
        <ele>502</ele>
        <time>2018-10-17T08:09:31.000Z</time>
      </trkpt>
      <trkpt lat="36.087726" lon="-5.657602">
        <ele>502.680855699443</ele>
        <time>2018-10-17T08:09:33.000Z</time>
      </trkpt>
      <trkpt lat="36.087756" lon="-5.657657">
        <ele>503</ele>
        <time>2018-10-17T08:09:35.000Z</time>
      </trkpt>
      <trkpt lat="36.087783" lon="-5.657713">
        <ele>503</ele>
        <time>2018-10-17T08:09:37.000Z</time>
      </trkpt>
      <trkpt lat="36.087812" lon="-5.657769">
        <ele>503</ele>
        <time>2018-10-17T08:09:39.000Z</time>
      </trkpt>
      <trkpt lat="36.08784" lon="-5.657815">
        <ele>503</ele>
        <time>2018-10-17T08:09:41.000Z</time>
      </trkpt>
      <trkpt lat="36.087876" lon="-5.657845">
        <ele>503.700002560033</ele>
        <time>2018-10-17T08:09:43.000Z</time>
      </trkpt>
      <trkpt lat="36.087914" lon="-5.657866">
        <ele>504</ele>
        <time>2018-10-17T08:09:45.000Z</time>
      </trkpt>
      <trkpt lat="36.087953" lon="-5.657883">
        <ele>505</ele>
        <time>2018-10-17T08:09:47.000Z</time>
      </trkpt>
      <trkpt lat="36.08799" lon="-5.657891">
        <ele>505.696973223175</ele>
        <time>2018-10-17T08:09:49.000Z</time>
      </trkpt>
      <trkpt lat="36.088031" lon="-5.657894">
        <ele>507</ele>
        <time>2018-10-17T08:09:51.000Z</time>
      </trkpt>
      <trkpt lat="36.088067" lon="-5.657887">
        <ele>507</ele>
        <time>2018-10-17T08:09:53.000Z</time>
      </trkpt>
      <trkpt lat="36.088107" lon="-5.657866">
        <ele>507.492955461208</ele>
        <time>2018-10-17T08:09:55.000Z</time>
      </trkpt>
      <trkpt lat="36.088146" lon="-5.65784">
        <ele>508</ele>
        <time>2018-10-17T08:09:57.000Z</time>
      </trkpt>
      <trkpt lat="36.088179" lon="-5.657803">
        <ele>508</ele>
        <time>2018-10-17T08:09:59.000Z</time>
      </trkpt>
      <trkpt lat="36.088208" lon="-5.657772">
        <ele>509.693882082495</ele>
        <time>2018-10-17T08:10:01.000Z</time>
      </trkpt>
      <trkpt lat="36.088236" lon="-5.657742">
        <ele>510</ele>
        <time>2018-10-17T08:10:03.000Z</time>
      </trkpt>
      <trkpt lat="36.088265" lon="-5.657713">
        <ele>510</ele>
        <time>2018-10-17T08:10:05.000Z</time>
      </trkpt>
      <trkpt lat="36.088299" lon="-5.657689">
        <ele>510.679611771139</ele>
        <time>2018-10-17T08:10:07.000Z</time>
      </trkpt>
      <trkpt lat="36.088335" lon="-5.657663">
        <ele>511</ele>
        <time>2018-10-17T08:10:09.000Z</time>
      </trkpt>
      <trkpt lat="36.088383" lon="-5.657632">
        <ele>511</ele>
        <time>2018-10-17T08:10:12.000Z</time>
      </trkpt>
      <trkpt lat="36.088419" lon="-5.657617">
        <ele>511</ele>
        <time>2018-10-17T08:10:14.000Z</time>
      </trkpt>
      <trkpt lat="36.088454" lon="-5.657603">
        <ele>512</ele>
        <time>2018-10-17T08:10:16.000Z</time>
      </trkpt>
      <trkpt lat="36.088488" lon="-5.657588">
        <ele>512</ele>
        <time>2018-10-17T08:10:18.000Z</time>
      </trkpt>
      <trkpt lat="36.088527" lon="-5.657575">
        <ele>513</ele>
        <time>2018-10-17T08:10:20.000Z</time>
      </trkpt>
      <trkpt lat="36.088579" lon="-5.657565">
        <ele>514</ele>
        <time>2018-10-17T08:10:23.000Z</time>
      </trkpt>
      <trkpt lat="36.088621" lon="-5.657566">
        <ele>514</ele>
        <time>2018-10-17T08:10:25.000Z</time>
      </trkpt>
      <trkpt lat="36.088665" lon="-5.657578">
        <ele>515.670333225493</ele>
        <time>2018-10-17T08:10:27.000Z</time>
      </trkpt>
      <trkpt lat="36.088708" lon="-5.657595">
        <ele>516</ele>
        <time>2018-10-17T08:10:29.000Z</time>
      </trkpt>
      <trkpt lat="36.08875" lon="-5.657617">
        <ele>516</ele>
        <time>2018-10-17T08:10:31.000Z</time>
      </trkpt>
      <trkpt lat="36.088794" lon="-5.657637">
        <ele>516.700002560033</ele>
        <time>2018-10-17T08:10:33.000Z</time>
      </trkpt>
      <trkpt lat="36.08884" lon="-5.657658">
        <ele>517</ele>
        <time>2018-10-17T08:10:35.000Z</time>
      </trkpt>
      <trkpt lat="36.088886" lon="-5.657683">
        <ele>517</ele>
        <time>2018-10-17T08:10:37.000Z</time>
      </trkpt>
      <trkpt lat="36.08893" lon="-5.657708">
        <ele>517</ele>
        <time>2018-10-17T08:10:39.000Z</time>
      </trkpt>
      <trkpt lat="36.088974" lon="-5.657737">
        <ele>517</ele>
        <time>2018-10-17T08:10:41.000Z</time>
      </trkpt>
      <trkpt lat="36.089019" lon="-5.657762">
        <ele>517</ele>
        <time>2018-10-17T08:10:43.000Z</time>
      </trkpt>
      <trkpt lat="36.089066" lon="-5.65779">
        <ele>517</ele>
        <time>2018-10-17T08:10:45.000Z</time>
      </trkpt>
      <trkpt lat="36.089112" lon="-5.657818">
        <ele>518.648149903999</ele>
        <time>2018-10-17T08:10:47.000Z</time>
      </trkpt>
      <trkpt lat="36.089156" lon="-5.657839">
        <ele>519</ele>
        <time>2018-10-17T08:10:49.000Z</time>
      </trkpt>
      <trkpt lat="36.089199" lon="-5.657862">
        <ele>518.320388228861</ele>
        <time>2018-10-17T08:10:51.000Z</time>
      </trkpt>
      <trkpt lat="36.089249" lon="-5.65789">
        <ele>518</ele>
        <time>2018-10-17T08:10:53.000Z</time>
      </trkpt>
      <trkpt lat="36.089297" lon="-5.657914">
        <ele>518</ele>
        <time>2018-10-17T08:10:55.000Z</time>
      </trkpt>
      <trkpt lat="36.089349" lon="-5.657941">
        <ele>518</ele>
        <time>2018-10-17T08:10:57.000Z</time>
      </trkpt>
      <trkpt lat="36.089405" lon="-5.657976">
        <ele>518</ele>
        <time>2018-10-17T08:10:59.000Z</time>
      </trkpt>
      <trkpt lat="36.089456" lon="-5.65801">
        <ele>517</ele>
        <time>2018-10-17T08:11:01.000Z</time>
      </trkpt>
      <trkpt lat="36.089505" lon="-5.65804">
        <ele>517</ele>
        <time>2018-10-17T08:11:03.000Z</time>
      </trkpt>
      <trkpt lat="36.089554" lon="-5.65807">
        <ele>518</ele>
        <time>2018-10-17T08:11:05.000Z</time>
      </trkpt>
      <trkpt lat="36.089599" lon="-5.6581">
        <ele>518</ele>
        <time>2018-10-17T08:11:07.000Z</time>
      </trkpt>
      <trkpt lat="36.089642" lon="-5.658126">
        <ele>518</ele>
        <time>2018-10-17T08:11:09.000Z</time>
      </trkpt>
      <trkpt lat="36.089691" lon="-5.65815">
        <ele>519.700002560033</ele>
        <time>2018-10-17T08:11:11.000Z</time>
      </trkpt>
      <trkpt lat="36.089728" lon="-5.658173">
        <ele>520</ele>
        <time>2018-10-17T08:11:13.000Z</time>
      </trkpt>
      <trkpt lat="36.08976" lon="-5.658202">
        <ele>520.250016</ele>
        <time>2018-10-17T08:11:15.000Z</time>
      </trkpt>
      <trkpt lat="36.089795" lon="-5.658222">
        <ele>521.654205495675</ele>
        <time>2018-10-17T08:11:17.000Z</time>
      </trkpt>
      <trkpt lat="36.089834" lon="-5.658242">
        <ele>522</ele>
        <time>2018-10-17T08:11:19.000Z</time>
      </trkpt>
      <trkpt lat="36.08987" lon="-5.658264">
        <ele>522</ele>
        <time>2018-10-17T08:11:21.000Z</time>
      </trkpt>
      <trkpt lat="36.089906" lon="-5.658287">
        <ele>522.644446972821</ele>
        <time>2018-10-17T08:11:23.000Z</time>
      </trkpt>
      <trkpt lat="36.089941" lon="-5.658306">
        <ele>523</ele>
        <time>2018-10-17T08:11:25.000Z</time>
      </trkpt>
      <trkpt lat="36.089976" lon="-5.658323">
        <ele>523.680855699443</ele>
        <time>2018-10-17T08:11:27.000Z</time>
      </trkpt>
      <trkpt lat="36.090015" lon="-5.658338">
        <ele>524</ele>
        <time>2018-10-17T08:11:29.000Z</time>
      </trkpt>
      <trkpt lat="36.090053" lon="-5.658347">
        <ele>524</ele>
        <time>2018-10-17T08:11:31.000Z</time>
      </trkpt>
      <trkpt lat="36.090101" lon="-5.658356">
        <ele>524.433970922089</ele>
        <time>2018-10-17T08:11:33.000Z</time>
      </trkpt>
      <trkpt lat="36.090142" lon="-5.658362">
        <ele>525.647723636364</ele>
        <time>2018-10-17T08:11:35.000Z</time>
      </trkpt>
      <trkpt lat="36.090179" lon="-5.658366">
        <ele>526</ele>
        <time>2018-10-17T08:11:37.000Z</time>
      </trkpt>
      <trkpt lat="36.090221" lon="-5.65837">
        <ele>526</ele>
        <time>2018-10-17T08:11:39.000Z</time>
      </trkpt>
      <trkpt lat="36.090262" lon="-5.65837">
        <ele>527</ele>
        <time>2018-10-17T08:11:41.000Z</time>
      </trkpt>
      <trkpt lat="36.090304" lon="-5.658368">
        <ele>527.700002560033</ele>
        <time>2018-10-17T08:11:43.000Z</time>
      </trkpt>
      <trkpt lat="36.090348" lon="-5.65837">
        <ele>528</ele>
        <time>2018-10-17T08:11:45.000Z</time>
      </trkpt>
      <trkpt lat="36.09039" lon="-5.658374">
        <ele>528</ele>
        <time>2018-10-17T08:11:47.000Z</time>
      </trkpt>
      <trkpt lat="36.090437" lon="-5.658368">
        <ele>528</ele>
        <time>2018-10-17T08:11:49.000Z</time>
      </trkpt>
      <trkpt lat="36.090486" lon="-5.658359">
        <ele>528</ele>
        <time>2018-10-17T08:11:51.000Z</time>
      </trkpt>
      <trkpt lat="36.090533" lon="-5.658351">
        <ele>529</ele>
        <time>2018-10-17T08:11:53.000Z</time>
      </trkpt>
      <trkpt lat="36.090586" lon="-5.658338">
        <ele>529</ele>
        <time>2018-10-17T08:11:55.000Z</time>
      </trkpt>
      <trkpt lat="36.090636" lon="-5.658323">
        <ele>529</ele>
        <time>2018-10-17T08:11:57.000Z</time>
      </trkpt>
      <trkpt lat="36.090705" lon="-5.658292">
        <ele>529</ele>
        <time>2018-10-17T08:12:00.000Z</time>
      </trkpt>
      <trkpt lat="36.090753" lon="-5.658267">
        <ele>529</ele>
        <time>2018-10-17T08:12:02.000Z</time>
      </trkpt>
      <trkpt lat="36.0908" lon="-5.658235">
        <ele>529</ele>
        <time>2018-10-17T08:12:04.000Z</time>
      </trkpt>
      <trkpt lat="36.090847" lon="-5.658204">
        <ele>529</ele>
        <time>2018-10-17T08:12:06.000Z</time>
      </trkpt>
      <trkpt lat="36.090889" lon="-5.658174">
        <ele>529</ele>
        <time>2018-10-17T08:12:08.000Z</time>
      </trkpt>
      <trkpt lat="36.090937" lon="-5.658144">
        <ele>529</ele>
        <time>2018-10-17T08:12:10.000Z</time>
      </trkpt>
      <trkpt lat="36.090985" lon="-5.658117">
        <ele>529</ele>
        <time>2018-10-17T08:12:12.000Z</time>
      </trkpt>
      <trkpt lat="36.091037" lon="-5.658091">
        <ele>529</ele>
        <time>2018-10-17T08:12:14.000Z</time>
      </trkpt>
      <trkpt lat="36.091097" lon="-5.658072">
        <ele>529</ele>
        <time>2018-10-17T08:12:16.000Z</time>
      </trkpt>
      <trkpt lat="36.091166" lon="-5.658069">
        <ele>528.441177577834</ele>
        <time>2018-10-17T08:12:18.000Z</time>
      </trkpt>
      <trkpt lat="36.091202" lon="-5.658075">
        <ele>528</ele>
        <time>2018-10-17T08:12:19.000Z</time>
      </trkpt>
      <trkpt lat="36.091268" lon="-5.658104">
        <ele>526.299997439967</ele>
        <time>2018-10-17T08:12:21.000Z</time>
      </trkpt>
      <trkpt lat="36.091301" lon="-5.65812">
        <ele>526</ele>
        <time>2018-10-17T08:12:22.000Z</time>
      </trkpt>
      <trkpt lat="36.091364" lon="-5.658161">
        <ele>525</ele>
        <time>2018-10-17T08:12:24.000Z</time>
      </trkpt>
      <trkpt lat="36.091395" lon="-5.65818">
        <ele>525</ele>
        <time>2018-10-17T08:12:25.000Z</time>
      </trkpt>
      <trkpt lat="36.091458" lon="-5.658217">
        <ele>525</ele>
        <time>2018-10-17T08:12:27.000Z</time>
      </trkpt>
      <trkpt lat="36.091493" lon="-5.658231">
        <ele>525</ele>
        <time>2018-10-17T08:12:28.000Z</time>
      </trkpt>
      <trkpt lat="36.091555" lon="-5.658257">
        <ele>525</ele>
        <time>2018-10-17T08:12:30.000Z</time>
      </trkpt>
      <trkpt lat="36.091619" lon="-5.658272">
        <ele>525</ele>
        <time>2018-10-17T08:12:32.000Z</time>
      </trkpt>
      <trkpt lat="36.091682" lon="-5.658274">
        <ele>525</ele>
        <time>2018-10-17T08:12:34.000Z</time>
      </trkpt>
      <trkpt lat="36.091746" lon="-5.658278">
        <ele>525</ele>
        <time>2018-10-17T08:12:36.000Z</time>
      </trkpt>
      <trkpt lat="36.091804" lon="-5.658281">
        <ele>524</ele>
        <time>2018-10-17T08:12:38.000Z</time>
      </trkpt>
      <trkpt lat="36.091864" lon="-5.658284">
        <ele>523.300002559967</ele>
        <time>2018-10-17T08:12:40.000Z</time>
      </trkpt>
      <trkpt lat="36.091914" lon="-5.658285">
        <ele>523</ele>
        <time>2018-10-17T08:12:42.000Z</time>
      </trkpt>
      <trkpt lat="36.091963" lon="-5.658287">
        <ele>523</ele>
        <time>2018-10-17T08:12:44.000Z</time>
      </trkpt>
      <trkpt lat="36.092007" lon="-5.658292">
        <ele>523</ele>
        <time>2018-10-17T08:12:46.000Z</time>
      </trkpt>
      <trkpt lat="36.092054" lon="-5.658283">
        <ele>524</ele>
        <time>2018-10-17T08:12:48.000Z</time>
      </trkpt>
      <trkpt lat="36.092111" lon="-5.658259">
        <ele>524</ele>
        <time>2018-10-17T08:12:50.000Z</time>
      </trkpt>
      <trkpt lat="36.092171" lon="-5.658244">
        <ele>524</ele>
        <time>2018-10-17T08:12:52.000Z</time>
      </trkpt>
      <trkpt lat="36.092231" lon="-5.658233">
        <ele>524</ele>
        <time>2018-10-17T08:12:54.000Z</time>
      </trkpt>
      <trkpt lat="36.09229" lon="-5.658219">
        <ele>524</ele>
        <time>2018-10-17T08:12:56.000Z</time>
      </trkpt>
      <trkpt lat="36.092346" lon="-5.658208">
        <ele>524</ele>
        <time>2018-10-17T08:12:58.000Z</time>
      </trkpt>
      <trkpt lat="36.092395" lon="-5.6582">
        <ele>525</ele>
        <time>2018-10-17T08:13:00.000Z</time>
      </trkpt>
      <trkpt lat="36.092443" lon="-5.658195">
        <ele>525.944447604961</ele>
        <time>2018-10-17T08:13:02.000Z</time>
      </trkpt>
      <trkpt lat="36.092491" lon="-5.658181">
        <ele>526</ele>
        <time>2018-10-17T08:13:04.000Z</time>
      </trkpt>
      <trkpt lat="36.092541" lon="-5.65817">
        <ele>527</ele>
        <time>2018-10-17T08:13:06.000Z</time>
      </trkpt>
      <trkpt lat="36.092589" lon="-5.658159">
        <ele>527</ele>
        <time>2018-10-17T08:13:08.000Z</time>
      </trkpt>
      <trkpt lat="36.092637" lon="-5.658154">
        <ele>527</ele>
        <time>2018-10-17T08:13:10.000Z</time>
      </trkpt>
      <trkpt lat="36.092683" lon="-5.658151">
        <ele>527</ele>
        <time>2018-10-17T08:13:12.000Z</time>
      </trkpt>
      <trkpt lat="36.092729" lon="-5.658146">
        <ele>528</ele>
        <time>2018-10-17T08:13:14.000Z</time>
      </trkpt>
      <trkpt lat="36.092782" lon="-5.658146">
        <ele>528</ele>
        <time>2018-10-17T08:13:16.000Z</time>
      </trkpt>
      <trkpt lat="36.092831" lon="-5.658148">
        <ele>528</ele>
        <time>2018-10-17T08:13:18.000Z</time>
      </trkpt>
      <trkpt lat="36.092878" lon="-5.658145">
        <ele>529</ele>
        <time>2018-10-17T08:13:20.000Z</time>
      </trkpt>
      <trkpt lat="36.092928" lon="-5.658142">
        <ele>529</ele>
        <time>2018-10-17T08:13:22.000Z</time>
      </trkpt>
      <trkpt lat="36.092951" lon="-5.658122">
        <ele>529.008732830237</ele>
        <time>2018-10-17T08:13:24.000Z</time>
      </trkpt>
      <trkpt lat="36.092987" lon="-5.658029">
        <ele>531</ele>
        <time>2018-10-17T08:15:14.000Z</time>
      </trkpt>
      <trkpt lat="36.093017" lon="-5.657992">
        <ele>531</ele>
        <time>2018-10-17T08:15:18.000Z</time>
      </trkpt>
      <trkpt lat="36.093055" lon="-5.657958">
        <ele>529</ele>
        <time>2018-10-17T08:15:22.000Z</time>
      </trkpt>
      <trkpt lat="36.09309" lon="-5.65792">
        <ele>529</ele>
        <time>2018-10-17T08:15:25.000Z</time>
      </trkpt>
      <trkpt lat="36.093119" lon="-5.657881">
        <ele>527.306930944023</ele>
        <time>2018-10-17T08:15:28.000Z</time>
      </trkpt>
      <trkpt lat="36.093143" lon="-5.657835">
        <ele>528</ele>
        <time>2018-10-17T08:15:30.000Z</time>
      </trkpt>
      <trkpt lat="36.09316" lon="-5.657792">
        <ele>528</ele>
        <time>2018-10-17T08:15:32.000Z</time>
      </trkpt>
      <trkpt lat="36.093177" lon="-5.657743">
        <ele>527</ele>
        <time>2018-10-17T08:15:34.000Z</time>
      </trkpt>
      <trkpt lat="36.093192" lon="-5.657695">
        <ele>526.300002559967</ele>
        <time>2018-10-17T08:15:36.000Z</time>
      </trkpt>
      <trkpt lat="36.093217" lon="-5.657638">
        <ele>526</ele>
        <time>2018-10-17T08:15:39.000Z</time>
      </trkpt>
      <trkpt lat="36.093235" lon="-5.657595">
        <ele>524</ele>
        <time>2018-10-17T08:15:41.000Z</time>
      </trkpt>
      <trkpt lat="36.093244" lon="-5.657552">
        <ele>523</ele>
        <time>2018-10-17T08:15:43.000Z</time>
      </trkpt>
      <trkpt lat="36.093247" lon="-5.657506">
        <ele>523</ele>
        <time>2018-10-17T08:15:45.000Z</time>
      </trkpt>
      <trkpt lat="36.093251" lon="-5.657455">
        <ele>522.380534882931</ele>
        <time>2018-10-17T08:15:47.000Z</time>
      </trkpt>
      <trkpt lat="36.093252" lon="-5.657405">
        <ele>521.299997439967</ele>
        <time>2018-10-17T08:15:49.000Z</time>
      </trkpt>
      <trkpt lat="36.093251" lon="-5.657346">
        <ele>519</ele>
        <time>2018-10-17T08:15:52.000Z</time>
      </trkpt>
      <trkpt lat="36.093265" lon="-5.657298">
        <ele>518</ele>
        <time>2018-10-17T08:15:55.000Z</time>
      </trkpt>
      <trkpt lat="36.09326" lon="-5.657243">
        <ele>517.391300476381</ele>
        <time>2018-10-17T08:15:58.000Z</time>
      </trkpt>
      <trkpt lat="36.09326" lon="-5.657188">
        <ele>517</ele>
        <time>2018-10-17T08:16:00.000Z</time>
      </trkpt>
      <trkpt lat="36.093266" lon="-5.657135">
        <ele>514</ele>
        <time>2018-10-17T08:16:02.000Z</time>
      </trkpt>
      <trkpt lat="36.093277" lon="-5.657102">
        <ele>514</ele>
        <time>2018-10-17T08:16:04.000Z</time>
      </trkpt>
      <trkpt lat="36.093305" lon="-5.657052">
        <ele>513.533838276904</ele>
        <time>2018-10-17T08:16:07.000Z</time>
      </trkpt>
      <trkpt lat="36.093336" lon="-5.657003">
        <ele>512.473683197475</ele>
        <time>2018-10-17T08:16:10.000Z</time>
      </trkpt>
      <trkpt lat="36.09336" lon="-5.656972">
        <ele>511</ele>
        <time>2018-10-17T08:16:12.000Z</time>
      </trkpt>
      <trkpt lat="36.09339" lon="-5.656945">
        <ele>510.351853607661</ele>
        <time>2018-10-17T08:16:14.000Z</time>
      </trkpt>
      <trkpt lat="36.09343" lon="-5.656926">
        <ele>509</ele>
        <time>2018-10-17T08:16:17.000Z</time>
      </trkpt>
      <trkpt lat="36.09346" lon="-5.656901">
        <ele>509.306117917505</ele>
        <time>2018-10-17T08:16:19.000Z</time>
      </trkpt>
      <trkpt lat="36.093493" lon="-5.656879">
        <ele>508.340901818182</ele>
        <time>2018-10-17T08:16:21.000Z</time>
      </trkpt>
      <trkpt lat="36.093522" lon="-5.65685">
        <ele>508</ele>
        <time>2018-10-17T08:16:23.000Z</time>
      </trkpt>
      <trkpt lat="36.093569" lon="-5.656815">
        <ele>506.535725714286</ele>
        <time>2018-10-17T08:16:26.000Z</time>
      </trkpt>
      <trkpt lat="36.093599" lon="-5.656788">
        <ele>505</ele>
        <time>2018-10-17T08:16:29.000Z</time>
      </trkpt>
      <trkpt lat="36.093642" lon="-5.656763">
        <ele>504.300002559967</ele>
        <time>2018-10-17T08:16:32.000Z</time>
      </trkpt>
      <trkpt lat="36.093676" lon="-5.65673">
        <ele>503</ele>
        <time>2018-10-17T08:16:35.000Z</time>
      </trkpt>
      <trkpt lat="36.093718" lon="-5.65671">
        <ele>503</ele>
        <time>2018-10-17T08:16:37.000Z</time>
      </trkpt>
      <trkpt lat="36.093763" lon="-5.656687">
        <ele>502.348832363404</ele>
        <time>2018-10-17T08:16:39.000Z</time>
      </trkpt>
      <trkpt lat="36.093807" lon="-5.656655">
        <ele>501</ele>
        <time>2018-10-17T08:16:41.000Z</time>
      </trkpt>
      <trkpt lat="36.093856" lon="-5.656628">
        <ele>501</ele>
        <time>2018-10-17T08:16:43.000Z</time>
      </trkpt>
      <trkpt lat="36.093901" lon="-5.65659">
        <ele>499.599994879934</ele>
        <time>2018-10-17T08:16:45.000Z</time>
      </trkpt>
      <trkpt lat="36.093941" lon="-5.656557">
        <ele>499</ele>
        <time>2018-10-17T08:16:47.000Z</time>
      </trkpt>
      <trkpt lat="36.093981" lon="-5.656526">
        <ele>499</ele>
        <time>2018-10-17T08:16:49.000Z</time>
      </trkpt>
      <trkpt lat="36.094027" lon="-5.656492">
        <ele>499</ele>
        <time>2018-10-17T08:16:51.000Z</time>
      </trkpt>
      <trkpt lat="36.09407" lon="-5.656459">
        <ele>499</ele>
        <time>2018-10-17T08:16:53.000Z</time>
      </trkpt>
      <trkpt lat="36.094111" lon="-5.656423">
        <ele>497.385967079113</ele>
        <time>2018-10-17T08:16:55.000Z</time>
      </trkpt>
      <trkpt lat="36.094147" lon="-5.656387">
        <ele>496.299997439967</ele>
        <time>2018-10-17T08:16:57.000Z</time>
      </trkpt>
      <trkpt lat="36.094182" lon="-5.656357">
        <ele>495</ele>
        <time>2018-10-17T08:16:59.000Z</time>
      </trkpt>
      <trkpt lat="36.09421" lon="-5.65633">
        <ele>494</ele>
        <time>2018-10-17T08:17:01.000Z</time>
      </trkpt>
      <trkpt lat="36.094239" lon="-5.656294">
        <ele>494</ele>
        <time>2018-10-17T08:17:03.000Z</time>
      </trkpt>
      <trkpt lat="36.094276" lon="-5.656255">
        <ele>493</ele>
        <time>2018-10-17T08:17:05.000Z</time>
      </trkpt>
      <trkpt lat="36.094313" lon="-5.65621">
        <ele>492.517244727713</ele>
        <time>2018-10-17T08:17:07.000Z</time>
      </trkpt>
      <trkpt lat="36.094345" lon="-5.656162">
        <ele>492</ele>
        <time>2018-10-17T08:17:09.000Z</time>
      </trkpt>
      <trkpt lat="36.09437" lon="-5.656118">
        <ele>490.696628890295</ele>
        <time>2018-10-17T08:17:11.000Z</time>
      </trkpt>
      <trkpt lat="36.094395" lon="-5.656071">
        <ele>488</ele>
        <time>2018-10-17T08:17:13.000Z</time>
      </trkpt>
      <trkpt lat="36.094422" lon="-5.656024">
        <ele>487.299997439967</ele>
        <time>2018-10-17T08:17:15.000Z</time>
      </trkpt>
      <trkpt lat="36.094443" lon="-5.655976">
        <ele>487</ele>
        <time>2018-10-17T08:17:17.000Z</time>
      </trkpt>
      <trkpt lat="36.094472" lon="-5.655923">
        <ele>486</ele>
        <time>2018-10-17T08:17:19.000Z</time>
      </trkpt>
      <trkpt lat="36.094488" lon="-5.655872">
        <ele>485.039549616002</ele>
        <time>2018-10-17T08:17:21.000Z</time>
      </trkpt>
      <trkpt lat="36.094498" lon="-5.655832">
        <ele>484</ele>
        <time>2018-10-17T08:17:23.000Z</time>
      </trkpt>
      <trkpt lat="36.094517" lon="-5.655776">
        <ele>481</ele>
        <time>2018-10-17T08:17:26.000Z</time>
      </trkpt>
      <trkpt lat="36.094549" lon="-5.655728">
        <ele>481</ele>
        <time>2018-10-17T08:17:29.000Z</time>
      </trkpt>
      <trkpt lat="36.094583" lon="-5.655688">
        <ele>479.697664726807</ele>
        <time>2018-10-17T08:17:31.000Z</time>
      </trkpt>
      <trkpt lat="36.094617" lon="-5.655662">
        <ele>478</ele>
        <time>2018-10-17T08:17:33.000Z</time>
      </trkpt>
      <trkpt lat="36.094653" lon="-5.655624">
        <ele>478</ele>
        <time>2018-10-17T08:17:36.000Z</time>
      </trkpt>
      <trkpt lat="36.094702" lon="-5.65559">
        <ele>475.599994879934</ele>
        <time>2018-10-17T08:17:39.000Z</time>
      </trkpt>
      <trkpt lat="36.094735" lon="-5.655564">
        <ele>475</ele>
        <time>2018-10-17T08:17:41.000Z</time>
      </trkpt>
      <trkpt lat="36.094774" lon="-5.655525">
        <ele>474</ele>
        <time>2018-10-17T08:17:43.000Z</time>
      </trkpt>
      <trkpt lat="36.094801" lon="-5.655486">
        <ele>473.491932903226</ele>
        <time>2018-10-17T08:17:45.000Z</time>
      </trkpt>
      <trkpt lat="36.094836" lon="-5.655453">
        <ele>472</ele>
        <time>2018-10-17T08:17:47.000Z</time>
      </trkpt>
      <trkpt lat="36.094871" lon="-5.655405">
        <ele>470.189658596871</ele>
        <time>2018-10-17T08:17:50.000Z</time>
      </trkpt>
      <trkpt lat="36.0949" lon="-5.655377">
        <ele>469</ele>
        <time>2018-10-17T08:17:52.000Z</time>
      </trkpt>
      <trkpt lat="36.094927" lon="-5.655338">
        <ele>468.300002559967</ele>
        <time>2018-10-17T08:17:54.000Z</time>
      </trkpt>
      <trkpt lat="36.094953" lon="-5.655293">
        <ele>467</ele>
        <time>2018-10-17T08:17:56.000Z</time>
      </trkpt>
      <trkpt lat="36.094988" lon="-5.655252">
        <ele>467</ele>
        <time>2018-10-17T08:17:58.000Z</time>
      </trkpt>
      <trkpt lat="36.095007" lon="-5.655202">
        <ele>465.306126980395</ele>
        <time>2018-10-17T08:18:00.000Z</time>
      </trkpt>
      <trkpt lat="36.095026" lon="-5.655148">
        <ele>464.300002559967</ele>
        <time>2018-10-17T08:18:02.000Z</time>
      </trkpt>
      <trkpt lat="36.09504" lon="-5.655092">
        <ele>463</ele>
        <time>2018-10-17T08:18:04.000Z</time>
      </trkpt>
      <trkpt lat="36.095042" lon="-5.655034">
        <ele>463</ele>
        <time>2018-10-17T08:18:06.000Z</time>
      </trkpt>
      <trkpt lat="36.095036" lon="-5.654974">
        <ele>461.348319454632</ele>
        <time>2018-10-17T08:18:08.000Z</time>
      </trkpt>
      <trkpt lat="36.095028" lon="-5.654916">
        <ele>460.434785834864</ele>
        <time>2018-10-17T08:18:10.000Z</time>
      </trkpt>
      <trkpt lat="36.095018" lon="-5.654853">
        <ele>460</ele>
        <time>2018-10-17T08:18:12.000Z</time>
      </trkpt>
      <trkpt lat="36.095018" lon="-5.65478">
        <ele>460</ele>
        <time>2018-10-17T08:18:14.000Z</time>
      </trkpt>
      <trkpt lat="36.095014" lon="-5.654724">
        <ele>459</ele>
        <time>2018-10-17T08:18:16.000Z</time>
      </trkpt>
      <trkpt lat="36.095006" lon="-5.654666">
        <ele>459</ele>
        <time>2018-10-17T08:18:18.000Z</time>
      </trkpt>
      <trkpt lat="36.094986" lon="-5.654606">
        <ele>458</ele>
        <time>2018-10-17T08:18:20.000Z</time>
      </trkpt>
      <trkpt lat="36.09497" lon="-5.654542">
        <ele>458</ele>
        <time>2018-10-17T08:18:22.000Z</time>
      </trkpt>
      <trkpt lat="36.094964" lon="-5.654472">
        <ele>457</ele>
        <time>2018-10-17T08:18:24.000Z</time>
      </trkpt>
      <trkpt lat="36.094946" lon="-5.65441">
        <ele>456.31915357172</ele>
        <time>2018-10-17T08:18:26.000Z</time>
      </trkpt>
      <trkpt lat="36.094902" lon="-5.654385">
        <ele>455</ele>
        <time>2018-10-17T08:18:28.000Z</time>
      </trkpt>
      <trkpt lat="36.094868" lon="-5.654392">
        <ele>455</ele>
        <time>2018-10-17T08:18:30.000Z</time>
      </trkpt>
      <trkpt lat="36.094814" lon="-5.654394">
        <ele>455</ele>
        <time>2018-10-17T08:18:32.000Z</time>
      </trkpt>
      <trkpt lat="36.094754" lon="-5.65441">
        <ele>455</ele>
        <time>2018-10-17T08:18:34.000Z</time>
      </trkpt>
      <trkpt lat="36.0947" lon="-5.654426">
        <ele>454.351853607661</ele>
        <time>2018-10-17T08:18:36.000Z</time>
      </trkpt>
      <trkpt lat="36.094642" lon="-5.654436">
        <ele>454</ele>
        <time>2018-10-17T08:18:38.000Z</time>
      </trkpt>
      <trkpt lat="36.094586" lon="-5.654448">
        <ele>453</ele>
        <time>2018-10-17T08:18:40.000Z</time>
      </trkpt>
      <trkpt lat="36.09453" lon="-5.654458">
        <ele>453</ele>
        <time>2018-10-17T08:18:42.000Z</time>
      </trkpt>
      <trkpt lat="36.09448" lon="-5.654476">
        <ele>453</ele>
        <time>2018-10-17T08:18:44.000Z</time>
      </trkpt>
      <trkpt lat="36.094432" lon="-5.654482">
        <ele>453</ele>
        <time>2018-10-17T08:18:46.000Z</time>
      </trkpt>
      <trkpt lat="36.09439" lon="-5.654475">
        <ele>453</ele>
        <time>2018-10-17T08:18:48.000Z</time>
      </trkpt>
      <trkpt lat="36.094344" lon="-5.654472">
        <ele>452</ele>
        <time>2018-10-17T08:18:50.000Z</time>
      </trkpt>
      <trkpt lat="36.094298" lon="-5.65446">
        <ele>451.303035788167</ele>
        <time>2018-10-17T08:18:52.000Z</time>
      </trkpt>
      <trkpt lat="36.094256" lon="-5.654442">
        <ele>451</ele>
        <time>2018-10-17T08:18:54.000Z</time>
      </trkpt>
      <trkpt lat="36.094206" lon="-5.654428">
        <ele>451</ele>
        <time>2018-10-17T08:18:56.000Z</time>
      </trkpt>
      <trkpt lat="36.094162" lon="-5.654412">
        <ele>451</ele>
        <time>2018-10-17T08:18:58.000Z</time>
      </trkpt>
      <trkpt lat="36.094124" lon="-5.654385">
        <ele>451</ele>
        <time>2018-10-17T08:19:00.000Z</time>
      </trkpt>
      <trkpt lat="36.094157" lon="-5.654423">
        <ele>451</ele>
        <time>2018-10-17T08:19:06.000Z</time>
      </trkpt>
      <trkpt lat="36.094202" lon="-5.654453">
        <ele>451</ele>
        <time>2018-10-17T08:19:08.000Z</time>
      </trkpt>
      <trkpt lat="36.094243" lon="-5.654478">
        <ele>451</ele>
        <time>2018-10-17T08:19:10.000Z</time>
      </trkpt>
      <trkpt lat="36.094292" lon="-5.654497">
        <ele>451</ele>
        <time>2018-10-17T08:19:12.000Z</time>
      </trkpt>
      <trkpt lat="36.09434" lon="-5.654504">
        <ele>451</ele>
        <time>2018-10-17T08:19:14.000Z</time>
      </trkpt>
      <trkpt lat="36.094383" lon="-5.654521">
        <ele>451</ele>
        <time>2018-10-17T08:19:16.000Z</time>
      </trkpt>
      <trkpt lat="36.094434" lon="-5.654521">
        <ele>452</ele>
        <time>2018-10-17T08:19:18.000Z</time>
      </trkpt>
      <trkpt lat="36.094481" lon="-5.654515">
        <ele>452</ele>
        <time>2018-10-17T08:19:20.000Z</time>
      </trkpt>
      <trkpt lat="36.094528" lon="-5.654506">
        <ele>452</ele>
        <time>2018-10-17T08:19:22.000Z</time>
      </trkpt>
      <trkpt lat="36.094575" lon="-5.654498">
        <ele>452</ele>
        <time>2018-10-17T08:19:24.000Z</time>
      </trkpt>
      <trkpt lat="36.09462" lon="-5.654497">
        <ele>453</ele>
        <time>2018-10-17T08:19:26.000Z</time>
      </trkpt>
      <trkpt lat="36.094661" lon="-5.654489">
        <ele>453</ele>
        <time>2018-10-17T08:19:28.000Z</time>
      </trkpt>
      <trkpt lat="36.0947" lon="-5.654473">
        <ele>453.603447134376</ele>
        <time>2018-10-17T08:19:30.000Z</time>
      </trkpt>
      <trkpt lat="36.094739" lon="-5.654463">
        <ele>454</ele>
        <time>2018-10-17T08:19:32.000Z</time>
      </trkpt>
      <trkpt lat="36.094774" lon="-5.654448">
        <ele>454</ele>
        <time>2018-10-17T08:19:34.000Z</time>
      </trkpt>
      <trkpt lat="36.09481" lon="-5.654435">
        <ele>454</ele>
        <time>2018-10-17T08:19:36.000Z</time>
      </trkpt>
      <trkpt lat="36.094851" lon="-5.654425">
        <ele>454.673910623852</ele>
        <time>2018-10-17T08:19:38.000Z</time>
      </trkpt>
      <trkpt lat="36.094888" lon="-5.654414">
        <ele>455</ele>
        <time>2018-10-17T08:19:40.000Z</time>
      </trkpt>
      <trkpt lat="36.094926" lon="-5.654419">
        <ele>455</ele>
        <time>2018-10-17T08:19:42.000Z</time>
      </trkpt>
      <trkpt lat="36.094969" lon="-5.654426">
        <ele>455</ele>
        <time>2018-10-17T08:19:44.000Z</time>
      </trkpt>
      <trkpt lat="36.095039" lon="-5.654443">
        <ele>456</ele>
        <time>2018-10-17T08:19:47.000Z</time>
      </trkpt>
      <trkpt lat="36.095087" lon="-5.654467">
        <ele>455.329666774507</ele>
        <time>2018-10-17T08:19:49.000Z</time>
      </trkpt>
      <trkpt lat="36.095127" lon="-5.654501">
        <ele>455</ele>
        <time>2018-10-17T08:19:51.000Z</time>
      </trkpt>
      <trkpt lat="36.095166" lon="-5.654538">
        <ele>455</ele>
        <time>2018-10-17T08:19:53.000Z</time>
      </trkpt>
      <trkpt lat="36.095203" lon="-5.65458">
        <ele>455</ele>
        <time>2018-10-17T08:19:55.000Z</time>
      </trkpt>
      <trkpt lat="36.095239" lon="-5.654617">
        <ele>455</ele>
        <time>2018-10-17T08:19:57.000Z</time>
      </trkpt>
      <trkpt lat="36.095278" lon="-5.654653">
        <ele>455</ele>
        <time>2018-10-17T08:19:59.000Z</time>
      </trkpt>
      <trkpt lat="36.09532" lon="-5.654679">
        <ele>454.337072672621</ele>
        <time>2018-10-17T08:20:01.000Z</time>
      </trkpt>
      <trkpt lat="36.095361" lon="-5.654713">
        <ele>454</ele>
        <time>2018-10-17T08:20:03.000Z</time>
      </trkpt>
      <trkpt lat="36.095396" lon="-5.65474">
        <ele>454</ele>
        <time>2018-10-17T08:20:05.000Z</time>
      </trkpt>
      <trkpt lat="36.095435" lon="-5.65476">
        <ele>454</ele>
        <time>2018-10-17T08:20:07.000Z</time>
      </trkpt>
      <trkpt lat="36.095477" lon="-5.654784">
        <ele>454</ele>
        <time>2018-10-17T08:20:09.000Z</time>
      </trkpt>
      <trkpt lat="36.095518" lon="-5.654801">
        <ele>454</ele>
        <time>2018-10-17T08:20:11.000Z</time>
      </trkpt>
      <trkpt lat="36.095563" lon="-5.654813">
        <ele>454</ele>
        <time>2018-10-17T08:20:13.000Z</time>
      </trkpt>
      <trkpt lat="36.095599" lon="-5.654817">
        <ele>453</ele>
        <time>2018-10-17T08:20:15.000Z</time>
      </trkpt>
      <trkpt lat="36.095639" lon="-5.654825">
        <ele>453</ele>
        <time>2018-10-17T08:20:17.000Z</time>
      </trkpt>
      <trkpt lat="36.095675" lon="-5.654838">
        <ele>453</ele>
        <time>2018-10-17T08:20:19.000Z</time>
      </trkpt>
      <trkpt lat="36.09572" lon="-5.654865">
        <ele>453</ele>
        <time>2018-10-17T08:20:21.000Z</time>
      </trkpt>
      <trkpt lat="36.095768" lon="-5.654892">
        <ele>453</ele>
        <time>2018-10-17T08:20:23.000Z</time>
      </trkpt>
      <trkpt lat="36.095817" lon="-5.654917">
        <ele>453</ele>
        <time>2018-10-17T08:20:25.000Z</time>
      </trkpt>
      <trkpt lat="36.095866" lon="-5.654942">
        <ele>453</ele>
        <time>2018-10-17T08:20:27.000Z</time>
      </trkpt>
      <trkpt lat="36.095917" lon="-5.654966">
        <ele>453</ele>
        <time>2018-10-17T08:20:29.000Z</time>
      </trkpt>
      <trkpt lat="36.095966" lon="-5.654987">
        <ele>453</ele>
        <time>2018-10-17T08:20:31.000Z</time>
      </trkpt>
      <trkpt lat="36.096016" lon="-5.655021">
        <ele>453</ele>
        <time>2018-10-17T08:20:33.000Z</time>
      </trkpt>
      <trkpt lat="36.096059" lon="-5.655058">
        <ele>453</ele>
        <time>2018-10-17T08:20:35.000Z</time>
      </trkpt>
      <trkpt lat="36.096101" lon="-5.655095">
        <ele>453</ele>
        <time>2018-10-17T08:20:37.000Z</time>
      </trkpt>
      <trkpt lat="36.096143" lon="-5.655128">
        <ele>453</ele>
        <time>2018-10-17T08:20:39.000Z</time>
      </trkpt>
      <trkpt lat="36.096185" lon="-5.655156">
        <ele>453</ele>
        <time>2018-10-17T08:20:41.000Z</time>
      </trkpt>
      <trkpt lat="36.096232" lon="-5.655187">
        <ele>452</ele>
        <time>2018-10-17T08:20:43.000Z</time>
      </trkpt>
      <trkpt lat="36.096283" lon="-5.655214">
        <ele>452</ele>
        <time>2018-10-17T08:20:45.000Z</time>
      </trkpt>
      <trkpt lat="36.096331" lon="-5.655244">
        <ele>452</ele>
        <time>2018-10-17T08:20:47.000Z</time>
      </trkpt>
      <trkpt lat="36.096374" lon="-5.655268">
        <ele>452</ele>
        <time>2018-10-17T08:20:49.000Z</time>
      </trkpt>
      <trkpt lat="36.096418" lon="-5.655297">
        <ele>452</ele>
        <time>2018-10-17T08:20:51.000Z</time>
      </trkpt>
      <trkpt lat="36.096457" lon="-5.655321">
        <ele>452</ele>
        <time>2018-10-17T08:20:53.000Z</time>
      </trkpt>
      <trkpt lat="36.0965" lon="-5.655352">
        <ele>451</ele>
        <time>2018-10-17T08:20:55.000Z</time>
      </trkpt>
      <trkpt lat="36.096549" lon="-5.655394">
        <ele>451</ele>
        <time>2018-10-17T08:20:57.000Z</time>
      </trkpt>
      <trkpt lat="36.096597" lon="-5.655431">
        <ele>451</ele>
        <time>2018-10-17T08:20:59.000Z</time>
      </trkpt>
      <trkpt lat="36.096634" lon="-5.655465">
        <ele>450</ele>
        <time>2018-10-17T08:21:01.000Z</time>
      </trkpt>
      <trkpt lat="36.096669" lon="-5.655495">
        <ele>450</ele>
        <time>2018-10-17T08:21:03.000Z</time>
      </trkpt>
      <trkpt lat="36.096702" lon="-5.655527">
        <ele>450</ele>
        <time>2018-10-17T08:21:05.000Z</time>
      </trkpt>
      <trkpt lat="36.096738" lon="-5.655549">
        <ele>450</ele>
        <time>2018-10-17T08:21:07.000Z</time>
      </trkpt>
      <trkpt lat="36.096783" lon="-5.655574">
        <ele>450</ele>
        <time>2018-10-17T08:21:09.000Z</time>
      </trkpt>
      <trkpt lat="36.096831" lon="-5.655603">
        <ele>450</ele>
        <time>2018-10-17T08:21:11.000Z</time>
      </trkpt>
      <trkpt lat="36.096873" lon="-5.655639">
        <ele>450</ele>
        <time>2018-10-17T08:21:13.000Z</time>
      </trkpt>
      <trkpt lat="36.096914" lon="-5.655686">
        <ele>449</ele>
        <time>2018-10-17T08:21:15.000Z</time>
      </trkpt>
      <trkpt lat="36.096955" lon="-5.655715">
        <ele>449</ele>
        <time>2018-10-17T08:21:17.000Z</time>
      </trkpt>
      <trkpt lat="36.096999" lon="-5.655738">
        <ele>449</ele>
        <time>2018-10-17T08:21:19.000Z</time>
      </trkpt>
      <trkpt lat="36.097023" lon="-5.655754">
        <ele>449</ele>
        <time>2018-10-17T08:21:23.000Z</time>
      </trkpt>
      <trkpt lat="36.097043" lon="-5.655773">
        <ele>449</ele>
        <time>2018-10-17T08:21:38.000Z</time>
      </trkpt>
      <trkpt lat="36.097067" lon="-5.655806">
        <ele>448</ele>
        <time>2018-10-17T08:21:41.000Z</time>
      </trkpt>
      <trkpt lat="36.097103" lon="-5.655837">
        <ele>448</ele>
        <time>2018-10-17T08:21:43.000Z</time>
      </trkpt>
      <trkpt lat="36.097144" lon="-5.65587">
        <ele>448.696973223175</ele>
        <time>2018-10-17T08:21:45.000Z</time>
      </trkpt>
      <trkpt lat="36.097185" lon="-5.655904">
        <ele>449</ele>
        <time>2018-10-17T08:21:47.000Z</time>
      </trkpt>
      <trkpt lat="36.09723" lon="-5.655938">
        <ele>449</ele>
        <time>2018-10-17T08:21:49.000Z</time>
      </trkpt>
      <trkpt lat="36.097267" lon="-5.655974">
        <ele>449</ele>
        <time>2018-10-17T08:21:51.000Z</time>
      </trkpt>
      <trkpt lat="36.097308" lon="-5.65602">
        <ele>449</ele>
        <time>2018-10-17T08:21:53.000Z</time>
      </trkpt>
      <trkpt lat="36.097341" lon="-5.656073">
        <ele>449</ele>
        <time>2018-10-17T08:21:55.000Z</time>
      </trkpt>
      <trkpt lat="36.097382" lon="-5.656131">
        <ele>449</ele>
        <time>2018-10-17T08:21:57.000Z</time>
      </trkpt>
      <trkpt lat="36.097417" lon="-5.656173">
        <ele>449</ele>
        <time>2018-10-17T08:21:59.000Z</time>
      </trkpt>
      <trkpt lat="36.097452" lon="-5.65621">
        <ele>450</ele>
        <time>2018-10-17T08:22:01.000Z</time>
      </trkpt>
      <trkpt lat="36.097485" lon="-5.656235">
        <ele>450</ele>
        <time>2018-10-17T08:22:03.000Z</time>
      </trkpt>
      <trkpt lat="36.097523" lon="-5.65627">
        <ele>450.700002560033</ele>
        <time>2018-10-17T08:22:05.000Z</time>
      </trkpt>
      <trkpt lat="36.09756" lon="-5.656306">
        <ele>451</ele>
        <time>2018-10-17T08:22:07.000Z</time>
      </trkpt>
      <trkpt lat="36.097594" lon="-5.656347">
        <ele>451</ele>
        <time>2018-10-17T08:22:10.000Z</time>
      </trkpt>
      <trkpt lat="36.097623" lon="-5.656385">
        <ele>451</ele>
        <time>2018-10-17T08:22:12.000Z</time>
      </trkpt>
      <trkpt lat="36.097652" lon="-5.656414">
        <ele>451</ele>
        <time>2018-10-17T08:22:14.000Z</time>
      </trkpt>
      <trkpt lat="36.097691" lon="-5.656438">
        <ele>451</ele>
        <time>2018-10-17T08:22:16.000Z</time>
      </trkpt>
      <trkpt lat="36.097739" lon="-5.656463">
        <ele>451</ele>
        <time>2018-10-17T08:22:18.000Z</time>
      </trkpt>
      <trkpt lat="36.09779" lon="-5.656473">
        <ele>451</ele>
        <time>2018-10-17T08:22:20.000Z</time>
      </trkpt>
      <trkpt lat="36.097838" lon="-5.656479">
        <ele>452</ele>
        <time>2018-10-17T08:22:22.000Z</time>
      </trkpt>
      <trkpt lat="36.097881" lon="-5.656503">
        <ele>452</ele>
        <time>2018-10-17T08:22:24.000Z</time>
      </trkpt>
      <trkpt lat="36.097923" lon="-5.656531">
        <ele>452</ele>
        <time>2018-10-17T08:22:26.000Z</time>
      </trkpt>
      <trkpt lat="36.097958" lon="-5.656564">
        <ele>452</ele>
        <time>2018-10-17T08:22:28.000Z</time>
      </trkpt>
      <trkpt lat="36.097995" lon="-5.656601">
        <ele>453</ele>
        <time>2018-10-17T08:22:30.000Z</time>
      </trkpt>
      <trkpt lat="36.098027" lon="-5.656642">
        <ele>453</ele>
        <time>2018-10-17T08:22:32.000Z</time>
      </trkpt>
      <trkpt lat="36.098057" lon="-5.656691">
        <ele>453</ele>
        <time>2018-10-17T08:22:34.000Z</time>
      </trkpt>
      <trkpt lat="36.098079" lon="-5.656745">
        <ele>453</ele>
        <time>2018-10-17T08:22:36.000Z</time>
      </trkpt>
      <trkpt lat="36.098102" lon="-5.656796">
        <ele>452.434206315789</ele>
        <time>2018-10-17T08:22:38.000Z</time>
      </trkpt>
      <trkpt lat="36.098127" lon="-5.656851">
        <ele>452</ele>
        <time>2018-10-17T08:22:40.000Z</time>
      </trkpt>
      <trkpt lat="36.09814" lon="-5.656897">
        <ele>452.56944</ele>
        <time>2018-10-17T08:22:42.000Z</time>
      </trkpt>
      <trkpt lat="36.098161" lon="-5.656947">
        <ele>453</ele>
        <time>2018-10-17T08:22:44.000Z</time>
      </trkpt>
      <trkpt lat="36.098189" lon="-5.657003">
        <ele>453</ele>
        <time>2018-10-17T08:22:46.000Z</time>
      </trkpt>
      <trkpt lat="36.098222" lon="-5.657041">
        <ele>454</ele>
        <time>2018-10-17T08:22:48.000Z</time>
      </trkpt>
      <trkpt lat="36.098288" lon="-5.657071">
        <ele>454.53906</ele>
        <time>2018-10-17T08:22:53.000Z</time>
      </trkpt>
      <trkpt lat="36.098333" lon="-5.65707">
        <ele>455</ele>
        <time>2018-10-17T08:22:56.000Z</time>
      </trkpt>
      <trkpt lat="36.098391" lon="-5.657069">
        <ele>455</ele>
        <time>2018-10-17T08:22:59.000Z</time>
      </trkpt>
      <trkpt lat="36.098432" lon="-5.65706">
        <ele>456</ele>
        <time>2018-10-17T08:23:01.000Z</time>
      </trkpt>
      <trkpt lat="36.098486" lon="-5.657057">
        <ele>457</ele>
        <time>2018-10-17T08:23:04.000Z</time>
      </trkpt>
      <trkpt lat="36.098524" lon="-5.657051">
        <ele>457</ele>
        <time>2018-10-17T08:23:06.000Z</time>
      </trkpt>
      <trkpt lat="36.098574" lon="-5.657052">
        <ele>457</ele>
        <time>2018-10-17T08:23:08.000Z</time>
      </trkpt>
      <trkpt lat="36.098608" lon="-5.657065">
        <ele>457.66037940903</ele>
        <time>2018-10-17T08:23:10.000Z</time>
      </trkpt>
      <trkpt lat="36.098642" lon="-5.65709">
        <ele>458.427672095251</ele>
        <time>2018-10-17T08:23:12.000Z</time>
      </trkpt>
      <trkpt lat="36.098678" lon="-5.657116">
        <ele>459</ele>
        <time>2018-10-17T08:23:14.000Z</time>
      </trkpt>
      <trkpt lat="36.098714" lon="-5.657141">
        <ele>459</ele>
        <time>2018-10-17T08:23:16.000Z</time>
      </trkpt>
      <trkpt lat="36.098744" lon="-5.657163">
        <ele>459</ele>
        <time>2018-10-17T08:23:18.000Z</time>
      </trkpt>
      <trkpt lat="36.098778" lon="-5.657189">
        <ele>460</ele>
        <time>2018-10-17T08:23:20.000Z</time>
      </trkpt>
      <trkpt lat="36.098808" lon="-5.657214">
        <ele>461</ele>
        <time>2018-10-17T08:23:22.000Z</time>
      </trkpt>
      <trkpt lat="36.098838" lon="-5.657238">
        <ele>462</ele>
        <time>2018-10-17T08:23:24.000Z</time>
      </trkpt>
      <trkpt lat="36.09889" lon="-5.657255">
        <ele>463</ele>
        <time>2018-10-17T08:23:27.000Z</time>
      </trkpt>
      <trkpt lat="36.098928" lon="-5.657251">
        <ele>463</ele>
        <time>2018-10-17T08:23:29.000Z</time>
      </trkpt>
      <trkpt lat="36.098966" lon="-5.657248">
        <ele>463.398370345703</ele>
        <time>2018-10-17T08:23:31.000Z</time>
      </trkpt>
      <trkpt lat="36.099002" lon="-5.657244">
        <ele>464</ele>
        <time>2018-10-17T08:23:33.000Z</time>
      </trkpt>
      <trkpt lat="36.099054" lon="-5.657239">
        <ele>464</ele>
        <time>2018-10-17T08:23:36.000Z</time>
      </trkpt>
      <trkpt lat="36.099092" lon="-5.657258">
        <ele>464</ele>
        <time>2018-10-17T08:23:38.000Z</time>
      </trkpt>
      <trkpt lat="36.099142" lon="-5.657288">
        <ele>464.515156216667</ele>
        <time>2018-10-17T08:23:41.000Z</time>
      </trkpt>
      <trkpt lat="36.099168" lon="-5.657321">
        <ele>465</ele>
        <time>2018-10-17T08:23:43.000Z</time>
      </trkpt>
      <trkpt lat="36.099176" lon="-5.657388">
        <ele>465</ele>
        <time>2018-10-17T08:23:46.000Z</time>
      </trkpt>
      <trkpt lat="36.099176" lon="-5.657434">
        <ele>465</ele>
        <time>2018-10-17T08:23:48.000Z</time>
      </trkpt>
      <trkpt lat="36.099166" lon="-5.657498">
        <ele>465</ele>
        <time>2018-10-17T08:23:51.000Z</time>
      </trkpt>
      <trkpt lat="36.099158" lon="-5.657543">
        <ele>465.487399025482</ele>
        <time>2018-10-17T08:23:53.000Z</time>
      </trkpt>
      <trkpt lat="36.099152" lon="-5.657598">
        <ele>467</ele>
        <time>2018-10-17T08:23:55.000Z</time>
      </trkpt>
      <trkpt lat="36.099144" lon="-5.657647">
        <ele>467</ele>
        <time>2018-10-17T08:23:57.000Z</time>
      </trkpt>
      <trkpt lat="36.099134" lon="-5.657698">
        <ele>468</ele>
        <time>2018-10-17T08:23:59.000Z</time>
      </trkpt>
      <trkpt lat="36.09912" lon="-5.657753">
        <ele>468</ele>
        <time>2018-10-17T08:24:01.000Z</time>
      </trkpt>
      <trkpt lat="36.099108" lon="-5.657808">
        <ele>468.570246797347</ele>
        <time>2018-10-17T08:24:03.000Z</time>
      </trkpt>
      <trkpt lat="36.099091" lon="-5.657851">
        <ele>469</ele>
        <time>2018-10-17T08:24:05.000Z</time>
      </trkpt>
      <trkpt lat="36.099078" lon="-5.657898">
        <ele>469</ele>
        <time>2018-10-17T08:24:07.000Z</time>
      </trkpt>
      <trkpt lat="36.099065" lon="-5.657949">
        <ele>470</ele>
        <time>2018-10-17T08:24:09.000Z</time>
      </trkpt>
      <trkpt lat="36.099052" lon="-5.658007">
        <ele>470</ele>
        <time>2018-10-17T08:24:11.000Z</time>
      </trkpt>
      <trkpt lat="36.099043" lon="-5.658062">
        <ele>470</ele>
        <time>2018-10-17T08:24:13.000Z</time>
      </trkpt>
      <trkpt lat="36.099031" lon="-5.658119">
        <ele>470.680855699443</ele>
        <time>2018-10-17T08:24:15.000Z</time>
      </trkpt>
      <trkpt lat="36.099016" lon="-5.658177">
        <ele>471</ele>
        <time>2018-10-17T08:24:17.000Z</time>
      </trkpt>
      <trkpt lat="36.098994" lon="-5.658222">
        <ele>471</ele>
        <time>2018-10-17T08:24:19.000Z</time>
      </trkpt>
      <trkpt lat="36.098964" lon="-5.658259">
        <ele>471</ele>
        <time>2018-10-17T08:24:21.000Z</time>
      </trkpt>
      <trkpt lat="36.09893" lon="-5.658288">
        <ele>471</ele>
        <time>2018-10-17T08:24:23.000Z</time>
      </trkpt>
      <trkpt lat="36.09889" lon="-5.658314">
        <ele>470.997050714781</ele>
        <time>2018-10-17T08:24:26.000Z</time>
      </trkpt>
      <trkpt lat="36.098864" lon="-5.658352">
        <ele>470.008154115198</ele>
        <time>2018-10-17T08:25:23.000Z</time>
      </trkpt>
      <trkpt lat="36.098859" lon="-5.658388">
        <ele>470</ele>
        <time>2018-10-17T08:25:25.000Z</time>
      </trkpt>
      <trkpt lat="36.098842" lon="-5.658447">
        <ele>470</ele>
        <time>2018-10-17T08:25:27.000Z</time>
      </trkpt>
      <trkpt lat="36.098814" lon="-5.658527">
        <ele>469</ele>
        <time>2018-10-17T08:25:29.000Z</time>
      </trkpt>
      <trkpt lat="36.098798" lon="-5.658567">
        <ele>469</ele>
        <time>2018-10-17T08:25:30.000Z</time>
      </trkpt>
      <trkpt lat="36.098784" lon="-5.658609">
        <ele>467.6200064</ele>
        <time>2018-10-17T08:25:31.000Z</time>
      </trkpt>
      <trkpt lat="36.098748" lon="-5.658684">
        <ele>466</ele>
        <time>2018-10-17T08:25:33.000Z</time>
      </trkpt>
      <trkpt lat="36.098728" lon="-5.658726">
        <ele>466.686866466694</ele>
        <time>2018-10-17T08:25:34.000Z</time>
      </trkpt>
      <trkpt lat="36.0987" lon="-5.658757">
        <ele>467</ele>
        <time>2018-10-17T08:25:35.000Z</time>
      </trkpt>
      <trkpt lat="36.098676" lon="-5.658789">
        <ele>466.5</ele>
        <time>2018-10-17T08:25:36.000Z</time>
      </trkpt>
      <trkpt lat="36.098638" lon="-5.658853">
        <ele>466</ele>
        <time>2018-10-17T08:25:38.000Z</time>
      </trkpt>
      <trkpt lat="36.09856" lon="-5.658992">
        <ele>464.514084570522</ele>
        <time>2018-10-17T08:25:42.000Z</time>
      </trkpt>
      <trkpt lat="36.098512" lon="-5.659113">
        <ele>463.336541538462</ele>
        <time>2018-10-17T08:25:45.000Z</time>
      </trkpt>
      <trkpt lat="36.098493" lon="-5.659256">
        <ele>462</ele>
        <time>2018-10-17T08:25:48.000Z</time>
      </trkpt>
      <trkpt lat="36.098496" lon="-5.659406">
        <ele>461</ele>
        <time>2018-10-17T08:25:51.000Z</time>
      </trkpt>
      <trkpt lat="36.098477" lon="-5.659548">
        <ele>460</ele>
        <time>2018-10-17T08:25:54.000Z</time>
      </trkpt>
      <trkpt lat="36.098447" lon="-5.659719">
        <ele>460</ele>
        <time>2018-10-17T08:25:58.000Z</time>
      </trkpt>
      <trkpt lat="36.098421" lon="-5.659856">
        <ele>458.512600974518</ele>
        <time>2018-10-17T08:26:01.000Z</time>
      </trkpt>
      <trkpt lat="36.098385" lon="-5.660023">
        <ele>456</ele>
        <time>2018-10-17T08:26:05.000Z</time>
      </trkpt>
      <trkpt lat="36.098363" lon="-5.660156">
        <ele>455</ele>
        <time>2018-10-17T08:26:08.000Z</time>
      </trkpt>
      <trkpt lat="36.098341" lon="-5.660232">
        <ele>455</ele>
        <time>2018-10-17T08:26:10.000Z</time>
      </trkpt>
      <trkpt lat="36.098326" lon="-5.660305">
        <ele>454.516123704529</ele>
        <time>2018-10-17T08:26:12.000Z</time>
      </trkpt>
      <trkpt lat="36.098325" lon="-5.660389">
        <ele>454</ele>
        <time>2018-10-17T08:26:14.000Z</time>
      </trkpt>
      <trkpt lat="36.098336" lon="-5.660463">
        <ele>452.378375885053</ele>
        <time>2018-10-17T08:26:16.000Z</time>
      </trkpt>
      <trkpt lat="36.098343" lon="-5.660506">
        <ele>452</ele>
        <time>2018-10-17T08:26:17.000Z</time>
      </trkpt>
      <trkpt lat="36.098351" lon="-5.660549">
        <ele>452</ele>
        <time>2018-10-17T08:26:18.000Z</time>
      </trkpt>
      <trkpt lat="36.09837" lon="-5.660631">
        <ele>451.527026793282</ele>
        <time>2018-10-17T08:26:20.000Z</time>
      </trkpt>
      <trkpt lat="36.098399" lon="-5.660706">
        <ele>450</ele>
        <time>2018-10-17T08:26:22.000Z</time>
      </trkpt>
      <trkpt lat="36.098433" lon="-5.660771">
        <ele>448.34042321414</ele>
        <time>2018-10-17T08:26:24.000Z</time>
      </trkpt>
      <trkpt lat="36.098465" lon="-5.660843">
        <ele>448</ele>
        <time>2018-10-17T08:26:26.000Z</time>
      </trkpt>
      <trkpt lat="36.098482" lon="-5.660883">
        <ele>448</ele>
        <time>2018-10-17T08:26:27.000Z</time>
      </trkpt>
      <trkpt lat="36.098502" lon="-5.66096">
        <ele>447</ele>
        <time>2018-10-17T08:26:29.000Z</time>
      </trkpt>
      <trkpt lat="36.09851" lon="-5.661033">
        <ele>446.313133533306</ele>
        <time>2018-10-17T08:26:31.000Z</time>
      </trkpt>
      <trkpt lat="36.098527" lon="-5.661112">
        <ele>445</ele>
        <time>2018-10-17T08:26:33.000Z</time>
      </trkpt>
      <trkpt lat="36.098553" lon="-5.661187">
        <ele>445</ele>
        <time>2018-10-17T08:26:35.000Z</time>
      </trkpt>
      <trkpt lat="36.098585" lon="-5.661259">
        <ele>443.3100032</ele>
        <time>2018-10-17T08:26:37.000Z</time>
      </trkpt>
      <trkpt lat="36.098624" lon="-5.661322">
        <ele>443</ele>
        <time>2018-10-17T08:26:39.000Z</time>
      </trkpt>
      <trkpt lat="36.098659" lon="-5.661369">
        <ele>443</ele>
        <time>2018-10-17T08:26:41.000Z</time>
      </trkpt>
      <trkpt lat="36.098689" lon="-5.661332">
        <ele>443</ele>
        <time>2018-10-17T08:26:46.000Z</time>
      </trkpt>
      <trkpt lat="36.098727" lon="-5.661306">
        <ele>444</ele>
        <time>2018-10-17T08:26:54.000Z</time>
      </trkpt>
      <trkpt lat="36.098752" lon="-5.661273">
        <ele>444</ele>
        <time>2018-10-17T08:26:57.000Z</time>
      </trkpt>
      <trkpt lat="36.098791" lon="-5.661247">
        <ele>443</ele>
        <time>2018-10-17T08:27:00.000Z</time>
      </trkpt>
      <trkpt lat="36.098828" lon="-5.661225">
        <ele>442</ele>
        <time>2018-10-17T08:27:02.000Z</time>
      </trkpt>
      <trkpt lat="36.098869" lon="-5.661195">
        <ele>442</ele>
        <time>2018-10-17T08:27:04.000Z</time>
      </trkpt>
      <trkpt lat="36.098911" lon="-5.661145">
        <ele>442</ele>
        <time>2018-10-17T08:27:06.000Z</time>
      </trkpt>
      <trkpt lat="36.098962" lon="-5.661085">
        <ele>442</ele>
        <time>2018-10-17T08:27:08.000Z</time>
      </trkpt>
      <trkpt lat="36.099028" lon="-5.661043">
        <ele>442</ele>
        <time>2018-10-17T08:27:11.000Z</time>
      </trkpt>
      <trkpt lat="36.099064" lon="-5.661017">
        <ele>440.306117917505</ele>
        <time>2018-10-17T08:27:13.000Z</time>
      </trkpt>
      <trkpt lat="36.099106" lon="-5.660998">
        <ele>439.576924970461</ele>
        <time>2018-10-17T08:27:15.000Z</time>
      </trkpt>
      <trkpt lat="36.099145" lon="-5.660985">
        <ele>439</ele>
        <time>2018-10-17T08:27:17.000Z</time>
      </trkpt>
      <trkpt lat="36.099185" lon="-5.660958">
        <ele>439</ele>
        <time>2018-10-17T08:27:19.000Z</time>
      </trkpt>
      <trkpt lat="36.099214" lon="-5.660924">
        <ele>439.686866466694</ele>
        <time>2018-10-17T08:27:21.000Z</time>
      </trkpt>
      <trkpt lat="36.099245" lon="-5.660886">
        <ele>439</ele>
        <time>2018-10-17T08:27:23.000Z</time>
      </trkpt>
      <trkpt lat="36.099274" lon="-5.660856">
        <ele>439</ele>
        <time>2018-10-17T08:27:25.000Z</time>
      </trkpt>
      <trkpt lat="36.099304" lon="-5.660822">
        <ele>438.313133533306</ele>
        <time>2018-10-17T08:27:27.000Z</time>
      </trkpt>
      <trkpt lat="36.09933" lon="-5.660786">
        <ele>438</ele>
        <time>2018-10-17T08:27:29.000Z</time>
      </trkpt>
      <trkpt lat="36.099357" lon="-5.660746">
        <ele>438</ele>
        <time>2018-10-17T08:27:31.000Z</time>
      </trkpt>
      <trkpt lat="36.099378" lon="-5.660701">
        <ele>437</ele>
        <time>2018-10-17T08:27:33.000Z</time>
      </trkpt>
      <trkpt lat="36.099401" lon="-5.66066">
        <ele>436.323528304491</ele>
        <time>2018-10-17T08:27:35.000Z</time>
      </trkpt>
      <trkpt lat="36.099431" lon="-5.660619">
        <ele>435</ele>
        <time>2018-10-17T08:27:37.000Z</time>
      </trkpt>
      <trkpt lat="36.099458" lon="-5.66058">
        <ele>435</ele>
        <time>2018-10-17T08:27:39.000Z</time>
      </trkpt>
      <trkpt lat="36.099489" lon="-5.660549">
        <ele>434</ele>
        <time>2018-10-17T08:27:41.000Z</time>
      </trkpt>
      <trkpt lat="36.099519" lon="-5.660515">
        <ele>434</ele>
        <time>2018-10-17T08:27:43.000Z</time>
      </trkpt>
      <trkpt lat="36.099533" lon="-5.660472">
        <ele>434</ele>
        <time>2018-10-17T08:27:45.000Z</time>
      </trkpt>
      <trkpt lat="36.099553" lon="-5.660421">
        <ele>433</ele>
        <time>2018-10-17T08:27:48.000Z</time>
      </trkpt>
      <trkpt lat="36.099569" lon="-5.660377">
        <ele>432.048484942516</ele>
        <time>2018-10-17T08:27:50.000Z</time>
      </trkpt>
      <trkpt lat="36.099595" lon="-5.660335">
        <ele>430.366973554418</ele>
        <time>2018-10-17T08:27:52.000Z</time>
      </trkpt>
      <trkpt lat="36.099619" lon="-5.660299">
        <ele>430</ele>
        <time>2018-10-17T08:27:54.000Z</time>
      </trkpt>
      <trkpt lat="36.099652" lon="-5.660254">
        <ele>430</ele>
        <time>2018-10-17T08:27:56.000Z</time>
      </trkpt>
      <trkpt lat="36.099689" lon="-5.660209">
        <ele>430</ele>
        <time>2018-10-17T08:27:59.000Z</time>
      </trkpt>
      <trkpt lat="36.099728" lon="-5.660166">
        <ele>430</ele>
        <time>2018-10-17T08:28:02.000Z</time>
      </trkpt>
      <trkpt lat="36.099762" lon="-5.660135">
        <ele>429</ele>
        <time>2018-10-17T08:28:04.000Z</time>
      </trkpt>
      <trkpt lat="36.099798" lon="-5.660097">
        <ele>427</ele>
        <time>2018-10-17T08:28:07.000Z</time>
      </trkpt>
      <trkpt lat="36.099832" lon="-5.660048">
        <ele>427</ele>
        <time>2018-10-17T08:28:10.000Z</time>
      </trkpt>
      <trkpt lat="36.09985" lon="-5.660003">
        <ele>427</ele>
        <time>2018-10-17T08:28:12.000Z</time>
      </trkpt>
      <trkpt lat="36.099878" lon="-5.659969">
        <ele>425.575753461852</ele>
        <time>2018-10-17T08:28:15.000Z</time>
      </trkpt>
      <trkpt lat="36.099897" lon="-5.659915">
        <ele>424.55555781304</ele>
        <time>2018-10-17T08:28:19.000Z</time>
      </trkpt>
      <trkpt lat="36.099929" lon="-5.659886">
        <ele>424</ele>
        <time>2018-10-17T08:28:22.000Z</time>
      </trkpt>
      <trkpt lat="36.099959" lon="-5.659852">
        <ele>423</ele>
        <time>2018-10-17T08:28:29.000Z</time>
      </trkpt>
      <trkpt lat="36.099983" lon="-5.659817">
        <ele>423</ele>
        <time>2018-10-17T08:28:31.000Z</time>
      </trkpt>
      <trkpt lat="36.100014" lon="-5.659764">
        <ele>422.449273749235</ele>
        <time>2018-10-17T08:28:34.000Z</time>
      </trkpt>
      <trkpt lat="36.100038" lon="-5.65971">
        <ele>421</ele>
        <time>2018-10-17T08:28:37.000Z</time>
      </trkpt>
      <trkpt lat="36.100059" lon="-5.659671">
        <ele>420.306126980395</ele>
        <time>2018-10-17T08:28:40.000Z</time>
      </trkpt>
      <trkpt lat="36.100099" lon="-5.659645">
        <ele>420</ele>
        <time>2018-10-17T08:28:44.000Z</time>
      </trkpt>
      <trkpt lat="36.100125" lon="-5.659608">
        <ele>420</ele>
        <time>2018-10-17T08:28:46.000Z</time>
      </trkpt>
      <trkpt lat="36.100152" lon="-5.659571">
        <ele>418</ele>
        <time>2018-10-17T08:28:49.000Z</time>
      </trkpt>
      <trkpt lat="36.100184" lon="-5.659547">
        <ele>417</ele>
        <time>2018-10-17T08:28:54.000Z</time>
      </trkpt>
      <trkpt lat="36.100215" lon="-5.659511">
        <ele>416</ele>
        <time>2018-10-17T08:28:58.000Z</time>
      </trkpt>
      <trkpt lat="36.100245" lon="-5.659469">
        <ele>416</ele>
        <time>2018-10-17T08:29:02.000Z</time>
      </trkpt>
      <trkpt lat="36.100276" lon="-5.659414">
        <ele>416</ele>
        <time>2018-10-17T08:29:05.000Z</time>
      </trkpt>
      <trkpt lat="36.100299" lon="-5.659378">
        <ele>415</ele>
        <time>2018-10-17T08:29:08.000Z</time>
      </trkpt>
      <trkpt lat="36.100327" lon="-5.659326">
        <ele>414</ele>
        <time>2018-10-17T08:29:11.000Z</time>
      </trkpt>
      <trkpt lat="36.100347" lon="-5.65927">
        <ele>414</ele>
        <time>2018-10-17T08:29:14.000Z</time>
      </trkpt>
      <trkpt lat="36.100366" lon="-5.65923">
        <ele>411</ele>
        <time>2018-10-17T08:29:18.000Z</time>
      </trkpt>
      <trkpt lat="36.1004" lon="-5.659194">
        <ele>411</ele>
        <time>2018-10-17T08:29:21.000Z</time>
      </trkpt>
      <trkpt lat="36.100443" lon="-5.65915">
        <ele>411</ele>
        <time>2018-10-17T08:29:25.000Z</time>
      </trkpt>
      <trkpt lat="36.100472" lon="-5.659112">
        <ele>411</ele>
        <time>2018-10-17T08:29:27.000Z</time>
      </trkpt>
      <trkpt lat="36.1005" lon="-5.659081">
        <ele>410.496351524325</ele>
        <time>2018-10-17T08:29:30.000Z</time>
      </trkpt>
      <trkpt lat="36.100515" lon="-5.659033">
        <ele>410</ele>
        <time>2018-10-17T08:29:32.000Z</time>
      </trkpt>
      <trkpt lat="36.100552" lon="-5.659009">
        <ele>408</ele>
        <time>2018-10-17T08:29:37.000Z</time>
      </trkpt>
      <trkpt lat="36.100577" lon="-5.658966">
        <ele>408</ele>
        <time>2018-10-17T08:29:41.000Z</time>
      </trkpt>
      <trkpt lat="36.1006" lon="-5.658925">
        <ele>407</ele>
        <time>2018-10-17T08:29:44.000Z</time>
      </trkpt>
      <trkpt lat="36.100616" lon="-5.658883">
        <ele>407</ele>
        <time>2018-10-17T08:29:48.000Z</time>
      </trkpt>
      <trkpt lat="36.100642" lon="-5.658846">
        <ele>406</ele>
        <time>2018-10-17T08:29:51.000Z</time>
      </trkpt>
      <trkpt lat="36.100671" lon="-5.658795">
        <ele>405</ele>
        <time>2018-10-17T08:29:56.000Z</time>
      </trkpt>
      <trkpt lat="36.100684" lon="-5.65875">
        <ele>404</ele>
        <time>2018-10-17T08:29:59.000Z</time>
      </trkpt>
      <trkpt lat="36.100718" lon="-5.658718">
        <ele>404</ele>
        <time>2018-10-17T08:30:02.000Z</time>
      </trkpt>
      <trkpt lat="36.10075" lon="-5.658682">
        <ele>402</ele>
        <time>2018-10-17T08:30:06.000Z</time>
      </trkpt>
      <trkpt lat="36.100777" lon="-5.658652">
        <ele>402</ele>
        <time>2018-10-17T08:30:08.000Z</time>
      </trkpt>
      <trkpt lat="36.100815" lon="-5.658622">
        <ele>402</ele>
        <time>2018-10-17T08:30:13.000Z</time>
      </trkpt>
      <trkpt lat="36.100841" lon="-5.65859">
        <ele>402</ele>
        <time>2018-10-17T08:30:18.000Z</time>
      </trkpt>
      <trkpt lat="36.100869" lon="-5.658535">
        <ele>400</ele>
        <time>2018-10-17T08:30:22.000Z</time>
      </trkpt>
      <trkpt lat="36.100886" lon="-5.658494">
        <ele>400</ele>
        <time>2018-10-17T08:30:24.000Z</time>
      </trkpt>
      <trkpt lat="36.100904" lon="-5.658454">
        <ele>400</ele>
        <time>2018-10-17T08:30:26.000Z</time>
      </trkpt>
      <trkpt lat="36.100928" lon="-5.658409">
        <ele>399</ele>
        <time>2018-10-17T08:30:29.000Z</time>
      </trkpt>
      <trkpt lat="36.100963" lon="-5.658361">
        <ele>397.340427849722</ele>
        <time>2018-10-17T08:30:33.000Z</time>
      </trkpt>
      <trkpt lat="36.100989" lon="-5.658329">
        <ele>398</ele>
        <time>2018-10-17T08:30:35.000Z</time>
      </trkpt>
      <trkpt lat="36.101018" lon="-5.658293">
        <ele>397</ele>
        <time>2018-10-17T08:30:38.000Z</time>
      </trkpt>
      <trkpt lat="36.101054" lon="-5.658269">
        <ele>396</ele>
        <time>2018-10-17T08:30:41.000Z</time>
      </trkpt>
      <trkpt lat="36.101077" lon="-5.658216">
        <ele>395</ele>
        <time>2018-10-17T08:30:44.000Z</time>
      </trkpt>
      <trkpt lat="36.101091" lon="-5.658169">
        <ele>393.515156216667</ele>
        <time>2018-10-17T08:30:47.000Z</time>
      </trkpt>
      <trkpt lat="36.101121" lon="-5.658143">
        <ele>393</ele>
        <time>2018-10-17T08:30:51.000Z</time>
      </trkpt>
      <trkpt lat="36.101142" lon="-5.658107">
        <ele>393</ele>
        <time>2018-10-17T08:30:54.000Z</time>
      </trkpt>
      <trkpt lat="36.101153" lon="-5.65806">
        <ele>392.303026776825</ele>
        <time>2018-10-17T08:30:57.000Z</time>
      </trkpt>
      <trkpt lat="36.101185" lon="-5.658041">
        <ele>392</ele>
        <time>2018-10-17T08:31:01.000Z</time>
      </trkpt>
      <trkpt lat="36.101211" lon="-5.658008">
        <ele>392</ele>
        <time>2018-10-17T08:31:04.000Z</time>
      </trkpt>
      <trkpt lat="36.101241" lon="-5.657982">
        <ele>391</ele>
        <time>2018-10-17T08:31:07.000Z</time>
      </trkpt>
      <trkpt lat="36.101274" lon="-5.657946">
        <ele>389.357797949669</ele>
        <time>2018-10-17T08:31:10.000Z</time>
      </trkpt>
      <trkpt lat="36.101295" lon="-5.6579">
        <ele>389</ele>
        <time>2018-10-17T08:31:13.000Z</time>
      </trkpt>
      <trkpt lat="36.101327" lon="-5.657868">
        <ele>389</ele>
        <time>2018-10-17T08:31:16.000Z</time>
      </trkpt>
      <trkpt lat="36.101363" lon="-5.657851">
        <ele>388.63953384533</ele>
        <time>2018-10-17T08:31:20.000Z</time>
      </trkpt>
      <trkpt lat="36.101398" lon="-5.657833">
        <ele>388</ele>
        <time>2018-10-17T08:31:23.000Z</time>
      </trkpt>
      <trkpt lat="36.101426" lon="-5.657796">
        <ele>388</ele>
        <time>2018-10-17T08:31:26.000Z</time>
      </trkpt>
      <trkpt lat="36.101448" lon="-5.657761">
        <ele>386</ele>
        <time>2018-10-17T08:31:29.000Z</time>
      </trkpt>
      <trkpt lat="36.101478" lon="-5.657727">
        <ele>386</ele>
        <time>2018-10-17T08:31:32.000Z</time>
      </trkpt>
      <trkpt lat="36.101502" lon="-5.657683">
        <ele>385</ele>
        <time>2018-10-17T08:31:36.000Z</time>
      </trkpt>
      <trkpt lat="36.101529" lon="-5.657645">
        <ele>384.3100032</ele>
        <time>2018-10-17T08:31:40.000Z</time>
      </trkpt>
      <trkpt lat="36.101557" lon="-5.657618">
        <ele>384</ele>
        <time>2018-10-17T08:31:43.000Z</time>
      </trkpt>
      <trkpt lat="36.10159" lon="-5.657592">
        <ele>383.463770266761</ele>
        <time>2018-10-17T08:31:47.000Z</time>
      </trkpt>
      <trkpt lat="36.101616" lon="-5.65755">
        <ele>383</ele>
        <time>2018-10-17T08:31:50.000Z</time>
      </trkpt>
      <trkpt lat="36.101635" lon="-5.657503">
        <ele>382</ele>
        <time>2018-10-17T08:31:55.000Z</time>
      </trkpt>
      <trkpt lat="36.10165" lon="-5.657462">
        <ele>381</ele>
        <time>2018-10-17T08:32:00.000Z</time>
      </trkpt>
      <trkpt lat="36.101677" lon="-5.657424">
        <ele>381</ele>
        <time>2018-10-17T08:32:04.000Z</time>
      </trkpt>
      <trkpt lat="36.1017" lon="-5.657386">
        <ele>379</ele>
        <time>2018-10-17T08:32:09.000Z</time>
      </trkpt>
      <trkpt lat="36.10175" lon="-5.657373">
        <ele>379</ele>
        <time>2018-10-17T08:32:13.000Z</time>
      </trkpt>
      <trkpt lat="36.101787" lon="-5.657362">
        <ele>378</ele>
        <time>2018-10-17T08:32:15.000Z</time>
      </trkpt>
      <trkpt lat="36.101822" lon="-5.657339">
        <ele>378</ele>
        <time>2018-10-17T08:32:19.000Z</time>
      </trkpt>
      <trkpt lat="36.101847" lon="-5.657304">
        <ele>376</ele>
        <time>2018-10-17T08:32:26.000Z</time>
      </trkpt>
      <trkpt lat="36.101875" lon="-5.657265">
        <ele>376</ele>
        <time>2018-10-17T08:32:31.000Z</time>
      </trkpt>
      <trkpt lat="36.101904" lon="-5.657228">
        <ele>375</ele>
        <time>2018-10-17T08:32:34.000Z</time>
      </trkpt>
      <trkpt lat="36.101937" lon="-5.657195">
        <ele>376</ele>
        <time>2018-10-17T08:32:37.000Z</time>
      </trkpt>
      <trkpt lat="36.101967" lon="-5.657163">
        <ele>375</ele>
        <time>2018-10-17T08:32:40.000Z</time>
      </trkpt>
      <trkpt lat="36.102003" lon="-5.657134">
        <ele>373.313133533306</ele>
        <time>2018-10-17T08:32:44.000Z</time>
      </trkpt>
      <trkpt lat="36.102028" lon="-5.657087">
        <ele>373</ele>
        <time>2018-10-17T08:32:48.000Z</time>
      </trkpt>
      <trkpt lat="36.102042" lon="-5.657043">
        <ele>373</ele>
        <time>2018-10-17T08:32:53.000Z</time>
      </trkpt>
      <trkpt lat="36.102084" lon="-5.657017">
        <ele>373</ele>
        <time>2018-10-17T08:32:58.000Z</time>
      </trkpt>
      <trkpt lat="36.102115" lon="-5.656989">
        <ele>373</ele>
        <time>2018-10-17T08:33:01.000Z</time>
      </trkpt>
      <trkpt lat="36.102129" lon="-5.656947">
        <ele>372</ele>
        <time>2018-10-17T08:33:05.000Z</time>
      </trkpt>
      <trkpt lat="36.102139" lon="-5.656897">
        <ele>372</ele>
        <time>2018-10-17T08:33:08.000Z</time>
      </trkpt>
      <trkpt lat="36.102149" lon="-5.65684">
        <ele>371</ele>
        <time>2018-10-17T08:33:12.000Z</time>
      </trkpt>
      <trkpt lat="36.102168" lon="-5.656796">
        <ele>371</ele>
        <time>2018-10-17T08:33:15.000Z</time>
      </trkpt>
      <trkpt lat="36.102168" lon="-5.656748">
        <ele>369</ele>
        <time>2018-10-17T08:33:18.000Z</time>
      </trkpt>
      <trkpt lat="36.102187" lon="-5.656701">
        <ele>369</ele>
        <time>2018-10-17T08:33:22.000Z</time>
      </trkpt>
      <trkpt lat="36.102231" lon="-5.65669">
        <ele>367.355558083969</ele>
        <time>2018-10-17T08:33:26.000Z</time>
      </trkpt>
      <trkpt lat="36.10227" lon="-5.656681">
        <ele>367</ele>
        <time>2018-10-17T08:33:31.000Z</time>
      </trkpt>
      <trkpt lat="36.102312" lon="-5.656659">
        <ele>367</ele>
        <time>2018-10-17T08:33:35.000Z</time>
      </trkpt>
      <trkpt lat="36.102331" lon="-5.65662">
        <ele>367</ele>
        <time>2018-10-17T08:33:37.000Z</time>
      </trkpt>
      <trkpt lat="36.102359" lon="-5.656579">
        <ele>367</ele>
        <time>2018-10-17T08:33:39.000Z</time>
      </trkpt>
      <trkpt lat="36.102389" lon="-5.656538">
        <ele>367</ele>
        <time>2018-10-17T08:33:42.000Z</time>
      </trkpt>
      <trkpt lat="36.102419" lon="-5.656491">
        <ele>366</ele>
        <time>2018-10-17T08:33:46.000Z</time>
      </trkpt>
      <trkpt lat="36.102419" lon="-5.656431">
        <ele>365</ele>
        <time>2018-10-17T08:33:49.000Z</time>
      </trkpt>
      <trkpt lat="36.102424" lon="-5.65638">
        <ele>364.342858187758</ele>
        <time>2018-10-17T08:33:52.000Z</time>
      </trkpt>
      <trkpt lat="36.102444" lon="-5.656337">
        <ele>363</ele>
        <time>2018-10-17T08:33:56.000Z</time>
      </trkpt>
      <trkpt lat="36.102465" lon="-5.65629">
        <ele>363</ele>
        <time>2018-10-17T08:34:00.000Z</time>
      </trkpt>
      <trkpt lat="36.102454" lon="-5.656244">
        <ele>361</ele>
        <time>2018-10-17T08:34:04.000Z</time>
      </trkpt>
      <trkpt lat="36.102444" lon="-5.656196">
        <ele>361</ele>
        <time>2018-10-17T08:34:08.000Z</time>
      </trkpt>
      <trkpt lat="36.102462" lon="-5.65615">
        <ele>360</ele>
        <time>2018-10-17T08:34:13.000Z</time>
      </trkpt>
      <trkpt lat="36.102501" lon="-5.656133">
        <ele>359</ele>
        <time>2018-10-17T08:34:18.000Z</time>
      </trkpt>
      <trkpt lat="36.102534" lon="-5.656098">
        <ele>357</ele>
        <time>2018-10-17T08:34:22.000Z</time>
      </trkpt>
      <trkpt lat="36.102563" lon="-5.65606">
        <ele>356</ele>
        <time>2018-10-17T08:34:26.000Z</time>
      </trkpt>
      <trkpt lat="36.102593" lon="-5.656023">
        <ele>356</ele>
        <time>2018-10-17T08:34:30.000Z</time>
      </trkpt>
      <trkpt lat="36.102616" lon="-5.655985">
        <ele>355</ele>
        <time>2018-10-17T08:34:38.000Z</time>
      </trkpt>
      <trkpt lat="36.102649" lon="-5.655956">
        <ele>355</ele>
        <time>2018-10-17T08:34:42.000Z</time>
      </trkpt>
      <trkpt lat="36.102688" lon="-5.655918">
        <ele>355</ele>
        <time>2018-10-17T08:34:45.000Z</time>
      </trkpt>
      <trkpt lat="36.102726" lon="-5.655886">
        <ele>354.49599614975</ele>
        <time>2018-10-17T08:34:49.000Z</time>
      </trkpt>
      <trkpt lat="36.102762" lon="-5.655861">
        <ele>353</ele>
        <time>2018-10-17T08:34:52.000Z</time>
      </trkpt>
      <trkpt lat="36.102798" lon="-5.655836">
        <ele>351</ele>
        <time>2018-10-17T08:34:56.000Z</time>
      </trkpt>
      <trkpt lat="36.102833" lon="-5.65579">
        <ele>350</ele>
        <time>2018-10-17T08:34:59.000Z</time>
      </trkpt>
      <trkpt lat="36.102859" lon="-5.655746">
        <ele>349</ele>
        <time>2018-10-17T08:35:02.000Z</time>
      </trkpt>
      <trkpt lat="36.102879" lon="-5.65568">
        <ele>348.351647115087</ele>
        <time>2018-10-17T08:35:05.000Z</time>
      </trkpt>
      <trkpt lat="36.102898" lon="-5.655643">
        <ele>346.344087205461</ele>
        <time>2018-10-17T08:35:08.000Z</time>
      </trkpt>
      <trkpt lat="36.102932" lon="-5.655607">
        <ele>344.931810909091</ele>
        <time>2018-10-17T08:35:11.000Z</time>
      </trkpt>
      <trkpt lat="36.102951" lon="-5.655558">
        <ele>343.542861322411</ele>
        <time>2018-10-17T08:35:14.000Z</time>
      </trkpt>
      <trkpt lat="36.102987" lon="-5.655526">
        <ele>342</ele>
        <time>2018-10-17T08:35:17.000Z</time>
      </trkpt>
      <trkpt lat="36.103016" lon="-5.6555">
        <ele>342</ele>
        <time>2018-10-17T08:35:20.000Z</time>
      </trkpt>
      <trkpt lat="36.103046" lon="-5.655466">
        <ele>340.3100032</ele>
        <time>2018-10-17T08:35:24.000Z</time>
      </trkpt>
      <trkpt lat="36.103078" lon="-5.655441">
        <ele>339</ele>
        <time>2018-10-17T08:35:28.000Z</time>
      </trkpt>
      <trkpt lat="36.103116" lon="-5.655421">
        <ele>339</ele>
        <time>2018-10-17T08:35:32.000Z</time>
      </trkpt>
      <trkpt lat="36.103144" lon="-5.655376">
        <ele>336.336541538462</ele>
        <time>2018-10-17T08:35:36.000Z</time>
      </trkpt>
      <trkpt lat="36.10317" lon="-5.65534">
        <ele>336</ele>
        <time>2018-10-17T08:35:38.000Z</time>
      </trkpt>
      <trkpt lat="36.103188" lon="-5.655291">
        <ele>333.313133533306</ele>
        <time>2018-10-17T08:35:40.000Z</time>
      </trkpt>
      <trkpt lat="36.103207" lon="-5.655261">
        <ele>334</ele>
        <time>2018-10-17T08:35:42.000Z</time>
      </trkpt>
      <trkpt lat="36.103239" lon="-5.65522">
        <ele>334</ele>
        <time>2018-10-17T08:35:45.000Z</time>
      </trkpt>
      <trkpt lat="36.103258" lon="-5.655179">
        <ele>333</ele>
        <time>2018-10-17T08:35:48.000Z</time>
      </trkpt>
      <trkpt lat="36.103272" lon="-5.655139">
        <ele>331</ele>
        <time>2018-10-17T08:35:51.000Z</time>
      </trkpt>
      <trkpt lat="36.103278" lon="-5.655098">
        <ele>329</ele>
        <time>2018-10-17T08:35:55.000Z</time>
      </trkpt>
      <trkpt lat="36.103308" lon="-5.655065">
        <ele>329</ele>
        <time>2018-10-17T08:35:57.000Z</time>
      </trkpt>
      <trkpt lat="36.103343" lon="-5.655017">
        <ele>329</ele>
        <time>2018-10-17T08:36:00.000Z</time>
      </trkpt>
      <trkpt lat="36.103364" lon="-5.654978">
        <ele>328</ele>
        <time>2018-10-17T08:36:02.000Z</time>
      </trkpt>
      <trkpt lat="36.103394" lon="-5.654938">
        <ele>328.648352884913</ele>
        <time>2018-10-17T08:36:05.000Z</time>
      </trkpt>
      <trkpt lat="36.103428" lon="-5.654939">
        <ele>326.527133090563</ele>
        <time>2018-10-17T08:36:09.000Z</time>
      </trkpt>
      <trkpt lat="36.103459" lon="-5.654889">
        <ele>326.478987619529</ele>
        <time>2018-10-17T08:36:12.000Z</time>
      </trkpt>
      <trkpt lat="36.103497" lon="-5.654856">
        <ele>325</ele>
        <time>2018-10-17T08:36:14.000Z</time>
      </trkpt>
      <trkpt lat="36.103524" lon="-5.654814">
        <ele>325</ele>
        <time>2018-10-17T08:36:16.000Z</time>
      </trkpt>
      <trkpt lat="36.103551" lon="-5.654763">
        <ele>324</ele>
        <time>2018-10-17T08:36:19.000Z</time>
      </trkpt>
      <trkpt lat="36.103578" lon="-5.654705">
        <ele>324</ele>
        <time>2018-10-17T08:36:22.000Z</time>
      </trkpt>
      <trkpt lat="36.103588" lon="-5.654655">
        <ele>323.383931428571</ele>
        <time>2018-10-17T08:36:24.000Z</time>
      </trkpt>
      <trkpt lat="36.103615" lon="-5.654611">
        <ele>323</ele>
        <time>2018-10-17T08:36:26.000Z</time>
      </trkpt>
      <trkpt lat="36.103653" lon="-5.654566">
        <ele>323</ele>
        <time>2018-10-17T08:36:28.000Z</time>
      </trkpt>
      <trkpt lat="36.103686" lon="-5.654526">
        <ele>323</ele>
        <time>2018-10-17T08:36:30.000Z</time>
      </trkpt>
      <trkpt lat="36.103719" lon="-5.654485">
        <ele>323</ele>
        <time>2018-10-17T08:36:32.000Z</time>
      </trkpt>
      <trkpt lat="36.103745" lon="-5.654444">
        <ele>322.33696</ele>
        <time>2018-10-17T08:36:34.000Z</time>
      </trkpt>
      <trkpt lat="36.103773" lon="-5.654405">
        <ele>322</ele>
        <time>2018-10-17T08:36:36.000Z</time>
      </trkpt>
      <trkpt lat="36.103802" lon="-5.654368">
        <ele>322</ele>
        <time>2018-10-17T08:36:38.000Z</time>
      </trkpt>
      <trkpt lat="36.103828" lon="-5.654331">
        <ele>322</ele>
        <time>2018-10-17T08:36:40.000Z</time>
      </trkpt>
      <trkpt lat="36.103856" lon="-5.654286">
        <ele>321</ele>
        <time>2018-10-17T08:36:42.000Z</time>
      </trkpt>
      <trkpt lat="36.10388" lon="-5.654242">
        <ele>320</ele>
        <time>2018-10-17T08:36:44.000Z</time>
      </trkpt>
      <trkpt lat="36.103898" lon="-5.654193">
        <ele>319.761002745152</ele>
        <time>2018-10-17T08:36:48.000Z</time>
      </trkpt>
      <trkpt lat="36.103918" lon="-5.654148">
        <ele>318.313133533306</ele>
        <time>2018-10-17T08:36:51.000Z</time>
      </trkpt>
      <trkpt lat="36.103941" lon="-5.654102">
        <ele>318</ele>
        <time>2018-10-17T08:36:54.000Z</time>
      </trkpt>
      <trkpt lat="36.103983" lon="-5.654083">
        <ele>317.552631578947</ele>
        <time>2018-10-17T08:36:57.000Z</time>
      </trkpt>
      <trkpt lat="36.104002" lon="-5.654043">
        <ele>316</ele>
        <time>2018-10-17T08:36:59.000Z</time>
      </trkpt>
      <trkpt lat="36.104005" lon="-5.653991">
        <ele>314</ele>
        <time>2018-10-17T08:37:02.000Z</time>
      </trkpt>
      <trkpt lat="36.10401" lon="-5.653943">
        <ele>314</ele>
        <time>2018-10-17T08:37:06.000Z</time>
      </trkpt>
      <trkpt lat="36.103996" lon="-5.653896">
        <ele>314</ele>
        <time>2018-10-17T08:37:09.000Z</time>
      </trkpt>
      <trkpt lat="36.103962" lon="-5.653867">
        <ele>314</ele>
        <time>2018-10-17T08:37:11.000Z</time>
      </trkpt>
      <trkpt lat="36.103925" lon="-5.653867">
        <ele>314</ele>
        <time>2018-10-17T08:37:13.000Z</time>
      </trkpt>
      <trkpt lat="36.103877" lon="-5.653888">
        <ele>314</ele>
        <time>2018-10-17T08:37:15.000Z</time>
      </trkpt>
      <trkpt lat="36.103836" lon="-5.653929">
        <ele>315</ele>
        <time>2018-10-17T08:37:18.000Z</time>
      </trkpt>
      <trkpt lat="36.103794" lon="-5.653967">
        <ele>316</ele>
        <time>2018-10-17T08:37:21.000Z</time>
      </trkpt>
      <trkpt lat="36.103773" lon="-5.654025">
        <ele>316.508193969406</ele>
        <time>2018-10-17T08:37:24.000Z</time>
      </trkpt>
      <trkpt lat="36.10375" lon="-5.65407">
        <ele>318</ele>
        <time>2018-10-17T08:37:27.000Z</time>
      </trkpt>
      <trkpt lat="36.103751" lon="-5.654116">
        <ele>318.660375307926</ele>
        <time>2018-10-17T08:37:29.000Z</time>
      </trkpt>
      <trkpt lat="36.103719" lon="-5.654159">
        <ele>320</ele>
        <time>2018-10-17T08:37:33.000Z</time>
      </trkpt>
      <trkpt lat="36.103709" lon="-5.654216">
        <ele>320</ele>
        <time>2018-10-17T08:37:36.000Z</time>
      </trkpt>
      <trkpt lat="36.1037" lon="-5.65426">
        <ele>320</ele>
        <time>2018-10-17T08:37:39.000Z</time>
      </trkpt>
      <trkpt lat="36.103669" lon="-5.654303">
        <ele>320</ele>
        <time>2018-10-17T08:37:43.000Z</time>
      </trkpt>
      <trkpt lat="36.103639" lon="-5.654345">
        <ele>320</ele>
        <time>2018-10-17T08:37:46.000Z</time>
      </trkpt>
      <trkpt lat="36.10364" lon="-5.654397">
        <ele>321</ele>
        <time>2018-10-17T08:37:49.000Z</time>
      </trkpt>
      <trkpt lat="36.103617" lon="-5.65444">
        <ele>321</ele>
        <time>2018-10-17T08:37:52.000Z</time>
      </trkpt>
      <trkpt lat="36.103606" lon="-5.654507">
        <ele>321</ele>
        <time>2018-10-17T08:37:55.000Z</time>
      </trkpt>
      <trkpt lat="36.103604" lon="-5.654563">
        <ele>321</ele>
        <time>2018-10-17T08:37:57.000Z</time>
      </trkpt>
      <trkpt lat="36.103591" lon="-5.654619">
        <ele>322</ele>
        <time>2018-10-17T08:38:00.000Z</time>
      </trkpt>
      <trkpt lat="36.103548" lon="-5.654664">
        <ele>323</ele>
        <time>2018-10-17T08:38:03.000Z</time>
      </trkpt>
      <trkpt lat="36.103519" lon="-5.6547">
        <ele>323</ele>
        <time>2018-10-17T08:38:05.000Z</time>
      </trkpt>
      <trkpt lat="36.103487" lon="-5.654729">
        <ele>323</ele>
        <time>2018-10-17T08:38:07.000Z</time>
      </trkpt>
      <trkpt lat="36.103437" lon="-5.654747">
        <ele>323</ele>
        <time>2018-10-17T08:38:10.000Z</time>
      </trkpt>
      <trkpt lat="36.103398" lon="-5.654763">
        <ele>323</ele>
        <time>2018-10-17T08:38:12.000Z</time>
      </trkpt>
      <trkpt lat="36.103372" lon="-5.654809">
        <ele>323.482753293757</ele>
        <time>2018-10-17T08:38:16.000Z</time>
      </trkpt>
      <trkpt lat="36.103343" lon="-5.654838">
        <ele>324</ele>
        <time>2018-10-17T08:38:19.000Z</time>
      </trkpt>
      <trkpt lat="36.10332" lon="-5.654881">
        <ele>325</ele>
        <time>2018-10-17T08:38:22.000Z</time>
      </trkpt>
      <trkpt lat="36.103283" lon="-5.654912">
        <ele>327</ele>
        <time>2018-10-17T08:38:33.000Z</time>
      </trkpt>
      <trkpt lat="36.103264" lon="-5.65495">
        <ele>326.66037940903</ele>
        <time>2018-10-17T08:38:36.000Z</time>
      </trkpt>
      <trkpt lat="36.103261" lon="-5.654997">
        <ele>327</ele>
        <time>2018-10-17T08:38:39.000Z</time>
      </trkpt>
      <trkpt lat="36.10325" lon="-5.655039">
        <ele>327</ele>
        <time>2018-10-17T08:38:43.000Z</time>
      </trkpt>
      <trkpt lat="36.10322" lon="-5.655064">
        <ele>329</ele>
        <time>2018-10-17T08:38:48.000Z</time>
      </trkpt>
      <trkpt lat="36.103198" lon="-5.6551">
        <ele>330</ele>
        <time>2018-10-17T08:38:53.000Z</time>
      </trkpt>
      <trkpt lat="36.103182" lon="-5.65514">
        <ele>330.619465117069</ele>
        <time>2018-10-17T08:38:57.000Z</time>
      </trkpt>
      <trkpt lat="36.103173" lon="-5.655185">
        <ele>331</ele>
        <time>2018-10-17T08:39:02.000Z</time>
      </trkpt>
      <trkpt lat="36.103185" lon="-5.655231">
        <ele>332</ele>
        <time>2018-10-17T08:39:06.000Z</time>
      </trkpt>
      <trkpt lat="36.103218" lon="-5.655222">
        <ele>333</ele>
        <time>2018-10-17T08:39:15.000Z</time>
      </trkpt>
      <trkpt lat="36.103223" lon="-5.655173">
        <ele>331.485298823529</ele>
        <time>2018-10-17T08:39:19.000Z</time>
      </trkpt>
      <trkpt lat="36.103251" lon="-5.655149">
        <ele>330</ele>
        <time>2018-10-17T08:39:24.000Z</time>
      </trkpt>
      <trkpt lat="36.103284" lon="-5.655117">
        <ele>329.428566204034</ele>
        <time>2018-10-17T08:39:27.000Z</time>
      </trkpt>
      <trkpt lat="36.103318" lon="-5.655073">
        <ele>328.300002559967</ele>
        <time>2018-10-17T08:39:30.000Z</time>
      </trkpt>
      <trkpt lat="36.103344" lon="-5.655037">
        <ele>328</ele>
        <time>2018-10-17T08:39:33.000Z</time>
      </trkpt>
      <trkpt lat="36.103365" lon="-5.65499">
        <ele>327</ele>
        <time>2018-10-17T08:39:37.000Z</time>
      </trkpt>
      <trkpt lat="36.103391" lon="-5.654957">
        <ele>327</ele>
        <time>2018-10-17T08:39:40.000Z</time>
      </trkpt>
      <trkpt lat="36.103425" lon="-5.654933">
        <ele>326</ele>
        <time>2018-10-17T08:39:44.000Z</time>
      </trkpt>
      <trkpt lat="36.103453" lon="-5.654908">
        <ele>325</ele>
        <time>2018-10-17T08:39:49.000Z</time>
      </trkpt>
      <trkpt lat="36.103487" lon="-5.654881">
        <ele>325</ele>
        <time>2018-10-17T08:39:52.000Z</time>
      </trkpt>
      <trkpt lat="36.103517" lon="-5.654852">
        <ele>325</ele>
        <time>2018-10-17T08:39:55.000Z</time>
      </trkpt>
      <trkpt lat="36.103532" lon="-5.654803">
        <ele>324.517243408663</ele>
        <time>2018-10-17T08:39:58.000Z</time>
      </trkpt>
      <trkpt lat="36.103549" lon="-5.654755">
        <ele>323</ele>
        <time>2018-10-17T08:40:02.000Z</time>
      </trkpt>
      <trkpt lat="36.103569" lon="-5.654709">
        <ele>323</ele>
        <time>2018-10-17T08:40:05.000Z</time>
      </trkpt>
      <trkpt lat="36.103588" lon="-5.654661">
        <ele>322.071036875385</ele>
        <time>2018-10-17T08:40:08.000Z</time>
      </trkpt>
      <trkpt lat="36.103623" lon="-5.654611">
        <ele>321</ele>
        <time>2018-10-17T08:40:11.000Z</time>
      </trkpt>
      <trkpt lat="36.103654" lon="-5.654578">
        <ele>321</ele>
        <time>2018-10-17T08:40:13.000Z</time>
      </trkpt>
      <trkpt lat="36.103685" lon="-5.654543">
        <ele>321</ele>
        <time>2018-10-17T08:40:15.000Z</time>
      </trkpt>
      <trkpt lat="36.103716" lon="-5.6545">
        <ele>321</ele>
        <time>2018-10-17T08:40:17.000Z</time>
      </trkpt>
      <trkpt lat="36.103744" lon="-5.654454">
        <ele>321</ele>
        <time>2018-10-17T08:40:19.000Z</time>
      </trkpt>
      <trkpt lat="36.103772" lon="-5.654412">
        <ele>320</ele>
        <time>2018-10-17T08:40:21.000Z</time>
      </trkpt>
      <trkpt lat="36.103803" lon="-5.654374">
        <ele>320</ele>
        <time>2018-10-17T08:40:23.000Z</time>
      </trkpt>
      <trkpt lat="36.103833" lon="-5.654331">
        <ele>320</ele>
        <time>2018-10-17T08:40:25.000Z</time>
      </trkpt>
      <trkpt lat="36.103859" lon="-5.654292">
        <ele>320</ele>
        <time>2018-10-17T08:40:27.000Z</time>
      </trkpt>
      <trkpt lat="36.103882" lon="-5.654258">
        <ele>320</ele>
        <time>2018-10-17T08:40:30.000Z</time>
      </trkpt>
      <trkpt lat="36.103893" lon="-5.654211">
        <ele>319</ele>
        <time>2018-10-17T08:40:34.000Z</time>
      </trkpt>
      <trkpt lat="36.103915" lon="-5.654166">
        <ele>317.358832591825</ele>
        <time>2018-10-17T08:40:38.000Z</time>
      </trkpt>
      <trkpt lat="36.103936" lon="-5.654121">
        <ele>316.433557322267</ele>
        <time>2018-10-17T08:40:42.000Z</time>
      </trkpt>
      <trkpt lat="36.10395" lon="-5.65408">
        <ele>315.318805685914</ele>
        <time>2018-10-17T08:40:47.000Z</time>
      </trkpt>
      <trkpt lat="36.103936" lon="-5.654032">
        <ele>315</ele>
        <time>2018-10-17T08:40:50.000Z</time>
      </trkpt>
      <trkpt lat="36.103934" lon="-5.653983">
        <ele>315</ele>
        <time>2018-10-17T08:40:53.000Z</time>
      </trkpt>
      <trkpt lat="36.103948" lon="-5.653943">
        <ele>314</ele>
        <time>2018-10-17T08:40:57.000Z</time>
      </trkpt>
      <trkpt lat="36.103967" lon="-5.653904">
        <ele>314</ele>
        <time>2018-10-17T08:41:01.000Z</time>
      </trkpt>
      <trkpt lat="36.104013" lon="-5.653888">
        <ele>313</ele>
        <time>2018-10-17T08:41:05.000Z</time>
      </trkpt>
      <trkpt lat="36.104039" lon="-5.653856">
        <ele>312</ele>
        <time>2018-10-17T08:41:08.000Z</time>
      </trkpt>
      <trkpt lat="36.104077" lon="-5.653837">
        <ele>311.318805685914</ele>
        <time>2018-10-17T08:41:11.000Z</time>
      </trkpt>
      <trkpt lat="36.104099" lon="-5.653784">
        <ele>311</ele>
        <time>2018-10-17T08:41:15.000Z</time>
      </trkpt>
      <trkpt lat="36.104121" lon="-5.653741">
        <ele>310</ele>
        <time>2018-10-17T08:41:19.000Z</time>
      </trkpt>
      <trkpt lat="36.10414" lon="-5.653695">
        <ele>308.391300476381</ele>
        <time>2018-10-17T08:41:22.000Z</time>
      </trkpt>
      <trkpt lat="36.104157" lon="-5.653653">
        <ele>308</ele>
        <time>2018-10-17T08:41:26.000Z</time>
      </trkpt>
      <trkpt lat="36.10418" lon="-5.653612">
        <ele>308</ele>
        <time>2018-10-17T08:41:29.000Z</time>
      </trkpt>
      <trkpt lat="36.104206" lon="-5.653558">
        <ele>307.483328</ele>
        <time>2018-10-17T08:41:32.000Z</time>
      </trkpt>
      <trkpt lat="36.104242" lon="-5.653522">
        <ele>306</ele>
        <time>2018-10-17T08:41:35.000Z</time>
      </trkpt>
      <trkpt lat="36.104278" lon="-5.6535">
        <ele>305</ele>
        <time>2018-10-17T08:41:38.000Z</time>
      </trkpt>
      <trkpt lat="36.104311" lon="-5.653471">
        <ele>304.299997439967</ele>
        <time>2018-10-17T08:41:41.000Z</time>
      </trkpt>
      <trkpt lat="36.104336" lon="-5.653437">
        <ele>303</ele>
        <time>2018-10-17T08:41:44.000Z</time>
      </trkpt>
      <trkpt lat="36.104356" lon="-5.653393">
        <ele>303</ele>
        <time>2018-10-17T08:41:47.000Z</time>
      </trkpt>
      <trkpt lat="36.104391" lon="-5.653366">
        <ele>303</ele>
        <time>2018-10-17T08:41:51.000Z</time>
      </trkpt>
      <trkpt lat="36.104432" lon="-5.653342">
        <ele>303</ele>
        <time>2018-10-17T08:41:56.000Z</time>
      </trkpt>
      <trkpt lat="36.104465" lon="-5.653316">
        <ele>302</ele>
        <time>2018-10-17T08:41:59.000Z</time>
      </trkpt>
      <trkpt lat="36.104482" lon="-5.65327">
        <ele>302</ele>
        <time>2018-10-17T08:42:02.000Z</time>
      </trkpt>
      <trkpt lat="36.104474" lon="-5.653228">
        <ele>301</ele>
        <time>2018-10-17T08:42:06.000Z</time>
      </trkpt>
      <trkpt lat="36.104484" lon="-5.653178">
        <ele>300.457363418071</ele>
        <time>2018-10-17T08:42:10.000Z</time>
      </trkpt>
      <trkpt lat="36.104516" lon="-5.653148">
        <ele>300</ele>
        <time>2018-10-17T08:42:14.000Z</time>
      </trkpt>
      <trkpt lat="36.10455" lon="-5.653118">
        <ele>299</ele>
        <time>2018-10-17T08:42:18.000Z</time>
      </trkpt>
      <trkpt lat="36.104582" lon="-5.653086">
        <ele>299</ele>
        <time>2018-10-17T08:42:21.000Z</time>
      </trkpt>
      <trkpt lat="36.104602" lon="-5.65305">
        <ele>298.32258419698</ele>
        <time>2018-10-17T08:42:24.000Z</time>
      </trkpt>
      <trkpt lat="36.10463" lon="-5.653014">
        <ele>296.385962745472</ele>
        <time>2018-10-17T08:42:28.000Z</time>
      </trkpt>
      <trkpt lat="36.104644" lon="-5.652966">
        <ele>296</ele>
        <time>2018-10-17T08:42:31.000Z</time>
      </trkpt>
      <trkpt lat="36.104676" lon="-5.65294">
        <ele>295</ele>
        <time>2018-10-17T08:42:35.000Z</time>
      </trkpt>
      <trkpt lat="36.104714" lon="-5.652929">
        <ele>295</ele>
        <time>2018-10-17T08:42:38.000Z</time>
      </trkpt>
      <trkpt lat="36.104758" lon="-5.652905">
        <ele>295</ele>
        <time>2018-10-17T08:42:42.000Z</time>
      </trkpt>
      <trkpt lat="36.10479" lon="-5.652871">
        <ele>294</ele>
        <time>2018-10-17T08:42:46.000Z</time>
      </trkpt>
      <trkpt lat="36.10482" lon="-5.652846">
        <ele>293.422531910291</ele>
        <time>2018-10-17T08:42:49.000Z</time>
      </trkpt>
      <trkpt lat="36.104852" lon="-5.652824">
        <ele>292.391300476381</ele>
        <time>2018-10-17T08:42:52.000Z</time>
      </trkpt>
      <trkpt lat="36.104877" lon="-5.652793">
        <ele>292</ele>
        <time>2018-10-17T08:42:54.000Z</time>
      </trkpt>
      <trkpt lat="36.104908" lon="-5.65276">
        <ele>292</ele>
        <time>2018-10-17T08:42:56.000Z</time>
      </trkpt>
      <trkpt lat="36.104944" lon="-5.652712">
        <ele>292</ele>
        <time>2018-10-17T08:42:59.000Z</time>
      </trkpt>
      <trkpt lat="36.104974" lon="-5.652672">
        <ele>291</ele>
        <time>2018-10-17T08:43:02.000Z</time>
      </trkpt>
      <trkpt lat="36.105016" lon="-5.652635">
        <ele>290</ele>
        <time>2018-10-17T08:43:05.000Z</time>
      </trkpt>
      <trkpt lat="36.105056" lon="-5.652595">
        <ele>289.422542320936</ele>
        <time>2018-10-17T08:43:08.000Z</time>
      </trkpt>
      <trkpt lat="36.105091" lon="-5.652557">
        <ele>289</ele>
        <time>2018-10-17T08:43:10.000Z</time>
      </trkpt>
      <trkpt lat="36.105122" lon="-5.652505">
        <ele>288.619049554034</ele>
        <time>2018-10-17T08:43:12.000Z</time>
      </trkpt>
      <trkpt lat="36.105152" lon="-5.652456">
        <ele>288</ele>
        <time>2018-10-17T08:43:14.000Z</time>
      </trkpt>
      <trkpt lat="36.105188" lon="-5.652401">
        <ele>288</ele>
        <time>2018-10-17T08:43:16.000Z</time>
      </trkpt>
      <trkpt lat="36.105232" lon="-5.652358">
        <ele>286.357797949669</ele>
        <time>2018-10-17T08:43:18.000Z</time>
      </trkpt>
      <trkpt lat="36.105268" lon="-5.652322">
        <ele>286</ele>
        <time>2018-10-17T08:43:20.000Z</time>
      </trkpt>
      <trkpt lat="36.105297" lon="-5.652286">
        <ele>285.366334626011</ele>
        <time>2018-10-17T08:43:22.000Z</time>
      </trkpt>
      <trkpt lat="36.105323" lon="-5.65224">
        <ele>285</ele>
        <time>2018-10-17T08:43:24.000Z</time>
      </trkpt>
      <trkpt lat="36.105363" lon="-5.652196">
        <ele>284.491669333333</ele>
        <time>2018-10-17T08:43:26.000Z</time>
      </trkpt>
      <trkpt lat="36.105399" lon="-5.652152">
        <ele>284</ele>
        <time>2018-10-17T08:43:28.000Z</time>
      </trkpt>
      <trkpt lat="36.105417" lon="-5.652108">
        <ele>283</ele>
        <time>2018-10-17T08:43:30.000Z</time>
      </trkpt>
      <trkpt lat="36.105428" lon="-5.652069">
        <ele>283</ele>
        <time>2018-10-17T08:43:32.000Z</time>
      </trkpt>
      <trkpt lat="36.105443" lon="-5.652025">
        <ele>282.45455074375</ele>
        <time>2018-10-17T08:43:34.000Z</time>
      </trkpt>
      <trkpt lat="36.105462" lon="-5.651975">
        <ele>282</ele>
        <time>2018-10-17T08:43:36.000Z</time>
      </trkpt>
      <trkpt lat="36.105499" lon="-5.651932">
        <ele>281.401713235455</ele>
        <time>2018-10-17T08:43:39.000Z</time>
      </trkpt>
      <trkpt lat="36.105526" lon="-5.651904">
        <ele>280</ele>
        <time>2018-10-17T08:43:41.000Z</time>
      </trkpt>
      <trkpt lat="36.105559" lon="-5.651869">
        <ele>279.333337396838</ele>
        <time>2018-10-17T08:43:43.000Z</time>
      </trkpt>
      <trkpt lat="36.10558" lon="-5.651832">
        <ele>279</ele>
        <time>2018-10-17T08:43:45.000Z</time>
      </trkpt>
      <trkpt lat="36.105608" lon="-5.6518">
        <ele>278.422531910291</ele>
        <time>2018-10-17T08:43:49.000Z</time>
      </trkpt>
      <trkpt lat="36.105635" lon="-5.651765">
        <ele>277.357140680239</ele>
        <time>2018-10-17T08:43:53.000Z</time>
      </trkpt>
      <trkpt lat="36.105665" lon="-5.651713">
        <ele>277</ele>
        <time>2018-10-17T08:43:57.000Z</time>
      </trkpt>
      <trkpt lat="36.10568" lon="-5.651662">
        <ele>277</ele>
        <time>2018-10-17T08:43:59.000Z</time>
      </trkpt>
      <trkpt lat="36.105687" lon="-5.651606">
        <ele>276.391304831762</ele>
        <time>2018-10-17T08:44:01.000Z</time>
      </trkpt>
      <trkpt lat="36.105701" lon="-5.651565">
        <ele>276</ele>
        <time>2018-10-17T08:44:03.000Z</time>
      </trkpt>
      <trkpt lat="36.105716" lon="-5.651514">
        <ele>275.435484536934</ele>
        <time>2018-10-17T08:44:06.000Z</time>
      </trkpt>
      <trkpt lat="36.105717" lon="-5.651464">
        <ele>274</ele>
        <time>2018-10-17T08:44:09.000Z</time>
      </trkpt>
      <trkpt lat="36.105749" lon="-5.651426">
        <ele>273</ele>
        <time>2018-10-17T08:44:14.000Z</time>
      </trkpt>
      <trkpt lat="36.105784" lon="-5.65142">
        <ele>272</ele>
        <time>2018-10-17T08:44:20.000Z</time>
      </trkpt>
      <trkpt lat="36.105808" lon="-5.651384">
        <ele>272</ele>
        <time>2018-10-17T08:44:23.000Z</time>
      </trkpt>
      <trkpt lat="36.105829" lon="-5.651341">
        <ele>272</ele>
        <time>2018-10-17T08:44:27.000Z</time>
      </trkpt>
      <trkpt lat="36.10584" lon="-5.651293">
        <ele>271</ele>
        <time>2018-10-17T08:44:31.000Z</time>
      </trkpt>
      <trkpt lat="36.105864" lon="-5.651249">
        <ele>271</ele>
        <time>2018-10-17T08:44:37.000Z</time>
      </trkpt>
      <trkpt lat="36.105886" lon="-5.651218">
        <ele>270</ele>
        <time>2018-10-17T08:44:40.000Z</time>
      </trkpt>
      <trkpt lat="36.105886" lon="-5.651162">
        <ele>269</ele>
        <time>2018-10-17T08:44:44.000Z</time>
      </trkpt>
      <trkpt lat="36.105921" lon="-5.651124">
        <ele>268</ele>
        <time>2018-10-17T08:44:48.000Z</time>
      </trkpt>
      <trkpt lat="36.105955" lon="-5.651093">
        <ele>268</ele>
        <time>2018-10-17T08:44:51.000Z</time>
      </trkpt>
      <trkpt lat="36.10599" lon="-5.651056">
        <ele>267</ele>
        <time>2018-10-17T08:44:56.000Z</time>
      </trkpt>
      <trkpt lat="36.10603" lon="-5.651039">
        <ele>267</ele>
        <time>2018-10-17T08:44:59.000Z</time>
      </trkpt>
      <trkpt lat="36.10607" lon="-5.651023">
        <ele>267</ele>
        <time>2018-10-17T08:45:02.000Z</time>
      </trkpt>
      <trkpt lat="36.106078" lon="-5.651018">
        <ele>267</ele>
        <time>2018-10-17T08:45:03.000Z</time>
      </trkpt>
      <trkpt lat="36.10609" lon="-5.65097">
        <ele>267</ele>
        <time>2018-10-17T08:45:32.000Z</time>
      </trkpt>
      <trkpt lat="36.106116" lon="-5.650923">
        <ele>265.566039558529</ele>
        <time>2018-10-17T08:45:36.000Z</time>
      </trkpt>
      <trkpt lat="36.10615" lon="-5.650881">
        <ele>265</ele>
        <time>2018-10-17T08:45:39.000Z</time>
      </trkpt>
      <trkpt lat="36.10617" lon="-5.65084">
        <ele>265</ele>
        <time>2018-10-17T08:45:41.000Z</time>
      </trkpt>
      <trkpt lat="36.10618" lon="-5.650792">
        <ele>264</ele>
        <time>2018-10-17T08:45:43.000Z</time>
      </trkpt>
      <trkpt lat="36.106198" lon="-5.650754">
        <ele>264</ele>
        <time>2018-10-17T08:45:45.000Z</time>
      </trkpt>
      <trkpt lat="36.10623" lon="-5.650708">
        <ele>262.369365421649</ele>
        <time>2018-10-17T08:45:48.000Z</time>
      </trkpt>
      <trkpt lat="36.106248" lon="-5.650658">
        <ele>261</ele>
        <time>2018-10-17T08:45:51.000Z</time>
      </trkpt>
      <trkpt lat="36.10627" lon="-5.650611">
        <ele>261</ele>
        <time>2018-10-17T08:45:54.000Z</time>
      </trkpt>
      <trkpt lat="36.1063" lon="-5.65058">
        <ele>259.638288601114</ele>
        <time>2018-10-17T08:45:57.000Z</time>
      </trkpt>
      <trkpt lat="36.106327" lon="-5.650552">
        <ele>258</ele>
        <time>2018-10-17T08:46:00.000Z</time>
      </trkpt>
      <trkpt lat="36.106363" lon="-5.650508">
        <ele>258</ele>
        <time>2018-10-17T08:46:03.000Z</time>
      </trkpt>
      <trkpt lat="36.106391" lon="-5.650467">
        <ele>256</ele>
        <time>2018-10-17T08:46:07.000Z</time>
      </trkpt>
      <trkpt lat="36.106408" lon="-5.650418">
        <ele>256</ele>
        <time>2018-10-17T08:46:11.000Z</time>
      </trkpt>
      <trkpt lat="36.106425" lon="-5.650375">
        <ele>256</ele>
        <time>2018-10-17T08:46:14.000Z</time>
      </trkpt>
      <trkpt lat="36.106444" lon="-5.650325">
        <ele>254.309272772859</ele>
        <time>2018-10-17T08:46:17.000Z</time>
      </trkpt>
      <trkpt lat="36.106474" lon="-5.650294">
        <ele>253</ele>
        <time>2018-10-17T08:46:20.000Z</time>
      </trkpt>
      <trkpt lat="36.106502" lon="-5.650259">
        <ele>253</ele>
        <time>2018-10-17T08:46:22.000Z</time>
      </trkpt>
      <trkpt lat="36.106539" lon="-5.650235">
        <ele>253</ele>
        <time>2018-10-17T08:46:24.000Z</time>
      </trkpt>
      <trkpt lat="36.106572" lon="-5.650199">
        <ele>252.300002559967</ele>
        <time>2018-10-17T08:46:26.000Z</time>
      </trkpt>
      <trkpt lat="36.106602" lon="-5.650161">
        <ele>251.483876295471</ele>
        <time>2018-10-17T08:46:28.000Z</time>
      </trkpt>
      <trkpt lat="36.10662" lon="-5.650122">
        <ele>251</ele>
        <time>2018-10-17T08:46:30.000Z</time>
      </trkpt>
      <trkpt lat="36.106649" lon="-5.650092">
        <ele>249.416675555556</ele>
        <time>2018-10-17T08:46:34.000Z</time>
      </trkpt>
      <trkpt lat="36.106673" lon="-5.650055">
        <ele>249</ele>
        <time>2018-10-17T08:46:37.000Z</time>
      </trkpt>
      <trkpt lat="36.106703" lon="-5.650012">
        <ele>248</ele>
        <time>2018-10-17T08:46:41.000Z</time>
      </trkpt>
      <trkpt lat="36.106729" lon="-5.649975">
        <ele>248</ele>
        <time>2018-10-17T08:46:44.000Z</time>
      </trkpt>
      <trkpt lat="36.106755" lon="-5.649937">
        <ele>247</ele>
        <time>2018-10-17T08:46:47.000Z</time>
      </trkpt>
      <trkpt lat="36.106773" lon="-5.649899">
        <ele>247</ele>
        <time>2018-10-17T08:46:50.000Z</time>
      </trkpt>
      <trkpt lat="36.106793" lon="-5.649848">
        <ele>246.391300476381</ele>
        <time>2018-10-17T08:46:54.000Z</time>
      </trkpt>
      <trkpt lat="36.106815" lon="-5.649807">
        <ele>246</ele>
        <time>2018-10-17T08:46:57.000Z</time>
      </trkpt>
      <trkpt lat="36.106833" lon="-5.649757">
        <ele>245.329676203336</ele>
        <time>2018-10-17T08:47:00.000Z</time>
      </trkpt>
      <trkpt lat="36.106849" lon="-5.64971">
        <ele>245</ele>
        <time>2018-10-17T08:47:03.000Z</time>
      </trkpt>
      <trkpt lat="36.106867" lon="-5.649663">
        <ele>245</ele>
        <time>2018-10-17T08:47:06.000Z</time>
      </trkpt>
      <trkpt lat="36.106889" lon="-5.649625">
        <ele>244</ele>
        <time>2018-10-17T08:47:09.000Z</time>
      </trkpt>
      <trkpt lat="36.106911" lon="-5.649574">
        <ele>244</ele>
        <time>2018-10-17T08:47:13.000Z</time>
      </trkpt>
      <trkpt lat="36.106937" lon="-5.649537">
        <ele>243</ele>
        <time>2018-10-17T08:47:16.000Z</time>
      </trkpt>
      <trkpt lat="36.106966" lon="-5.649504">
        <ele>243</ele>
        <time>2018-10-17T08:47:19.000Z</time>
      </trkpt>
      <trkpt lat="36.106987" lon="-5.649457">
        <ele>243</ele>
        <time>2018-10-17T08:47:21.000Z</time>
      </trkpt>
      <trkpt lat="36.107005" lon="-5.649413">
        <ele>242</ele>
        <time>2018-10-17T08:47:23.000Z</time>
      </trkpt>
      <trkpt lat="36.10701" lon="-5.649351">
        <ele>242</ele>
        <time>2018-10-17T08:47:26.000Z</time>
      </trkpt>
      <trkpt lat="36.107009" lon="-5.649303">
        <ele>241</ele>
        <time>2018-10-17T08:47:28.000Z</time>
      </trkpt>
      <trkpt lat="36.107004" lon="-5.64926">
        <ele>240.300002559967</ele>
        <time>2018-10-17T08:47:30.000Z</time>
      </trkpt>
      <trkpt lat="36.107015" lon="-5.649199">
        <ele>240</ele>
        <time>2018-10-17T08:47:33.000Z</time>
      </trkpt>
      <trkpt lat="36.107031" lon="-5.649153">
        <ele>239.299997439967</ele>
        <time>2018-10-17T08:47:35.000Z</time>
      </trkpt>
      <trkpt lat="36.107032" lon="-5.649099">
        <ele>238</ele>
        <time>2018-10-17T08:47:37.000Z</time>
      </trkpt>
      <trkpt lat="36.107063" lon="-5.64913">
        <ele>238</ele>
        <time>2018-10-17T08:47:46.000Z</time>
      </trkpt>
      <trkpt lat="36.107101" lon="-5.649112">
        <ele>238</ele>
        <time>2018-10-17T08:47:49.000Z</time>
      </trkpt>
      <trkpt lat="36.107133" lon="-5.649073">
        <ele>238</ele>
        <time>2018-10-17T08:47:52.000Z</time>
      </trkpt>
      <trkpt lat="36.10717" lon="-5.649041">
        <ele>237.299997439967</ele>
        <time>2018-10-17T08:47:55.000Z</time>
      </trkpt>
      <trkpt lat="36.107197" lon="-5.64899">
        <ele>236.300002559967</ele>
        <time>2018-10-17T08:47:58.000Z</time>
      </trkpt>
      <trkpt lat="36.107217" lon="-5.648954">
        <ele>236</ele>
        <time>2018-10-17T08:48:00.000Z</time>
      </trkpt>
      <trkpt lat="36.107238" lon="-5.648914">
        <ele>236</ele>
        <time>2018-10-17T08:48:02.000Z</time>
      </trkpt>
      <trkpt lat="36.107268" lon="-5.648879">
        <ele>236</ele>
        <time>2018-10-17T08:48:05.000Z</time>
      </trkpt>
      <trkpt lat="36.107293" lon="-5.648829">
        <ele>235</ele>
        <time>2018-10-17T08:48:08.000Z</time>
      </trkpt>
      <trkpt lat="36.107321" lon="-5.648782">
        <ele>235</ele>
        <time>2018-10-17T08:48:11.000Z</time>
      </trkpt>
      <trkpt lat="36.107339" lon="-5.648737">
        <ele>235</ele>
        <time>2018-10-17T08:48:13.000Z</time>
      </trkpt>
      <trkpt lat="36.107356" lon="-5.64869">
        <ele>235</ele>
        <time>2018-10-17T08:48:15.000Z</time>
      </trkpt>
      <trkpt lat="36.107377" lon="-5.648636">
        <ele>235</ele>
        <time>2018-10-17T08:48:17.000Z</time>
      </trkpt>
      <trkpt lat="36.107399" lon="-5.648593">
        <ele>235</ele>
        <time>2018-10-17T08:48:19.000Z</time>
      </trkpt>
      <trkpt lat="36.107421" lon="-5.648537">
        <ele>235</ele>
        <time>2018-10-17T08:48:21.000Z</time>
      </trkpt>
      <trkpt lat="36.107439" lon="-5.648477">
        <ele>234</ele>
        <time>2018-10-17T08:48:23.000Z</time>
      </trkpt>
      <trkpt lat="36.107449" lon="-5.64842">
        <ele>234</ele>
        <time>2018-10-17T08:48:25.000Z</time>
      </trkpt>
      <trkpt lat="36.107444" lon="-5.648352">
        <ele>232</ele>
        <time>2018-10-17T08:48:27.000Z</time>
      </trkpt>
      <trkpt lat="36.107429" lon="-5.648295">
        <ele>232</ele>
        <time>2018-10-17T08:48:29.000Z</time>
      </trkpt>
      <trkpt lat="36.107414" lon="-5.648244">
        <ele>232</ele>
        <time>2018-10-17T08:48:31.000Z</time>
      </trkpt>
      <trkpt lat="36.107402" lon="-5.648192">
        <ele>232</ele>
        <time>2018-10-17T08:48:33.000Z</time>
      </trkpt>
      <trkpt lat="36.107398" lon="-5.648131">
        <ele>232</ele>
        <time>2018-10-17T08:48:36.000Z</time>
      </trkpt>
      <trkpt lat="36.107392" lon="-5.648095">
        <ele>231</ele>
        <time>2018-10-17T08:49:12.000Z</time>
      </trkpt>
      <trkpt lat="36.107409" lon="-5.648082">
        <ele>231.65048652276</ele>
        <time>2018-10-17T08:49:14.000Z</time>
      </trkpt>
      <trkpt lat="36.107431" lon="-5.648042">
        <ele>232</ele>
        <time>2018-10-17T08:49:16.000Z</time>
      </trkpt>
      <trkpt lat="36.107448" lon="-5.647997">
        <ele>232</ele>
        <time>2018-10-17T08:49:18.000Z</time>
      </trkpt>
      <trkpt lat="36.107472" lon="-5.647958">
        <ele>230</ele>
        <time>2018-10-17T08:49:21.000Z</time>
      </trkpt>
      <trkpt lat="36.107497" lon="-5.647907">
        <ele>229.313723521735</ele>
        <time>2018-10-17T08:49:24.000Z</time>
      </trkpt>
      <trkpt lat="36.107522" lon="-5.647872">
        <ele>229</ele>
        <time>2018-10-17T08:49:27.000Z</time>
      </trkpt>
      <trkpt lat="36.107549" lon="-5.64784">
        <ele>228</ele>
        <time>2018-10-17T08:49:29.000Z</time>
      </trkpt>
      <trkpt lat="36.107582" lon="-5.647796">
        <ele>228</ele>
        <time>2018-10-17T08:49:31.000Z</time>
      </trkpt>
      <trkpt lat="36.107606" lon="-5.647755">
        <ele>228</ele>
        <time>2018-10-17T08:49:33.000Z</time>
      </trkpt>
      <trkpt lat="36.107622" lon="-5.647711">
        <ele>226</ele>
        <time>2018-10-17T08:49:35.000Z</time>
      </trkpt>
      <trkpt lat="36.107641" lon="-5.647672">
        <ele>225</ele>
        <time>2018-10-17T08:49:37.000Z</time>
      </trkpt>
      <trkpt lat="36.107667" lon="-5.647623">
        <ele>224.434775349683</ele>
        <time>2018-10-17T08:49:39.000Z</time>
      </trkpt>
      <trkpt lat="36.107695" lon="-5.647581">
        <ele>224</ele>
        <time>2018-10-17T08:49:41.000Z</time>
      </trkpt>
      <trkpt lat="36.107718" lon="-5.647537">
        <ele>223.309272772859</ele>
        <time>2018-10-17T08:49:43.000Z</time>
      </trkpt>
      <trkpt lat="36.107728" lon="-5.647478">
        <ele>222</ele>
        <time>2018-10-17T08:49:45.000Z</time>
      </trkpt>
      <trkpt lat="36.107747" lon="-5.647429">
        <ele>222</ele>
        <time>2018-10-17T08:49:47.000Z</time>
      </trkpt>
      <trkpt lat="36.107762" lon="-5.647373">
        <ele>221.303026776825</ele>
        <time>2018-10-17T08:49:49.000Z</time>
      </trkpt>
      <trkpt lat="36.10778" lon="-5.647311">
        <ele>221</ele>
        <time>2018-10-17T08:49:51.000Z</time>
      </trkpt>
      <trkpt lat="36.107795" lon="-5.647248">
        <ele>220.348314445148</ele>
        <time>2018-10-17T08:49:53.000Z</time>
      </trkpt>
      <trkpt lat="36.107809" lon="-5.647186">
        <ele>219</ele>
        <time>2018-10-17T08:49:55.000Z</time>
      </trkpt>
      <trkpt lat="36.107824" lon="-5.647133">
        <ele>219</ele>
        <time>2018-10-17T08:49:57.000Z</time>
      </trkpt>
      <trkpt lat="36.107842" lon="-5.647091">
        <ele>218</ele>
        <time>2018-10-17T08:49:59.000Z</time>
      </trkpt>
      <trkpt lat="36.107864" lon="-5.647031">
        <ele>216</ele>
        <time>2018-10-17T08:50:02.000Z</time>
      </trkpt>
      <trkpt lat="36.107878" lon="-5.646994">
        <ele>216</ele>
        <time>2018-10-17T08:50:04.000Z</time>
      </trkpt>
      <trkpt lat="36.107893" lon="-5.646951">
        <ele>215.34042321414</ele>
        <time>2018-10-17T08:50:06.000Z</time>
      </trkpt>
      <trkpt lat="36.107915" lon="-5.646889">
        <ele>215</ele>
        <time>2018-10-17T08:50:09.000Z</time>
      </trkpt>
      <trkpt lat="36.107921" lon="-5.646838">
        <ele>215</ele>
        <time>2018-10-17T08:50:11.000Z</time>
      </trkpt>
      <trkpt lat="36.107933" lon="-5.646774">
        <ele>213.336541538462</ele>
        <time>2018-10-17T08:50:14.000Z</time>
      </trkpt>
      <trkpt lat="36.107953" lon="-5.646738">
        <ele>212.306126980395</ele>
        <time>2018-10-17T08:50:16.000Z</time>
      </trkpt>
      <trkpt lat="36.10797" lon="-5.64668">
        <ele>210.299997439967</ele>
        <time>2018-10-17T08:50:19.000Z</time>
      </trkpt>
      <trkpt lat="36.107985" lon="-5.646644">
        <ele>209.309272772859</ele>
        <time>2018-10-17T08:50:21.000Z</time>
      </trkpt>
      <trkpt lat="36.108004" lon="-5.646589">
        <ele>209</ele>
        <time>2018-10-17T08:50:23.000Z</time>
      </trkpt>
      <trkpt lat="36.108021" lon="-5.646522">
        <ele>208.364487881905</ele>
        <time>2018-10-17T08:50:25.000Z</time>
      </trkpt>
      <trkpt lat="36.108026" lon="-5.64647">
        <ele>208.381821778491</ele>
        <time>2018-10-17T08:50:27.000Z</time>
      </trkpt>
      <trkpt lat="36.108045" lon="-5.646419">
        <ele>207</ele>
        <time>2018-10-17T08:50:30.000Z</time>
      </trkpt>
      <trkpt lat="36.108068" lon="-5.646374">
        <ele>205.313133533306</ele>
        <time>2018-10-17T08:50:32.000Z</time>
      </trkpt>
      <trkpt lat="36.10809" lon="-5.646333">
        <ele>205</ele>
        <time>2018-10-17T08:50:34.000Z</time>
      </trkpt>
      <trkpt lat="36.108124" lon="-5.646286">
        <ele>204</ele>
        <time>2018-10-17T08:50:36.000Z</time>
      </trkpt>
      <trkpt lat="36.108153" lon="-5.646245">
        <ele>203.342858187758</ele>
        <time>2018-10-17T08:50:38.000Z</time>
      </trkpt>
      <trkpt lat="36.108179" lon="-5.646204">
        <ele>203</ele>
        <time>2018-10-17T08:50:40.000Z</time>
      </trkpt>
      <trkpt lat="36.108195" lon="-5.646142">
        <ele>203</ele>
        <time>2018-10-17T08:50:42.000Z</time>
      </trkpt>
      <trkpt lat="36.108212" lon="-5.646078">
        <ele>202</ele>
        <time>2018-10-17T08:50:44.000Z</time>
      </trkpt>
      <trkpt lat="36.108237" lon="-5.646037">
        <ele>201</ele>
        <time>2018-10-17T08:50:46.000Z</time>
      </trkpt>
      <trkpt lat="36.108265" lon="-5.646009">
        <ele>200</ele>
        <time>2018-10-17T08:50:48.000Z</time>
      </trkpt>
      <trkpt lat="36.108294" lon="-5.645961">
        <ele>200</ele>
        <time>2018-10-17T08:50:51.000Z</time>
      </trkpt>
      <trkpt lat="36.108306" lon="-5.645918">
        <ele>200</ele>
        <time>2018-10-17T08:50:53.000Z</time>
      </trkpt>
      <trkpt lat="36.108314" lon="-5.645867">
        <ele>198</ele>
        <time>2018-10-17T08:50:56.000Z</time>
      </trkpt>
      <trkpt lat="36.108327" lon="-5.645822">
        <ele>198</ele>
        <time>2018-10-17T08:50:58.000Z</time>
      </trkpt>
      <trkpt lat="36.108309" lon="-5.645786">
        <ele>198</ele>
        <time>2018-10-17T08:51:00.000Z</time>
      </trkpt>
      <trkpt lat="36.108283" lon="-5.645659">
        <ele>198</ele>
        <time>2018-10-17T08:53:40.000Z</time>
      </trkpt>
      <trkpt lat="36.108278" lon="-5.645617">
        <ele>198</ele>
        <time>2018-10-17T08:53:43.000Z</time>
      </trkpt>
      <trkpt lat="36.108266" lon="-5.645571">
        <ele>199</ele>
        <time>2018-10-17T08:53:46.000Z</time>
      </trkpt>
      <trkpt lat="36.108251" lon="-5.645501">
        <ele>199</ele>
        <time>2018-10-17T08:53:49.000Z</time>
      </trkpt>
      <trkpt lat="36.108234" lon="-5.645434">
        <ele>199</ele>
        <time>2018-10-17T08:53:51.000Z</time>
      </trkpt>
      <trkpt lat="36.108211" lon="-5.645357">
        <ele>199</ele>
        <time>2018-10-17T08:53:53.000Z</time>
      </trkpt>
      <trkpt lat="36.108196" lon="-5.645285">
        <ele>199</ele>
        <time>2018-10-17T08:53:55.000Z</time>
      </trkpt>
      <trkpt lat="36.108169" lon="-5.645215">
        <ele>197.306117917505</ele>
        <time>2018-10-17T08:53:57.000Z</time>
      </trkpt>
      <trkpt lat="36.108138" lon="-5.645149">
        <ele>197</ele>
        <time>2018-10-17T08:53:59.000Z</time>
      </trkpt>
      <trkpt lat="36.108105" lon="-5.645095">
        <ele>197</ele>
        <time>2018-10-17T08:54:01.000Z</time>
      </trkpt>
      <trkpt lat="36.108072" lon="-5.645038">
        <ele>197</ele>
        <time>2018-10-17T08:54:03.000Z</time>
      </trkpt>
      <trkpt lat="36.108041" lon="-5.644988">
        <ele>197</ele>
        <time>2018-10-17T08:54:05.000Z</time>
      </trkpt>
      <trkpt lat="36.108009" lon="-5.644932">
        <ele>197</ele>
        <time>2018-10-17T08:54:07.000Z</time>
      </trkpt>
      <trkpt lat="36.107983" lon="-5.644875">
        <ele>197</ele>
        <time>2018-10-17T08:54:09.000Z</time>
      </trkpt>
      <trkpt lat="36.107953" lon="-5.644819">
        <ele>197</ele>
        <time>2018-10-17T08:54:11.000Z</time>
      </trkpt>
      <trkpt lat="36.107912" lon="-5.644776">
        <ele>197</ele>
        <time>2018-10-17T08:54:13.000Z</time>
      </trkpt>
      <trkpt lat="36.107877" lon="-5.644737">
        <ele>197</ele>
        <time>2018-10-17T08:54:15.000Z</time>
      </trkpt>
      <trkpt lat="36.107839" lon="-5.644695">
        <ele>197</ele>
        <time>2018-10-17T08:54:17.000Z</time>
      </trkpt>
      <trkpt lat="36.107802" lon="-5.644654">
        <ele>198</ele>
        <time>2018-10-17T08:54:19.000Z</time>
      </trkpt>
      <trkpt lat="36.107768" lon="-5.644609">
        <ele>198</ele>
        <time>2018-10-17T08:54:21.000Z</time>
      </trkpt>
      <trkpt lat="36.107738" lon="-5.644559">
        <ele>198</ele>
        <time>2018-10-17T08:54:23.000Z</time>
      </trkpt>
      <trkpt lat="36.107706" lon="-5.64451">
        <ele>198</ele>
        <time>2018-10-17T08:54:25.000Z</time>
      </trkpt>
      <trkpt lat="36.107673" lon="-5.644456">
        <ele>198</ele>
        <time>2018-10-17T08:54:27.000Z</time>
      </trkpt>
      <trkpt lat="36.107637" lon="-5.644395">
        <ele>198.64</ele>
        <time>2018-10-17T08:54:29.000Z</time>
      </trkpt>
      <trkpt lat="36.107601" lon="-5.644338">
        <ele>198.375005714286</ele>
        <time>2018-10-17T08:54:31.000Z</time>
      </trkpt>
      <trkpt lat="36.107558" lon="-5.644277">
        <ele>198</ele>
        <time>2018-10-17T08:54:33.000Z</time>
      </trkpt>
      <trkpt lat="36.107515" lon="-5.644218">
        <ele>198</ele>
        <time>2018-10-17T08:54:35.000Z</time>
      </trkpt>
      <trkpt lat="36.107473" lon="-5.644173">
        <ele>197.510490699798</ele>
        <time>2018-10-17T08:54:37.000Z</time>
      </trkpt>
      <trkpt lat="36.107431" lon="-5.644118">
        <ele>197</ele>
        <time>2018-10-17T08:54:39.000Z</time>
      </trkpt>
      <trkpt lat="36.107396" lon="-5.64406">
        <ele>195.666674793676</ele>
        <time>2018-10-17T08:54:41.000Z</time>
      </trkpt>
      <trkpt lat="36.107372" lon="-5.643997">
        <ele>193</ele>
        <time>2018-10-17T08:54:43.000Z</time>
      </trkpt>
      <trkpt lat="36.107352" lon="-5.643927">
        <ele>193</ele>
        <time>2018-10-17T08:54:45.000Z</time>
      </trkpt>
      <trkpt lat="36.107347" lon="-5.643859">
        <ele>192</ele>
        <time>2018-10-17T08:54:47.000Z</time>
      </trkpt>
      <trkpt lat="36.107354" lon="-5.643794">
        <ele>192</ele>
        <time>2018-10-17T08:54:49.000Z</time>
      </trkpt>
      <trkpt lat="36.107368" lon="-5.643735">
        <ele>192</ele>
        <time>2018-10-17T08:54:51.000Z</time>
      </trkpt>
      <trkpt lat="36.107391" lon="-5.643676">
        <ele>190.299997439967</ele>
        <time>2018-10-17T08:54:53.000Z</time>
      </trkpt>
      <trkpt lat="36.10742" lon="-5.643611">
        <ele>189.369369681035</ele>
        <time>2018-10-17T08:54:55.000Z</time>
      </trkpt>
      <trkpt lat="36.107444" lon="-5.643529">
        <ele>188</ele>
        <time>2018-10-17T08:54:57.000Z</time>
      </trkpt>
      <trkpt lat="36.107448" lon="-5.643448">
        <ele>186.315785927942</ele>
        <time>2018-10-17T08:54:59.000Z</time>
      </trkpt>
      <trkpt lat="36.107425" lon="-5.643367">
        <ele>185.320388228861</ele>
        <time>2018-10-17T08:55:01.000Z</time>
      </trkpt>
      <trkpt lat="36.107384" lon="-5.643298">
        <ele>184.613262520685</ele>
        <time>2018-10-17T08:55:03.000Z</time>
      </trkpt>
      <trkpt lat="36.107359" lon="-5.643265">
        <ele>184.060775356067</ele>
        <time>2018-10-17T08:55:04.000Z</time>
      </trkpt>
      <trkpt lat="36.107329" lon="-5.643235">
        <ele>184</ele>
        <time>2018-10-17T08:55:05.000Z</time>
      </trkpt>
      <trkpt lat="36.107294" lon="-5.643205">
        <ele>182.771925490945</ele>
        <time>2018-10-17T08:55:06.000Z</time>
      </trkpt>
      <trkpt lat="36.107261" lon="-5.643175">
        <ele>181.348832363404</ele>
        <time>2018-10-17T08:55:07.000Z</time>
      </trkpt>
      <trkpt lat="36.107231" lon="-5.643149">
        <ele>181</ele>
        <time>2018-10-17T08:55:08.000Z</time>
      </trkpt>
      <trkpt lat="36.107178" lon="-5.6431">
        <ele>181</ele>
        <time>2018-10-17T08:55:10.000Z</time>
      </trkpt>
      <trkpt lat="36.107127" lon="-5.643064">
        <ele>181</ele>
        <time>2018-10-17T08:55:12.000Z</time>
      </trkpt>
      <trkpt lat="36.107076" lon="-5.643038">
        <ele>181</ele>
        <time>2018-10-17T08:55:14.000Z</time>
      </trkpt>
      <trkpt lat="36.107031" lon="-5.643015">
        <ele>181.5</ele>
        <time>2018-10-17T08:55:16.000Z</time>
      </trkpt>
      <trkpt lat="36.10699" lon="-5.642994">
        <ele>182.647055280317</ele>
        <time>2018-10-17T08:55:18.000Z</time>
      </trkpt>
      <trkpt lat="36.106947" lon="-5.642961">
        <ele>183</ele>
        <time>2018-10-17T08:55:20.000Z</time>
      </trkpt>
      <trkpt lat="36.106913" lon="-5.642924">
        <ele>183</ele>
        <time>2018-10-17T08:55:22.000Z</time>
      </trkpt>
      <trkpt lat="36.106888" lon="-5.642886">
        <ele>182.351853607661</ele>
        <time>2018-10-17T08:55:24.000Z</time>
      </trkpt>
      <trkpt lat="36.106871" lon="-5.642835">
        <ele>182</ele>
        <time>2018-10-17T08:55:26.000Z</time>
      </trkpt>
      <trkpt lat="36.106851" lon="-5.642782">
        <ele>181</ele>
        <time>2018-10-17T08:55:28.000Z</time>
      </trkpt>
      <trkpt lat="36.106825" lon="-5.642724">
        <ele>180.438775910035</ele>
        <time>2018-10-17T08:55:30.000Z</time>
      </trkpt>
      <trkpt lat="36.106802" lon="-5.642669">
        <ele>180</ele>
        <time>2018-10-17T08:55:32.000Z</time>
      </trkpt>
      <trkpt lat="36.106782" lon="-5.642614">
        <ele>178.508623448276</ele>
        <time>2018-10-17T08:55:34.000Z</time>
      </trkpt>
      <trkpt lat="36.106759" lon="-5.642559">
        <ele>176.300002559967</ele>
        <time>2018-10-17T08:55:36.000Z</time>
      </trkpt>
      <trkpt lat="36.106726" lon="-5.642492">
        <ele>174.51079249314</ele>
        <time>2018-10-17T08:55:38.000Z</time>
      </trkpt>
      <trkpt lat="36.106696" lon="-5.642427">
        <ele>174</ele>
        <time>2018-10-17T08:55:40.000Z</time>
      </trkpt>
      <trkpt lat="36.106663" lon="-5.642353">
        <ele>172</ele>
        <time>2018-10-17T08:55:42.000Z</time>
      </trkpt>
      <trkpt lat="36.106647" lon="-5.642317">
        <ele>172</ele>
        <time>2018-10-17T08:55:43.000Z</time>
      </trkpt>
      <trkpt lat="36.10661" lon="-5.642243">
        <ele>171</ele>
        <time>2018-10-17T08:55:45.000Z</time>
      </trkpt>
      <trkpt lat="36.106593" lon="-5.642205">
        <ele>171</ele>
        <time>2018-10-17T08:55:46.000Z</time>
      </trkpt>
      <trkpt lat="36.106564" lon="-5.642136">
        <ele>169.638307143441</ele>
        <time>2018-10-17T08:55:48.000Z</time>
      </trkpt>
      <trkpt lat="36.106533" lon="-5.642074">
        <ele>169</ele>
        <time>2018-10-17T08:55:50.000Z</time>
      </trkpt>
      <trkpt lat="36.106504" lon="-5.642016">
        <ele>168</ele>
        <time>2018-10-17T08:55:52.000Z</time>
      </trkpt>
      <trkpt lat="36.106481" lon="-5.641953">
        <ele>168</ele>
        <time>2018-10-17T08:55:54.000Z</time>
      </trkpt>
      <trkpt lat="36.10646" lon="-5.641895">
        <ele>169</ele>
        <time>2018-10-17T08:55:56.000Z</time>
      </trkpt>
      <trkpt lat="36.106437" lon="-5.641845">
        <ele>169</ele>
        <time>2018-10-17T08:55:58.000Z</time>
      </trkpt>
      <trkpt lat="36.106408" lon="-5.641796">
        <ele>170</ele>
        <time>2018-10-17T08:56:00.000Z</time>
      </trkpt>
      <trkpt lat="36.106375" lon="-5.641742">
        <ele>170</ele>
        <time>2018-10-17T08:56:02.000Z</time>
      </trkpt>
      <trkpt lat="36.106349" lon="-5.641692">
        <ele>170</ele>
        <time>2018-10-17T08:56:04.000Z</time>
      </trkpt>
      <trkpt lat="36.106317" lon="-5.641634">
        <ele>170</ele>
        <time>2018-10-17T08:56:06.000Z</time>
      </trkpt>
      <trkpt lat="36.106283" lon="-5.641575">
        <ele>170</ele>
        <time>2018-10-17T08:56:08.000Z</time>
      </trkpt>
      <trkpt lat="36.106252" lon="-5.641513">
        <ele>170</ele>
        <time>2018-10-17T08:56:10.000Z</time>
      </trkpt>
      <trkpt lat="36.10623" lon="-5.641465">
        <ele>170.489513869619</ele>
        <time>2018-10-17T08:56:12.000Z</time>
      </trkpt>
      <trkpt lat="36.106209" lon="-5.641423">
        <ele>171</ele>
        <time>2018-10-17T08:56:14.000Z</time>
      </trkpt>
      <trkpt lat="36.106186" lon="-5.641379">
        <ele>171</ele>
        <time>2018-10-17T08:56:16.000Z</time>
      </trkpt>
      <trkpt lat="36.106156" lon="-5.641333">
        <ele>171</ele>
        <time>2018-10-17T08:56:18.000Z</time>
      </trkpt>
      <trkpt lat="36.106127" lon="-5.641282">
        <ele>171</ele>
        <time>2018-10-17T08:56:20.000Z</time>
      </trkpt>
      <trkpt lat="36.106099" lon="-5.641225">
        <ele>172</ele>
        <time>2018-10-17T08:56:22.000Z</time>
      </trkpt>
      <trkpt lat="36.106057" lon="-5.641135">
        <ele>172</ele>
        <time>2018-10-17T08:56:25.000Z</time>
      </trkpt>
      <trkpt lat="36.106023" lon="-5.641085">
        <ele>172</ele>
        <time>2018-10-17T08:56:27.000Z</time>
      </trkpt>
      <trkpt lat="36.105981" lon="-5.641046">
        <ele>173</ele>
        <time>2018-10-17T08:56:29.000Z</time>
      </trkpt>
      <trkpt lat="36.105935" lon="-5.641013">
        <ele>173</ele>
        <time>2018-10-17T08:56:31.000Z</time>
      </trkpt>
      <trkpt lat="36.105892" lon="-5.640981">
        <ele>172</ele>
        <time>2018-10-17T08:56:33.000Z</time>
      </trkpt>
      <trkpt lat="36.105843" lon="-5.640938">
        <ele>171.461530887537</ele>
        <time>2018-10-17T08:56:35.000Z</time>
      </trkpt>
      <trkpt lat="36.10579" lon="-5.640898">
        <ele>171</ele>
        <time>2018-10-17T08:56:37.000Z</time>
      </trkpt>
      <trkpt lat="36.105733" lon="-5.640861">
        <ele>171</ele>
        <time>2018-10-17T08:56:39.000Z</time>
      </trkpt>
      <trkpt lat="36.105676" lon="-5.640821">
        <ele>170.299997439967</ele>
        <time>2018-10-17T08:56:41.000Z</time>
      </trkpt>
      <trkpt lat="36.10562" lon="-5.640794">
        <ele>170</ele>
        <time>2018-10-17T08:56:43.000Z</time>
      </trkpt>
      <trkpt lat="36.105569" lon="-5.640772">
        <ele>170</ele>
        <time>2018-10-17T08:56:45.000Z</time>
      </trkpt>
      <trkpt lat="36.105516" lon="-5.640742">
        <ele>170</ele>
        <time>2018-10-17T08:56:47.000Z</time>
      </trkpt>
      <trkpt lat="36.105464" lon="-5.640723">
        <ele>170.469795371373</ele>
        <time>2018-10-17T08:56:49.000Z</time>
      </trkpt>
      <trkpt lat="36.105416" lon="-5.640707">
        <ele>171</ele>
        <time>2018-10-17T08:56:51.000Z</time>
      </trkpt>
      <trkpt lat="36.105358" lon="-5.640695">
        <ele>169.422531910291</ele>
        <time>2018-10-17T08:56:53.000Z</time>
      </trkpt>
      <trkpt lat="36.105301" lon="-5.640688">
        <ele>169</ele>
        <time>2018-10-17T08:56:55.000Z</time>
      </trkpt>
      <trkpt lat="36.105238" lon="-5.640685">
        <ele>169</ele>
        <time>2018-10-17T08:56:57.000Z</time>
      </trkpt>
      <trkpt lat="36.105175" lon="-5.640682">
        <ele>168</ele>
        <time>2018-10-17T08:56:59.000Z</time>
      </trkpt>
      <trkpt lat="36.105117" lon="-5.640682">
        <ele>168</ele>
        <time>2018-10-17T08:57:01.000Z</time>
      </trkpt>
      <trkpt lat="36.105059" lon="-5.64068">
        <ele>168</ele>
        <time>2018-10-17T08:57:03.000Z</time>
      </trkpt>
      <trkpt lat="36.105006" lon="-5.640682">
        <ele>167</ele>
        <time>2018-10-17T08:57:05.000Z</time>
      </trkpt>
      <trkpt lat="36.104949" lon="-5.640678">
        <ele>166</ele>
        <time>2018-10-17T08:57:07.000Z</time>
      </trkpt>
      <trkpt lat="36.104886" lon="-5.640664">
        <ele>166</ele>
        <time>2018-10-17T08:57:09.000Z</time>
      </trkpt>
      <trkpt lat="36.104852" lon="-5.640654">
        <ele>164.267626962808</ele>
        <time>2018-10-17T08:57:10.000Z</time>
      </trkpt>
      <trkpt lat="36.104789" lon="-5.64063">
        <ele>163</ele>
        <time>2018-10-17T08:57:12.000Z</time>
      </trkpt>
      <trkpt lat="36.104741" lon="-5.640596">
        <ele>163</ele>
        <time>2018-10-17T08:57:14.000Z</time>
      </trkpt>
      <trkpt lat="36.104705" lon="-5.640586">
        <ele>163</ele>
        <time>2018-10-17T08:57:15.000Z</time>
      </trkpt>
      <trkpt lat="36.104666" lon="-5.640552">
        <ele>163.670333225493</ele>
        <time>2018-10-17T08:57:17.000Z</time>
      </trkpt>
      <trkpt lat="36.104623" lon="-5.640525">
        <ele>164.608695168238</ele>
        <time>2018-10-17T08:57:19.000Z</time>
      </trkpt>
      <trkpt lat="36.104574" lon="-5.6405">
        <ele>165</ele>
        <time>2018-10-17T08:57:21.000Z</time>
      </trkpt>
      <trkpt lat="36.104533" lon="-5.640472">
        <ele>166</ele>
        <time>2018-10-17T08:57:23.000Z</time>
      </trkpt>
      <trkpt lat="36.104489" lon="-5.640438">
        <ele>166</ele>
        <time>2018-10-17T08:57:25.000Z</time>
      </trkpt>
      <trkpt lat="36.104431" lon="-5.640394">
        <ele>166</ele>
        <time>2018-10-17T08:57:27.000Z</time>
      </trkpt>
      <trkpt lat="36.104399" lon="-5.64037">
        <ele>165.45312</ele>
        <time>2018-10-17T08:57:28.000Z</time>
      </trkpt>
      <trkpt lat="36.104338" lon="-5.640328">
        <ele>165</ele>
        <time>2018-10-17T08:57:30.000Z</time>
      </trkpt>
      <trkpt lat="36.104304" lon="-5.640308">
        <ele>165</ele>
        <time>2018-10-17T08:57:31.000Z</time>
      </trkpt>
      <trkpt lat="36.10424" lon="-5.640278">
        <ele>165</ele>
        <time>2018-10-17T08:57:33.000Z</time>
      </trkpt>
      <trkpt lat="36.104169" lon="-5.640265">
        <ele>164.017342793936</ele>
        <time>2018-10-17T08:57:35.000Z</time>
      </trkpt>
      <trkpt lat="36.104098" lon="-5.640258">
        <ele>163.299997439967</ele>
        <time>2018-10-17T08:57:37.000Z</time>
      </trkpt>
      <trkpt lat="36.104028" lon="-5.640251">
        <ele>162</ele>
        <time>2018-10-17T08:57:39.000Z</time>
      </trkpt>
      <trkpt lat="36.103993" lon="-5.640247">
        <ele>161.422542320936</ele>
        <time>2018-10-17T08:57:40.000Z</time>
      </trkpt>
      <trkpt lat="36.103933" lon="-5.640238">
        <ele>161</ele>
        <time>2018-10-17T08:57:42.000Z</time>
      </trkpt>
      <trkpt lat="36.103869" lon="-5.640227">
        <ele>161</ele>
        <time>2018-10-17T08:57:44.000Z</time>
      </trkpt>
      <trkpt lat="36.103804" lon="-5.640214">
        <ele>161</ele>
        <time>2018-10-17T08:57:46.000Z</time>
      </trkpt>
      <trkpt lat="36.103741" lon="-5.640203">
        <ele>161</ele>
        <time>2018-10-17T08:57:48.000Z</time>
      </trkpt>
      <trkpt lat="36.103678" lon="-5.640191">
        <ele>161</ele>
        <time>2018-10-17T08:57:50.000Z</time>
      </trkpt>
      <trkpt lat="36.103613" lon="-5.640182">
        <ele>161</ele>
        <time>2018-10-17T08:57:52.000Z</time>
      </trkpt>
      <trkpt lat="36.10356" lon="-5.640175">
        <ele>161</ele>
        <time>2018-10-17T08:57:54.000Z</time>
      </trkpt>
      <trkpt lat="36.103514" lon="-5.640167">
        <ele>161</ele>
        <time>2018-10-17T08:57:56.000Z</time>
      </trkpt>
      <trkpt lat="36.103473" lon="-5.64015">
        <ele>162</ele>
        <time>2018-10-17T08:57:58.000Z</time>
      </trkpt>
      <trkpt lat="36.103434" lon="-5.640128">
        <ele>163</ele>
        <time>2018-10-17T08:58:00.000Z</time>
      </trkpt>
      <trkpt lat="36.103391" lon="-5.640095">
        <ele>164</ele>
        <time>2018-10-17T08:58:03.000Z</time>
      </trkpt>
      <trkpt lat="36.103347" lon="-5.64007">
        <ele>164</ele>
        <time>2018-10-17T08:58:05.000Z</time>
      </trkpt>
      <trkpt lat="36.103301" lon="-5.640047">
        <ele>164.53126</ele>
        <time>2018-10-17T08:58:07.000Z</time>
      </trkpt>
      <trkpt lat="36.103255" lon="-5.64002">
        <ele>165</ele>
        <time>2018-10-17T08:58:09.000Z</time>
      </trkpt>
      <trkpt lat="36.103206" lon="-5.639989">
        <ele>164.396550582627</ele>
        <time>2018-10-17T08:58:11.000Z</time>
      </trkpt>
      <trkpt lat="36.103153" lon="-5.639964">
        <ele>163.693882082495</ele>
        <time>2018-10-17T08:58:13.000Z</time>
      </trkpt>
      <trkpt lat="36.103104" lon="-5.639936">
        <ele>164.662927327379</ele>
        <time>2018-10-17T08:58:15.000Z</time>
      </trkpt>
      <trkpt lat="36.103066" lon="-5.639907">
        <ele>165</ele>
        <time>2018-10-17T08:58:17.000Z</time>
      </trkpt>
      <trkpt lat="36.103028" lon="-5.639868">
        <ele>164.035499238815</ele>
        <time>2018-10-17T08:58:19.000Z</time>
      </trkpt>
      <trkpt lat="36.10299" lon="-5.63983">
        <ele>165</ele>
        <time>2018-10-17T08:58:21.000Z</time>
      </trkpt>
      <trkpt lat="36.102941" lon="-5.639788">
        <ele>163.299997439967</ele>
        <time>2018-10-17T08:58:23.000Z</time>
      </trkpt>
      <trkpt lat="36.102876" lon="-5.639743">
        <ele>163</ele>
        <time>2018-10-17T08:58:25.000Z</time>
      </trkpt>
      <trkpt lat="36.102845" lon="-5.639721">
        <ele>163</ele>
        <time>2018-10-17T08:58:26.000Z</time>
      </trkpt>
      <trkpt lat="36.102788" lon="-5.63968">
        <ele>163</ele>
        <time>2018-10-17T08:58:28.000Z</time>
      </trkpt>
      <trkpt lat="36.102734" lon="-5.639642">
        <ele>162.309281887519</ele>
        <time>2018-10-17T08:58:30.000Z</time>
      </trkpt>
      <trkpt lat="36.102685" lon="-5.639598">
        <ele>162</ele>
        <time>2018-10-17T08:58:32.000Z</time>
      </trkpt>
      <trkpt lat="36.102637" lon="-5.639553">
        <ele>163</ele>
        <time>2018-10-17T08:58:34.000Z</time>
      </trkpt>
      <trkpt lat="36.102594" lon="-5.639501">
        <ele>163</ele>
        <time>2018-10-17T08:58:36.000Z</time>
      </trkpt>
      <trkpt lat="36.102552" lon="-5.63946">
        <ele>163</ele>
        <time>2018-10-17T08:58:38.000Z</time>
      </trkpt>
      <trkpt lat="36.102509" lon="-5.639412">
        <ele>163</ele>
        <time>2018-10-17T08:58:40.000Z</time>
      </trkpt>
      <trkpt lat="36.102465" lon="-5.639369">
        <ele>163.636365752054</ele>
        <time>2018-10-17T08:58:42.000Z</time>
      </trkpt>
      <trkpt lat="36.102414" lon="-5.639325">
        <ele>164</ele>
        <time>2018-10-17T08:58:44.000Z</time>
      </trkpt>
      <trkpt lat="36.102367" lon="-5.639276">
        <ele>164</ele>
        <time>2018-10-17T08:58:46.000Z</time>
      </trkpt>
      <trkpt lat="36.102334" lon="-5.639232">
        <ele>164</ele>
        <time>2018-10-17T08:58:48.000Z</time>
      </trkpt>
      <trkpt lat="36.102304" lon="-5.639188">
        <ele>165</ele>
        <time>2018-10-17T08:58:50.000Z</time>
      </trkpt>
      <trkpt lat="36.102283" lon="-5.63914">
        <ele>165</ele>
        <time>2018-10-17T08:58:52.000Z</time>
      </trkpt>
      <trkpt lat="36.102265" lon="-5.639097">
        <ele>165</ele>
        <time>2018-10-17T08:58:54.000Z</time>
      </trkpt>
      <trkpt lat="36.102246" lon="-5.639036">
        <ele>166</ele>
        <time>2018-10-17T08:58:56.000Z</time>
      </trkpt>
      <trkpt lat="36.102228" lon="-5.638973">
        <ele>166.666666666667</ele>
        <time>2018-10-17T08:58:58.000Z</time>
      </trkpt>
      <trkpt lat="36.102211" lon="-5.638914">
        <ele>167</ele>
        <time>2018-10-17T08:59:00.000Z</time>
      </trkpt>
      <trkpt lat="36.102193" lon="-5.63885">
        <ele>167</ele>
        <time>2018-10-17T08:59:02.000Z</time>
      </trkpt>
      <trkpt lat="36.102178" lon="-5.638793">
        <ele>167</ele>
        <time>2018-10-17T08:59:04.000Z</time>
      </trkpt>
      <trkpt lat="36.102159" lon="-5.63873">
        <ele>167.673083076923</ele>
        <time>2018-10-17T08:59:06.000Z</time>
      </trkpt>
      <trkpt lat="36.10214" lon="-5.638674">
        <ele>168</ele>
        <time>2018-10-17T08:59:08.000Z</time>
      </trkpt>
      <trkpt lat="36.102115" lon="-5.638621">
        <ele>168</ele>
        <time>2018-10-17T08:59:10.000Z</time>
      </trkpt>
      <trkpt lat="36.102082" lon="-5.638578">
        <ele>169</ele>
        <time>2018-10-17T08:59:12.000Z</time>
      </trkpt>
      <trkpt lat="36.102036" lon="-5.638548">
        <ele>169</ele>
        <time>2018-10-17T08:59:14.000Z</time>
      </trkpt>
      <trkpt lat="36.101984" lon="-5.638519">
        <ele>168.303035788167</ele>
        <time>2018-10-17T08:59:16.000Z</time>
      </trkpt>
      <trkpt lat="36.101921" lon="-5.638504">
        <ele>168</ele>
        <time>2018-10-17T08:59:18.000Z</time>
      </trkpt>
      <trkpt lat="36.10186" lon="-5.638499">
        <ele>168</ele>
        <time>2018-10-17T08:59:20.000Z</time>
      </trkpt>
      <trkpt lat="36.101802" lon="-5.638488">
        <ele>168</ele>
        <time>2018-10-17T08:59:22.000Z</time>
      </trkpt>
      <trkpt lat="36.101742" lon="-5.638489">
        <ele>167</ele>
        <time>2018-10-17T08:59:24.000Z</time>
      </trkpt>
      <trkpt lat="36.101685" lon="-5.638491">
        <ele>166</ele>
        <time>2018-10-17T08:59:26.000Z</time>
      </trkpt>
      <trkpt lat="36.101628" lon="-5.638489">
        <ele>165</ele>
        <time>2018-10-17T08:59:28.000Z</time>
      </trkpt>
      <trkpt lat="36.101565" lon="-5.638491">
        <ele>165</ele>
        <time>2018-10-17T08:59:30.000Z</time>
      </trkpt>
      <trkpt lat="36.101502" lon="-5.638479">
        <ele>164.32258419698</ele>
        <time>2018-10-17T08:59:32.000Z</time>
      </trkpt>
      <trkpt lat="36.101452" lon="-5.638474">
        <ele>163</ele>
        <time>2018-10-17T08:59:34.000Z</time>
      </trkpt>
      <trkpt lat="36.101401" lon="-5.638449">
        <ele>163</ele>
        <time>2018-10-17T08:59:36.000Z</time>
      </trkpt>
      <trkpt lat="36.101348" lon="-5.63843">
        <ele>161.48507455558</ele>
        <time>2018-10-17T08:59:38.000Z</time>
      </trkpt>
      <trkpt lat="36.101288" lon="-5.638416">
        <ele>160</ele>
        <time>2018-10-17T08:59:40.000Z</time>
      </trkpt>
      <trkpt lat="36.101244" lon="-5.638401">
        <ele>158.422542320936</ele>
        <time>2018-10-17T08:59:42.000Z</time>
      </trkpt>
      <trkpt lat="36.101199" lon="-5.638384">
        <ele>157</ele>
        <time>2018-10-17T08:59:44.000Z</time>
      </trkpt>
      <trkpt lat="36.101141" lon="-5.638367">
        <ele>156.300002559967</ele>
        <time>2018-10-17T08:59:46.000Z</time>
      </trkpt>
      <trkpt lat="36.101079" lon="-5.638345">
        <ele>155</ele>
        <time>2018-10-17T08:59:48.000Z</time>
      </trkpt>
      <trkpt lat="36.101046" lon="-5.638327">
        <ele>155</ele>
        <time>2018-10-17T08:59:49.000Z</time>
      </trkpt>
      <trkpt lat="36.100966" lon="-5.638306">
        <ele>152.339624692074</ele>
        <time>2018-10-17T08:59:51.000Z</time>
      </trkpt>
      <trkpt lat="36.100925" lon="-5.638305">
        <ele>152</ele>
        <time>2018-10-17T08:59:52.000Z</time>
      </trkpt>
      <trkpt lat="36.100883" lon="-5.6383">
        <ele>150.599994879934</ele>
        <time>2018-10-17T08:59:53.000Z</time>
      </trkpt>
      <trkpt lat="36.100843" lon="-5.638294">
        <ele>150</ele>
        <time>2018-10-17T08:59:54.000Z</time>
      </trkpt>
      <trkpt lat="36.100807" lon="-5.638279">
        <ele>149.303026776825</ele>
        <time>2018-10-17T08:59:55.000Z</time>
      </trkpt>
      <trkpt lat="36.100772" lon="-5.638265">
        <ele>148.385962745472</ele>
        <time>2018-10-17T08:59:56.000Z</time>
      </trkpt>
      <trkpt lat="36.100736" lon="-5.63825">
        <ele>148</ele>
        <time>2018-10-17T08:59:57.000Z</time>
      </trkpt>
      <trkpt lat="36.100698" lon="-5.638238">
        <ele>147.303035788167</ele>
        <time>2018-10-17T08:59:58.000Z</time>
      </trkpt>
      <trkpt lat="36.10066" lon="-5.638231">
        <ele>146.496404003941</ele>
        <time>2018-10-17T08:59:59.000Z</time>
      </trkpt>
      <trkpt lat="36.100624" lon="-5.638221">
        <ele>145.75781</ele>
        <time>2018-10-17T09:00:00.000Z</time>
      </trkpt>
      <trkpt lat="36.10058" lon="-5.638216">
        <ele>145</ele>
        <time>2018-10-17T09:00:01.000Z</time>
      </trkpt>
      <trkpt lat="36.100539" lon="-5.63821">
        <ele>145</ele>
        <time>2018-10-17T09:00:02.000Z</time>
      </trkpt>
      <trkpt lat="36.100495" lon="-5.6382">
        <ele>145</ele>
        <time>2018-10-17T09:00:03.000Z</time>
      </trkpt>
      <trkpt lat="36.100426" lon="-5.638191">
        <ele>143.391304831762</ele>
        <time>2018-10-17T09:00:05.000Z</time>
      </trkpt>
      <trkpt lat="36.100372" lon="-5.638186">
        <ele>142</ele>
        <time>2018-10-17T09:00:07.000Z</time>
      </trkpt>
      <trkpt lat="36.100318" lon="-5.638169">
        <ele>142.666671407441</ele>
        <time>2018-10-17T09:00:09.000Z</time>
      </trkpt>
      <trkpt lat="36.100269" lon="-5.638154">
        <ele>143</ele>
        <time>2018-10-17T09:00:11.000Z</time>
      </trkpt>
      <trkpt lat="36.100227" lon="-5.638136">
        <ele>143</ele>
        <time>2018-10-17T09:00:13.000Z</time>
      </trkpt>
      <trkpt lat="36.100189" lon="-5.63812">
        <ele>144</ele>
        <time>2018-10-17T09:00:15.000Z</time>
      </trkpt>
      <trkpt lat="36.100159" lon="-5.638117">
        <ele>144</ele>
        <time>2018-10-17T09:00:17.000Z</time>
      </trkpt>
      <trkpt lat="36.10016" lon="-5.638143">
        <ele>144</ele>
        <time>2018-10-17T09:00:53.000Z</time>
      </trkpt>
      <trkpt lat="36.100147" lon="-5.638138">
        <ele>144</ele>
        <time>2018-10-17T09:00:54.000Z</time>
      </trkpt>
      <trkpt lat="36.100103" lon="-5.638101">
        <ele>144</ele>
        <time>2018-10-17T09:00:57.000Z</time>
      </trkpt>
      <trkpt lat="36.100055" lon="-5.638082">
        <ele>144</ele>
        <time>2018-10-17T09:00:59.000Z</time>
      </trkpt>
      <trkpt lat="36.099999" lon="-5.638072">
        <ele>143</ele>
        <time>2018-10-17T09:01:01.000Z</time>
      </trkpt>
      <trkpt lat="36.09994" lon="-5.638065">
        <ele>143</ele>
        <time>2018-10-17T09:01:03.000Z</time>
      </trkpt>
      <trkpt lat="36.099883" lon="-5.638057">
        <ele>143</ele>
        <time>2018-10-17T09:01:05.000Z</time>
      </trkpt>
      <trkpt lat="36.099826" lon="-5.638057">
        <ele>143</ele>
        <time>2018-10-17T09:01:07.000Z</time>
      </trkpt>
      <trkpt lat="36.099773" lon="-5.638063">
        <ele>143</ele>
        <time>2018-10-17T09:01:09.000Z</time>
      </trkpt>
      <trkpt lat="36.099719" lon="-5.638068">
        <ele>143.642197848654</ele>
        <time>2018-10-17T09:01:11.000Z</time>
      </trkpt>
      <trkpt lat="36.099662" lon="-5.63807">
        <ele>144</ele>
        <time>2018-10-17T09:01:13.000Z</time>
      </trkpt>
      <trkpt lat="36.099607" lon="-5.638071">
        <ele>144</ele>
        <time>2018-10-17T09:01:15.000Z</time>
      </trkpt>
      <trkpt lat="36.099556" lon="-5.638074">
        <ele>144</ele>
        <time>2018-10-17T09:01:17.000Z</time>
      </trkpt>
      <trkpt lat="36.099506" lon="-5.638076">
        <ele>144</ele>
        <time>2018-10-17T09:01:19.000Z</time>
      </trkpt>
      <trkpt lat="36.099453" lon="-5.638067">
        <ele>144</ele>
        <time>2018-10-17T09:01:21.000Z</time>
      </trkpt>
      <trkpt lat="36.099397" lon="-5.638058">
        <ele>144</ele>
        <time>2018-10-17T09:01:23.000Z</time>
      </trkpt>
      <trkpt lat="36.099333" lon="-5.638077">
        <ele>144</ele>
        <time>2018-10-17T09:01:25.000Z</time>
      </trkpt>
      <trkpt lat="36.099271" lon="-5.638093">
        <ele>144</ele>
        <time>2018-10-17T09:01:27.000Z</time>
      </trkpt>
      <trkpt lat="36.099206" lon="-5.638115">
        <ele>143.385967079113</ele>
        <time>2018-10-17T09:01:29.000Z</time>
      </trkpt>
      <trkpt lat="36.099147" lon="-5.638149">
        <ele>143</ele>
        <time>2018-10-17T09:01:31.000Z</time>
      </trkpt>
      <trkpt lat="36.099096" lon="-5.638175">
        <ele>141.299997439967</ele>
        <time>2018-10-17T09:01:33.000Z</time>
      </trkpt>
      <trkpt lat="36.099046" lon="-5.638192">
        <ele>142</ele>
        <time>2018-10-17T09:01:35.000Z</time>
      </trkpt>
      <trkpt lat="36.098992" lon="-5.63821">
        <ele>142</ele>
        <time>2018-10-17T09:01:37.000Z</time>
      </trkpt>
      <trkpt lat="36.098936" lon="-5.638227">
        <ele>142</ele>
        <time>2018-10-17T09:01:39.000Z</time>
      </trkpt>
      <trkpt lat="36.098882" lon="-5.638246">
        <ele>141.545452429715</ele>
        <time>2018-10-17T09:01:41.000Z</time>
      </trkpt>
      <trkpt lat="36.09883" lon="-5.638275">
        <ele>141</ele>
        <time>2018-10-17T09:01:43.000Z</time>
      </trkpt>
      <trkpt lat="36.098781" lon="-5.638307">
        <ele>141.700002560033</ele>
        <time>2018-10-17T09:01:45.000Z</time>
      </trkpt>
      <trkpt lat="36.098737" lon="-5.638336">
        <ele>142</ele>
        <time>2018-10-17T09:01:47.000Z</time>
      </trkpt>
      <trkpt lat="36.098699" lon="-5.638364">
        <ele>142</ele>
        <time>2018-10-17T09:01:49.000Z</time>
      </trkpt>
      <trkpt lat="36.098662" lon="-5.63839">
        <ele>142</ele>
        <time>2018-10-17T09:01:51.000Z</time>
      </trkpt>
      <trkpt lat="36.098619" lon="-5.638423">
        <ele>142.679611771139</ele>
        <time>2018-10-17T09:01:53.000Z</time>
      </trkpt>
      <trkpt lat="36.098586" lon="-5.638465">
        <ele>143</ele>
        <time>2018-10-17T09:01:55.000Z</time>
      </trkpt>
      <trkpt lat="36.09856" lon="-5.638504">
        <ele>143</ele>
        <time>2018-10-17T09:01:57.000Z</time>
      </trkpt>
      <trkpt lat="36.098533" lon="-5.638549">
        <ele>143</ele>
        <time>2018-10-17T09:01:59.000Z</time>
      </trkpt>
      <trkpt lat="36.098516" lon="-5.638603">
        <ele>143.662927327379</ele>
        <time>2018-10-17T09:02:01.000Z</time>
      </trkpt>
      <trkpt lat="36.0985" lon="-5.638654">
        <ele>144.654205495675</ele>
        <time>2018-10-17T09:02:03.000Z</time>
      </trkpt>
      <trkpt lat="36.098484" lon="-5.638708">
        <ele>146</ele>
        <time>2018-10-17T09:02:05.000Z</time>
      </trkpt>
      <trkpt lat="36.098468" lon="-5.638757">
        <ele>146.693882082495</ele>
        <time>2018-10-17T09:02:07.000Z</time>
      </trkpt>
      <trkpt lat="36.098444" lon="-5.638817">
        <ele>147</ele>
        <time>2018-10-17T09:02:09.000Z</time>
      </trkpt>
      <trkpt lat="36.098416" lon="-5.638873">
        <ele>146</ele>
        <time>2018-10-17T09:02:11.000Z</time>
      </trkpt>
      <trkpt lat="36.098392" lon="-5.638927">
        <ele>146</ele>
        <time>2018-10-17T09:02:13.000Z</time>
      </trkpt>
      <trkpt lat="36.098364" lon="-5.638982">
        <ele>145</ele>
        <time>2018-10-17T09:02:15.000Z</time>
      </trkpt>
      <trkpt lat="36.098333" lon="-5.63904">
        <ele>144</ele>
        <time>2018-10-17T09:02:17.000Z</time>
      </trkpt>
      <trkpt lat="36.098302" lon="-5.639096">
        <ele>144</ele>
        <time>2018-10-17T09:02:19.000Z</time>
      </trkpt>
      <trkpt lat="36.098265" lon="-5.639125">
        <ele>144</ele>
        <time>2018-10-17T09:02:21.000Z</time>
      </trkpt>
      <trkpt lat="36.098215" lon="-5.639102">
        <ele>143</ele>
        <time>2018-10-17T09:02:24.000Z</time>
      </trkpt>
      <trkpt lat="36.098177" lon="-5.639065">
        <ele>143</ele>
        <time>2018-10-17T09:02:26.000Z</time>
      </trkpt>
      <trkpt lat="36.098143" lon="-5.639039">
        <ele>143</ele>
        <time>2018-10-17T09:02:28.000Z</time>
      </trkpt>
      <trkpt lat="36.098097" lon="-5.639016">
        <ele>144</ele>
        <time>2018-10-17T09:02:31.000Z</time>
      </trkpt>
      <trkpt lat="36.098045" lon="-5.63901">
        <ele>144</ele>
        <time>2018-10-17T09:02:34.000Z</time>
      </trkpt>
      <trkpt lat="36.098009" lon="-5.639007">
        <ele>145</ele>
        <time>2018-10-17T09:02:36.000Z</time>
      </trkpt>
      <trkpt lat="36.097973" lon="-5.639021">
        <ele>145</ele>
        <time>2018-10-17T09:02:38.000Z</time>
      </trkpt>
      <trkpt lat="36.097935" lon="-5.639052">
        <ele>145.326916923077</ele>
        <time>2018-10-17T09:02:42.000Z</time>
      </trkpt>
      <trkpt lat="36.097892" lon="-5.639077">
        <ele>145</ele>
        <time>2018-10-17T09:02:44.000Z</time>
      </trkpt>
      <trkpt lat="36.097849" lon="-5.639091">
        <ele>145</ele>
        <time>2018-10-17T09:02:46.000Z</time>
      </trkpt>
      <trkpt lat="36.097793" lon="-5.639094">
        <ele>145</ele>
        <time>2018-10-17T09:02:49.000Z</time>
      </trkpt>
      <trkpt lat="36.097753" lon="-5.63911">
        <ele>145</ele>
        <time>2018-10-17T09:02:51.000Z</time>
      </trkpt>
      <trkpt lat="36.097718" lon="-5.639129">
        <ele>145.659098181818</ele>
        <time>2018-10-17T09:02:53.000Z</time>
      </trkpt>
      <trkpt lat="36.097682" lon="-5.639156">
        <ele>146.423075029539</ele>
        <time>2018-10-17T09:02:55.000Z</time>
      </trkpt>
      <trkpt lat="36.097645" lon="-5.639172">
        <ele>147</ele>
        <time>2018-10-17T09:02:57.000Z</time>
      </trkpt>
      <trkpt lat="36.097609" lon="-5.639183">
        <ele>147</ele>
        <time>2018-10-17T09:02:59.000Z</time>
      </trkpt>
      <trkpt lat="36.097568" lon="-5.63919">
        <ele>147</ele>
        <time>2018-10-17T09:03:01.000Z</time>
      </trkpt>
      <trkpt lat="36.097519" lon="-5.639202">
        <ele>147</ele>
        <time>2018-10-17T09:03:03.000Z</time>
      </trkpt>
      <trkpt lat="36.097467" lon="-5.639217">
        <ele>147</ele>
        <time>2018-10-17T09:03:05.000Z</time>
      </trkpt>
      <trkpt lat="36.097416" lon="-5.639221">
        <ele>147</ele>
        <time>2018-10-17T09:03:07.000Z</time>
      </trkpt>
      <trkpt lat="36.097365" lon="-5.639232">
        <ele>147</ele>
        <time>2018-10-17T09:03:09.000Z</time>
      </trkpt>
      <trkpt lat="36.097318" lon="-5.639238">
        <ele>147</ele>
        <time>2018-10-17T09:03:11.000Z</time>
      </trkpt>
      <trkpt lat="36.097272" lon="-5.639258">
        <ele>147</ele>
        <time>2018-10-17T09:03:13.000Z</time>
      </trkpt>
      <trkpt lat="36.097235" lon="-5.639289">
        <ele>147</ele>
        <time>2018-10-17T09:03:15.000Z</time>
      </trkpt>
      <trkpt lat="36.097199" lon="-5.639325">
        <ele>148</ele>
        <time>2018-10-17T09:03:17.000Z</time>
      </trkpt>
      <trkpt lat="36.097158" lon="-5.639355">
        <ele>149</ele>
        <time>2018-10-17T09:03:19.000Z</time>
      </trkpt>
      <trkpt lat="36.097127" lon="-5.639385">
        <ele>149</ele>
        <time>2018-10-17T09:03:21.000Z</time>
      </trkpt>
      <trkpt lat="36.097084" lon="-5.639399">
        <ele>149.63953384533</ele>
        <time>2018-10-17T09:03:23.000Z</time>
      </trkpt>
      <trkpt lat="36.097043" lon="-5.6394">
        <ele>150</ele>
        <time>2018-10-17T09:03:25.000Z</time>
      </trkpt>
      <trkpt lat="36.097007" lon="-5.639412">
        <ele>149</ele>
        <time>2018-10-17T09:03:27.000Z</time>
      </trkpt>
      <trkpt lat="36.096966" lon="-5.639442">
        <ele>149.700002560033</ele>
        <time>2018-10-17T09:03:29.000Z</time>
      </trkpt>
      <trkpt lat="36.096928" lon="-5.639464">
        <ele>150</ele>
        <time>2018-10-17T09:03:31.000Z</time>
      </trkpt>
      <trkpt lat="36.096893" lon="-5.639494">
        <ele>150.619465117069</ele>
        <time>2018-10-17T09:03:33.000Z</time>
      </trkpt>
      <trkpt lat="36.096868" lon="-5.63953">
        <ele>151</ele>
        <time>2018-10-17T09:03:35.000Z</time>
      </trkpt>
      <trkpt lat="36.096827" lon="-5.639567">
        <ele>151</ele>
        <time>2018-10-17T09:03:37.000Z</time>
      </trkpt>
      <trkpt lat="36.096782" lon="-5.639591">
        <ele>151</ele>
        <time>2018-10-17T09:03:39.000Z</time>
      </trkpt>
      <trkpt lat="36.096743" lon="-5.63961">
        <ele>151</ele>
        <time>2018-10-17T09:03:41.000Z</time>
      </trkpt>
      <trkpt lat="36.096702" lon="-5.639624">
        <ele>151</ele>
        <time>2018-10-17T09:03:43.000Z</time>
      </trkpt>
      <trkpt lat="36.096651" lon="-5.639626">
        <ele>150</ele>
        <time>2018-10-17T09:03:45.000Z</time>
      </trkpt>
      <trkpt lat="36.096602" lon="-5.639642">
        <ele>150</ele>
        <time>2018-10-17T09:03:47.000Z</time>
      </trkpt>
      <trkpt lat="36.09656" lon="-5.639666">
        <ele>149.396550582627</ele>
        <time>2018-10-17T09:03:49.000Z</time>
      </trkpt>
      <trkpt lat="36.09652" lon="-5.639681">
        <ele>149.700002560033</ele>
        <time>2018-10-17T09:03:51.000Z</time>
      </trkpt>
      <trkpt lat="36.096477" lon="-5.639687">
        <ele>149.344445550609</ele>
        <time>2018-10-17T09:03:53.000Z</time>
      </trkpt>
      <trkpt lat="36.09643" lon="-5.639697">
        <ele>149</ele>
        <time>2018-10-17T09:03:56.000Z</time>
      </trkpt>
      <trkpt lat="36.096412" lon="-5.639704">
        <ele>149</ele>
        <time>2018-10-17T09:03:58.000Z</time>
      </trkpt>
      <trkpt lat="36.096403" lon="-5.639724">
        <ele>149</ele>
        <time>2018-10-17T09:04:16.000Z</time>
      </trkpt>
      <trkpt lat="36.096395" lon="-5.639728">
        <ele>149</ele>
        <time>2018-10-17T09:04:17.000Z</time>
      </trkpt>
      <trkpt lat="36.096361" lon="-5.639749">
        <ele>148.333337396838</ele>
        <time>2018-10-17T09:04:19.000Z</time>
      </trkpt>
      <trkpt lat="36.096319" lon="-5.639784">
        <ele>148</ele>
        <time>2018-10-17T09:04:21.000Z</time>
      </trkpt>
      <trkpt lat="36.096284" lon="-5.63983">
        <ele>148</ele>
        <time>2018-10-17T09:04:23.000Z</time>
      </trkpt>
      <trkpt lat="36.096252" lon="-5.639854">
        <ele>148</ele>
        <time>2018-10-17T09:04:25.000Z</time>
      </trkpt>
      <trkpt lat="36.096216" lon="-5.639836">
        <ele>146.475008</ele>
        <time>2018-10-17T09:04:30.000Z</time>
      </trkpt>
      <trkpt lat="36.096195" lon="-5.639799">
        <ele>145</ele>
        <time>2018-10-17T09:04:34.000Z</time>
      </trkpt>
      <trkpt lat="36.0962" lon="-5.639845">
        <ele>144</ele>
        <time>2018-10-17T09:04:42.000Z</time>
      </trkpt>
      <trkpt lat="36.09617" lon="-5.639887">
        <ele>144</ele>
        <time>2018-10-17T09:04:46.000Z</time>
      </trkpt>
      <trkpt lat="36.096133" lon="-5.639885">
        <ele>144</ele>
        <time>2018-10-17T09:04:50.000Z</time>
      </trkpt>
      <trkpt lat="36.096105" lon="-5.63984">
        <ele>144</ele>
        <time>2018-10-17T09:04:54.000Z</time>
      </trkpt>
      <trkpt lat="36.096065" lon="-5.639817">
        <ele>143.312493333333</ele>
        <time>2018-10-17T09:04:57.000Z</time>
      </trkpt>
      <trkpt lat="36.096038" lon="-5.639786">
        <ele>144</ele>
        <time>2018-10-17T09:05:00.000Z</time>
      </trkpt>
      <trkpt lat="36.096012" lon="-5.639748">
        <ele>144</ele>
        <time>2018-10-17T09:05:03.000Z</time>
      </trkpt>
      <trkpt lat="36.096006" lon="-5.639699">
        <ele>144</ele>
        <time>2018-10-17T09:05:06.000Z</time>
      </trkpt>
      <trkpt lat="36.09599" lon="-5.639657">
        <ele>143</ele>
        <time>2018-10-17T09:05:08.000Z</time>
      </trkpt>
      <trkpt lat="36.095956" lon="-5.639618">
        <ele>143</ele>
        <time>2018-10-17T09:05:11.000Z</time>
      </trkpt>
      <trkpt lat="36.095911" lon="-5.639615">
        <ele>142</ele>
        <time>2018-10-17T09:05:14.000Z</time>
      </trkpt>
      <trkpt lat="36.095868" lon="-5.639606">
        <ele>142</ele>
        <time>2018-10-17T09:05:19.000Z</time>
      </trkpt>
      <trkpt lat="36.095829" lon="-5.639616">
        <ele>142</ele>
        <time>2018-10-17T09:05:22.000Z</time>
      </trkpt>
      <trkpt lat="36.095796" lon="-5.639654">
        <ele>142</ele>
        <time>2018-10-17T09:05:26.000Z</time>
      </trkpt>
      <trkpt lat="36.095757" lon="-5.639664">
        <ele>143</ele>
        <time>2018-10-17T09:05:31.000Z</time>
      </trkpt>
      <trkpt lat="36.095717" lon="-5.639684">
        <ele>144.693882082495</ele>
        <time>2018-10-17T09:05:35.000Z</time>
      </trkpt>
      <trkpt lat="36.095671" lon="-5.639691">
        <ele>146</ele>
        <time>2018-10-17T09:05:39.000Z</time>
      </trkpt>
      <trkpt lat="36.095637" lon="-5.639705">
        <ele>146</ele>
        <time>2018-10-17T09:05:42.000Z</time>
      </trkpt>
      <trkpt lat="36.095596" lon="-5.63969">
        <ele>146.655166325825</ele>
        <time>2018-10-17T09:05:46.000Z</time>
      </trkpt>
      <trkpt lat="36.095559" lon="-5.639676">
        <ele>147.614032920887</ele>
        <time>2018-10-17T09:05:49.000Z</time>
      </trkpt>
      <trkpt lat="36.095517" lon="-5.639653">
        <ele>148</ele>
        <time>2018-10-17T09:05:53.000Z</time>
      </trkpt>
      <trkpt lat="36.095478" lon="-5.639644">
        <ele>148</ele>
        <time>2018-10-17T09:05:56.000Z</time>
      </trkpt>
      <trkpt lat="36.095439" lon="-5.639639">
        <ele>148</ele>
        <time>2018-10-17T09:05:59.000Z</time>
      </trkpt>
      <trkpt lat="36.095394" lon="-5.63964">
        <ele>148</ele>
        <time>2018-10-17T09:06:02.000Z</time>
      </trkpt>
      <trkpt lat="36.095353" lon="-5.639646">
        <ele>148</ele>
        <time>2018-10-17T09:06:04.000Z</time>
      </trkpt>
      <trkpt lat="36.095306" lon="-5.63966">
        <ele>148</ele>
        <time>2018-10-17T09:06:06.000Z</time>
      </trkpt>
      <trkpt lat="36.095256" lon="-5.639677">
        <ele>147.326916923077</ele>
        <time>2018-10-17T09:06:08.000Z</time>
      </trkpt>
      <trkpt lat="36.095207" lon="-5.639691">
        <ele>147</ele>
        <time>2018-10-17T09:06:10.000Z</time>
      </trkpt>
      <trkpt lat="36.095152" lon="-5.639709">
        <ele>146.45313</ele>
        <time>2018-10-17T09:06:13.000Z</time>
      </trkpt>
      <trkpt lat="36.095084" lon="-5.639718">
        <ele>145</ele>
        <time>2018-10-17T09:06:15.000Z</time>
      </trkpt>
      <trkpt lat="36.095025" lon="-5.639728">
        <ele>144.375005714286</ele>
        <time>2018-10-17T09:06:17.000Z</time>
      </trkpt>
      <trkpt lat="36.094974" lon="-5.639728">
        <ele>144</ele>
        <time>2018-10-17T09:06:19.000Z</time>
      </trkpt>
      <trkpt lat="36.094916" lon="-5.639728">
        <ele>143.476187573652</ele>
        <time>2018-10-17T09:06:21.000Z</time>
      </trkpt>
      <trkpt lat="36.094863" lon="-5.639708">
        <ele>143</ele>
        <time>2018-10-17T09:06:23.000Z</time>
      </trkpt>
      <trkpt lat="36.094808" lon="-5.639704">
        <ele>142</ele>
        <time>2018-10-17T09:06:25.000Z</time>
      </trkpt>
      <trkpt lat="36.09476" lon="-5.63972">
        <ele>142</ele>
        <time>2018-10-17T09:06:27.000Z</time>
      </trkpt>
      <trkpt lat="36.094713" lon="-5.639729">
        <ele>141</ele>
        <time>2018-10-17T09:06:29.000Z</time>
      </trkpt>
      <trkpt lat="36.094666" lon="-5.639738">
        <ele>140</ele>
        <time>2018-10-17T09:06:31.000Z</time>
      </trkpt>
      <trkpt lat="36.094607" lon="-5.639765">
        <ele>137.899992319902</ele>
        <time>2018-10-17T09:06:33.000Z</time>
      </trkpt>
      <trkpt lat="36.094562" lon="-5.639797">
        <ele>137</ele>
        <time>2018-10-17T09:06:35.000Z</time>
      </trkpt>
      <trkpt lat="36.094511" lon="-5.63982">
        <ele>137</ele>
        <time>2018-10-17T09:06:37.000Z</time>
      </trkpt>
      <trkpt lat="36.094469" lon="-5.639844">
        <ele>137</ele>
        <time>2018-10-17T09:06:39.000Z</time>
      </trkpt>
      <trkpt lat="36.094428" lon="-5.639871">
        <ele>137</ele>
        <time>2018-10-17T09:06:41.000Z</time>
      </trkpt>
      <trkpt lat="36.094387" lon="-5.639897">
        <ele>138</ele>
        <time>2018-10-17T09:06:43.000Z</time>
      </trkpt>
      <trkpt lat="36.094343" lon="-5.639924">
        <ele>138</ele>
        <time>2018-10-17T09:06:45.000Z</time>
      </trkpt>
      <trkpt lat="36.094305" lon="-5.639959">
        <ele>138</ele>
        <time>2018-10-17T09:06:47.000Z</time>
      </trkpt>
      <trkpt lat="36.094262" lon="-5.639994">
        <ele>138</ele>
        <time>2018-10-17T09:06:49.000Z</time>
      </trkpt>
      <trkpt lat="36.094226" lon="-5.640028">
        <ele>138</ele>
        <time>2018-10-17T09:06:51.000Z</time>
      </trkpt>
      <trkpt lat="36.094186" lon="-5.640067">
        <ele>139</ele>
        <time>2018-10-17T09:06:53.000Z</time>
      </trkpt>
      <trkpt lat="36.09415" lon="-5.640109">
        <ele>140</ele>
        <time>2018-10-17T09:06:55.000Z</time>
      </trkpt>
      <trkpt lat="36.094116" lon="-5.640149">
        <ele>140.651167636596</ele>
        <time>2018-10-17T09:06:57.000Z</time>
      </trkpt>
      <trkpt lat="36.094094" lon="-5.640189">
        <ele>141</ele>
        <time>2018-10-17T09:06:59.000Z</time>
      </trkpt>
      <trkpt lat="36.094063" lon="-5.640234">
        <ele>141.571433795966</ele>
        <time>2018-10-17T09:07:01.000Z</time>
      </trkpt>
      <trkpt lat="36.094039" lon="-5.64027">
        <ele>142</ele>
        <time>2018-10-17T09:07:03.000Z</time>
      </trkpt>
      <trkpt lat="36.094017" lon="-5.640337">
        <ele>142</ele>
        <time>2018-10-17T09:07:06.000Z</time>
      </trkpt>
      <trkpt lat="36.094011" lon="-5.640396">
        <ele>142</ele>
        <time>2018-10-17T09:07:08.000Z</time>
      </trkpt>
      <trkpt lat="36.093999" lon="-5.640459">
        <ele>142.68084642828</ele>
        <time>2018-10-17T09:07:10.000Z</time>
      </trkpt>
      <trkpt lat="36.093988" lon="-5.640519">
        <ele>143</ele>
        <time>2018-10-17T09:07:12.000Z</time>
      </trkpt>
      <trkpt lat="36.093983" lon="-5.640577">
        <ele>143</ele>
        <time>2018-10-17T09:07:14.000Z</time>
      </trkpt>
      <trkpt lat="36.093983" lon="-5.640646">
        <ele>143</ele>
        <time>2018-10-17T09:07:16.000Z</time>
      </trkpt>
      <trkpt lat="36.093975" lon="-5.640715">
        <ele>143</ele>
        <time>2018-10-17T09:07:18.000Z</time>
      </trkpt>
      <trkpt lat="36.093968" lon="-5.640782">
        <ele>143</ele>
        <time>2018-10-17T09:07:20.000Z</time>
      </trkpt>
      <trkpt lat="36.093959" lon="-5.640848">
        <ele>143</ele>
        <time>2018-10-17T09:07:22.000Z</time>
      </trkpt>
      <trkpt lat="36.093954" lon="-5.640916">
        <ele>143</ele>
        <time>2018-10-17T09:07:24.000Z</time>
      </trkpt>
      <trkpt lat="36.093952" lon="-5.640981">
        <ele>143</ele>
        <time>2018-10-17T09:07:26.000Z</time>
      </trkpt>
      <trkpt lat="36.093951" lon="-5.641043">
        <ele>144</ele>
        <time>2018-10-17T09:07:28.000Z</time>
      </trkpt>
      <trkpt lat="36.093948" lon="-5.641106">
        <ele>144.684204853205</ele>
        <time>2018-10-17T09:07:30.000Z</time>
      </trkpt>
      <trkpt lat="36.093938" lon="-5.641168">
        <ele>144.306930944023</ele>
        <time>2018-10-17T09:07:32.000Z</time>
      </trkpt>
      <trkpt lat="36.093917" lon="-5.641228">
        <ele>145</ele>
        <time>2018-10-17T09:07:34.000Z</time>
      </trkpt>
      <trkpt lat="36.093885" lon="-5.641281">
        <ele>144.357797949669</ele>
        <time>2018-10-17T09:07:36.000Z</time>
      </trkpt>
      <trkpt lat="36.093851" lon="-5.641339">
        <ele>143</ele>
        <time>2018-10-17T09:07:38.000Z</time>
      </trkpt>
      <trkpt lat="36.093816" lon="-5.641397">
        <ele>142</ele>
        <time>2018-10-17T09:07:40.000Z</time>
      </trkpt>
      <trkpt lat="36.093778" lon="-5.641432">
        <ele>142</ele>
        <time>2018-10-17T09:07:42.000Z</time>
      </trkpt>
      <trkpt lat="36.093736" lon="-5.641469">
        <ele>142</ele>
        <time>2018-10-17T09:07:44.000Z</time>
      </trkpt>
      <trkpt lat="36.09369" lon="-5.641507">
        <ele>142</ele>
        <time>2018-10-17T09:07:46.000Z</time>
      </trkpt>
      <trkpt lat="36.093643" lon="-5.641551">
        <ele>142</ele>
        <time>2018-10-17T09:07:48.000Z</time>
      </trkpt>
      <trkpt lat="36.093596" lon="-5.641599">
        <ele>143.699997440033</ele>
        <time>2018-10-17T09:07:50.000Z</time>
      </trkpt>
      <trkpt lat="36.093549" lon="-5.641647">
        <ele>144</ele>
        <time>2018-10-17T09:07:52.000Z</time>
      </trkpt>
      <trkpt lat="36.093509" lon="-5.641694">
        <ele>144</ele>
        <time>2018-10-17T09:07:54.000Z</time>
      </trkpt>
      <trkpt lat="36.093471" lon="-5.641749">
        <ele>144</ele>
        <time>2018-10-17T09:07:56.000Z</time>
      </trkpt>
      <trkpt lat="36.09344" lon="-5.641815">
        <ele>143</ele>
        <time>2018-10-17T09:07:58.000Z</time>
      </trkpt>
      <trkpt lat="36.093412" lon="-5.641869">
        <ele>142.306126980395</ele>
        <time>2018-10-17T09:08:00.000Z</time>
      </trkpt>
      <trkpt lat="36.093311" lon="-5.641947">
        <ele>145.451608241463</ele>
        <time>2018-10-17T09:08:05.000Z</time>
      </trkpt>
      <trkpt lat="36.093264" lon="-5.641938">
        <ele>146</ele>
        <time>2018-10-17T09:08:07.000Z</time>
      </trkpt>
      <trkpt lat="36.09323" lon="-5.641921">
        <ele>146</ele>
        <time>2018-10-17T09:08:09.000Z</time>
      </trkpt>
      <trkpt lat="36.093188" lon="-5.641892">
        <ele>146</ele>
        <time>2018-10-17T09:08:12.000Z</time>
      </trkpt>
      <trkpt lat="36.093084" lon="-5.641875">
        <ele>148</ele>
        <time>2018-10-17T09:08:17.000Z</time>
      </trkpt>
      <trkpt lat="36.093014" lon="-5.641902">
        <ele>149</ele>
        <time>2018-10-17T09:08:20.000Z</time>
      </trkpt>
      <trkpt lat="36.092964" lon="-5.641924">
        <ele>149</ele>
        <time>2018-10-17T09:08:22.000Z</time>
      </trkpt>
      <trkpt lat="36.092886" lon="-5.641943">
        <ele>150</ele>
        <time>2018-10-17T09:08:25.000Z</time>
      </trkpt>
      <trkpt lat="36.092834" lon="-5.641961">
        <ele>150</ele>
        <time>2018-10-17T09:08:27.000Z</time>
      </trkpt>
      <trkpt lat="36.09278" lon="-5.641969">
        <ele>150</ele>
        <time>2018-10-17T09:08:29.000Z</time>
      </trkpt>
      <trkpt lat="36.092724" lon="-5.641976">
        <ele>150</ele>
        <time>2018-10-17T09:08:31.000Z</time>
      </trkpt>
      <trkpt lat="36.092672" lon="-5.641977">
        <ele>150</ele>
        <time>2018-10-17T09:08:33.000Z</time>
      </trkpt>
      <trkpt lat="36.092616" lon="-5.641987">
        <ele>150</ele>
        <time>2018-10-17T09:08:35.000Z</time>
      </trkpt>
      <trkpt lat="36.092554" lon="-5.642006">
        <ele>150</ele>
        <time>2018-10-17T09:08:37.000Z</time>
      </trkpt>
      <trkpt lat="36.092496" lon="-5.64202">
        <ele>150</ele>
        <time>2018-10-17T09:08:39.000Z</time>
      </trkpt>
      <trkpt lat="36.092442" lon="-5.642031">
        <ele>150</ele>
        <time>2018-10-17T09:08:41.000Z</time>
      </trkpt>
      <trkpt lat="36.092382" lon="-5.642047">
        <ele>150</ele>
        <time>2018-10-17T09:08:43.000Z</time>
      </trkpt>
      <trkpt lat="36.092326" lon="-5.642072">
        <ele>150</ele>
        <time>2018-10-17T09:08:45.000Z</time>
      </trkpt>
      <trkpt lat="36.092267" lon="-5.642087">
        <ele>146</ele>
        <time>2018-10-17T09:08:47.000Z</time>
      </trkpt>
      <trkpt lat="36.092233" lon="-5.642091">
        <ele>146</ele>
        <time>2018-10-17T09:08:48.000Z</time>
      </trkpt>
      <trkpt lat="36.09217" lon="-5.642092">
        <ele>147</ele>
        <time>2018-10-17T09:08:50.000Z</time>
      </trkpt>
      <trkpt lat="36.092114" lon="-5.6421">
        <ele>149</ele>
        <time>2018-10-17T09:08:52.000Z</time>
      </trkpt>
      <trkpt lat="36.092054" lon="-5.642114">
        <ele>150</ele>
        <time>2018-10-17T09:08:54.000Z</time>
      </trkpt>
      <trkpt lat="36.092" lon="-5.642135">
        <ele>149</ele>
        <time>2018-10-17T09:08:56.000Z</time>
      </trkpt>
      <trkpt lat="36.091948" lon="-5.642149">
        <ele>150</ele>
        <time>2018-10-17T09:08:58.000Z</time>
      </trkpt>
      <trkpt lat="36.091903" lon="-5.642159">
        <ele>150</ele>
        <time>2018-10-17T09:09:00.000Z</time>
      </trkpt>
      <trkpt lat="36.091825" lon="-5.642175">
        <ele>151</ele>
        <time>2018-10-17T09:09:03.000Z</time>
      </trkpt>
      <trkpt lat="36.091775" lon="-5.642186">
        <ele>151.444449711997</ele>
        <time>2018-10-17T09:09:05.000Z</time>
      </trkpt>
      <trkpt lat="36.091728" lon="-5.642201">
        <ele>152</ele>
        <time>2018-10-17T09:09:07.000Z</time>
      </trkpt>
      <trkpt lat="36.091681" lon="-5.64222">
        <ele>152.65517596516</ele>
        <time>2018-10-17T09:09:09.000Z</time>
      </trkpt>
      <trkpt lat="36.091635" lon="-5.64223">
        <ele>153</ele>
        <time>2018-10-17T09:09:11.000Z</time>
      </trkpt>
      <trkpt lat="36.091587" lon="-5.642245">
        <ele>152.464568278253</ele>
        <time>2018-10-17T09:09:13.000Z</time>
      </trkpt>
      <trkpt lat="36.091536" lon="-5.642255">
        <ele>153</ele>
        <time>2018-10-17T09:09:15.000Z</time>
      </trkpt>
      <trkpt lat="36.091485" lon="-5.642263">
        <ele>154</ele>
        <time>2018-10-17T09:09:17.000Z</time>
      </trkpt>
      <trkpt lat="36.091427" lon="-5.642274">
        <ele>154</ele>
        <time>2018-10-17T09:09:19.000Z</time>
      </trkpt>
      <trkpt lat="36.091374" lon="-5.642284">
        <ele>154</ele>
        <time>2018-10-17T09:09:21.000Z</time>
      </trkpt>
      <trkpt lat="36.09132" lon="-5.642298">
        <ele>153.680855699443</ele>
        <time>2018-10-17T09:09:23.000Z</time>
      </trkpt>
      <trkpt lat="36.091265" lon="-5.642313">
        <ele>154</ele>
        <time>2018-10-17T09:09:25.000Z</time>
      </trkpt>
      <trkpt lat="36.091206" lon="-5.642327">
        <ele>153.608695168238</ele>
        <time>2018-10-17T09:09:27.000Z</time>
      </trkpt>
      <trkpt lat="36.09115" lon="-5.642336">
        <ele>154</ele>
        <time>2018-10-17T09:09:29.000Z</time>
      </trkpt>
      <trkpt lat="36.091095" lon="-5.642345">
        <ele>154</ele>
        <time>2018-10-17T09:09:31.000Z</time>
      </trkpt>
      <trkpt lat="36.091037" lon="-5.642359">
        <ele>154</ele>
        <time>2018-10-17T09:09:33.000Z</time>
      </trkpt>
      <trkpt lat="36.090981" lon="-5.642388">
        <ele>153.340901818182</ele>
        <time>2018-10-17T09:09:35.000Z</time>
      </trkpt>
      <trkpt lat="36.090915" lon="-5.642422">
        <ele>153</ele>
        <time>2018-10-17T09:09:37.000Z</time>
      </trkpt>
      <trkpt lat="36.090857" lon="-5.642453">
        <ele>152</ele>
        <time>2018-10-17T09:09:39.000Z</time>
      </trkpt>
      <trkpt lat="36.090825" lon="-5.642473">
        <ele>152</ele>
        <time>2018-10-17T09:09:40.000Z</time>
      </trkpt>
      <trkpt lat="36.090768" lon="-5.642516">
        <ele>150.983045331771</ele>
        <time>2018-10-17T09:09:42.000Z</time>
      </trkpt>
      <trkpt lat="36.090735" lon="-5.642537">
        <ele>148.833315555556</ele>
        <time>2018-10-17T09:09:43.000Z</time>
      </trkpt>
      <trkpt lat="36.090703" lon="-5.642556">
        <ele>148</ele>
        <time>2018-10-17T09:09:44.000Z</time>
      </trkpt>
      <trkpt lat="36.090672" lon="-5.642574">
        <ele>149.117649273398</ele>
        <time>2018-10-17T09:09:45.000Z</time>
      </trkpt>
      <trkpt lat="36.090606" lon="-5.642601">
        <ele>150</ele>
        <time>2018-10-17T09:09:47.000Z</time>
      </trkpt>
      <trkpt lat="36.090571" lon="-5.642619">
        <ele>148.600005119934</ele>
        <time>2018-10-17T09:09:48.000Z</time>
      </trkpt>
      <trkpt lat="36.090507" lon="-5.642652">
        <ele>147.684204853205</ele>
        <time>2018-10-17T09:09:50.000Z</time>
      </trkpt>
      <trkpt lat="36.090448" lon="-5.642667">
        <ele>149</ele>
        <time>2018-10-17T09:09:52.000Z</time>
      </trkpt>
      <trkpt lat="36.090391" lon="-5.642676">
        <ele>149</ele>
        <time>2018-10-17T09:09:54.000Z</time>
      </trkpt>
      <trkpt lat="36.090339" lon="-5.642674">
        <ele>148.326916923077</ele>
        <time>2018-10-17T09:09:56.000Z</time>
      </trkpt>
      <trkpt lat="36.09028" lon="-5.642659">
        <ele>147.457363418071</ele>
        <time>2018-10-17T09:09:58.000Z</time>
      </trkpt>
      <trkpt lat="36.090224" lon="-5.642643">
        <ele>146</ele>
        <time>2018-10-17T09:10:00.000Z</time>
      </trkpt>
      <trkpt lat="36.090108" lon="-5.642622">
        <ele>144.613339249753</ele>
        <time>2018-10-17T09:10:04.000Z</time>
      </trkpt>
      <trkpt lat="36.090065" lon="-5.642626">
        <ele>144</ele>
        <time>2018-10-17T09:10:06.000Z</time>
      </trkpt>
      <trkpt lat="36.090006" lon="-5.642649">
        <ele>144</ele>
        <time>2018-10-17T09:10:54.000Z</time>
      </trkpt>
      <trkpt lat="36.089934" lon="-5.642512">
        <ele>145</ele>
        <time>2018-10-17T09:11:01.000Z</time>
      </trkpt>
      <trkpt lat="36.089858" lon="-5.642403">
        <ele>146</ele>
        <time>2018-10-17T09:11:06.000Z</time>
      </trkpt>
      <trkpt lat="36.08983" lon="-5.642367">
        <ele>146</ele>
        <time>2018-10-17T09:11:08.000Z</time>
      </trkpt>
      <trkpt lat="36.089794" lon="-5.642318">
        <ele>146</ele>
        <time>2018-10-17T09:11:11.000Z</time>
      </trkpt>
      <trkpt lat="36.089742" lon="-5.642269">
        <ele>147</ele>
        <time>2018-10-17T09:11:14.000Z</time>
      </trkpt>
      <trkpt lat="36.089712" lon="-5.642236">
        <ele>147</ele>
        <time>2018-10-17T09:11:16.000Z</time>
      </trkpt>
      <trkpt lat="36.089681" lon="-5.642206">
        <ele>147</ele>
        <time>2018-10-17T09:11:18.000Z</time>
      </trkpt>
      <trkpt lat="36.089644" lon="-5.642169">
        <ele>148.608699523619</ele>
        <time>2018-10-17T09:11:20.000Z</time>
      </trkpt>
      <trkpt lat="36.0896" lon="-5.642134">
        <ele>149</ele>
        <time>2018-10-17T09:11:22.000Z</time>
      </trkpt>
      <trkpt lat="36.089562" lon="-5.642103">
        <ele>150</ele>
        <time>2018-10-17T09:11:24.000Z</time>
      </trkpt>
      <trkpt lat="36.089526" lon="-5.642061">
        <ele>149</ele>
        <time>2018-10-17T09:11:26.000Z</time>
      </trkpt>
      <trkpt lat="36.089486" lon="-5.642028">
        <ele>148.699997440033</ele>
        <time>2018-10-17T09:11:28.000Z</time>
      </trkpt>
      <trkpt lat="36.089446" lon="-5.64199">
        <ele>149</ele>
        <time>2018-10-17T09:11:30.000Z</time>
      </trkpt>
      <trkpt lat="36.089408" lon="-5.641956">
        <ele>150</ele>
        <time>2018-10-17T09:11:32.000Z</time>
      </trkpt>
      <trkpt lat="36.089372" lon="-5.641931">
        <ele>151</ele>
        <time>2018-10-17T09:11:34.000Z</time>
      </trkpt>
      <trkpt lat="36.089338" lon="-5.641905">
        <ele>152</ele>
        <time>2018-10-17T09:11:36.000Z</time>
      </trkpt>
      <trkpt lat="36.0893" lon="-5.641884">
        <ele>152</ele>
        <time>2018-10-17T09:11:38.000Z</time>
      </trkpt>
      <trkpt lat="36.089254" lon="-5.641865">
        <ele>152</ele>
        <time>2018-10-17T09:11:40.000Z</time>
      </trkpt>
      <trkpt lat="36.089208" lon="-5.641853">
        <ele>152</ele>
        <time>2018-10-17T09:11:42.000Z</time>
      </trkpt>
      <trkpt lat="36.089154" lon="-5.641843">
        <ele>153</ele>
        <time>2018-10-17T09:11:44.000Z</time>
      </trkpt>
      <trkpt lat="36.08911" lon="-5.641825">
        <ele>152.309281887519</ele>
        <time>2018-10-17T09:11:46.000Z</time>
      </trkpt>
      <trkpt lat="36.089048" lon="-5.641804">
        <ele>152</ele>
        <time>2018-10-17T09:11:48.000Z</time>
      </trkpt>
      <trkpt lat="36.08899" lon="-5.64179">
        <ele>152</ele>
        <time>2018-10-17T09:11:50.000Z</time>
      </trkpt>
      <trkpt lat="36.08893" lon="-5.641778">
        <ele>151</ele>
        <time>2018-10-17T09:11:52.000Z</time>
      </trkpt>
      <trkpt lat="36.08887" lon="-5.641761">
        <ele>150.340916363636</ele>
        <time>2018-10-17T09:11:54.000Z</time>
      </trkpt>
      <trkpt lat="36.088814" lon="-5.641732">
        <ele>149</ele>
        <time>2018-10-17T09:11:56.000Z</time>
      </trkpt>
      <trkpt lat="36.08876" lon="-5.641695">
        <ele>149</ele>
        <time>2018-10-17T09:11:58.000Z</time>
      </trkpt>
      <trkpt lat="36.088702" lon="-5.641652">
        <ele>149</ele>
        <time>2018-10-17T09:12:00.000Z</time>
      </trkpt>
      <trkpt lat="36.088642" lon="-5.641616">
        <ele>149</ele>
        <time>2018-10-17T09:12:02.000Z</time>
      </trkpt>
      <trkpt lat="36.088589" lon="-5.641581">
        <ele>149</ele>
        <time>2018-10-17T09:12:04.000Z</time>
      </trkpt>
      <trkpt lat="36.088539" lon="-5.641552">
        <ele>149</ele>
        <time>2018-10-17T09:12:06.000Z</time>
      </trkpt>
      <trkpt lat="36.088492" lon="-5.64153">
        <ele>149</ele>
        <time>2018-10-17T09:12:08.000Z</time>
      </trkpt>
      <trkpt lat="36.088438" lon="-5.641512">
        <ele>149</ele>
        <time>2018-10-17T09:12:10.000Z</time>
      </trkpt>
      <trkpt lat="36.088389" lon="-5.641502">
        <ele>148</ele>
        <time>2018-10-17T09:12:12.000Z</time>
      </trkpt>
      <trkpt lat="36.088342" lon="-5.641506">
        <ele>147.300002559967</ele>
        <time>2018-10-17T09:12:14.000Z</time>
      </trkpt>
      <trkpt lat="36.088294" lon="-5.641524">
        <ele>149.673910623852</ele>
        <time>2018-10-17T09:12:16.000Z</time>
      </trkpt>
      <trkpt lat="36.088246" lon="-5.641551">
        <ele>150</ele>
        <time>2018-10-17T09:12:18.000Z</time>
      </trkpt>
      <trkpt lat="36.088205" lon="-5.641577">
        <ele>149.608699523619</ele>
        <time>2018-10-17T09:12:20.000Z</time>
      </trkpt>
      <trkpt lat="36.088161" lon="-5.641596">
        <ele>151.157026192189</ele>
        <time>2018-10-17T09:12:22.000Z</time>
      </trkpt>
      <trkpt lat="36.088118" lon="-5.641611">
        <ele>152</ele>
        <time>2018-10-17T09:12:24.000Z</time>
      </trkpt>
      <trkpt lat="36.088071" lon="-5.641618">
        <ele>152</ele>
        <time>2018-10-17T09:12:26.000Z</time>
      </trkpt>
      <trkpt lat="36.088025" lon="-5.641604">
        <ele>152</ele>
        <time>2018-10-17T09:12:28.000Z</time>
      </trkpt>
      <trkpt lat="36.087984" lon="-5.641576">
        <ele>151.441177577834</ele>
        <time>2018-10-17T09:12:30.000Z</time>
      </trkpt>
      <trkpt lat="36.087938" lon="-5.641547">
        <ele>151</ele>
        <time>2018-10-17T09:12:32.000Z</time>
      </trkpt>
      <trkpt lat="36.087893" lon="-5.641522">
        <ele>150</ele>
        <time>2018-10-17T09:12:34.000Z</time>
      </trkpt>
      <trkpt lat="36.08784" lon="-5.641499">
        <ele>151</ele>
        <time>2018-10-17T09:12:36.000Z</time>
      </trkpt>
      <trkpt lat="36.087788" lon="-5.641476">
        <ele>151</ele>
        <time>2018-10-17T09:12:38.000Z</time>
      </trkpt>
      <trkpt lat="36.087739" lon="-5.64146">
        <ele>151</ele>
        <time>2018-10-17T09:12:40.000Z</time>
      </trkpt>
      <trkpt lat="36.087682" lon="-5.641447">
        <ele>150</ele>
        <time>2018-10-17T09:12:42.000Z</time>
      </trkpt>
      <trkpt lat="36.087621" lon="-5.641436">
        <ele>150</ele>
        <time>2018-10-17T09:12:44.000Z</time>
      </trkpt>
      <trkpt lat="36.08756" lon="-5.641435">
        <ele>150</ele>
        <time>2018-10-17T09:12:46.000Z</time>
      </trkpt>
      <trkpt lat="36.087501" lon="-5.641448">
        <ele>150</ele>
        <time>2018-10-17T09:12:48.000Z</time>
      </trkpt>
      <trkpt lat="36.087441" lon="-5.641461">
        <ele>150</ele>
        <time>2018-10-17T09:12:50.000Z</time>
      </trkpt>
      <trkpt lat="36.087392" lon="-5.641469">
        <ele>150</ele>
        <time>2018-10-17T09:12:52.000Z</time>
      </trkpt>
      <trkpt lat="36.087335" lon="-5.641482">
        <ele>150</ele>
        <time>2018-10-17T09:12:54.000Z</time>
      </trkpt>
      <trkpt lat="36.087281" lon="-5.641492">
        <ele>150.66037940903</ele>
        <time>2018-10-17T09:12:56.000Z</time>
      </trkpt>
      <trkpt lat="36.087233" lon="-5.641506">
        <ele>151</ele>
        <time>2018-10-17T09:12:58.000Z</time>
      </trkpt>
      <trkpt lat="36.087182" lon="-5.641519">
        <ele>152</ele>
        <time>2018-10-17T09:13:00.000Z</time>
      </trkpt>
      <trkpt lat="36.087131" lon="-5.64153">
        <ele>152.699997440033</ele>
        <time>2018-10-17T09:13:02.000Z</time>
      </trkpt>
      <trkpt lat="36.087084" lon="-5.641548">
        <ele>153</ele>
        <time>2018-10-17T09:13:04.000Z</time>
      </trkpt>
      <trkpt lat="36.087038" lon="-5.64157">
        <ele>153</ele>
        <time>2018-10-17T09:13:06.000Z</time>
      </trkpt>
      <trkpt lat="36.086991" lon="-5.641576">
        <ele>153</ele>
        <time>2018-10-17T09:13:08.000Z</time>
      </trkpt>
      <trkpt lat="36.086941" lon="-5.641581">
        <ele>152</ele>
        <time>2018-10-17T09:13:10.000Z</time>
      </trkpt>
      <trkpt lat="36.086886" lon="-5.641578">
        <ele>152</ele>
        <time>2018-10-17T09:13:12.000Z</time>
      </trkpt>
      <trkpt lat="36.08683" lon="-5.641573">
        <ele>153</ele>
        <time>2018-10-17T09:13:14.000Z</time>
      </trkpt>
      <trkpt lat="36.086777" lon="-5.641565">
        <ele>152</ele>
        <time>2018-10-17T09:13:16.000Z</time>
      </trkpt>
      <trkpt lat="36.086719" lon="-5.641558">
        <ele>152</ele>
        <time>2018-10-17T09:13:18.000Z</time>
      </trkpt>
      <trkpt lat="36.086664" lon="-5.641554">
        <ele>152</ele>
        <time>2018-10-17T09:13:20.000Z</time>
      </trkpt>
      <trkpt lat="36.086611" lon="-5.64155">
        <ele>152</ele>
        <time>2018-10-17T09:13:22.000Z</time>
      </trkpt>
      <trkpt lat="36.086557" lon="-5.641552">
        <ele>151</ele>
        <time>2018-10-17T09:13:24.000Z</time>
      </trkpt>
      <trkpt lat="36.086501" lon="-5.641558">
        <ele>151</ele>
        <time>2018-10-17T09:13:26.000Z</time>
      </trkpt>
      <trkpt lat="36.086445" lon="-5.641572">
        <ele>151</ele>
        <time>2018-10-17T09:13:28.000Z</time>
      </trkpt>
      <trkpt lat="36.086387" lon="-5.641591">
        <ele>152</ele>
        <time>2018-10-17T09:13:30.000Z</time>
      </trkpt>
      <trkpt lat="36.086325" lon="-5.641612">
        <ele>152</ele>
        <time>2018-10-17T09:13:32.000Z</time>
      </trkpt>
      <trkpt lat="36.086275" lon="-5.641648">
        <ele>152</ele>
        <time>2018-10-17T09:13:34.000Z</time>
      </trkpt>
      <trkpt lat="36.08623" lon="-5.641683">
        <ele>151</ele>
        <time>2018-10-17T09:13:36.000Z</time>
      </trkpt>
      <trkpt lat="36.08618" lon="-5.641711">
        <ele>151</ele>
        <time>2018-10-17T09:13:38.000Z</time>
      </trkpt>
      <trkpt lat="36.086129" lon="-5.641738">
        <ele>150.67961575265</ele>
        <time>2018-10-17T09:13:40.000Z</time>
      </trkpt>
      <trkpt lat="36.086075" lon="-5.641766">
        <ele>150.492751337965</ele>
        <time>2018-10-17T09:13:42.000Z</time>
      </trkpt>
      <trkpt lat="36.086022" lon="-5.641796">
        <ele>150</ele>
        <time>2018-10-17T09:13:44.000Z</time>
      </trkpt>
      <trkpt lat="36.085964" lon="-5.641815">
        <ele>147.441177577834</ele>
        <time>2018-10-17T09:13:46.000Z</time>
      </trkpt>
      <trkpt lat="36.085932" lon="-5.641825">
        <ele>147</ele>
        <time>2018-10-17T09:13:47.000Z</time>
      </trkpt>
      <trkpt lat="36.085873" lon="-5.641849">
        <ele>146</ele>
        <time>2018-10-17T09:13:49.000Z</time>
      </trkpt>
      <trkpt lat="36.085814" lon="-5.641878">
        <ele>147</ele>
        <time>2018-10-17T09:13:51.000Z</time>
      </trkpt>
      <trkpt lat="36.085761" lon="-5.641897">
        <ele>147</ele>
        <time>2018-10-17T09:13:53.000Z</time>
      </trkpt>
      <trkpt lat="36.085708" lon="-5.641915">
        <ele>147.680855699443</ele>
        <time>2018-10-17T09:13:55.000Z</time>
      </trkpt>
      <trkpt lat="36.085664" lon="-5.641935">
        <ele>148</ele>
        <time>2018-10-17T09:13:57.000Z</time>
      </trkpt>
      <trkpt lat="36.085613" lon="-5.641962">
        <ele>148</ele>
        <time>2018-10-17T09:13:59.000Z</time>
      </trkpt>
      <trkpt lat="36.085565" lon="-5.641996">
        <ele>148</ele>
        <time>2018-10-17T09:14:01.000Z</time>
      </trkpt>
      <trkpt lat="36.085517" lon="-5.642039">
        <ele>148</ele>
        <time>2018-10-17T09:14:03.000Z</time>
      </trkpt>
      <trkpt lat="36.085469" lon="-5.642075">
        <ele>148.558824636699</ele>
        <time>2018-10-17T09:14:05.000Z</time>
      </trkpt>
      <trkpt lat="36.085423" lon="-5.64211">
        <ele>149</ele>
        <time>2018-10-17T09:14:07.000Z</time>
      </trkpt>
      <trkpt lat="36.085377" lon="-5.642149">
        <ele>148.700002560033</ele>
        <time>2018-10-17T09:14:09.000Z</time>
      </trkpt>
      <trkpt lat="36.085334" lon="-5.642191">
        <ele>148.299997439967</ele>
        <time>2018-10-17T09:14:11.000Z</time>
      </trkpt>
      <trkpt lat="36.08529" lon="-5.642225">
        <ele>147.696973223175</ele>
        <time>2018-10-17T09:14:13.000Z</time>
      </trkpt>
      <trkpt lat="36.085248" lon="-5.642263">
        <ele>147.340901818182</ele>
        <time>2018-10-17T09:14:15.000Z</time>
      </trkpt>
      <trkpt lat="36.085205" lon="-5.642304">
        <ele>146.542632043738</ele>
        <time>2018-10-17T09:14:17.000Z</time>
      </trkpt>
      <trkpt lat="36.085163" lon="-5.642349">
        <ele>147</ele>
        <time>2018-10-17T09:14:19.000Z</time>
      </trkpt>
      <trkpt lat="36.085121" lon="-5.642391">
        <ele>147</ele>
        <time>2018-10-17T09:14:21.000Z</time>
      </trkpt>
      <trkpt lat="36.085084" lon="-5.642444">
        <ele>146.5</ele>
        <time>2018-10-17T09:14:23.000Z</time>
      </trkpt>
      <trkpt lat="36.085052" lon="-5.642502">
        <ele>145</ele>
        <time>2018-10-17T09:14:25.000Z</time>
      </trkpt>
      <trkpt lat="36.085017" lon="-5.642551">
        <ele>145</ele>
        <time>2018-10-17T09:14:27.000Z</time>
      </trkpt>
      <trkpt lat="36.084976" lon="-5.642596">
        <ele>144.299997439967</ele>
        <time>2018-10-17T09:14:29.000Z</time>
      </trkpt>
      <trkpt lat="36.084924" lon="-5.64262">
        <ele>144</ele>
        <time>2018-10-17T09:14:31.000Z</time>
      </trkpt>
      <trkpt lat="36.084876" lon="-5.642626">
        <ele>144</ele>
        <time>2018-10-17T09:14:33.000Z</time>
      </trkpt>
      <trkpt lat="36.084819" lon="-5.642631">
        <ele>143.700002560033</ele>
        <time>2018-10-17T09:14:35.000Z</time>
      </trkpt>
      <trkpt lat="36.084755" lon="-5.642631">
        <ele>143.447758057429</ele>
        <time>2018-10-17T09:14:37.000Z</time>
      </trkpt>
      <trkpt lat="36.084687" lon="-5.642646">
        <ele>142.483865639903</ele>
        <time>2018-10-17T09:14:39.000Z</time>
      </trkpt>
      <trkpt lat="36.084623" lon="-5.64266">
        <ele>141</ele>
        <time>2018-10-17T09:14:41.000Z</time>
      </trkpt>
      <trkpt lat="36.084563" lon="-5.642684">
        <ele>140</ele>
        <time>2018-10-17T09:14:43.000Z</time>
      </trkpt>
      <trkpt lat="36.084505" lon="-5.642712">
        <ele>140</ele>
        <time>2018-10-17T09:14:45.000Z</time>
      </trkpt>
      <trkpt lat="36.084453" lon="-5.642758">
        <ele>138</ele>
        <time>2018-10-17T09:14:47.000Z</time>
      </trkpt>
      <trkpt lat="36.084423" lon="-5.642819">
        <ele>139</ele>
        <time>2018-10-17T09:14:49.000Z</time>
      </trkpt>
      <trkpt lat="36.084414" lon="-5.642888">
        <ele>139</ele>
        <time>2018-10-17T09:14:51.000Z</time>
      </trkpt>
      <trkpt lat="36.084418" lon="-5.642946">
        <ele>139</ele>
        <time>2018-10-17T09:14:53.000Z</time>
      </trkpt>
      <trkpt lat="36.084452" lon="-5.642951">
        <ele>139</ele>
        <time>2018-10-17T09:15:41.000Z</time>
      </trkpt>
      <trkpt lat="36.084456" lon="-5.642982">
        <ele>139</ele>
        <time>2018-10-17T09:15:43.000Z</time>
      </trkpt>
      <trkpt lat="36.084452" lon="-5.643038">
        <ele>139</ele>
        <time>2018-10-17T09:15:46.000Z</time>
      </trkpt>
      <trkpt lat="36.084454" lon="-5.64309">
        <ele>139</ele>
        <time>2018-10-17T09:15:48.000Z</time>
      </trkpt>
      <trkpt lat="36.084464" lon="-5.643144">
        <ele>139</ele>
        <time>2018-10-17T09:15:50.000Z</time>
      </trkpt>
      <trkpt lat="36.084486" lon="-5.6432">
        <ele>139</ele>
        <time>2018-10-17T09:15:52.000Z</time>
      </trkpt>
      <trkpt lat="36.08452" lon="-5.643247">
        <ele>139</ele>
        <time>2018-10-17T09:15:54.000Z</time>
      </trkpt>
      <trkpt lat="36.084546" lon="-5.64329">
        <ele>140</ele>
        <time>2018-10-17T09:15:56.000Z</time>
      </trkpt>
      <trkpt lat="36.084568" lon="-5.643329">
        <ele>140</ele>
        <time>2018-10-17T09:15:58.000Z</time>
      </trkpt>
      <trkpt lat="36.084586" lon="-5.643369">
        <ele>141</ele>
        <time>2018-10-17T09:16:00.000Z</time>
      </trkpt>
      <trkpt lat="36.084583" lon="-5.643425">
        <ele>141</ele>
        <time>2018-10-17T09:16:03.000Z</time>
      </trkpt>
      <trkpt lat="36.084593" lon="-5.64347">
        <ele>142</ele>
        <time>2018-10-17T09:16:06.000Z</time>
      </trkpt>
      <trkpt lat="36.084603" lon="-5.643522">
        <ele>143</ele>
        <time>2018-10-17T09:16:15.000Z</time>
      </trkpt>
      <trkpt lat="36.084616" lon="-5.64357">
        <ele>142</ele>
        <time>2018-10-17T09:16:19.000Z</time>
      </trkpt>
      <trkpt lat="36.084624" lon="-5.643619">
        <ele>142</ele>
        <time>2018-10-17T09:16:23.000Z</time>
      </trkpt>
      <trkpt lat="36.084629" lon="-5.643663">
        <ele>142</ele>
        <time>2018-10-17T09:16:26.000Z</time>
      </trkpt>
      <trkpt lat="36.084638" lon="-5.643707">
        <ele>142</ele>
        <time>2018-10-17T09:16:31.000Z</time>
      </trkpt>
      <trkpt lat="36.084625" lon="-5.643748">
        <ele>143</ele>
        <time>2018-10-17T09:16:38.000Z</time>
      </trkpt>
      <trkpt lat="36.08461" lon="-5.643794">
        <ele>143</ele>
        <time>2018-10-17T09:16:41.000Z</time>
      </trkpt>
      <trkpt lat="36.084595" lon="-5.643845">
        <ele>143</ele>
        <time>2018-10-17T09:16:44.000Z</time>
      </trkpt>
      <trkpt lat="36.084582" lon="-5.643894">
        <ele>143</ele>
        <time>2018-10-17T09:16:47.000Z</time>
      </trkpt>
      <trkpt lat="36.084558" lon="-5.643939">
        <ele>143</ele>
        <time>2018-10-17T09:16:50.000Z</time>
      </trkpt>
      <trkpt lat="36.084545" lon="-5.643987">
        <ele>143</ele>
        <time>2018-10-17T09:16:53.000Z</time>
      </trkpt>
      <trkpt lat="36.084534" lon="-5.64403">
        <ele>143</ele>
        <time>2018-10-17T09:17:00.000Z</time>
      </trkpt>
      <trkpt lat="36.084516" lon="-5.644074">
        <ele>144</ele>
        <time>2018-10-17T09:17:04.000Z</time>
      </trkpt>
      <trkpt lat="36.084508" lon="-5.644114">
        <ele>145</ele>
        <time>2018-10-17T09:17:09.000Z</time>
      </trkpt>
      <trkpt lat="36.084492" lon="-5.644162">
        <ele>145.655166325825</ele>
        <time>2018-10-17T09:17:12.000Z</time>
      </trkpt>
      <trkpt lat="36.084466" lon="-5.644202">
        <ele>146</ele>
        <time>2018-10-17T09:17:16.000Z</time>
      </trkpt>
      <trkpt lat="36.084432" lon="-5.644242">
        <ele>146</ele>
        <time>2018-10-17T09:17:19.000Z</time>
      </trkpt>
      <trkpt lat="36.084402" lon="-5.644283">
        <ele>146</ele>
        <time>2018-10-17T09:17:22.000Z</time>
      </trkpt>
      <trkpt lat="36.084387" lon="-5.644328">
        <ele>145</ele>
        <time>2018-10-17T09:17:25.000Z</time>
      </trkpt>
      <trkpt lat="36.084352" lon="-5.644353">
        <ele>146</ele>
        <time>2018-10-17T09:17:29.000Z</time>
      </trkpt>
      <trkpt lat="36.084316" lon="-5.644367">
        <ele>146</ele>
        <time>2018-10-17T09:17:32.000Z</time>
      </trkpt>
      <trkpt lat="36.08428" lon="-5.644382">
        <ele>146.583324444444</ele>
        <time>2018-10-17T09:17:36.000Z</time>
      </trkpt>
      <trkpt lat="36.084245" lon="-5.644405">
        <ele>147</ele>
        <time>2018-10-17T09:17:39.000Z</time>
      </trkpt>
      <trkpt lat="36.08421" lon="-5.644421">
        <ele>147</ele>
        <time>2018-10-17T09:17:42.000Z</time>
      </trkpt>
      <trkpt lat="36.084168" lon="-5.644425">
        <ele>147</ele>
        <time>2018-10-17T09:17:45.000Z</time>
      </trkpt>
      <trkpt lat="36.084127" lon="-5.644431">
        <ele>147</ele>
        <time>2018-10-17T09:17:48.000Z</time>
      </trkpt>
      <trkpt lat="36.084091" lon="-5.644432">
        <ele>147</ele>
        <time>2018-10-17T09:17:51.000Z</time>
      </trkpt>
      <trkpt lat="36.08405" lon="-5.644428">
        <ele>146</ele>
        <time>2018-10-17T09:17:54.000Z</time>
      </trkpt>
      <trkpt lat="36.083996" lon="-5.644411">
        <ele>146</ele>
        <time>2018-10-17T09:17:59.000Z</time>
      </trkpt>
      <trkpt lat="36.083951" lon="-5.644426">
        <ele>146</ele>
        <time>2018-10-17T09:18:02.000Z</time>
      </trkpt>
      <trkpt lat="36.083918" lon="-5.644442">
        <ele>145</ele>
        <time>2018-10-17T09:18:05.000Z</time>
      </trkpt>
      <trkpt lat="36.08389" lon="-5.644473">
        <ele>146</ele>
        <time>2018-10-17T09:18:08.000Z</time>
      </trkpt>
      <trkpt lat="36.083873" lon="-5.644522">
        <ele>146</ele>
        <time>2018-10-17T09:18:11.000Z</time>
      </trkpt>
      <trkpt lat="36.08386" lon="-5.644578">
        <ele>146</ele>
        <time>2018-10-17T09:18:14.000Z</time>
      </trkpt>
      <trkpt lat="36.083853" lon="-5.64463">
        <ele>146</ele>
        <time>2018-10-17T09:18:17.000Z</time>
      </trkpt>
      <trkpt lat="36.083857" lon="-5.644675">
        <ele>146.603447134376</ele>
        <time>2018-10-17T09:18:20.000Z</time>
      </trkpt>
      <trkpt lat="36.083852" lon="-5.644721">
        <ele>148</ele>
        <time>2018-10-17T09:18:23.000Z</time>
      </trkpt>
      <trkpt lat="36.083857" lon="-5.64478">
        <ele>148</ele>
        <time>2018-10-17T09:18:26.000Z</time>
      </trkpt>
      <trkpt lat="36.083863" lon="-5.644831">
        <ele>148</ele>
        <time>2018-10-17T09:18:29.000Z</time>
      </trkpt>
      <trkpt lat="36.083875" lon="-5.644874">
        <ele>148</ele>
        <time>2018-10-17T09:18:32.000Z</time>
      </trkpt>
      <trkpt lat="36.08387" lon="-5.644923">
        <ele>148</ele>
        <time>2018-10-17T09:18:36.000Z</time>
      </trkpt>
      <trkpt lat="36.083878" lon="-5.64498">
        <ele>148.700002560033</ele>
        <time>2018-10-17T09:18:39.000Z</time>
      </trkpt>
      <trkpt lat="36.083897" lon="-5.645018">
        <ele>149</ele>
        <time>2018-10-17T09:18:42.000Z</time>
      </trkpt>
      <trkpt lat="36.083906" lon="-5.645073">
        <ele>150.693069055977</ele>
        <time>2018-10-17T09:18:46.000Z</time>
      </trkpt>
      <trkpt lat="36.083876" lon="-5.645103">
        <ele>150</ele>
        <time>2018-10-17T09:18:54.000Z</time>
      </trkpt>
      <trkpt lat="36.083839" lon="-5.645098">
        <ele>150.655166325825</ele>
        <time>2018-10-17T09:18:58.000Z</time>
      </trkpt>
      <trkpt lat="36.083801" lon="-5.645101">
        <ele>152</ele>
        <time>2018-10-17T09:19:02.000Z</time>
      </trkpt>
      <trkpt lat="36.083771" lon="-5.64507">
        <ele>154.63953384533</ele>
        <time>2018-10-17T09:19:15.000Z</time>
      </trkpt>
      <trkpt lat="36.083732" lon="-5.645062">
        <ele>155</ele>
        <time>2018-10-17T09:19:20.000Z</time>
      </trkpt>
      <trkpt lat="36.083696" lon="-5.645062">
        <ele>156</ele>
        <time>2018-10-17T09:19:24.000Z</time>
      </trkpt>
      <trkpt lat="36.083654" lon="-5.645069">
        <ele>156.608699523619</ele>
        <time>2018-10-17T09:19:28.000Z</time>
      </trkpt>
      <trkpt lat="36.083621" lon="-5.645082">
        <ele>157</ele>
        <time>2018-10-17T09:19:31.000Z</time>
      </trkpt>
      <trkpt lat="36.083591" lon="-5.645112">
        <ele>158</ele>
        <time>2018-10-17T09:19:35.000Z</time>
      </trkpt>
      <trkpt lat="36.083552" lon="-5.645117">
        <ele>159</ele>
        <time>2018-10-17T09:19:39.000Z</time>
      </trkpt>
      <trkpt lat="36.083509" lon="-5.64514">
        <ele>159</ele>
        <time>2018-10-17T09:19:43.000Z</time>
      </trkpt>
      <trkpt lat="36.083471" lon="-5.645154">
        <ele>160</ele>
        <time>2018-10-17T09:19:47.000Z</time>
      </trkpt>
      <trkpt lat="36.083437" lon="-5.645174">
        <ele>160</ele>
        <time>2018-10-17T09:19:50.000Z</time>
      </trkpt>
      <trkpt lat="36.083407" lon="-5.645209">
        <ele>160.608695168238</ele>
        <time>2018-10-17T09:19:53.000Z</time>
      </trkpt>
      <trkpt lat="36.083379" lon="-5.645243">
        <ele>161</ele>
        <time>2018-10-17T09:19:56.000Z</time>
      </trkpt>
      <trkpt lat="36.083345" lon="-5.645268">
        <ele>158.313727458682</ele>
        <time>2018-10-17T09:19:59.000Z</time>
      </trkpt>
      <trkpt lat="36.083316" lon="-5.645292">
        <ele>158</ele>
        <time>2018-10-17T09:20:02.000Z</time>
      </trkpt>
      <trkpt lat="36.083286" lon="-5.645318">
        <ele>159</ele>
        <time>2018-10-17T09:20:05.000Z</time>
      </trkpt>
      <trkpt lat="36.083239" lon="-5.645342">
        <ele>160</ele>
        <time>2018-10-17T09:20:09.000Z</time>
      </trkpt>
      <trkpt lat="36.0832" lon="-5.645363">
        <ele>161</ele>
        <time>2018-10-17T09:20:13.000Z</time>
      </trkpt>
      <trkpt lat="36.083156" lon="-5.645372">
        <ele>161</ele>
        <time>2018-10-17T09:20:17.000Z</time>
      </trkpt>
      <trkpt lat="36.083149" lon="-5.645414">
        <ele>162</ele>
        <time>2018-10-17T09:20:21.000Z</time>
      </trkpt>
      <trkpt lat="36.083145" lon="-5.645463">
        <ele>164</ele>
        <time>2018-10-17T09:20:26.000Z</time>
      </trkpt>
      <trkpt lat="36.083147" lon="-5.6455">
        <ele>164.030071136218</ele>
        <time>2018-10-17T09:20:29.000Z</time>
      </trkpt>
      <trkpt lat="36.083162" lon="-5.645532">
        <ele>167.287351586753</ele>
        <time>2018-10-17T09:20:50.000Z</time>
      </trkpt>
      <trkpt lat="36.083173" lon="-5.645541">
        <ele>168</ele>
        <time>2018-10-17T09:20:52.000Z</time>
      </trkpt>
      <trkpt lat="36.083202" lon="-5.645577">
        <ele>168.648146392339</ele>
        <time>2018-10-17T09:20:56.000Z</time>
      </trkpt>
      <trkpt lat="36.083217" lon="-5.645619">
        <ele>169</ele>
        <time>2018-10-17T09:21:02.000Z</time>
      </trkpt>
      <trkpt lat="36.083231" lon="-5.64567">
        <ele>170</ele>
        <time>2018-10-17T09:21:07.000Z</time>
      </trkpt>
      <trkpt lat="36.083253" lon="-5.645706">
        <ele>171</ele>
        <time>2018-10-17T09:21:12.000Z</time>
      </trkpt>
      <trkpt lat="36.083258" lon="-5.645742">
        <ele>173</ele>
        <time>2018-10-17T09:21:20.000Z</time>
      </trkpt>
      <trkpt lat="36.083265" lon="-5.645778">
        <ele>176</ele>
        <time>2018-10-17T09:21:26.000Z</time>
      </trkpt>
      <trkpt lat="36.083256" lon="-5.645815">
        <ele>178</ele>
        <time>2018-10-17T09:21:34.000Z</time>
      </trkpt>
      <trkpt lat="36.083296" lon="-5.645815">
        <ele>179</ele>
        <time>2018-10-17T09:21:40.000Z</time>
      </trkpt>
      <trkpt lat="36.08332" lon="-5.645852">
        <ele>181</ele>
        <time>2018-10-17T09:21:47.000Z</time>
      </trkpt>
      <trkpt lat="36.083343" lon="-5.645888">
        <ele>181</ele>
        <time>2018-10-17T09:21:53.000Z</time>
      </trkpt>
      <trkpt lat="36.083359" lon="-5.645929">
        <ele>183.686272541318</ele>
        <time>2018-10-17T09:21:57.000Z</time>
      </trkpt>
      <trkpt lat="36.083365" lon="-5.645971">
        <ele>185</ele>
        <time>2018-10-17T09:22:01.000Z</time>
      </trkpt>
      <trkpt lat="36.08337" lon="-5.646022">
        <ele>186</ele>
        <time>2018-10-17T09:22:06.000Z</time>
      </trkpt>
      <trkpt lat="36.083384" lon="-5.646068">
        <ele>186</ele>
        <time>2018-10-17T09:22:11.000Z</time>
      </trkpt>
      <trkpt lat="36.083382" lon="-5.646113">
        <ele>187</ele>
        <time>2018-10-17T09:22:16.000Z</time>
      </trkpt>
      <trkpt lat="36.083386" lon="-5.64616">
        <ele>188.619465117069</ele>
        <time>2018-10-17T09:22:21.000Z</time>
      </trkpt>
      <trkpt lat="36.083418" lon="-5.64618">
        <ele>190</ele>
        <time>2018-10-17T09:22:26.000Z</time>
      </trkpt>
      <trkpt lat="36.083422" lon="-5.646227">
        <ele>191</ele>
        <time>2018-10-17T09:22:32.000Z</time>
      </trkpt>
      <trkpt lat="36.083454" lon="-5.646244">
        <ele>192</ele>
        <time>2018-10-17T09:22:36.000Z</time>
      </trkpt>
      <trkpt lat="36.083434" lon="-5.646289">
        <ele>194</ele>
        <time>2018-10-17T09:22:43.000Z</time>
      </trkpt>
      <trkpt lat="36.08346" lon="-5.646325">
        <ele>195</ele>
        <time>2018-10-17T09:22:50.000Z</time>
      </trkpt>
      <trkpt lat="36.083493" lon="-5.64633">
        <ele>195</ele>
        <time>2018-10-17T09:22:54.000Z</time>
      </trkpt>
      <trkpt lat="36.083479" lon="-5.646368">
        <ele>199</ele>
        <time>2018-10-17T09:23:03.000Z</time>
      </trkpt>
      <trkpt lat="36.083507" lon="-5.646408">
        <ele>200</ele>
        <time>2018-10-17T09:23:12.000Z</time>
      </trkpt>
      <trkpt lat="36.083506" lon="-5.646455">
        <ele>200.68084642828</ele>
        <time>2018-10-17T09:23:18.000Z</time>
      </trkpt>
      <trkpt lat="36.083517" lon="-5.646489">
        <ele>203</ele>
        <time>2018-10-17T09:23:24.000Z</time>
      </trkpt>
      <trkpt lat="36.083545" lon="-5.646524">
        <ele>204.651167636596</ele>
        <time>2018-10-17T09:23:29.000Z</time>
      </trkpt>
      <trkpt lat="36.083579" lon="-5.646532">
        <ele>206</ele>
        <time>2018-10-17T09:23:33.000Z</time>
      </trkpt>
      <trkpt lat="36.083596" lon="-5.646573">
        <ele>207</ele>
        <time>2018-10-17T09:23:41.000Z</time>
      </trkpt>
      <trkpt lat="36.083623" lon="-5.646606">
        <ele>210</ele>
        <time>2018-10-17T09:23:48.000Z</time>
      </trkpt>
      <trkpt lat="36.08363" lon="-5.646657">
        <ele>211</ele>
        <time>2018-10-17T09:23:55.000Z</time>
      </trkpt>
      <trkpt lat="36.083655" lon="-5.646694">
        <ele>214</ele>
        <time>2018-10-17T09:24:01.000Z</time>
      </trkpt>
      <trkpt lat="36.083666" lon="-5.646736">
        <ele>215</ele>
        <time>2018-10-17T09:24:08.000Z</time>
      </trkpt>
      <trkpt lat="36.083661" lon="-5.64678">
        <ele>217</ele>
        <time>2018-10-17T09:24:20.000Z</time>
      </trkpt>
      <trkpt lat="36.083686" lon="-5.646819">
        <ele>218</ele>
        <time>2018-10-17T09:24:25.000Z</time>
      </trkpt>
      <trkpt lat="36.083713" lon="-5.646856">
        <ele>219</ele>
        <time>2018-10-17T09:24:31.000Z</time>
      </trkpt>
      <trkpt lat="36.083733" lon="-5.646892">
        <ele>220</ele>
        <time>2018-10-17T09:24:36.000Z</time>
      </trkpt>
      <trkpt lat="36.083739" lon="-5.646937">
        <ele>222.700002560033</ele>
        <time>2018-10-17T09:24:47.000Z</time>
      </trkpt>
      <trkpt lat="36.083762" lon="-5.646965">
        <ele>224</ele>
        <time>2018-10-17T09:24:51.000Z</time>
      </trkpt>
      <trkpt lat="36.083778" lon="-5.646995">
        <ele>227</ele>
        <time>2018-10-17T09:24:56.000Z</time>
      </trkpt>
      <trkpt lat="36.083805" lon="-5.64703">
        <ele>230.288467692308</ele>
        <time>2018-10-17T09:25:01.000Z</time>
      </trkpt>
      <trkpt lat="36.083812" lon="-5.647052">
        <ele>233.670333225493</ele>
        <time>2018-10-17T09:25:05.000Z</time>
      </trkpt>
      <trkpt lat="36.083835" lon="-5.647084">
        <ele>235.433960441471</ele>
        <time>2018-10-17T09:25:10.000Z</time>
      </trkpt>
      <trkpt lat="36.08381" lon="-5.6471">
        <ele>236</ele>
        <time>2018-10-17T09:25:17.000Z</time>
      </trkpt>
      <trkpt lat="36.083831" lon="-5.647135">
        <ele>238</ele>
        <time>2018-10-17T09:25:23.000Z</time>
      </trkpt>
      <trkpt lat="36.083833" lon="-5.647182">
        <ele>239</ele>
        <time>2018-10-17T09:25:29.000Z</time>
      </trkpt>
      <trkpt lat="36.083859" lon="-5.647218">
        <ele>241</ele>
        <time>2018-10-17T09:25:36.000Z</time>
      </trkpt>
      <trkpt lat="36.083849" lon="-5.647258">
        <ele>242.700002560033</ele>
        <time>2018-10-17T09:25:45.000Z</time>
      </trkpt>
      <trkpt lat="36.083834" lon="-5.6473">
        <ele>244</ele>
        <time>2018-10-17T09:25:52.000Z</time>
      </trkpt>
      <trkpt lat="36.083832" lon="-5.647342">
        <ele>246</ele>
        <time>2018-10-17T09:25:59.000Z</time>
      </trkpt>
      <trkpt lat="36.083835" lon="-5.64739">
        <ele>247</ele>
        <time>2018-10-17T09:26:06.000Z</time>
      </trkpt>
      <trkpt lat="36.083851" lon="-5.64743">
        <ele>248</ele>
        <time>2018-10-17T09:26:11.000Z</time>
      </trkpt>
      <trkpt lat="36.08385" lon="-5.647485">
        <ele>249.619465117069</ele>
        <time>2018-10-17T09:26:17.000Z</time>
      </trkpt>
      <trkpt lat="36.083864" lon="-5.647524">
        <ele>251</ele>
        <time>2018-10-17T09:26:21.000Z</time>
      </trkpt>
      <trkpt lat="36.083877" lon="-5.647566">
        <ele>252.680855699443</ele>
        <time>2018-10-17T09:26:27.000Z</time>
      </trkpt>
      <trkpt lat="36.083876" lon="-5.647607">
        <ele>254.531745870497</ele>
        <time>2018-10-17T09:26:35.000Z</time>
      </trkpt>
      <trkpt lat="36.083886" lon="-5.647636">
        <ele>257</ele>
        <time>2018-10-17T09:26:44.000Z</time>
      </trkpt>
      <trkpt lat="36.083906" lon="-5.647674">
        <ele>259</ele>
        <time>2018-10-17T09:26:50.000Z</time>
      </trkpt>
      <trkpt lat="36.08392" lon="-5.647718">
        <ele>260</ele>
        <time>2018-10-17T09:26:55.000Z</time>
      </trkpt>
      <trkpt lat="36.083913" lon="-5.64775">
        <ele>264</ele>
        <time>2018-10-17T09:27:01.000Z</time>
      </trkpt>
      <trkpt lat="36.083923" lon="-5.647795">
        <ele>265</ele>
        <time>2018-10-17T09:27:11.000Z</time>
      </trkpt>
      <trkpt lat="36.083956" lon="-5.647817">
        <ele>265</ele>
        <time>2018-10-17T09:27:16.000Z</time>
      </trkpt>
      <trkpt lat="36.083929" lon="-5.647855">
        <ele>267</ele>
        <time>2018-10-17T09:27:23.000Z</time>
      </trkpt>
      <trkpt lat="36.083915" lon="-5.647898">
        <ele>269</ele>
        <time>2018-10-17T09:27:28.000Z</time>
      </trkpt>
      <trkpt lat="36.083927" lon="-5.647943">
        <ele>269</ele>
        <time>2018-10-17T09:27:36.000Z</time>
      </trkpt>
      <trkpt lat="36.083959" lon="-5.647953">
        <ele>271</ele>
        <time>2018-10-17T09:27:42.000Z</time>
      </trkpt>
      <trkpt lat="36.083953" lon="-5.647989">
        <ele>273</ele>
        <time>2018-10-17T09:27:50.000Z</time>
      </trkpt>
      <trkpt lat="36.083959" lon="-5.648029">
        <ele>276</ele>
        <time>2018-10-17T09:27:59.000Z</time>
      </trkpt>
      <trkpt lat="36.083991" lon="-5.648048">
        <ele>277</ele>
        <time>2018-10-17T09:28:04.000Z</time>
      </trkpt>
      <trkpt lat="36.084008" lon="-5.648091">
        <ele>278</ele>
        <time>2018-10-17T09:28:12.000Z</time>
      </trkpt>
      <trkpt lat="36.084018" lon="-5.648131">
        <ele>281</ele>
        <time>2018-10-17T09:28:19.000Z</time>
      </trkpt>
      <trkpt lat="36.084014" lon="-5.648177">
        <ele>283</ele>
        <time>2018-10-17T09:28:27.000Z</time>
      </trkpt>
      <trkpt lat="36.08398" lon="-5.648201">
        <ele>282.299997439967</ele>
        <time>2018-10-17T09:28:31.000Z</time>
      </trkpt>
      <trkpt lat="36.083964" lon="-5.648245">
        <ele>284</ele>
        <time>2018-10-17T09:28:40.000Z</time>
      </trkpt>
      <trkpt lat="36.084005" lon="-5.648268">
        <ele>283</ele>
        <time>2018-10-17T09:28:46.000Z</time>
      </trkpt>
      <trkpt lat="36.084034" lon="-5.648295">
        <ele>284</ele>
        <time>2018-10-17T09:28:51.000Z</time>
      </trkpt>
      <trkpt lat="36.084061" lon="-5.648328">
        <ele>284.636361520649</ele>
        <time>2018-10-17T09:28:57.000Z</time>
      </trkpt>
      <trkpt lat="36.084074" lon="-5.648355">
        <ele>288</ele>
        <time>2018-10-17T09:29:01.000Z</time>
      </trkpt>
      <trkpt lat="36.084109" lon="-5.648368">
        <ele>289</ele>
        <time>2018-10-17T09:29:08.000Z</time>
      </trkpt>
      <trkpt lat="36.084134" lon="-5.648398">
        <ele>291</ele>
        <time>2018-10-17T09:29:13.000Z</time>
      </trkpt>
      <trkpt lat="36.084115" lon="-5.648437">
        <ele>292</ele>
        <time>2018-10-17T09:29:20.000Z</time>
      </trkpt>
      <trkpt lat="36.084121" lon="-5.648486">
        <ele>294</ele>
        <time>2018-10-17T09:29:28.000Z</time>
      </trkpt>
      <trkpt lat="36.084124" lon="-5.648524">
        <ele>296</ele>
        <time>2018-10-17T09:29:33.000Z</time>
      </trkpt>
      <trkpt lat="36.084098" lon="-5.648558">
        <ele>297</ele>
        <time>2018-10-17T09:29:38.000Z</time>
      </trkpt>
      <trkpt lat="36.084124" lon="-5.648593">
        <ele>298</ele>
        <time>2018-10-17T09:29:45.000Z</time>
      </trkpt>
      <trkpt lat="36.084136" lon="-5.648636">
        <ele>301</ele>
        <time>2018-10-17T09:29:52.000Z</time>
      </trkpt>
      <trkpt lat="36.084139" lon="-5.64868">
        <ele>302</ele>
        <time>2018-10-17T09:29:58.000Z</time>
      </trkpt>
      <trkpt lat="36.084171" lon="-5.648705">
        <ele>303</ele>
        <time>2018-10-17T09:30:04.000Z</time>
      </trkpt>
      <trkpt lat="36.084182" lon="-5.648748">
        <ele>305</ele>
        <time>2018-10-17T09:30:12.000Z</time>
      </trkpt>
      <trkpt lat="36.084164" lon="-5.648795">
        <ele>305</ele>
        <time>2018-10-17T09:30:18.000Z</time>
      </trkpt>
      <trkpt lat="36.084188" lon="-5.648838">
        <ele>306</ele>
        <time>2018-10-17T09:30:25.000Z</time>
      </trkpt>
      <trkpt lat="36.084195" lon="-5.648882">
        <ele>307</ele>
        <time>2018-10-17T09:30:32.000Z</time>
      </trkpt>
      <trkpt lat="36.084178" lon="-5.648909">
        <ele>308</ele>
        <time>2018-10-17T09:30:37.000Z</time>
      </trkpt>
      <trkpt lat="36.08416" lon="-5.648952">
        <ele>309</ele>
        <time>2018-10-17T09:30:42.000Z</time>
      </trkpt>
      <trkpt lat="36.084158" lon="-5.648996">
        <ele>309</ele>
        <time>2018-10-17T09:30:48.000Z</time>
      </trkpt>
      <trkpt lat="36.084168" lon="-5.649042">
        <ele>311</ele>
        <time>2018-10-17T09:30:55.000Z</time>
      </trkpt>
      <trkpt lat="36.084163" lon="-5.649088">
        <ele>311</ele>
        <time>2018-10-17T09:31:03.000Z</time>
      </trkpt>
      <trkpt lat="36.084185" lon="-5.649121">
        <ele>313</ele>
        <time>2018-10-17T09:31:08.000Z</time>
      </trkpt>
      <trkpt lat="36.08417" lon="-5.64916">
        <ele>315</ele>
        <time>2018-10-17T09:31:14.000Z</time>
      </trkpt>
      <trkpt lat="36.084192" lon="-5.649196">
        <ele>316</ele>
        <time>2018-10-17T09:31:21.000Z</time>
      </trkpt>
      <trkpt lat="36.084181" lon="-5.649237">
        <ele>317</ele>
        <time>2018-10-17T09:31:26.000Z</time>
      </trkpt>
      <trkpt lat="36.084154" lon="-5.649268">
        <ele>318</ele>
        <time>2018-10-17T09:31:30.000Z</time>
      </trkpt>
      <trkpt lat="36.084122" lon="-5.649295">
        <ele>319</ele>
        <time>2018-10-17T09:31:35.000Z</time>
      </trkpt>
      <trkpt lat="36.084137" lon="-5.649337">
        <ele>322</ele>
        <time>2018-10-17T09:31:42.000Z</time>
      </trkpt>
      <trkpt lat="36.084164" lon="-5.649371">
        <ele>323</ele>
        <time>2018-10-17T09:31:48.000Z</time>
      </trkpt>
      <trkpt lat="36.084197" lon="-5.649402">
        <ele>323</ele>
        <time>2018-10-17T09:31:53.000Z</time>
      </trkpt>
      <trkpt lat="36.084221" lon="-5.649438">
        <ele>325</ele>
        <time>2018-10-17T09:31:58.000Z</time>
      </trkpt>
      <trkpt lat="36.08424" lon="-5.649476">
        <ele>326</ele>
        <time>2018-10-17T09:32:03.000Z</time>
      </trkpt>
      <trkpt lat="36.084252" lon="-5.649518">
        <ele>327.454545454545</ele>
        <time>2018-10-17T09:32:08.000Z</time>
      </trkpt>
      <trkpt lat="36.084255" lon="-5.649566">
        <ele>328.636361520649</ele>
        <time>2018-10-17T09:32:13.000Z</time>
      </trkpt>
      <trkpt lat="36.084274" lon="-5.649602">
        <ele>330</ele>
        <time>2018-10-17T09:32:17.000Z</time>
      </trkpt>
      <trkpt lat="36.084265" lon="-5.649653">
        <ele>331</ele>
        <time>2018-10-17T09:32:25.000Z</time>
      </trkpt>
      <trkpt lat="36.084291" lon="-5.649697">
        <ele>328</ele>
        <time>2018-10-17T09:32:30.000Z</time>
      </trkpt>
      <trkpt lat="36.08431" lon="-5.649741">
        <ele>328</ele>
        <time>2018-10-17T09:32:35.000Z</time>
      </trkpt>
      <trkpt lat="36.084334" lon="-5.649774">
        <ele>329.660375307926</ele>
        <time>2018-10-17T09:32:39.000Z</time>
      </trkpt>
      <trkpt lat="36.084356" lon="-5.649807">
        <ele>333.693882082495</ele>
        <time>2018-10-17T09:32:43.000Z</time>
      </trkpt>
      <trkpt lat="36.084372" lon="-5.649842">
        <ele>335</ele>
        <time>2018-10-17T09:32:47.000Z</time>
      </trkpt>
      <trkpt lat="36.084393" lon="-5.649881">
        <ele>336</ele>
        <time>2018-10-17T09:32:52.000Z</time>
      </trkpt>
      <trkpt lat="36.084402" lon="-5.649934">
        <ele>337</ele>
        <time>2018-10-17T09:32:57.000Z</time>
      </trkpt>
      <trkpt lat="36.084415" lon="-5.649978">
        <ele>338.571433795966</ele>
        <time>2018-10-17T09:33:01.000Z</time>
      </trkpt>
      <trkpt lat="36.084434" lon="-5.650016">
        <ele>340</ele>
        <time>2018-10-17T09:33:06.000Z</time>
      </trkpt>
      <trkpt lat="36.084427" lon="-5.650061">
        <ele>340</ele>
        <time>2018-10-17T09:33:12.000Z</time>
      </trkpt>
      <trkpt lat="36.084426" lon="-5.650111">
        <ele>340.666662603162</ele>
        <time>2018-10-17T09:33:17.000Z</time>
      </trkpt>
      <trkpt lat="36.084417" lon="-5.650155">
        <ele>342</ele>
        <time>2018-10-17T09:33:21.000Z</time>
      </trkpt>
      <trkpt lat="36.084406" lon="-5.650206">
        <ele>342</ele>
        <time>2018-10-17T09:33:26.000Z</time>
      </trkpt>
      <trkpt lat="36.084425" lon="-5.650246">
        <ele>343.482456238842</ele>
        <time>2018-10-17T09:33:30.000Z</time>
      </trkpt>
      <trkpt lat="36.084425" lon="-5.650289">
        <ele>345</ele>
        <time>2018-10-17T09:33:35.000Z</time>
      </trkpt>
      <trkpt lat="36.084388" lon="-5.650318">
        <ele>346</ele>
        <time>2018-10-17T09:33:39.000Z</time>
      </trkpt>
      <trkpt lat="36.084378" lon="-5.650351">
        <ele>348</ele>
        <time>2018-10-17T09:33:42.000Z</time>
      </trkpt>
      <trkpt lat="36.084363" lon="-5.650395">
        <ele>349</ele>
        <time>2018-10-17T09:33:47.000Z</time>
      </trkpt>
      <trkpt lat="36.084348" lon="-5.650438">
        <ele>349</ele>
        <time>2018-10-17T09:33:51.000Z</time>
      </trkpt>
      <trkpt lat="36.084332" lon="-5.650478">
        <ele>351</ele>
        <time>2018-10-17T09:33:55.000Z</time>
      </trkpt>
      <trkpt lat="36.084352" lon="-5.650529">
        <ele>351.700002560033</ele>
        <time>2018-10-17T09:33:59.000Z</time>
      </trkpt>
      <trkpt lat="36.084368" lon="-5.650569">
        <ele>352</ele>
        <time>2018-10-17T09:34:04.000Z</time>
      </trkpt>
      <trkpt lat="36.084389" lon="-5.650612">
        <ele>353</ele>
        <time>2018-10-17T09:34:08.000Z</time>
      </trkpt>
      <trkpt lat="36.084392" lon="-5.650654">
        <ele>354</ele>
        <time>2018-10-17T09:34:13.000Z</time>
      </trkpt>
      <trkpt lat="36.084413" lon="-5.650699">
        <ele>355.642202050331</ele>
        <time>2018-10-17T09:34:18.000Z</time>
      </trkpt>
      <trkpt lat="36.084446" lon="-5.650716">
        <ele>357</ele>
        <time>2018-10-17T09:34:23.000Z</time>
      </trkpt>
      <trkpt lat="36.084479" lon="-5.650735">
        <ele>358</ele>
        <time>2018-10-17T09:34:28.000Z</time>
      </trkpt>
      <trkpt lat="36.084515" lon="-5.65076">
        <ele>358.565214165136</ele>
        <time>2018-10-17T09:34:34.000Z</time>
      </trkpt>
      <trkpt lat="36.084529" lon="-5.650798">
        <ele>361</ele>
        <time>2018-10-17T09:34:39.000Z</time>
      </trkpt>
      <trkpt lat="36.084548" lon="-5.650833">
        <ele>363</ele>
        <time>2018-10-17T09:34:46.000Z</time>
      </trkpt>
      <trkpt lat="36.084561" lon="-5.65088">
        <ele>365</ele>
        <time>2018-10-17T09:34:53.000Z</time>
      </trkpt>
      <trkpt lat="36.084579" lon="-5.650921">
        <ele>365</ele>
        <time>2018-10-17T09:34:58.000Z</time>
      </trkpt>
      <trkpt lat="36.08461" lon="-5.650943">
        <ele>367.654205495675</ele>
        <time>2018-10-17T09:35:03.000Z</time>
      </trkpt>
      <trkpt lat="36.084633" lon="-5.650975">
        <ele>369.662917793246</ele>
        <time>2018-10-17T09:35:10.000Z</time>
      </trkpt>
      <trkpt lat="36.084635" lon="-5.651002">
        <ele>374.608699523619</ele>
        <time>2018-10-17T09:35:16.000Z</time>
      </trkpt>
      <trkpt lat="36.084658" lon="-5.651032">
        <ele>376</ele>
        <time>2018-10-17T09:35:21.000Z</time>
      </trkpt>
      <trkpt lat="36.084689" lon="-5.651062">
        <ele>378</ele>
        <time>2018-10-17T09:35:30.000Z</time>
      </trkpt>
      <trkpt lat="36.084717" lon="-5.651089">
        <ele>379</ele>
        <time>2018-10-17T09:35:36.000Z</time>
      </trkpt>
      <trkpt lat="36.084735" lon="-5.651124">
        <ele>381</ele>
        <time>2018-10-17T09:35:43.000Z</time>
      </trkpt>
      <trkpt lat="36.084743" lon="-5.651173">
        <ele>383</ele>
        <time>2018-10-17T09:35:49.000Z</time>
      </trkpt>
      <trkpt lat="36.084752" lon="-5.651215">
        <ele>383</ele>
        <time>2018-10-17T09:35:54.000Z</time>
      </trkpt>
      <trkpt lat="36.084751" lon="-5.65126">
        <ele>384</ele>
        <time>2018-10-17T09:35:58.000Z</time>
      </trkpt>
      <trkpt lat="36.084751" lon="-5.65131">
        <ele>386</ele>
        <time>2018-10-17T09:36:03.000Z</time>
      </trkpt>
      <trkpt lat="36.084754" lon="-5.651356">
        <ele>387.636365752054</ele>
        <time>2018-10-17T09:36:08.000Z</time>
      </trkpt>
      <trkpt lat="36.084769" lon="-5.651392">
        <ele>389</ele>
        <time>2018-10-17T09:36:13.000Z</time>
      </trkpt>
      <trkpt lat="36.084791" lon="-5.65143">
        <ele>389</ele>
        <time>2018-10-17T09:36:18.000Z</time>
      </trkpt>
      <trkpt lat="36.084811" lon="-5.651463">
        <ele>391</ele>
        <time>2018-10-17T09:36:23.000Z</time>
      </trkpt>
      <trkpt lat="36.084828" lon="-5.651503">
        <ele>393</ele>
        <time>2018-10-17T09:36:30.000Z</time>
      </trkpt>
      <trkpt lat="36.084844" lon="-5.651538">
        <ele>395</ele>
        <time>2018-10-17T09:36:36.000Z</time>
      </trkpt>
      <trkpt lat="36.084856" lon="-5.651581">
        <ele>396</ele>
        <time>2018-10-17T09:36:42.000Z</time>
      </trkpt>
      <trkpt lat="36.084883" lon="-5.651617">
        <ele>398</ele>
        <time>2018-10-17T09:36:51.000Z</time>
      </trkpt>
      <trkpt lat="36.084895" lon="-5.651663">
        <ele>400</ele>
        <time>2018-10-17T09:36:57.000Z</time>
      </trkpt>
      <trkpt lat="36.08489" lon="-5.651707">
        <ele>400</ele>
        <time>2018-10-17T09:37:01.000Z</time>
      </trkpt>
      <trkpt lat="36.084898" lon="-5.651749">
        <ele>402</ele>
        <time>2018-10-17T09:37:05.000Z</time>
      </trkpt>
      <trkpt lat="36.084932" lon="-5.651772">
        <ele>403</ele>
        <time>2018-10-17T09:37:10.000Z</time>
      </trkpt>
      <trkpt lat="36.084948" lon="-5.651815">
        <ele>404</ele>
        <time>2018-10-17T09:37:15.000Z</time>
      </trkpt>
      <trkpt lat="36.08497" lon="-5.65186">
        <ele>405</ele>
        <time>2018-10-17T09:37:20.000Z</time>
      </trkpt>
      <trkpt lat="36.084984" lon="-5.651892">
        <ele>407</ele>
        <time>2018-10-17T09:37:24.000Z</time>
      </trkpt>
      <trkpt lat="36.084994" lon="-5.651943">
        <ele>408</ele>
        <time>2018-10-17T09:37:30.000Z</time>
      </trkpt>
      <trkpt lat="36.085016" lon="-5.651985">
        <ele>408</ele>
        <time>2018-10-17T09:37:36.000Z</time>
      </trkpt>
      <trkpt lat="36.085032" lon="-5.652024">
        <ele>411</ele>
        <time>2018-10-17T09:37:42.000Z</time>
      </trkpt>
      <trkpt lat="36.085056" lon="-5.652058">
        <ele>412</ele>
        <time>2018-10-17T09:37:48.000Z</time>
      </trkpt>
      <trkpt lat="36.08508" lon="-5.652094">
        <ele>413</ele>
        <time>2018-10-17T09:37:54.000Z</time>
      </trkpt>
      <trkpt lat="36.085108" lon="-5.652124">
        <ele>414</ele>
        <time>2018-10-17T09:37:59.000Z</time>
      </trkpt>
      <trkpt lat="36.085142" lon="-5.652142">
        <ele>415</ele>
        <time>2018-10-17T09:38:04.000Z</time>
      </trkpt>
      <trkpt lat="36.085184" lon="-5.652154">
        <ele>417</ele>
        <time>2018-10-17T09:38:09.000Z</time>
      </trkpt>
      <trkpt lat="36.08522" lon="-5.652168">
        <ele>418</ele>
        <time>2018-10-17T09:38:14.000Z</time>
      </trkpt>
      <trkpt lat="36.08526" lon="-5.652193">
        <ele>420</ele>
        <time>2018-10-17T09:38:19.000Z</time>
      </trkpt>
      <trkpt lat="36.085296" lon="-5.652211">
        <ele>420</ele>
        <time>2018-10-17T09:38:23.000Z</time>
      </trkpt>
      <trkpt lat="36.085333" lon="-5.652218">
        <ele>420</ele>
        <time>2018-10-17T09:38:26.000Z</time>
      </trkpt>
      <trkpt lat="36.085372" lon="-5.652241">
        <ele>420.700002560033</ele>
        <time>2018-10-17T09:38:29.000Z</time>
      </trkpt>
      <trkpt lat="36.085407" lon="-5.652266">
        <ele>421.463574867761</ele>
        <time>2018-10-17T09:38:33.000Z</time>
      </trkpt>
      <trkpt lat="36.085444" lon="-5.652305">
        <ele>423</ele>
        <time>2018-10-17T09:38:36.000Z</time>
      </trkpt>
      <trkpt lat="36.085477" lon="-5.652326">
        <ele>422.300002559967</ele>
        <time>2018-10-17T09:38:38.000Z</time>
      </trkpt>
      <trkpt lat="36.085516" lon="-5.652351">
        <ele>420</ele>
        <time>2018-10-17T09:38:41.000Z</time>
      </trkpt>
      <trkpt lat="36.085546" lon="-5.652368">
        <ele>420</ele>
        <time>2018-10-17T09:38:43.000Z</time>
      </trkpt>
      <trkpt lat="36.085581" lon="-5.652385">
        <ele>420</ele>
        <time>2018-10-17T09:38:45.000Z</time>
      </trkpt>
      <trkpt lat="36.085617" lon="-5.652395">
        <ele>420</ele>
        <time>2018-10-17T09:38:47.000Z</time>
      </trkpt>
      <trkpt lat="36.085663" lon="-5.652414">
        <ele>423.076917017841</ele>
        <time>2018-10-17T09:38:50.000Z</time>
      </trkpt>
      <trkpt lat="36.085701" lon="-5.652425">
        <ele>422.306126980395</ele>
        <time>2018-10-17T09:38:52.000Z</time>
      </trkpt>
      <trkpt lat="36.085745" lon="-5.65243">
        <ele>422</ele>
        <time>2018-10-17T09:38:55.000Z</time>
      </trkpt>
      <trkpt lat="36.085795" lon="-5.652426">
        <ele>422.416675555556</ele>
        <time>2018-10-17T09:38:58.000Z</time>
      </trkpt>
      <trkpt lat="36.085838" lon="-5.65243">
        <ele>422.693065166147</ele>
        <time>2018-10-17T09:39:01.000Z</time>
      </trkpt>
      <trkpt lat="36.085882" lon="-5.652432">
        <ele>423.659083636364</ele>
        <time>2018-10-17T09:39:04.000Z</time>
      </trkpt>
      <trkpt lat="36.085931" lon="-5.652432">
        <ele>426</ele>
        <time>2018-10-17T09:39:07.000Z</time>
      </trkpt>
      <trkpt lat="36.085982" lon="-5.652423">
        <ele>426</ele>
        <time>2018-10-17T09:39:10.000Z</time>
      </trkpt>
      <trkpt lat="36.086026" lon="-5.652426">
        <ele>426.583342222222</ele>
        <time>2018-10-17T09:39:13.000Z</time>
      </trkpt>
      <trkpt lat="36.08607" lon="-5.652444">
        <ele>429</ele>
        <time>2018-10-17T09:39:16.000Z</time>
      </trkpt>
      <trkpt lat="36.086108" lon="-5.652455">
        <ele>429</ele>
        <time>2018-10-17T09:39:18.000Z</time>
      </trkpt>
      <trkpt lat="36.086151" lon="-5.652468">
        <ele>428.300002559967</ele>
        <time>2018-10-17T09:39:20.000Z</time>
      </trkpt>
      <trkpt lat="36.086185" lon="-5.65248">
        <ele>429.67741580302</ele>
        <time>2018-10-17T09:39:22.000Z</time>
      </trkpt>
      <trkpt lat="36.086231" lon="-5.652493">
        <ele>429.33962059097</ele>
        <time>2018-10-17T09:39:24.000Z</time>
      </trkpt>
      <trkpt lat="36.086272" lon="-5.652493">
        <ele>428.577457679064</ele>
        <time>2018-10-17T09:39:26.000Z</time>
      </trkpt>
      <trkpt lat="36.08631" lon="-5.652499">
        <ele>429</ele>
        <time>2018-10-17T09:39:28.000Z</time>
      </trkpt>
      <trkpt lat="36.086353" lon="-5.65251">
        <ele>429</ele>
        <time>2018-10-17T09:39:30.000Z</time>
      </trkpt>
      <trkpt lat="36.086392" lon="-5.6525">
        <ele>430</ele>
        <time>2018-10-17T09:39:32.000Z</time>
      </trkpt>
      <trkpt lat="36.086446" lon="-5.652492">
        <ele>430</ele>
        <time>2018-10-17T09:39:35.000Z</time>
      </trkpt>
      <trkpt lat="36.086485" lon="-5.652487">
        <ele>431</ele>
        <time>2018-10-17T09:39:38.000Z</time>
      </trkpt>
      <trkpt lat="36.086521" lon="-5.652461">
        <ele>432</ele>
        <time>2018-10-17T09:39:42.000Z</time>
      </trkpt>
      <trkpt lat="36.086559" lon="-5.652442">
        <ele>432</ele>
        <time>2018-10-17T09:39:45.000Z</time>
      </trkpt>
      <trkpt lat="36.0866" lon="-5.652406">
        <ele>432</ele>
        <time>2018-10-17T09:39:48.000Z</time>
      </trkpt>
      <trkpt lat="36.086624" lon="-5.652371">
        <ele>432.923531006234</ele>
        <time>2018-10-17T09:39:50.000Z</time>
      </trkpt>
      <trkpt lat="36.086648" lon="-5.652344">
        <ele>434</ele>
        <time>2018-10-17T09:39:52.000Z</time>
      </trkpt>
      <trkpt lat="36.086681" lon="-5.652318">
        <ele>433.577468089709</ele>
        <time>2018-10-17T09:39:55.000Z</time>
      </trkpt>
      <trkpt lat="36.086722" lon="-5.652312">
        <ele>437</ele>
        <time>2018-10-17T09:39:58.000Z</time>
      </trkpt>
      <trkpt lat="36.086759" lon="-5.652313">
        <ele>437.686276478265</ele>
        <time>2018-10-17T09:40:02.000Z</time>
      </trkpt>
      <trkpt lat="36.086756" lon="-5.65236">
        <ele>437</ele>
        <time>2018-10-17T09:40:07.000Z</time>
      </trkpt>
      <trkpt lat="36.086723" lon="-5.652401">
        <ele>437</ele>
        <time>2018-10-17T09:40:11.000Z</time>
      </trkpt>
      <trkpt lat="36.086699" lon="-5.652447">
        <ele>438</ele>
        <time>2018-10-17T09:40:15.000Z</time>
      </trkpt>
      <trkpt lat="36.086677" lon="-5.652487">
        <ele>438</ele>
        <time>2018-10-17T09:40:18.000Z</time>
      </trkpt>
      <trkpt lat="36.086679" lon="-5.652539">
        <ele>439.659083636364</ele>
        <time>2018-10-17T09:40:22.000Z</time>
      </trkpt>
      <trkpt lat="36.086677" lon="-5.652575">
        <ele>441</ele>
        <time>2018-10-17T09:40:25.000Z</time>
      </trkpt>
      <trkpt lat="36.086666" lon="-5.652624">
        <ele>443.583342222222</ele>
        <time>2018-10-17T09:40:29.000Z</time>
      </trkpt>
      <trkpt lat="36.08668" lon="-5.652668">
        <ele>444</ele>
        <time>2018-10-17T09:40:33.000Z</time>
      </trkpt>
      <trkpt lat="36.086701" lon="-5.652716">
        <ele>444</ele>
        <time>2018-10-17T09:40:38.000Z</time>
      </trkpt>
      <trkpt lat="36.086725" lon="-5.652762">
        <ele>445</ele>
        <time>2018-10-17T09:40:42.000Z</time>
      </trkpt>
      <trkpt lat="36.086755" lon="-5.652797">
        <ele>446</ele>
        <time>2018-10-17T09:40:46.000Z</time>
      </trkpt>
      <trkpt lat="36.086767" lon="-5.652841">
        <ele>446.381810142196</ele>
        <time>2018-10-17T09:40:51.000Z</time>
      </trkpt>
      <trkpt lat="36.086754" lon="-5.65289">
        <ele>448.700002560033</ele>
        <time>2018-10-17T09:40:55.000Z</time>
      </trkpt>
      <trkpt lat="36.086731" lon="-5.652932">
        <ele>450</ele>
        <time>2018-10-17T09:40:59.000Z</time>
      </trkpt>
      <trkpt lat="36.086696" lon="-5.652965">
        <ele>450</ele>
        <time>2018-10-17T09:41:03.000Z</time>
      </trkpt>
      <trkpt lat="36.086651" lon="-5.652993">
        <ele>451</ele>
        <time>2018-10-17T09:41:06.000Z</time>
      </trkpt>
      <trkpt lat="36.086623" lon="-5.653038">
        <ele>452</ele>
        <time>2018-10-17T09:41:09.000Z</time>
      </trkpt>
      <trkpt lat="36.086586" lon="-5.653081">
        <ele>453.690718112481</ele>
        <time>2018-10-17T09:41:12.000Z</time>
      </trkpt>
      <trkpt lat="36.086558" lon="-5.653107">
        <ele>454</ele>
        <time>2018-10-17T09:41:14.000Z</time>
      </trkpt>
      <trkpt lat="36.08653" lon="-5.653148">
        <ele>454</ele>
        <time>2018-10-17T09:41:16.000Z</time>
      </trkpt>
      <trkpt lat="36.08651" lon="-5.65319">
        <ele>453.535725714286</ele>
        <time>2018-10-17T09:41:18.000Z</time>
      </trkpt>
      <trkpt lat="36.086486" lon="-5.653228">
        <ele>454.527133090563</ele>
        <time>2018-10-17T09:41:20.000Z</time>
      </trkpt>
      <trkpt lat="36.086456" lon="-5.653265">
        <ele>455</ele>
        <time>2018-10-17T09:41:22.000Z</time>
      </trkpt>
      <trkpt lat="36.086418" lon="-5.653291">
        <ele>455</ele>
        <time>2018-10-17T09:41:24.000Z</time>
      </trkpt>
      <trkpt lat="36.086374" lon="-5.653311">
        <ele>455</ele>
        <time>2018-10-17T09:41:26.000Z</time>
      </trkpt>
      <trkpt lat="36.086327" lon="-5.653326">
        <ele>456.37255295653</ele>
        <time>2018-10-17T09:41:28.000Z</time>
      </trkpt>
      <trkpt lat="36.086282" lon="-5.653344">
        <ele>456.385962745472</ele>
        <time>2018-10-17T09:41:30.000Z</time>
      </trkpt>
      <trkpt lat="36.08624" lon="-5.65336">
        <ele>456</ele>
        <time>2018-10-17T09:41:32.000Z</time>
      </trkpt>
      <trkpt lat="36.086194" lon="-5.65337">
        <ele>456.670323796664</ele>
        <time>2018-10-17T09:41:34.000Z</time>
      </trkpt>
      <trkpt lat="36.086144" lon="-5.653366">
        <ele>457</ele>
        <time>2018-10-17T09:41:37.000Z</time>
      </trkpt>
      <trkpt lat="36.086109" lon="-5.653354">
        <ele>457</ele>
        <time>2018-10-17T09:41:39.000Z</time>
      </trkpt>
      <trkpt lat="36.086077" lon="-5.65333">
        <ele>456.299997439967</ele>
        <time>2018-10-17T09:41:41.000Z</time>
      </trkpt>
      <trkpt lat="36.08606" lon="-5.653294">
        <ele>455.109945784384</ele>
        <time>2018-10-17T09:41:43.000Z</time>
      </trkpt>
      <trkpt lat="36.086044" lon="-5.653254">
        <ele>453.416657777778</ele>
        <time>2018-10-17T09:41:45.000Z</time>
      </trkpt>
      <trkpt lat="36.086022" lon="-5.653204">
        <ele>451.396552865624</ele>
        <time>2018-10-17T09:41:48.000Z</time>
      </trkpt>
      <trkpt lat="36.086005" lon="-5.653147">
        <ele>451</ele>
        <time>2018-10-17T09:41:51.000Z</time>
      </trkpt>
      <trkpt lat="36.085987" lon="-5.653098">
        <ele>450.599994879934</ele>
        <time>2018-10-17T09:41:53.000Z</time>
      </trkpt>
      <trkpt lat="36.085969" lon="-5.653044">
        <ele>449</ele>
        <time>2018-10-17T09:41:55.000Z</time>
      </trkpt>
      <trkpt lat="36.085954" lon="-5.652994">
        <ele>447.357802151346</ele>
        <time>2018-10-17T09:41:57.000Z</time>
      </trkpt>
      <trkpt lat="36.085947" lon="-5.652942">
        <ele>447</ele>
        <time>2018-10-17T09:41:59.000Z</time>
      </trkpt>
      <trkpt lat="36.085942" lon="-5.652891">
        <ele>444.809526711974</ele>
        <time>2018-10-17T09:42:01.000Z</time>
      </trkpt>
      <trkpt lat="36.085932" lon="-5.652866">
        <ele>444</ele>
        <time>2018-10-17T09:42:02.000Z</time>
      </trkpt>
      <trkpt lat="36.08591" lon="-5.652819">
        <ele>444</ele>
        <time>2018-10-17T09:42:04.000Z</time>
      </trkpt>
      <trkpt lat="36.085882" lon="-5.652768">
        <ele>443.48438</ele>
        <time>2018-10-17T09:42:06.000Z</time>
      </trkpt>
      <trkpt lat="36.08584" lon="-5.652735">
        <ele>442.363634247946</ele>
        <time>2018-10-17T09:42:08.000Z</time>
      </trkpt>
      <trkpt lat="36.085792" lon="-5.65271">
        <ele>443.195397901985</ele>
        <time>2018-10-17T09:42:10.000Z</time>
      </trkpt>
      <trkpt lat="36.085746" lon="-5.652683">
        <ele>442.352934975755</ele>
        <time>2018-10-17T09:42:13.000Z</time>
      </trkpt>
      <trkpt lat="36.085706" lon="-5.65267">
        <ele>442</ele>
        <time>2018-10-17T09:42:15.000Z</time>
      </trkpt>
      <trkpt lat="36.085672" lon="-5.652654">
        <ele>442</ele>
        <time>2018-10-17T09:42:17.000Z</time>
      </trkpt>
      <trkpt lat="36.085619" lon="-5.652623">
        <ele>440</ele>
        <time>2018-10-17T09:42:20.000Z</time>
      </trkpt>
      <trkpt lat="36.085582" lon="-5.652597">
        <ele>440</ele>
        <time>2018-10-17T09:42:22.000Z</time>
      </trkpt>
      <trkpt lat="36.085548" lon="-5.652566">
        <ele>441</ele>
        <time>2018-10-17T09:42:24.000Z</time>
      </trkpt>
      <trkpt lat="36.085522" lon="-5.65253">
        <ele>438.40170884068</ele>
        <time>2018-10-17T09:42:26.000Z</time>
      </trkpt>
      <trkpt lat="36.085498" lon="-5.652493">
        <ele>435</ele>
        <time>2018-10-17T09:42:29.000Z</time>
      </trkpt>
      <trkpt lat="36.085482" lon="-5.65245">
        <ele>435</ele>
        <time>2018-10-17T09:42:33.000Z</time>
      </trkpt>
      <trkpt lat="36.085456" lon="-5.65242">
        <ele>435</ele>
        <time>2018-10-17T09:42:36.000Z</time>
      </trkpt>
      <trkpt lat="36.085465" lon="-5.65239">
        <ele>431</ele>
        <time>2018-10-17T09:42:42.000Z</time>
      </trkpt>
      <trkpt lat="36.085502" lon="-5.652368">
        <ele>430.693069055977</ele>
        <time>2018-10-17T09:42:46.000Z</time>
      </trkpt>
      <trkpt lat="36.085526" lon="-5.652323">
        <ele>431</ele>
        <time>2018-10-17T09:42:49.000Z</time>
      </trkpt>
      <trkpt lat="36.085518" lon="-5.65226">
        <ele>429.42856968707</ele>
        <time>2018-10-17T09:42:52.000Z</time>
      </trkpt>
      <trkpt lat="36.085485" lon="-5.652231">
        <ele>431</ele>
        <time>2018-10-17T09:42:54.000Z</time>
      </trkpt>
      <trkpt lat="36.085456" lon="-5.652215">
        <ele>431.32038424735</ele>
        <time>2018-10-17T09:42:56.000Z</time>
      </trkpt>
      <trkpt lat="36.085425" lon="-5.652194">
        <ele>428</ele>
        <time>2018-10-17T09:43:02.000Z</time>
      </trkpt>
      <trkpt lat="36.085389" lon="-5.652169">
        <ele>430</ele>
        <time>2018-10-17T09:43:05.000Z</time>
      </trkpt>
      <trkpt lat="36.085347" lon="-5.652141">
        <ele>430</ele>
        <time>2018-10-17T09:43:08.000Z</time>
      </trkpt>
      <trkpt lat="36.08531" lon="-5.652122">
        <ele>430</ele>
        <time>2018-10-17T09:43:11.000Z</time>
      </trkpt>
      <trkpt lat="36.085266" lon="-5.652114">
        <ele>429</ele>
        <time>2018-10-17T09:43:15.000Z</time>
      </trkpt>
      <trkpt lat="36.085229" lon="-5.652099">
        <ele>429</ele>
        <time>2018-10-17T09:43:19.000Z</time>
      </trkpt>
      <trkpt lat="36.085194" lon="-5.652088">
        <ele>429.385967079113</ele>
        <time>2018-10-17T09:43:23.000Z</time>
      </trkpt>
      <trkpt lat="36.085166" lon="-5.65206">
        <ele>429</ele>
        <time>2018-10-17T09:43:27.000Z</time>
      </trkpt>
      <trkpt lat="36.085154" lon="-5.652054">
        <ele>428.003008279445</ele>
        <time>2018-10-17T09:43:34.000Z</time>
      </trkpt>
      <trkpt lat="36.085132" lon="-5.652081">
        <ele>431</ele>
        <time>2018-10-17T09:48:43.000Z</time>
      </trkpt>
      <trkpt lat="36.085155" lon="-5.652113">
        <ele>431</ele>
        <time>2018-10-17T09:48:47.000Z</time>
      </trkpt>
      <trkpt lat="36.085196" lon="-5.652138">
        <ele>431</ele>
        <time>2018-10-17T09:48:52.000Z</time>
      </trkpt>
      <trkpt lat="36.085231" lon="-5.652165">
        <ele>433</ele>
        <time>2018-10-17T09:48:58.000Z</time>
      </trkpt>
      <trkpt lat="36.085265" lon="-5.652193">
        <ele>434</ele>
        <time>2018-10-17T09:49:04.000Z</time>
      </trkpt>
      <trkpt lat="36.085257" lon="-5.652241">
        <ele>434</ele>
        <time>2018-10-17T09:49:10.000Z</time>
      </trkpt>
      <trkpt lat="36.085237" lon="-5.652278">
        <ele>436</ele>
        <time>2018-10-17T09:49:17.000Z</time>
      </trkpt>
      <trkpt lat="36.0852" lon="-5.652287">
        <ele>437</ele>
        <time>2018-10-17T09:49:25.000Z</time>
      </trkpt>
      <trkpt lat="36.085198" lon="-5.652326">
        <ele>439</ele>
        <time>2018-10-17T09:49:33.000Z</time>
      </trkpt>
      <trkpt lat="36.085192" lon="-5.65237">
        <ele>440</ele>
        <time>2018-10-17T09:49:38.000Z</time>
      </trkpt>
      <trkpt lat="36.085194" lon="-5.652421">
        <ele>440.305942438567</ele>
        <time>2018-10-17T09:49:42.000Z</time>
      </trkpt>
      <trkpt lat="36.085212" lon="-5.65247">
        <ele>440</ele>
        <time>2018-10-17T09:49:46.000Z</time>
      </trkpt>
      <trkpt lat="36.085238" lon="-5.652503">
        <ele>441</ele>
        <time>2018-10-17T09:49:50.000Z</time>
      </trkpt>
      <trkpt lat="36.08527" lon="-5.652541">
        <ele>442</ele>
        <time>2018-10-17T09:49:55.000Z</time>
      </trkpt>
      <trkpt lat="36.085305" lon="-5.65257">
        <ele>443</ele>
        <time>2018-10-17T09:49:59.000Z</time>
      </trkpt>
      <trkpt lat="36.085344" lon="-5.652595">
        <ele>443</ele>
        <time>2018-10-17T09:50:03.000Z</time>
      </trkpt>
      <trkpt lat="36.085382" lon="-5.652615">
        <ele>443</ele>
        <time>2018-10-17T09:50:07.000Z</time>
      </trkpt>
      <trkpt lat="36.085424" lon="-5.652638">
        <ele>443</ele>
        <time>2018-10-17T09:50:11.000Z</time>
      </trkpt>
      <trkpt lat="36.085463" lon="-5.652658">
        <ele>443</ele>
        <time>2018-10-17T09:50:15.000Z</time>
      </trkpt>
      <trkpt lat="36.085498" lon="-5.652685">
        <ele>444</ele>
        <time>2018-10-17T09:50:19.000Z</time>
      </trkpt>
      <trkpt lat="36.085538" lon="-5.652711">
        <ele>445</ele>
        <time>2018-10-17T09:50:23.000Z</time>
      </trkpt>
      <trkpt lat="36.085575" lon="-5.652722">
        <ele>446</ele>
        <time>2018-10-17T09:50:27.000Z</time>
      </trkpt>
      <trkpt lat="36.085607" lon="-5.65275">
        <ele>445</ele>
        <time>2018-10-17T09:50:31.000Z</time>
      </trkpt>
      <trkpt lat="36.085646" lon="-5.652758">
        <ele>445.7010048</ele>
        <time>2018-10-17T09:50:35.000Z</time>
      </trkpt>
      <trkpt lat="36.085681" lon="-5.652778">
        <ele>447</ele>
        <time>2018-10-17T09:50:39.000Z</time>
      </trkpt>
      <trkpt lat="36.085718" lon="-5.652802">
        <ele>448</ele>
        <time>2018-10-17T09:50:45.000Z</time>
      </trkpt>
      <trkpt lat="36.085741" lon="-5.652835">
        <ele>449</ele>
        <time>2018-10-17T09:50:49.000Z</time>
      </trkpt>
      <trkpt lat="36.085765" lon="-5.65287">
        <ele>449</ele>
        <time>2018-10-17T09:50:53.000Z</time>
      </trkpt>
      <trkpt lat="36.085792" lon="-5.652908">
        <ele>450</ele>
        <time>2018-10-17T09:50:58.000Z</time>
      </trkpt>
      <trkpt lat="36.085824" lon="-5.652937">
        <ele>451</ele>
        <time>2018-10-17T09:51:02.000Z</time>
      </trkpt>
      <trkpt lat="36.085856" lon="-5.652959">
        <ele>451</ele>
        <time>2018-10-17T09:51:06.000Z</time>
      </trkpt>
      <trkpt lat="36.085878" lon="-5.652994">
        <ele>452</ele>
        <time>2018-10-17T09:51:10.000Z</time>
      </trkpt>
      <trkpt lat="36.085892" lon="-5.653036">
        <ele>452.578281278209</ele>
        <time>2018-10-17T09:51:16.000Z</time>
      </trkpt>
      <trkpt lat="36.085893" lon="-5.653087">
        <ele>454</ele>
        <time>2018-10-17T09:51:21.000Z</time>
      </trkpt>
      <trkpt lat="36.085896" lon="-5.653132">
        <ele>455</ele>
        <time>2018-10-17T09:51:25.000Z</time>
      </trkpt>
      <trkpt lat="36.085895" lon="-5.653184">
        <ele>456</ele>
        <time>2018-10-17T09:51:31.000Z</time>
      </trkpt>
      <trkpt lat="36.085888" lon="-5.653233">
        <ele>457</ele>
        <time>2018-10-17T09:51:36.000Z</time>
      </trkpt>
      <trkpt lat="36.085884" lon="-5.653282">
        <ele>458</ele>
        <time>2018-10-17T09:51:42.000Z</time>
      </trkpt>
      <trkpt lat="36.08587" lon="-5.653323">
        <ele>459</ele>
        <time>2018-10-17T09:51:48.000Z</time>
      </trkpt>
      <trkpt lat="36.08585" lon="-5.653369">
        <ele>459</ele>
        <time>2018-10-17T09:51:53.000Z</time>
      </trkpt>
      <trkpt lat="36.085838" lon="-5.653417">
        <ele>459</ele>
        <time>2018-10-17T09:51:57.000Z</time>
      </trkpt>
      <trkpt lat="36.085824" lon="-5.653463">
        <ele>459</ele>
        <time>2018-10-17T09:52:01.000Z</time>
      </trkpt>
      <trkpt lat="36.085816" lon="-5.653512">
        <ele>460</ele>
        <time>2018-10-17T09:52:06.000Z</time>
      </trkpt>
      <trkpt lat="36.085828" lon="-5.653553">
        <ele>461</ele>
        <time>2018-10-17T09:52:10.000Z</time>
      </trkpt>
      <trkpt lat="36.08581" lon="-5.653599">
        <ele>461</ele>
        <time>2018-10-17T09:52:15.000Z</time>
      </trkpt>
      <trkpt lat="36.085811" lon="-5.653644">
        <ele>462</ele>
        <time>2018-10-17T09:52:20.000Z</time>
      </trkpt>
      <trkpt lat="36.085793" lon="-5.653691">
        <ele>463</ele>
        <time>2018-10-17T09:52:26.000Z</time>
      </trkpt>
      <trkpt lat="36.085781" lon="-5.653742">
        <ele>464</ele>
        <time>2018-10-17T09:52:31.000Z</time>
      </trkpt>
      <trkpt lat="36.085754" lon="-5.653785">
        <ele>464</ele>
        <time>2018-10-17T09:52:35.000Z</time>
      </trkpt>
      <trkpt lat="36.085724" lon="-5.653821">
        <ele>464</ele>
        <time>2018-10-17T09:52:39.000Z</time>
      </trkpt>
      <trkpt lat="36.085686" lon="-5.653831">
        <ele>464</ele>
        <time>2018-10-17T09:52:43.000Z</time>
      </trkpt>
      <trkpt lat="36.085646" lon="-5.653824">
        <ele>465</ele>
        <time>2018-10-17T09:52:47.000Z</time>
      </trkpt>
      <trkpt lat="36.085611" lon="-5.653813">
        <ele>464.583342222222</ele>
        <time>2018-10-17T09:52:51.000Z</time>
      </trkpt>
      <trkpt lat="36.085569" lon="-5.653829">
        <ele>465</ele>
        <time>2018-10-17T09:52:58.000Z</time>
      </trkpt>
      <trkpt lat="36.085522" lon="-5.653841">
        <ele>465</ele>
        <time>2018-10-17T09:53:02.000Z</time>
      </trkpt>
      <trkpt lat="36.085482" lon="-5.65386">
        <ele>464</ele>
        <time>2018-10-17T09:53:07.000Z</time>
      </trkpt>
      <trkpt lat="36.085448" lon="-5.653873">
        <ele>463</ele>
        <time>2018-10-17T09:53:12.000Z</time>
      </trkpt>
      <trkpt lat="36.085437" lon="-5.653876">
        <ele>464</ele>
        <time>2018-10-17T09:53:16.000Z</time>
      </trkpt>
      <trkpt lat="36.085444" lon="-5.653903">
        <ele>462.311689607022</ele>
        <time>2018-10-17T09:54:21.000Z</time>
      </trkpt>
      <trkpt lat="36.085425" lon="-5.653912">
        <ele>463</ele>
        <time>2018-10-17T09:54:23.000Z</time>
      </trkpt>
      <trkpt lat="36.085386" lon="-5.653929">
        <ele>463.491527997744</ele>
        <time>2018-10-17T09:54:25.000Z</time>
      </trkpt>
      <trkpt lat="36.085333" lon="-5.653958">
        <ele>464</ele>
        <time>2018-10-17T09:54:27.000Z</time>
      </trkpt>
      <trkpt lat="36.085286" lon="-5.653996">
        <ele>465</ele>
        <time>2018-10-17T09:54:29.000Z</time>
      </trkpt>
      <trkpt lat="36.085236" lon="-5.654036">
        <ele>464.5</ele>
        <time>2018-10-17T09:54:31.000Z</time>
      </trkpt>
      <trkpt lat="36.08518" lon="-5.65404">
        <ele>462.306934833853</ele>
        <time>2018-10-17T09:54:33.000Z</time>
      </trkpt>
      <trkpt lat="36.085127" lon="-5.654046">
        <ele>463.303371109705</ele>
        <time>2018-10-17T09:54:35.000Z</time>
      </trkpt>
      <trkpt lat="36.085074" lon="-5.654068">
        <ele>464</ele>
        <time>2018-10-17T09:54:37.000Z</time>
      </trkpt>
      <trkpt lat="36.085014" lon="-5.654088">
        <ele>465</ele>
        <time>2018-10-17T09:54:39.000Z</time>
      </trkpt>
      <trkpt lat="36.084962" lon="-5.6541">
        <ele>464</ele>
        <time>2018-10-17T09:54:41.000Z</time>
      </trkpt>
      <trkpt lat="36.08491" lon="-5.654104">
        <ele>464</ele>
        <time>2018-10-17T09:54:43.000Z</time>
      </trkpt>
      <trkpt lat="36.084855" lon="-5.654114">
        <ele>464.683167313005</ele>
        <time>2018-10-17T09:54:45.000Z</time>
      </trkpt>
      <trkpt lat="36.084803" lon="-5.654134">
        <ele>464.46094</ele>
        <time>2018-10-17T09:54:47.000Z</time>
      </trkpt>
      <trkpt lat="36.084752" lon="-5.654146">
        <ele>465</ele>
        <time>2018-10-17T09:54:49.000Z</time>
      </trkpt>
      <trkpt lat="36.084691" lon="-5.654157">
        <ele>464.319144300557</ele>
        <time>2018-10-17T09:54:51.000Z</time>
      </trkpt>
      <trkpt lat="36.084625" lon="-5.654166">
        <ele>462.319144300557</ele>
        <time>2018-10-17T09:54:53.000Z</time>
      </trkpt>
      <trkpt lat="36.084565" lon="-5.654176">
        <ele>462</ele>
        <time>2018-10-17T09:54:55.000Z</time>
      </trkpt>
      <trkpt lat="36.084496" lon="-5.654194">
        <ele>462.306117917505</ele>
        <time>2018-10-17T09:54:57.000Z</time>
      </trkpt>
      <trkpt lat="36.084437" lon="-5.654204">
        <ele>461</ele>
        <time>2018-10-17T09:54:59.000Z</time>
      </trkpt>
      <trkpt lat="36.084374" lon="-5.654212">
        <ele>461</ele>
        <time>2018-10-17T09:55:01.000Z</time>
      </trkpt>
      <trkpt lat="36.084338" lon="-5.654226">
        <ele>461</ele>
        <time>2018-10-17T09:55:02.000Z</time>
      </trkpt>
      <trkpt lat="36.084281" lon="-5.654249">
        <ele>459</ele>
        <time>2018-10-17T09:55:04.000Z</time>
      </trkpt>
      <trkpt lat="36.084223" lon="-5.654268">
        <ele>459</ele>
        <time>2018-10-17T09:55:06.000Z</time>
      </trkpt>
      <trkpt lat="36.084167" lon="-5.654286">
        <ele>459</ele>
        <time>2018-10-17T09:55:08.000Z</time>
      </trkpt>
      <trkpt lat="36.084107" lon="-5.654317">
        <ele>459</ele>
        <time>2018-10-17T09:55:10.000Z</time>
      </trkpt>
      <trkpt lat="36.084049" lon="-5.654356">
        <ele>459</ele>
        <time>2018-10-17T09:55:12.000Z</time>
      </trkpt>
      <trkpt lat="36.083994" lon="-5.654388">
        <ele>459</ele>
        <time>2018-10-17T09:55:14.000Z</time>
      </trkpt>
      <trkpt lat="36.083938" lon="-5.65443">
        <ele>458</ele>
        <time>2018-10-17T09:55:16.000Z</time>
      </trkpt>
      <trkpt lat="36.08388" lon="-5.654476">
        <ele>454.43056</ele>
        <time>2018-10-17T09:55:18.000Z</time>
      </trkpt>
      <trkpt lat="36.083853" lon="-5.6545">
        <ele>454</ele>
        <time>2018-10-17T09:55:19.000Z</time>
      </trkpt>
      <trkpt lat="36.083804" lon="-5.654554">
        <ele>454.686866466694</ele>
        <time>2018-10-17T09:55:21.000Z</time>
      </trkpt>
      <trkpt lat="36.083772" lon="-5.654586">
        <ele>454.303035788167</ele>
        <time>2018-10-17T09:55:22.000Z</time>
      </trkpt>
      <trkpt lat="36.083741" lon="-5.65462">
        <ele>454</ele>
        <time>2018-10-17T09:55:23.000Z</time>
      </trkpt>
      <trkpt lat="36.083709" lon="-5.654663">
        <ele>454</ele>
        <time>2018-10-17T09:55:24.000Z</time>
      </trkpt>
      <trkpt lat="36.08368" lon="-5.654701">
        <ele>454</ele>
        <time>2018-10-17T09:55:25.000Z</time>
      </trkpt>
      <trkpt lat="36.083651" lon="-5.654737">
        <ele>454</ele>
        <time>2018-10-17T09:55:26.000Z</time>
      </trkpt>
      <trkpt lat="36.083623" lon="-5.654771">
        <ele>454</ele>
        <time>2018-10-17T09:55:27.000Z</time>
      </trkpt>
      <trkpt lat="36.083594" lon="-5.654803">
        <ele>454</ele>
        <time>2018-10-17T09:55:28.000Z</time>
      </trkpt>
      <trkpt lat="36.083548" lon="-5.654864">
        <ele>454</ele>
        <time>2018-10-17T09:55:30.000Z</time>
      </trkpt>
      <trkpt lat="36.083508" lon="-5.654911">
        <ele>454</ele>
        <time>2018-10-17T09:55:32.000Z</time>
      </trkpt>
      <trkpt lat="36.083422" lon="-5.655">
        <ele>454</ele>
        <time>2018-10-17T09:55:36.000Z</time>
      </trkpt>
      <trkpt lat="36.08332" lon="-5.655092">
        <ele>451.306930944023</ele>
        <time>2018-10-17T09:55:40.000Z</time>
      </trkpt>
      <trkpt lat="36.083231" lon="-5.655154">
        <ele>453</ele>
        <time>2018-10-17T09:55:43.000Z</time>
      </trkpt>
      <trkpt lat="36.083179" lon="-5.655198">
        <ele>452.458328888889</ele>
        <time>2018-10-17T09:55:45.000Z</time>
      </trkpt>
      <trkpt lat="36.083131" lon="-5.655247">
        <ele>452</ele>
        <time>2018-10-17T09:55:47.000Z</time>
      </trkpt>
      <trkpt lat="36.083087" lon="-5.6553">
        <ele>451.306117917505</ele>
        <time>2018-10-17T09:55:49.000Z</time>
      </trkpt>
      <trkpt lat="36.08304" lon="-5.655351">
        <ele>452</ele>
        <time>2018-10-17T09:55:51.000Z</time>
      </trkpt>
      <trkpt lat="36.083004" lon="-5.655402">
        <ele>449.899992319902</ele>
        <time>2018-10-17T09:55:53.000Z</time>
      </trkpt>
      <trkpt lat="36.082958" lon="-5.65546">
        <ele>449.063491740994</ele>
        <time>2018-10-17T09:55:55.000Z</time>
      </trkpt>
      <trkpt lat="36.082914" lon="-5.655521">
        <ele>450</ele>
        <time>2018-10-17T09:55:57.000Z</time>
      </trkpt>
      <trkpt lat="36.082872" lon="-5.655591">
        <ele>450</ele>
        <time>2018-10-17T09:55:59.000Z</time>
      </trkpt>
      <trkpt lat="36.082852" lon="-5.655631">
        <ele>450</ele>
        <time>2018-10-17T09:56:00.000Z</time>
      </trkpt>
      <trkpt lat="36.082833" lon="-5.65567">
        <ele>448.626267066611</ele>
        <time>2018-10-17T09:56:01.000Z</time>
      </trkpt>
      <trkpt lat="36.082816" lon="-5.65571">
        <ele>448</ele>
        <time>2018-10-17T09:56:02.000Z</time>
      </trkpt>
      <trkpt lat="36.082802" lon="-5.655753">
        <ele>447.313133533306</ele>
        <time>2018-10-17T09:56:03.000Z</time>
      </trkpt>
      <trkpt lat="36.082775" lon="-5.655836">
        <ele>447</ele>
        <time>2018-10-17T09:56:05.000Z</time>
      </trkpt>
      <trkpt lat="36.082759" lon="-5.655878">
        <ele>447</ele>
        <time>2018-10-17T09:56:06.000Z</time>
      </trkpt>
      <trkpt lat="36.082743" lon="-5.65592">
        <ele>446.375005714286</ele>
        <time>2018-10-17T09:56:07.000Z</time>
      </trkpt>
      <trkpt lat="36.082729" lon="-5.65597">
        <ele>446</ele>
        <time>2018-10-17T09:56:08.000Z</time>
      </trkpt>
      <trkpt lat="36.08271" lon="-5.656008">
        <ele>446</ele>
        <time>2018-10-17T09:56:09.000Z</time>
      </trkpt>
      <trkpt lat="36.082609" lon="-5.656132">
        <ele>445</ele>
        <time>2018-10-17T09:56:13.000Z</time>
      </trkpt>
      <trkpt lat="36.082492" lon="-5.656217">
        <ele>443.735850651468</ele>
        <time>2018-10-17T09:56:17.000Z</time>
      </trkpt>
      <trkpt lat="36.082386" lon="-5.656244">
        <ele>443</ele>
        <time>2018-10-17T09:56:21.000Z</time>
      </trkpt>
      <trkpt lat="36.082274" lon="-5.656208">
        <ele>442.676471695509</ele>
        <time>2018-10-17T09:56:26.000Z</time>
      </trkpt>
      <trkpt lat="36.082152" lon="-5.656184">
        <ele>444</ele>
        <time>2018-10-17T09:56:31.000Z</time>
      </trkpt>
      <trkpt lat="36.082043" lon="-5.656123">
        <ele>444</ele>
        <time>2018-10-17T09:56:35.000Z</time>
      </trkpt>
      <trkpt lat="36.081988" lon="-5.656007">
        <ele>443</ele>
        <time>2018-10-17T09:56:39.000Z</time>
      </trkpt>
      <trkpt lat="36.081968" lon="-5.65587">
        <ele>444</ele>
        <time>2018-10-17T09:56:43.000Z</time>
      </trkpt>
      <trkpt lat="36.081904" lon="-5.655725">
        <ele>444</ele>
        <time>2018-10-17T09:56:47.000Z</time>
      </trkpt>
      <trkpt lat="36.081877" lon="-5.655635">
        <ele>443.999381768585</ele>
        <time>2018-10-17T09:56:50.000Z</time>
      </trkpt>
      <trkpt lat="36.081838" lon="-5.655658">
        <ele>442.020407969407</ele>
        <time>2018-10-17T09:57:22.000Z</time>
      </trkpt>
      <trkpt lat="36.081834" lon="-5.655621">
        <ele>443.096783517073</ele>
        <time>2018-10-17T09:57:25.000Z</time>
      </trkpt>
      <trkpt lat="36.081834" lon="-5.655571">
        <ele>442</ele>
        <time>2018-10-17T09:57:27.000Z</time>
      </trkpt>
      <trkpt lat="36.08184" lon="-5.655517">
        <ele>442</ele>
        <time>2018-10-17T09:57:29.000Z</time>
      </trkpt>
      <trkpt lat="36.081839" lon="-5.655384">
        <ele>440.306126980395</ele>
        <time>2018-10-17T09:57:34.000Z</time>
      </trkpt>
      <trkpt lat="36.081813" lon="-5.655274">
        <ele>436.313723521735</ele>
        <time>2018-10-17T09:57:38.000Z</time>
      </trkpt>
      <trkpt lat="36.081802" lon="-5.655223">
        <ele>435</ele>
        <time>2018-10-17T09:57:41.000Z</time>
      </trkpt>
      <trkpt lat="36.081783" lon="-5.655186">
        <ele>435</ele>
        <time>2018-10-17T09:57:43.000Z</time>
      </trkpt>
      <trkpt lat="36.081768" lon="-5.655146">
        <ele>434</ele>
        <time>2018-10-17T09:57:45.000Z</time>
      </trkpt>
      <trkpt lat="36.081757" lon="-5.655103">
        <ele>432.336840970641</ele>
        <time>2018-10-17T09:57:47.000Z</time>
      </trkpt>
      <trkpt lat="36.081723" lon="-5.65497">
        <ele>429.786889373846</ele>
        <time>2018-10-17T09:57:52.000Z</time>
      </trkpt>
      <trkpt lat="36.081689" lon="-5.654837">
        <ele>426</ele>
        <time>2018-10-17T09:57:57.000Z</time>
      </trkpt>
      <trkpt lat="36.081662" lon="-5.654694">
        <ele>422</ele>
        <time>2018-10-17T09:58:02.000Z</time>
      </trkpt>
      <trkpt lat="36.081613" lon="-5.654564">
        <ele>419.313133533306</ele>
        <time>2018-10-17T09:58:06.000Z</time>
      </trkpt>
      <trkpt lat="36.081598" lon="-5.654412">
        <ele>418</ele>
        <time>2018-10-17T09:58:11.000Z</time>
      </trkpt>
      <trkpt lat="36.081588" lon="-5.654249">
        <ele>414.372726532227</ele>
        <time>2018-10-17T09:58:16.000Z</time>
      </trkpt>
      <trkpt lat="36.081536" lon="-5.65412">
        <ele>414</ele>
        <time>2018-10-17T09:58:21.000Z</time>
      </trkpt>
      <trkpt lat="36.081455" lon="-5.654005">
        <ele>411</ele>
        <time>2018-10-17T09:58:26.000Z</time>
      </trkpt>
      <trkpt lat="36.081387" lon="-5.653889">
        <ele>410</ele>
        <time>2018-10-17T09:58:30.000Z</time>
      </trkpt>
      <trkpt lat="36.08133" lon="-5.653751">
        <ele>406</ele>
        <time>2018-10-17T09:58:35.000Z</time>
      </trkpt>
      <trkpt lat="36.081254" lon="-5.653638">
        <ele>405.436622257477</ele>
        <time>2018-10-17T09:58:39.000Z</time>
      </trkpt>
      <trkpt lat="36.081174" lon="-5.65353">
        <ele>405</ele>
        <time>2018-10-17T09:58:43.000Z</time>
      </trkpt>
      <trkpt lat="36.081122" lon="-5.653393">
        <ele>405</ele>
        <time>2018-10-17T09:58:48.000Z</time>
      </trkpt>
      <trkpt lat="36.081083" lon="-5.653247">
        <ele>403</ele>
        <time>2018-10-17T09:58:54.000Z</time>
      </trkpt>
      <trkpt lat="36.081048" lon="-5.65324">
        <ele>403.017487915627</ele>
        <time>2018-10-17T09:58:57.000Z</time>
      </trkpt>
      <trkpt lat="36.081046" lon="-5.653274">
        <ele>405</ele>
        <time>2018-10-17T09:59:16.000Z</time>
      </trkpt>
      <trkpt lat="36.081036" lon="-5.653242">
        <ele>405</ele>
        <time>2018-10-17T09:59:18.000Z</time>
      </trkpt>
      <trkpt lat="36.081028" lon="-5.653186">
        <ele>404</ele>
        <time>2018-10-17T09:59:20.000Z</time>
      </trkpt>
      <trkpt lat="36.081042" lon="-5.653044">
        <ele>400</ele>
        <time>2018-10-17T09:59:25.000Z</time>
      </trkpt>
      <trkpt lat="36.081032" lon="-5.652896">
        <ele>400</ele>
        <time>2018-10-17T09:59:30.000Z</time>
      </trkpt>
      <trkpt lat="36.080956" lon="-5.652773">
        <ele>395.422531910291</ele>
        <time>2018-10-17T09:59:35.000Z</time>
      </trkpt>
      <trkpt lat="36.080836" lon="-5.652765">
        <ele>395</ele>
        <time>2018-10-17T09:59:39.000Z</time>
      </trkpt>
      <trkpt lat="36.080742" lon="-5.652674">
        <ele>393</ele>
        <time>2018-10-17T09:59:45.000Z</time>
      </trkpt>
      <trkpt lat="36.080682" lon="-5.652574">
        <ele>392</ele>
        <time>2018-10-17T09:59:50.000Z</time>
      </trkpt>
      <trkpt lat="36.080666" lon="-5.652535">
        <ele>391</ele>
        <time>2018-10-17T09:59:53.000Z</time>
      </trkpt>
      <trkpt lat="36.080638" lon="-5.652481">
        <ele>391</ele>
        <time>2018-10-17T09:59:55.000Z</time>
      </trkpt>
      <trkpt lat="36.080606" lon="-5.652422">
        <ele>390.369369681035</ele>
        <time>2018-10-17T09:59:57.000Z</time>
      </trkpt>
      <trkpt lat="36.080534" lon="-5.652308">
        <ele>390</ele>
        <time>2018-10-17T10:00:01.000Z</time>
      </trkpt>
      <trkpt lat="36.080452" lon="-5.652217">
        <ele>389</ele>
        <time>2018-10-17T10:00:05.000Z</time>
      </trkpt>
      <trkpt lat="36.080381" lon="-5.652118">
        <ele>387</ele>
        <time>2018-10-17T10:00:10.000Z</time>
      </trkpt>
      <trkpt lat="36.080298" lon="-5.652119">
        <ele>387</ele>
        <time>2018-10-17T10:00:14.000Z</time>
      </trkpt>
      <trkpt lat="36.080281" lon="-5.65198">
        <ele>380</ele>
        <time>2018-10-17T10:00:22.000Z</time>
      </trkpt>
      <trkpt lat="36.080235" lon="-5.651905">
        <ele>379</ele>
        <time>2018-10-17T10:00:25.000Z</time>
      </trkpt>
      <trkpt lat="36.080179" lon="-5.651862">
        <ele>379</ele>
        <time>2018-10-17T10:00:28.000Z</time>
      </trkpt>
      <trkpt lat="36.080109" lon="-5.651742">
        <ele>374.761061144967</ele>
        <time>2018-10-17T10:00:34.000Z</time>
      </trkpt>
      <trkpt lat="36.079995" lon="-5.651664">
        <ele>372.422542320936</ele>
        <time>2018-10-17T10:00:40.000Z</time>
      </trkpt>
      <trkpt lat="36.079956" lon="-5.65163">
        <ele>372</ele>
        <time>2018-10-17T10:00:42.000Z</time>
      </trkpt>
      <trkpt lat="36.079892" lon="-5.651574">
        <ele>369</ele>
        <time>2018-10-17T10:00:47.000Z</time>
      </trkpt>
      <trkpt lat="36.079781" lon="-5.651541">
        <ele>366</ele>
        <time>2018-10-17T10:00:55.000Z</time>
      </trkpt>
      <trkpt lat="36.079666" lon="-5.651509">
        <ele>361</ele>
        <time>2018-10-17T10:01:02.000Z</time>
      </trkpt>
      <trkpt lat="36.079566" lon="-5.651443">
        <ele>360</ele>
        <time>2018-10-17T10:01:08.000Z</time>
      </trkpt>
      <trkpt lat="36.079458" lon="-5.65139">
        <ele>353.299997439967</ele>
        <time>2018-10-17T10:01:15.000Z</time>
      </trkpt>
      <trkpt lat="36.079346" lon="-5.651352">
        <ele>347.306117917505</ele>
        <time>2018-10-17T10:01:21.000Z</time>
      </trkpt>
      <trkpt lat="36.079248" lon="-5.65132">
        <ele>343</ele>
        <time>2018-10-17T10:01:26.000Z</time>
      </trkpt>
      <trkpt lat="36.079142" lon="-5.65128">
        <ele>340.428566204034</ele>
        <time>2018-10-17T10:01:33.000Z</time>
      </trkpt>
      <trkpt lat="36.079028" lon="-5.651273">
        <ele>338</ele>
        <time>2018-10-17T10:01:38.000Z</time>
      </trkpt>
      <trkpt lat="36.078932" lon="-5.651206">
        <ele>336</ele>
        <time>2018-10-17T10:01:43.000Z</time>
      </trkpt>
      <trkpt lat="36.078802" lon="-5.651184">
        <ele>333.422542320936</ele>
        <time>2018-10-17T10:01:48.000Z</time>
      </trkpt>
      <trkpt lat="36.078692" lon="-5.651127">
        <ele>329</ele>
        <time>2018-10-17T10:01:57.000Z</time>
      </trkpt>
      <trkpt lat="36.078591" lon="-5.65109">
        <ele>325.391304831762</ele>
        <time>2018-10-17T10:02:03.000Z</time>
      </trkpt>
      <trkpt lat="36.078496" lon="-5.65106">
        <ele>319</ele>
        <time>2018-10-17T10:02:08.000Z</time>
      </trkpt>
      <trkpt lat="36.07839" lon="-5.651005">
        <ele>316</ele>
        <time>2018-10-17T10:02:13.000Z</time>
      </trkpt>
      <trkpt lat="36.078268" lon="-5.650985">
        <ele>316</ele>
        <time>2018-10-17T10:02:17.000Z</time>
      </trkpt>
      <trkpt lat="36.078174" lon="-5.650977">
        <ele>312.989828446165</ele>
        <time>2018-10-17T10:02:24.000Z</time>
      </trkpt>
      <trkpt lat="36.078136" lon="-5.651036">
        <ele>311.076918532522</ele>
        <time>2018-10-17T10:04:41.000Z</time>
      </trkpt>
      <trkpt lat="36.078122" lon="-5.651014">
        <ele>312</ele>
        <time>2018-10-17T10:04:43.000Z</time>
      </trkpt>
      <trkpt lat="36.078121" lon="-5.650869">
        <ele>310</ele>
        <time>2018-10-17T10:04:51.000Z</time>
      </trkpt>
      <trkpt lat="36.078203" lon="-5.650781">
        <ele>309</ele>
        <time>2018-10-17T10:04:56.000Z</time>
      </trkpt>
      <trkpt lat="36.078282" lon="-5.650687">
        <ele>306.513044833267</ele>
        <time>2018-10-17T10:05:00.000Z</time>
      </trkpt>
      <trkpt lat="36.078396" lon="-5.650604">
        <ele>306</ele>
        <time>2018-10-17T10:05:05.000Z</time>
      </trkpt>
      <trkpt lat="36.078512" lon="-5.650552">
        <ele>303.645149746752</ele>
        <time>2018-10-17T10:05:09.000Z</time>
      </trkpt>
      <trkpt lat="36.078607" lon="-5.650508">
        <ele>300.185363021054</ele>
        <time>2018-10-17T10:05:13.000Z</time>
      </trkpt>
      <trkpt lat="36.078721" lon="-5.650449">
        <ele>298</ele>
        <time>2018-10-17T10:05:19.000Z</time>
      </trkpt>
      <trkpt lat="36.078699" lon="-5.65032">
        <ele>294</ele>
        <time>2018-10-17T10:05:24.000Z</time>
      </trkpt>
      <trkpt lat="36.078649" lon="-5.650204">
        <ele>291.428566204034</ele>
        <time>2018-10-17T10:05:29.000Z</time>
      </trkpt>
      <trkpt lat="36.07855" lon="-5.650136">
        <ele>286</ele>
        <time>2018-10-17T10:05:34.000Z</time>
      </trkpt>
      <trkpt lat="36.078436" lon="-5.650062">
        <ele>285.456691326171</ele>
        <time>2018-10-17T10:05:38.000Z</time>
      </trkpt>
      <trkpt lat="36.078381" lon="-5.650043">
        <ele>284</ele>
        <time>2018-10-17T10:05:40.000Z</time>
      </trkpt>
      <trkpt lat="36.078327" lon="-5.650023">
        <ele>283</ele>
        <time>2018-10-17T10:05:42.000Z</time>
      </trkpt>
      <trkpt lat="36.078285" lon="-5.649997">
        <ele>281.46875</ele>
        <time>2018-10-17T10:05:44.000Z</time>
      </trkpt>
      <trkpt lat="36.078183" lon="-5.649928">
        <ele>278.299997439967</ele>
        <time>2018-10-17T10:05:49.000Z</time>
      </trkpt>
      <trkpt lat="36.078286" lon="-5.649861">
        <ele>271.909080330476</ele>
        <time>2018-10-17T10:06:01.000Z</time>
      </trkpt>
      <trkpt lat="36.078387" lon="-5.649796">
        <ele>268.8</ele>
        <time>2018-10-17T10:06:06.000Z</time>
      </trkpt>
      <trkpt lat="36.078402" lon="-5.64964">
        <ele>267.434775349683</ele>
        <time>2018-10-17T10:06:11.000Z</time>
      </trkpt>
      <trkpt lat="36.078338" lon="-5.649513">
        <ele>265.322574873376</ele>
        <time>2018-10-17T10:06:15.000Z</time>
      </trkpt>
      <trkpt lat="36.078292" lon="-5.649399">
        <ele>261</ele>
        <time>2018-10-17T10:06:24.000Z</time>
      </trkpt>
      <trkpt lat="36.078272" lon="-5.649353">
        <ele>259.606071576334</ele>
        <time>2018-10-17T10:06:26.000Z</time>
      </trkpt>
      <trkpt lat="36.078272" lon="-5.64929">
        <ele>255</ele>
        <time>2018-10-17T10:06:30.000Z</time>
      </trkpt>
      <trkpt lat="36.078258" lon="-5.649148">
        <ele>252.428576653013</ele>
        <time>2018-10-17T10:06:36.000Z</time>
      </trkpt>
      <trkpt lat="36.078192" lon="-5.649022">
        <ele>247.690475222983</ele>
        <time>2018-10-17T10:06:41.000Z</time>
      </trkpt>
      <trkpt lat="36.078162" lon="-5.648905">
        <ele>241.652169073657</ele>
        <time>2018-10-17T10:06:47.000Z</time>
      </trkpt>
      <trkpt lat="36.078061" lon="-5.648793">
        <ele>241</ele>
        <time>2018-10-17T10:06:51.000Z</time>
      </trkpt>
      <trkpt lat="36.078017" lon="-5.648785">
        <ele>241</ele>
        <time>2018-10-17T10:06:52.000Z</time>
      </trkpt>
      <trkpt lat="36.077976" lon="-5.648775">
        <ele>240.345794504325</ele>
        <time>2018-10-17T10:06:53.000Z</time>
      </trkpt>
      <trkpt lat="36.077861" lon="-5.648743">
        <ele>238.479676150436</ele>
        <time>2018-10-17T10:06:57.000Z</time>
      </trkpt>
      <trkpt lat="36.077744" lon="-5.648753">
        <ele>231.899992319902</ele>
        <time>2018-10-17T10:07:01.000Z</time>
      </trkpt>
      <trkpt lat="36.077645" lon="-5.648835">
        <ele>231</ele>
        <time>2018-10-17T10:07:06.000Z</time>
      </trkpt>
      <trkpt lat="36.077529" lon="-5.648851">
        <ele>229.055550288003</ele>
        <time>2018-10-17T10:07:09.000Z</time>
      </trkpt>
      <trkpt lat="36.077463" lon="-5.648849">
        <ele>226</ele>
        <time>2018-10-17T10:07:11.000Z</time>
      </trkpt>
      <trkpt lat="36.077408" lon="-5.648855">
        <ele>225</ele>
        <time>2018-10-17T10:07:13.000Z</time>
      </trkpt>
      <trkpt lat="36.077351" lon="-5.648844">
        <ele>224.313727458682</ele>
        <time>2018-10-17T10:07:15.000Z</time>
      </trkpt>
      <trkpt lat="36.077298" lon="-5.648812">
        <ele>223.973147928217</ele>
        <time>2018-10-17T10:07:20.000Z</time>
      </trkpt>
      <trkpt lat="36.077315" lon="-5.648832">
        <ele>220.041237417119</ele>
        <time>2018-10-17T10:08:01.000Z</time>
      </trkpt>
      <trkpt lat="36.07735" lon="-5.648801">
        <ele>222.333333333333</ele>
        <time>2018-10-17T10:08:04.000Z</time>
      </trkpt>
      <trkpt lat="36.077401" lon="-5.648784">
        <ele>223</ele>
        <time>2018-10-17T10:08:06.000Z</time>
      </trkpt>
      <trkpt lat="36.077446" lon="-5.648764">
        <ele>222</ele>
        <time>2018-10-17T10:08:09.000Z</time>
      </trkpt>
      <trkpt lat="36.077542" lon="-5.648693">
        <ele>219</ele>
        <time>2018-10-17T10:08:14.000Z</time>
      </trkpt>
      <trkpt lat="36.077618" lon="-5.648587">
        <ele>216.652178752296</ele>
        <time>2018-10-17T10:08:18.000Z</time>
      </trkpt>
      <trkpt lat="36.077676" lon="-5.648449">
        <ele>215</ele>
        <time>2018-10-17T10:08:23.000Z</time>
      </trkpt>
      <trkpt lat="36.077738" lon="-5.648338">
        <ele>210.461530887537</ele>
        <time>2018-10-17T10:08:27.000Z</time>
      </trkpt>
      <trkpt lat="36.077804" lon="-5.648233">
        <ele>209.300002559967</ele>
        <time>2018-10-17T10:08:30.000Z</time>
      </trkpt>
      <trkpt lat="36.077867" lon="-5.648116">
        <ele>206</ele>
        <time>2018-10-17T10:08:36.000Z</time>
      </trkpt>
      <trkpt lat="36.077949" lon="-5.647991">
        <ele>205.309281887519</ele>
        <time>2018-10-17T10:08:42.000Z</time>
      </trkpt>
      <trkpt lat="36.077998" lon="-5.647845">
        <ele>203</ele>
        <time>2018-10-17T10:08:46.000Z</time>
      </trkpt>
      <trkpt lat="36.078047" lon="-5.647715">
        <ele>200</ele>
        <time>2018-10-17T10:08:51.000Z</time>
      </trkpt>
      <trkpt lat="36.078056" lon="-5.64757">
        <ele>200</ele>
        <time>2018-10-17T10:08:55.000Z</time>
      </trkpt>
      <trkpt lat="36.077964" lon="-5.647498">
        <ele>198.48438</ele>
        <time>2018-10-17T10:08:58.000Z</time>
      </trkpt>
      <trkpt lat="36.077901" lon="-5.647472">
        <ele>197.086091143361</ele>
        <time>2018-10-17T10:09:00.000Z</time>
      </trkpt>
      <trkpt lat="36.0776580" lon="-5.6476670">
        <ele>194.8</ele>
        <time>2018-10-17T10:09:51Z</time>
      </trkpt>
      <trkpt lat="36.0776330" lon="-5.6476910">
        <ele>194.5</ele>
        <time>2018-10-17T10:09:55Z</time>
      </trkpt>
      <trkpt lat="36.0776170" lon="-5.6477230">
        <ele>196.0</ele>
        <time>2018-10-17T10:09:58Z</time>
      </trkpt>
      <trkpt lat="36.0775840" lon="-5.6477340">
        <ele>195.7</ele>
        <time>2018-10-17T10:10:02Z</time>
      </trkpt>
      <trkpt lat="36.0775560" lon="-5.6477520">
        <ele>197.0</ele>
        <time>2018-10-17T10:10:04Z</time>
      </trkpt>
      <trkpt lat="36.0775270" lon="-5.6477720">
        <ele>196.7</ele>
        <time>2018-10-17T10:10:06Z</time>
      </trkpt>
      <trkpt lat="36.0774950" lon="-5.6477990">
        <ele>198.0</ele>
        <time>2018-10-17T10:10:08Z</time>
      </trkpt>
      <trkpt lat="36.0774680" lon="-5.6478500">
        <ele>199.4</ele>
        <time>2018-10-17T10:10:10Z</time>
      </trkpt>
      <trkpt lat="36.0774530" lon="-5.6478810">
        <ele>201.1</ele>
        <time>2018-10-17T10:10:11Z</time>
      </trkpt>
      <trkpt lat="36.0774370" lon="-5.6479110">
        <ele>200.7</ele>
        <time>2018-10-17T10:10:12Z</time>
      </trkpt>
      <trkpt lat="36.0774190" lon="-5.6479400">
        <ele>202.4</ele>
        <time>2018-10-17T10:10:13Z</time>
      </trkpt>
      <trkpt lat="36.0773700" lon="-5.6479690">
        <ele>203.1</ele>
        <time>2018-10-17T10:10:15Z</time>
      </trkpt>
      <trkpt lat="36.0773420" lon="-5.6479730">
        <ele>203.1</ele>
        <time>2018-10-17T10:10:16Z</time>
      </trkpt>
      <trkpt lat="36.0773120" lon="-5.6479720">
        <ele>202.6</ele>
        <time>2018-10-17T10:10:17Z</time>
      </trkpt>
      <trkpt lat="36.0772800" lon="-5.6479710">
        <ele>202.0</ele>
        <time>2018-10-17T10:10:18Z</time>
      </trkpt>
      <trkpt lat="36.0772470" lon="-5.6479730">
        <ele>201.4</ele>
        <time>2018-10-17T10:10:19Z</time>
      </trkpt>
      <trkpt lat="36.0772140" lon="-5.6479660">
        <ele>200.8</ele>
        <time>2018-10-17T10:10:20Z</time>
      </trkpt>
      <trkpt lat="36.0771900" lon="-5.6479470">
        <ele>198.4</ele>
        <time>2018-10-17T10:10:21Z</time>
      </trkpt>
      <trkpt lat="36.0771690" lon="-5.6479200">
        <ele>198.4</ele>
        <time>2018-10-17T10:10:22Z</time>
      </trkpt>
      <trkpt lat="36.0771470" lon="-5.6478920">
        <ele>195.9</ele>
        <time>2018-10-17T10:10:23Z</time>
      </trkpt>
      <trkpt lat="36.0771220" lon="-5.6478700">
        <ele>193.4</ele>
        <time>2018-10-17T10:10:24Z</time>
      </trkpt>
      <trkpt lat="36.0770770" lon="-5.6478490">
        <ele>192.6</ele>
        <time>2018-10-17T10:10:26Z</time>
      </trkpt>
      <trkpt lat="36.0770300" lon="-5.6478390">
        <ele>191.8</ele>
        <time>2018-10-17T10:10:28Z</time>
      </trkpt>
      <trkpt lat="36.0769820" lon="-5.6478560">
        <ele>190.2</ele>
        <time>2018-10-17T10:10:30Z</time>
      </trkpt>
      <trkpt lat="36.0769320" lon="-5.6478430">
        <ele>189.4</ele>
        <time>2018-10-17T10:10:32Z</time>
      </trkpt>
      <trkpt lat="36.0769050" lon="-5.6478350">
        <ele>188.6</ele>
        <time>2018-10-17T10:10:33Z</time>
      </trkpt>
      <trkpt lat="36.0768770" lon="-5.6478350">
        <ele>187.9</ele>
        <time>2018-10-17T10:10:34Z</time>
      </trkpt>
      <trkpt lat="36.0768270" lon="-5.6478510">
        <ele>187.1</ele>
        <time>2018-10-17T10:10:36Z</time>
      </trkpt>
      <trkpt lat="36.0768000" lon="-5.6478620">
        <ele>186.4</ele>
        <time>2018-10-17T10:10:37Z</time>
      </trkpt>
      <trkpt lat="36.0767710" lon="-5.6478690">
        <ele>185.7</ele>
        <time>2018-10-17T10:10:38Z</time>
      </trkpt>
      <trkpt lat="36.0767400" lon="-5.6478710">
        <ele>184.9</ele>
        <time>2018-10-17T10:10:39Z</time>
      </trkpt>
      <trkpt lat="36.0767030" lon="-5.6478740">
        <ele>186.2</ele>
        <time>2018-10-17T10:10:40Z</time>
      </trkpt>
      <trkpt lat="36.0766740" lon="-5.6478750">
        <ele>185.5</ele>
        <time>2018-10-17T10:10:41Z</time>
      </trkpt>
      <trkpt lat="36.0766380" lon="-5.6478510">
        <ele>182.8</ele>
        <time>2018-10-17T10:10:43Z</time>
      </trkpt>
      <trkpt lat="36.0766250" lon="-5.6478150">
        <ele>180.8</ele>
        <time>2018-10-17T10:10:44Z</time>
      </trkpt>
      <trkpt lat="36.0766140" lon="-5.6477790">
        <ele>178.8</ele>
        <time>2018-10-17T10:10:45Z</time>
      </trkpt>
      <trkpt lat="36.0765970" lon="-5.6477410">
        <ele>176.2</ele>
        <time>2018-10-17T10:10:46Z</time>
      </trkpt>
      <trkpt lat="36.0765670" lon="-5.6477190">
        <ele>175.6</ele>
        <time>2018-10-17T10:10:47Z</time>
      </trkpt>
      <trkpt lat="36.0765340" lon="-5.6477170">
        <ele>175.0</ele>
        <time>2018-10-17T10:10:48Z</time>
      </trkpt>
      <trkpt lat="36.0765060" lon="-5.6477290">
        <ele>175.0</ele>
        <time>2018-10-17T10:10:49Z</time>
      </trkpt>
      <trkpt lat="36.0764800" lon="-5.6477380">
        <ele>174.4</ele>
        <time>2018-10-17T10:10:50Z</time>
      </trkpt>
      <trkpt lat="36.0764300" lon="-5.6477360">
        <ele>173.2</ele>
        <time>2018-10-17T10:10:52Z</time>
      </trkpt>
      <trkpt lat="36.0763870" lon="-5.6477120">
        <ele>172.6</ele>
        <time>2018-10-17T10:10:54Z</time>
      </trkpt>
      <trkpt lat="36.0763370" lon="-5.6476960">
        <ele>170.3</ele>
        <time>2018-10-17T10:10:56Z</time>
      </trkpt>
      <trkpt lat="36.0763070" lon="-5.6476930">
        <ele>169.8</ele>
        <time>2018-10-17T10:10:57Z</time>
      </trkpt>
      <trkpt lat="36.0762780" lon="-5.6476890">
        <ele>169.4</ele>
        <time>2018-10-17T10:10:58Z</time>
      </trkpt>
      <trkpt lat="36.0762500" lon="-5.6476890">
        <ele>168.9</ele>
        <time>2018-10-17T10:10:59Z</time>
      </trkpt>
      <trkpt lat="36.0762060" lon="-5.6476870">
        <ele>168.4</ele>
        <time>2018-10-17T10:11:01Z</time>
      </trkpt>
      <trkpt lat="36.0761650" lon="-5.6476840">
        <ele>167.9</ele>
        <time>2018-10-17T10:11:03Z</time>
      </trkpt>
      <trkpt lat="36.0761570" lon="-5.6476280">
        <ele>165.6</ele>
        <time>2018-10-17T10:11:06Z</time>
      </trkpt>
      <trkpt lat="36.0761500" lon="-5.6475830">
        <ele>163.9</ele>
        <time>2018-10-17T10:11:08Z</time>
      </trkpt>
      <trkpt lat="36.0761110" lon="-5.6475580">
        <ele>161.6</ele>
        <time>2018-10-17T10:11:10Z</time>
      </trkpt>
      <trkpt lat="36.0760610" lon="-5.6475410">
        <ele>161.0</ele>
        <time>2018-10-17T10:11:12Z</time>
      </trkpt>
      <trkpt lat="36.0760090" lon="-5.6475280">
        <ele>158.2</ele>
        <time>2018-10-17T10:11:14Z</time>
      </trkpt>
      <trkpt lat="36.0759530" lon="-5.6475170">
        <ele>157.8</ele>
        <time>2018-10-17T10:11:16Z</time>
      </trkpt>
      <trkpt lat="36.0759210" lon="-5.6475090">
        <ele>157.3</ele>
        <time>2018-10-17T10:11:17Z</time>
      </trkpt>
      <trkpt lat="36.0758880" lon="-5.6474980">
        <ele>156.7</ele>
        <time>2018-10-17T10:11:18Z</time>
      </trkpt>
      <trkpt lat="36.0758560" lon="-5.6474840">
        <ele>154.4</ele>
        <time>2018-10-17T10:11:19Z</time>
      </trkpt>
      <trkpt lat="36.0758260" lon="-5.6474660">
        <ele>153.9</ele>
        <time>2018-10-17T10:11:20Z</time>
      </trkpt>
      <trkpt lat="36.0757920" lon="-5.6474510">
        <ele>153.4</ele>
        <time>2018-10-17T10:11:21Z</time>
      </trkpt>
      <trkpt lat="36.0757570" lon="-5.6474400">
        <ele>151.2</ele>
        <time>2018-10-17T10:11:22Z</time>
      </trkpt>
      <trkpt lat="36.0757200" lon="-5.6474340">
        <ele>150.4</ele>
        <time>2018-10-17T10:11:23Z</time>
      </trkpt>
      <trkpt lat="36.0756870" lon="-5.6474290">
        <ele>149.8</ele>
        <time>2018-10-17T10:11:24Z</time>
      </trkpt>
      <trkpt lat="36.0756530" lon="-5.6474240">
        <ele>149.3</ele>
        <time>2018-10-17T10:11:25Z</time>
      </trkpt>
      <trkpt lat="36.0756210" lon="-5.6474190">
        <ele>148.7</ele>
        <time>2018-10-17T10:11:26Z</time>
      </trkpt>
      <trkpt lat="36.0755900" lon="-5.6474180">
        <ele>148.1</ele>
        <time>2018-10-17T10:11:27Z</time>
      </trkpt>
      <trkpt lat="36.0755420" lon="-5.6474270">
        <ele>147.5</ele>
        <time>2018-10-17T10:11:29Z</time>
      </trkpt>
      <trkpt lat="36.0755160" lon="-5.6474360">
        <ele>146.9</ele>
        <time>2018-10-17T10:11:30Z</time>
      </trkpt>
      <trkpt lat="36.0754640" lon="-5.6474520">
        <ele>147.2</ele>
        <time>2018-10-17T10:11:32Z</time>
      </trkpt>
      <trkpt lat="36.0754360" lon="-5.6474570">
        <ele>147.2</ele>
        <time>2018-10-17T10:11:33Z</time>
      </trkpt>
      <trkpt lat="36.0754050" lon="-5.6474630">
        <ele>146.6</ele>
        <time>2018-10-17T10:11:34Z</time>
      </trkpt>
      <trkpt lat="36.0753730" lon="-5.6474680">
        <ele>146.0</ele>
        <time>2018-10-17T10:11:35Z</time>
      </trkpt>
      <trkpt lat="36.0753420" lon="-5.6474740">
        <ele>145.4</ele>
        <time>2018-10-17T10:11:36Z</time>
      </trkpt>
      <trkpt lat="36.0753120" lon="-5.6474790">
        <ele>144.8</ele>
        <time>2018-10-17T10:11:37Z</time>
      </trkpt>
      <trkpt lat="36.0752830" lon="-5.6474850">
        <ele>144.2</ele>
        <time>2018-10-17T10:11:38Z</time>
      </trkpt>
      <trkpt lat="36.0752560" lon="-5.6474910">
        <ele>144.9</ele>
        <time>2018-10-17T10:11:39Z</time>
      </trkpt>
      <trkpt lat="36.0752030" lon="-5.6475080">
        <ele>144.4</ele>
        <time>2018-10-17T10:11:41Z</time>
      </trkpt>
      <trkpt lat="36.0751760" lon="-5.6475180">
        <ele>143.8</ele>
        <time>2018-10-17T10:11:42Z</time>
      </trkpt>
      <trkpt lat="36.0751500" lon="-5.6475300">
        <ele>143.2</ele>
        <time>2018-10-17T10:11:43Z</time>
      </trkpt>
      <trkpt lat="36.0751260" lon="-5.6475470">
        <ele>144.5</ele>
        <time>2018-10-17T10:11:44Z</time>
      </trkpt>
      <trkpt lat="36.0751050" lon="-5.6475720">
        <ele>143.9</ele>
        <time>2018-10-17T10:11:45Z</time>
      </trkpt>
      <trkpt lat="36.0750850" lon="-5.6475980">
        <ele>145.2</ele>
        <time>2018-10-17T10:11:46Z</time>
      </trkpt>
      <trkpt lat="36.0750630" lon="-5.6476260">
        <ele>145.8</ele>
        <time>2018-10-17T10:11:47Z</time>
      </trkpt>
      <trkpt lat="36.0750380" lon="-5.6476530">
        <ele>145.1</ele>
        <time>2018-10-17T10:11:48Z</time>
      </trkpt>
      <trkpt lat="36.0750110" lon="-5.6476790">
        <ele>145.7</ele>
        <time>2018-10-17T10:11:49Z</time>
      </trkpt>
      <trkpt lat="36.0749840" lon="-5.6477020">
        <ele>145.7</ele>
        <time>2018-10-17T10:11:50Z</time>
      </trkpt>
      <trkpt lat="36.0749550" lon="-5.6477210">
        <ele>146.4</ele>
        <time>2018-10-17T10:11:51Z</time>
      </trkpt>
      <trkpt lat="36.0749270" lon="-5.6477350">
        <ele>145.7</ele>
        <time>2018-10-17T10:11:52Z</time>
      </trkpt>
      <trkpt lat="36.0748990" lon="-5.6477380">
        <ele>145.1</ele>
        <time>2018-10-17T10:11:53Z</time>
      </trkpt>
      <trkpt lat="36.0748520" lon="-5.6477240">
        <ele>144.4</ele>
        <time>2018-10-17T10:11:55Z</time>
      </trkpt>
      <trkpt lat="36.0748200" lon="-5.6476990">
        <ele>142.2</ele>
        <time>2018-10-17T10:11:57Z</time>
      </trkpt>
      <trkpt lat="36.0748040" lon="-5.6476710">
        <ele>141.4</ele>
        <time>2018-10-17T10:11:58Z</time>
      </trkpt>
      <trkpt lat="36.0747940" lon="-5.6476280">
        <ele>140.1</ele>
        <time>2018-10-17T10:12:00Z</time>
      </trkpt>
      <trkpt lat="36.0747800" lon="-5.6475680">
        <ele>137.5</ele>
        <time>2018-10-17T10:12:02Z</time>
      </trkpt>
      <trkpt lat="36.0747640" lon="-5.6475140">
        <ele>135.4</ele>
        <time>2018-10-17T10:12:04Z</time>
      </trkpt>
      <trkpt lat="36.0747410" lon="-5.6474630">
        <ele>134.1</ele>
        <time>2018-10-17T10:12:06Z</time>
      </trkpt>
      <trkpt lat="36.0747120" lon="-5.6474210">
        <ele>132.1</ele>
        <time>2018-10-17T10:12:08Z</time>
      </trkpt>
      <trkpt lat="36.0747020" lon="-5.6473670">
        <ele>130.9</ele>
        <time>2018-10-17T10:12:10Z</time>
      </trkpt>
      <trkpt lat="36.0747130" lon="-5.6473050">
        <ele>128.8</ele>
        <time>2018-10-17T10:12:12Z</time>
      </trkpt>
      <trkpt lat="36.0747130" lon="-5.6472590">
        <ele>127.9</ele>
        <time>2018-10-17T10:12:14Z</time>
      </trkpt>
      <trkpt lat="36.0746970" lon="-5.6472180">
        <ele>126.3</ele>
        <time>2018-10-17T10:12:16Z</time>
      </trkpt>
      <trkpt lat="36.0746840" lon="-5.6471730">
        <ele>125.4</ele>
        <time>2018-10-17T10:12:18Z</time>
      </trkpt>
      <trkpt lat="36.0746680" lon="-5.6471290">
        <ele>124.6</ele>
        <time>2018-10-17T10:12:20Z</time>
      </trkpt>
      <trkpt lat="36.0746510" lon="-5.6470740">
        <ele>123.1</ele>
        <time>2018-10-17T10:12:22Z</time>
      </trkpt>
      <trkpt lat="36.0746400" lon="-5.6470370">
        <ele>122.4</ele>
        <time>2018-10-17T10:12:24Z</time>
      </trkpt>
      <trkpt lat="36.0746150" lon="-5.6470590">
        <ele>122.6</ele>
        <time>2018-10-17T10:12:29Z</time>
      </trkpt>
      <trkpt lat="36.0746430" lon="-5.6470270">
        <ele>122.4</ele>
        <time>2018-10-17T10:12:48Z</time>
      </trkpt>
      <trkpt lat="36.0746130" lon="-5.6470420">
        <ele>121.8</ele>
        <time>2018-10-17T10:13:00Z</time>
      </trkpt>
      <trkpt lat="36.0746400" lon="-5.6470400">
        <ele>122.4</ele>
        <time>2018-10-17T10:13:31Z</time>
      </trkpt>
      <trkpt lat="36.0746630" lon="-5.6470040">
        <ele>121.6</ele>
        <time>2018-10-17T10:13:35Z</time>
      </trkpt>
      <trkpt lat="36.0746890" lon="-5.6469640">
        <ele>121.0</ele>
        <time>2018-10-17T10:13:37Z</time>
      </trkpt>
      <trkpt lat="36.0747310" lon="-5.6469330">
        <ele>121.5</ele>
        <time>2018-10-17T10:13:39Z</time>
      </trkpt>
      <trkpt lat="36.0747820" lon="-5.6469020">
        <ele>122.1</ele>
        <time>2018-10-17T10:13:41Z</time>
      </trkpt>
      <trkpt lat="36.0748080" lon="-5.6468790">
        <ele>122.1</ele>
        <time>2018-10-17T10:13:42Z</time>
      </trkpt>
      <trkpt lat="36.0748300" lon="-5.6468510">
        <ele>122.1</ele>
        <time>2018-10-17T10:13:43Z</time>
      </trkpt>
      <trkpt lat="36.0748510" lon="-5.6468200">
        <ele>122.1</ele>
        <time>2018-10-17T10:13:44Z</time>
      </trkpt>
      <trkpt lat="36.0748720" lon="-5.6467900">
        <ele>121.5</ele>
        <time>2018-10-17T10:13:45Z</time>
      </trkpt>
      <trkpt lat="36.0748920" lon="-5.6467560">
        <ele>121.4</ele>
        <time>2018-10-17T10:13:46Z</time>
      </trkpt>
      <trkpt lat="36.0749090" lon="-5.6467180">
        <ele>121.4</ele>
        <time>2018-10-17T10:13:47Z</time>
      </trkpt>
      <trkpt lat="36.0749220" lon="-5.6466720">
        <ele>120.7</ele>
        <time>2018-10-17T10:13:48Z</time>
      </trkpt>
      <trkpt lat="36.0749340" lon="-5.6466180">
        <ele>120.1</ele>
        <time>2018-10-17T10:13:49Z</time>
      </trkpt>
      <trkpt lat="36.0749450" lon="-5.6465670">
        <ele>120.0</ele>
        <time>2018-10-17T10:13:50Z</time>
      </trkpt>
      <trkpt lat="36.0749570" lon="-5.6465200">
        <ele>119.5</ele>
        <time>2018-10-17T10:13:51Z</time>
      </trkpt>
      <trkpt lat="36.0749690" lon="-5.6464730">
        <ele>119.1</ele>
        <time>2018-10-17T10:13:52Z</time>
      </trkpt>
      <trkpt lat="36.0749780" lon="-5.6464250">
        <ele>118.7</ele>
        <time>2018-10-17T10:13:53Z</time>
      </trkpt>
      <trkpt lat="36.0749880" lon="-5.6463790">
        <ele>118.6</ele>
        <time>2018-10-17T10:13:54Z</time>
      </trkpt>
      <trkpt lat="36.0750010" lon="-5.6463340">
        <ele>118.2</ele>
        <time>2018-10-17T10:13:55Z</time>
      </trkpt>
      <trkpt lat="36.0750190" lon="-5.6462920">
        <ele>118.1</ele>
        <time>2018-10-17T10:13:56Z</time>
      </trkpt>
      <trkpt lat="36.0750390" lon="-5.6462510">
        <ele>117.6</ele>
        <time>2018-10-17T10:13:57Z</time>
      </trkpt>
      <trkpt lat="36.0750590" lon="-5.6462120">
        <ele>117.4</ele>
        <time>2018-10-17T10:13:58Z</time>
      </trkpt>
      <trkpt lat="36.0750780" lon="-5.6461700">
        <ele>116.9</ele>
        <time>2018-10-17T10:13:59Z</time>
      </trkpt>
      <trkpt lat="36.0750950" lon="-5.6461290">
        <ele>116.7</ele>
        <time>2018-10-17T10:14:00Z</time>
      </trkpt>
      <trkpt lat="36.0751120" lon="-5.6460900">
        <ele>116.2</ele>
        <time>2018-10-17T10:14:01Z</time>
      </trkpt>
      <trkpt lat="36.0751300" lon="-5.6460520">
        <ele>116.1</ele>
        <time>2018-10-17T10:14:02Z</time>
      </trkpt>
      <trkpt lat="36.0751450" lon="-5.6460140">
        <ele>115.6</ele>
        <time>2018-10-17T10:14:03Z</time>
      </trkpt>
      <trkpt lat="36.0751560" lon="-5.6459800">
        <ele>115.6</ele>
        <time>2018-10-17T10:14:04Z</time>
      </trkpt>
      <trkpt lat="36.0751610" lon="-5.6459420">
        <ele>115.2</ele>
        <time>2018-10-17T10:14:05Z</time>
      </trkpt>
      <trkpt lat="36.0751590" lon="-5.6459050">
        <ele>115.2</ele>
        <time>2018-10-17T10:14:06Z</time>
      </trkpt>
      <trkpt lat="36.0751470" lon="-5.6458680">
        <ele>114.3</ele>
        <time>2018-10-17T10:14:07Z</time>
      </trkpt>
      <trkpt lat="36.0751340" lon="-5.6458310">
        <ele>113.9</ele>
        <time>2018-10-17T10:14:08Z</time>
      </trkpt>
      <trkpt lat="36.0751200" lon="-5.6457930">
        <ele>113.4</ele>
        <time>2018-10-17T10:14:09Z</time>
      </trkpt>
      <trkpt lat="36.0751120" lon="-5.6457530">
        <ele>113.5</ele>
        <time>2018-10-17T10:14:10Z</time>
      </trkpt>
      <trkpt lat="36.0751170" lon="-5.6457170">
        <ele>113.6</ele>
        <time>2018-10-17T10:14:11Z</time>
      </trkpt>
      <trkpt lat="36.0751600" lon="-5.6456980">
        <ele>113.7</ele>
        <time>2018-10-17T10:14:13Z</time>
      </trkpt>
      <trkpt lat="36.0751900" lon="-5.6457140">
        <ele>113.9</ele>
        <time>2018-10-17T10:14:14Z</time>
      </trkpt>
      <trkpt lat="36.0752210" lon="-5.6457310">
        <ele>114.0</ele>
        <time>2018-10-17T10:14:15Z</time>
      </trkpt>
      <trkpt lat="36.0752490" lon="-5.6457440">
        <ele>114.1</ele>
        <time>2018-10-17T10:14:16Z</time>
      </trkpt>
      <trkpt lat="36.0752780" lon="-5.6457490">
        <ele>114.2</ele>
        <time>2018-10-17T10:14:17Z</time>
      </trkpt>
      <trkpt lat="36.0753070" lon="-5.6457480">
        <ele>114.3</ele>
        <time>2018-10-17T10:14:18Z</time>
      </trkpt>
      <trkpt lat="36.0753360" lon="-5.6457450">
        <ele>114.4</ele>
        <time>2018-10-17T10:14:19Z</time>
      </trkpt>
      <trkpt lat="36.0753660" lon="-5.6457380">
        <ele>114.6</ele>
        <time>2018-10-17T10:14:20Z</time>
      </trkpt>
      <trkpt lat="36.0753980" lon="-5.6457280">
        <ele>114.9</ele>
        <time>2018-10-17T10:14:21Z</time>
      </trkpt>
      <trkpt lat="36.0754280" lon="-5.6457150">
        <ele>115.1</ele>
        <time>2018-10-17T10:14:22Z</time>
      </trkpt>
      <trkpt lat="36.0754570" lon="-5.6457010">
        <ele>115.2</ele>
        <time>2018-10-17T10:14:23Z</time>
      </trkpt>
      <trkpt lat="36.0754870" lon="-5.6456860">
        <ele>115.3</ele>
        <time>2018-10-17T10:14:24Z</time>
      </trkpt>
      <trkpt lat="36.0755140" lon="-5.6456670">
        <ele>115.3</ele>
        <time>2018-10-17T10:14:25Z</time>
      </trkpt>
      <trkpt lat="36.0755380" lon="-5.6456480">
        <ele>115.4</ele>
        <time>2018-10-17T10:14:26Z</time>
      </trkpt>
      <trkpt lat="36.0755630" lon="-5.6456250">
        <ele>115.5</ele>
        <time>2018-10-17T10:14:27Z</time>
      </trkpt>
      <trkpt lat="36.0755870" lon="-5.6456030">
        <ele>115.5</ele>
        <time>2018-10-17T10:14:28Z</time>
      </trkpt>
      <trkpt lat="36.0756110" lon="-5.6455820">
        <ele>115.6</ele>
        <time>2018-10-17T10:14:29Z</time>
      </trkpt>
      <trkpt lat="36.0756370" lon="-5.6455600">
        <ele>115.7</ele>
        <time>2018-10-17T10:14:30Z</time>
      </trkpt>
      <trkpt lat="36.0756640" lon="-5.6455370">
        <ele>115.8</ele>
        <time>2018-10-17T10:14:31Z</time>
      </trkpt>
      <trkpt lat="36.0756890" lon="-5.6455130">
        <ele>115.9</ele>
        <time>2018-10-17T10:14:32Z</time>
      </trkpt>
      <trkpt lat="36.0757160" lon="-5.6454940">
        <ele>115.9</ele>
        <time>2018-10-17T10:14:33Z</time>
      </trkpt>
      <trkpt lat="36.0757420" lon="-5.6454780">
        <ele>116.0</ele>
        <time>2018-10-17T10:14:34Z</time>
      </trkpt>
      <trkpt lat="36.0757700" lon="-5.6454630">
        <ele>116.1</ele>
        <time>2018-10-17T10:14:35Z</time>
      </trkpt>
      <trkpt lat="36.0757950" lon="-5.6454490">
        <ele>116.2</ele>
        <time>2018-10-17T10:14:36Z</time>
      </trkpt>
      <trkpt lat="36.0758400" lon="-5.6454120">
        <ele>116.4</ele>
        <time>2018-10-17T10:14:38Z</time>
      </trkpt>
      <trkpt lat="36.0758840" lon="-5.6453730">
        <ele>116.8</ele>
        <time>2018-10-17T10:14:40Z</time>
      </trkpt>
      <trkpt lat="36.0759070" lon="-5.6453520">
        <ele>117.0</ele>
        <time>2018-10-17T10:14:41Z</time>
      </trkpt>
      <trkpt lat="36.0759510" lon="-5.6453130">
        <ele>117.2</ele>
        <time>2018-10-17T10:14:43Z</time>
      </trkpt>
      <trkpt lat="36.0759760" lon="-5.6452910">
        <ele>117.2</ele>
        <time>2018-10-17T10:14:44Z</time>
      </trkpt>
      <trkpt lat="36.0759990" lon="-5.6452730">
        <ele>117.2</ele>
        <time>2018-10-17T10:14:45Z</time>
      </trkpt>
      <trkpt lat="36.0760230" lon="-5.6452560">
        <ele>117.3</ele>
        <time>2018-10-17T10:14:46Z</time>
      </trkpt>
      <trkpt lat="36.0760680" lon="-5.6452310">
        <ele>117.3</ele>
        <time>2018-10-17T10:14:48Z</time>
      </trkpt>
      <trkpt lat="36.0761120" lon="-5.6452040">
        <ele>117.4</ele>
        <time>2018-10-17T10:14:50Z</time>
      </trkpt>
      <trkpt lat="36.0761380" lon="-5.6451900">
        <ele>117.4</ele>
        <time>2018-10-17T10:14:51Z</time>
      </trkpt>
      <trkpt lat="36.0761860" lon="-5.6451620">
        <ele>117.4</ele>
        <time>2018-10-17T10:14:53Z</time>
      </trkpt>
      <trkpt lat="36.0762110" lon="-5.6451480">
        <ele>117.5</ele>
        <time>2018-10-17T10:14:54Z</time>
      </trkpt>
      <trkpt lat="36.0762400" lon="-5.6451340">
        <ele>117.5</ele>
        <time>2018-10-17T10:14:55Z</time>
      </trkpt>
      <trkpt lat="36.0762700" lon="-5.6451220">
        <ele>117.5</ele>
        <time>2018-10-17T10:14:56Z</time>
      </trkpt>
      <trkpt lat="36.0762990" lon="-5.6451120">
        <ele>117.5</ele>
        <time>2018-10-17T10:14:57Z</time>
      </trkpt>
      <trkpt lat="36.0763260" lon="-5.6451020">
        <ele>117.5</ele>
        <time>2018-10-17T10:14:58Z</time>
      </trkpt>
      <trkpt lat="36.0763520" lon="-5.6450900">
        <ele>117.5</ele>
        <time>2018-10-17T10:14:59Z</time>
      </trkpt>
      <trkpt lat="36.0764000" lon="-5.6450670">
        <ele>117.5</ele>
        <time>2018-10-17T10:15:01Z</time>
      </trkpt>
      <trkpt lat="36.0764480" lon="-5.6450490">
        <ele>117.6</ele>
        <time>2018-10-17T10:15:03Z</time>
      </trkpt>
      <trkpt lat="36.0764990" lon="-5.6450330">
        <ele>117.6</ele>
        <time>2018-10-17T10:15:05Z</time>
      </trkpt>
      <trkpt lat="36.0765510" lon="-5.6450070">
        <ele>117.7</ele>
        <time>2018-10-17T10:15:07Z</time>
      </trkpt>
      <trkpt lat="36.0765780" lon="-5.6449920">
        <ele>117.7</ele>
        <time>2018-10-17T10:15:08Z</time>
      </trkpt>
      <trkpt lat="36.0766060" lon="-5.6449740">
        <ele>117.7</ele>
        <time>2018-10-17T10:15:09Z</time>
      </trkpt>
      <trkpt lat="36.0766300" lon="-5.6449570">
        <ele>117.8</ele>
        <time>2018-10-17T10:15:10Z</time>
      </trkpt>
      <trkpt lat="36.0766540" lon="-5.6449410">
        <ele>117.8</ele>
        <time>2018-10-17T10:15:11Z</time>
      </trkpt>
      <trkpt lat="36.0766800" lon="-5.6449280">
        <ele>117.8</ele>
        <time>2018-10-17T10:15:12Z</time>
      </trkpt>
      <trkpt lat="36.0767080" lon="-5.6449150">
        <ele>117.9</ele>
        <time>2018-10-17T10:15:13Z</time>
      </trkpt>
      <trkpt lat="36.0767360" lon="-5.6448980">
        <ele>117.9</ele>
        <time>2018-10-17T10:15:14Z</time>
      </trkpt>
      <trkpt lat="36.0767650" lon="-5.6448810">
        <ele>118.0</ele>
        <time>2018-10-17T10:15:15Z</time>
      </trkpt>
      <trkpt lat="36.0767940" lon="-5.6448630">
        <ele>118.0</ele>
        <time>2018-10-17T10:15:16Z</time>
      </trkpt>
      <trkpt lat="36.0768210" lon="-5.6448450">
        <ele>118.1</ele>
        <time>2018-10-17T10:15:17Z</time>
      </trkpt>
      <trkpt lat="36.0768520" lon="-5.6448280">
        <ele>118.2</ele>
        <time>2018-10-17T10:15:18Z</time>
      </trkpt>
      <trkpt lat="36.0768840" lon="-5.6448090">
        <ele>118.3</ele>
        <time>2018-10-17T10:15:19Z</time>
      </trkpt>
      <trkpt lat="36.0769110" lon="-5.6447860">
        <ele>118.5</ele>
        <time>2018-10-17T10:15:20Z</time>
      </trkpt>
      <trkpt lat="36.0769400" lon="-5.6447600">
        <ele>118.7</ele>
        <time>2018-10-17T10:15:21Z</time>
      </trkpt>
      <trkpt lat="36.0769710" lon="-5.6447370">
        <ele>118.9</ele>
        <time>2018-10-17T10:15:22Z</time>
      </trkpt>
      <trkpt lat="36.0770010" lon="-5.6447160">
        <ele>119.0</ele>
        <time>2018-10-17T10:15:23Z</time>
      </trkpt>
      <trkpt lat="36.0770330" lon="-5.6447000">
        <ele>119.1</ele>
        <time>2018-10-17T10:15:24Z</time>
      </trkpt>
      <trkpt lat="36.0770660" lon="-5.6446830">
        <ele>119.1</ele>
        <time>2018-10-17T10:15:25Z</time>
      </trkpt>
      <trkpt lat="36.0770990" lon="-5.6446630">
        <ele>119.2</ele>
        <time>2018-10-17T10:15:26Z</time>
      </trkpt>
      <trkpt lat="36.0771330" lon="-5.6446420">
        <ele>119.2</ele>
        <time>2018-10-17T10:15:27Z</time>
      </trkpt>
      <trkpt lat="36.0771630" lon="-5.6446250">
        <ele>119.2</ele>
        <time>2018-10-17T10:15:28Z</time>
      </trkpt>
      <trkpt lat="36.0771940" lon="-5.6446090">
        <ele>119.3</ele>
        <time>2018-10-17T10:15:29Z</time>
      </trkpt>
      <trkpt lat="36.0772230" lon="-5.6445950">
        <ele>119.3</ele>
        <time>2018-10-17T10:15:30Z</time>
      </trkpt>
      <trkpt lat="36.0772510" lon="-5.6445830">
        <ele>119.3</ele>
        <time>2018-10-17T10:15:31Z</time>
      </trkpt>
      <trkpt lat="36.0772790" lon="-5.6445700">
        <ele>119.3</ele>
        <time>2018-10-17T10:15:32Z</time>
      </trkpt>
      <trkpt lat="36.0773100" lon="-5.6445610">
        <ele>119.3</ele>
        <time>2018-10-17T10:15:33Z</time>
      </trkpt>
      <trkpt lat="36.0773440" lon="-5.6445520">
        <ele>119.4</ele>
        <time>2018-10-17T10:15:34Z</time>
      </trkpt>
      <trkpt lat="36.0773790" lon="-5.6445410">
        <ele>119.4</ele>
        <time>2018-10-17T10:15:35Z</time>
      </trkpt>
      <trkpt lat="36.0774100" lon="-5.6445290">
        <ele>119.4</ele>
        <time>2018-10-17T10:15:36Z</time>
      </trkpt>
      <trkpt lat="36.0774390" lon="-5.6445170">
        <ele>119.4</ele>
        <time>2018-10-17T10:15:37Z</time>
      </trkpt>
      <trkpt lat="36.0774690" lon="-5.6445030">
        <ele>119.4</ele>
        <time>2018-10-17T10:15:38Z</time>
      </trkpt>
      <trkpt lat="36.0774990" lon="-5.6444910">
        <ele>119.4</ele>
        <time>2018-10-17T10:15:39Z</time>
      </trkpt>
      <trkpt lat="36.0775330" lon="-5.6444730">
        <ele>119.4</ele>
        <time>2018-10-17T10:15:40Z</time>
      </trkpt>
      <trkpt lat="36.0775640" lon="-5.6444540">
        <ele>119.4</ele>
        <time>2018-10-17T10:15:41Z</time>
      </trkpt>
      <trkpt lat="36.0775990" lon="-5.6444270">
        <ele>119.4</ele>
        <time>2018-10-17T10:15:42Z</time>
      </trkpt>
      <trkpt lat="36.0776310" lon="-5.6444010">
        <ele>119.4</ele>
        <time>2018-10-17T10:15:43Z</time>
      </trkpt>
      <trkpt lat="36.0776610" lon="-5.6443800">
        <ele>119.4</ele>
        <time>2018-10-17T10:15:44Z</time>
      </trkpt>
      <trkpt lat="36.0776890" lon="-5.6443640">
        <ele>119.4</ele>
        <time>2018-10-17T10:15:45Z</time>
      </trkpt>
      <trkpt lat="36.0777170" lon="-5.6443510">
        <ele>119.4</ele>
        <time>2018-10-17T10:15:46Z</time>
      </trkpt>
      <trkpt lat="36.0777430" lon="-5.6443370">
        <ele>119.4</ele>
        <time>2018-10-17T10:15:47Z</time>
      </trkpt>
      <trkpt lat="36.0777940" lon="-5.6443090">
        <ele>119.4</ele>
        <time>2018-10-17T10:15:49Z</time>
      </trkpt>
      <trkpt lat="36.0778200" lon="-5.6442960">
        <ele>119.4</ele>
        <time>2018-10-17T10:15:50Z</time>
      </trkpt>
      <trkpt lat="36.0778500" lon="-5.6442820">
        <ele>119.5</ele>
        <time>2018-10-17T10:15:51Z</time>
      </trkpt>
      <trkpt lat="36.0778800" lon="-5.6442710">
        <ele>119.5</ele>
        <time>2018-10-17T10:15:52Z</time>
      </trkpt>
      <trkpt lat="36.0779090" lon="-5.6442580">
        <ele>119.5</ele>
        <time>2018-10-17T10:15:53Z</time>
      </trkpt>
      <trkpt lat="36.0779340" lon="-5.6442450">
        <ele>119.6</ele>
        <time>2018-10-17T10:15:54Z</time>
      </trkpt>
      <trkpt lat="36.0779610" lon="-5.6442320">
        <ele>119.6</ele>
        <time>2018-10-17T10:15:55Z</time>
      </trkpt>
      <trkpt lat="36.0779880" lon="-5.6442200">
        <ele>119.7</ele>
        <time>2018-10-17T10:15:56Z</time>
      </trkpt>
      <trkpt lat="36.0780150" lon="-5.6442070">
        <ele>119.7</ele>
        <time>2018-10-17T10:15:57Z</time>
      </trkpt>
      <trkpt lat="36.0780440" lon="-5.6441910">
        <ele>119.8</ele>
        <time>2018-10-17T10:15:58Z</time>
      </trkpt>
      <trkpt lat="36.0780730" lon="-5.6441740">
        <ele>119.9</ele>
        <time>2018-10-17T10:15:59Z</time>
      </trkpt>
      <trkpt lat="36.0781030" lon="-5.6441590">
        <ele>120.0</ele>
        <time>2018-10-17T10:16:00Z</time>
      </trkpt>
      <trkpt lat="36.0781330" lon="-5.6441470">
        <ele>120.1</ele>
        <time>2018-10-17T10:16:01Z</time>
      </trkpt>
      <trkpt lat="36.0781610" lon="-5.6441360">
        <ele>120.3</ele>
        <time>2018-10-17T10:16:02Z</time>
      </trkpt>
      <trkpt lat="36.0781900" lon="-5.6441260">
        <ele>120.5</ele>
        <time>2018-10-17T10:16:03Z</time>
      </trkpt>
      <trkpt lat="36.0782170" lon="-5.6441150">
        <ele>120.7</ele>
        <time>2018-10-17T10:16:04Z</time>
      </trkpt>
      <trkpt lat="36.0782430" lon="-5.6441030">
        <ele>120.8</ele>
        <time>2018-10-17T10:16:05Z</time>
      </trkpt>
      <trkpt lat="36.0782690" lon="-5.6440900">
        <ele>120.9</ele>
        <time>2018-10-17T10:16:06Z</time>
      </trkpt>
      <trkpt lat="36.0782950" lon="-5.6440770">
        <ele>120.9</ele>
        <time>2018-10-17T10:16:07Z</time>
      </trkpt>
      <trkpt lat="36.0783210" lon="-5.6440660">
        <ele>120.9</ele>
        <time>2018-10-17T10:16:08Z</time>
      </trkpt>
      <trkpt lat="36.0783480" lon="-5.6440540">
        <ele>121.0</ele>
        <time>2018-10-17T10:16:09Z</time>
      </trkpt>
      <trkpt lat="36.0783750" lon="-5.6440410">
        <ele>121.0</ele>
        <time>2018-10-17T10:16:10Z</time>
      </trkpt>
      <trkpt lat="36.0784030" lon="-5.6440290">
        <ele>121.0</ele>
        <time>2018-10-17T10:16:11Z</time>
      </trkpt>
      <trkpt lat="36.0784290" lon="-5.6440180">
        <ele>121.0</ele>
        <time>2018-10-17T10:16:12Z</time>
      </trkpt>
      <trkpt lat="36.0784560" lon="-5.6440030">
        <ele>121.0</ele>
        <time>2018-10-17T10:16:13Z</time>
      </trkpt>
      <trkpt lat="36.0784840" lon="-5.6439850">
        <ele>121.1</ele>
        <time>2018-10-17T10:16:14Z</time>
      </trkpt>
      <trkpt lat="36.0785110" lon="-5.6439660">
        <ele>121.1</ele>
        <time>2018-10-17T10:16:15Z</time>
      </trkpt>
      <trkpt lat="36.0785420" lon="-5.6439440">
        <ele>121.1</ele>
        <time>2018-10-17T10:16:16Z</time>
      </trkpt>
      <trkpt lat="36.0785730" lon="-5.6439210">
        <ele>121.1</ele>
        <time>2018-10-17T10:16:17Z</time>
      </trkpt>
      <trkpt lat="36.0786000" lon="-5.6438980">
        <ele>121.1</ele>
        <time>2018-10-17T10:16:18Z</time>
      </trkpt>
      <trkpt lat="36.0786290" lon="-5.6438740">
        <ele>121.1</ele>
        <time>2018-10-17T10:16:19Z</time>
      </trkpt>
      <trkpt lat="36.0786570" lon="-5.6438540">
        <ele>121.1</ele>
        <time>2018-10-17T10:16:20Z</time>
      </trkpt>
      <trkpt lat="36.0786840" lon="-5.6438380">
        <ele>121.1</ele>
        <time>2018-10-17T10:16:21Z</time>
      </trkpt>
      <trkpt lat="36.0787130" lon="-5.6438230">
        <ele>121.1</ele>
        <time>2018-10-17T10:16:22Z</time>
      </trkpt>
      <trkpt lat="36.0787410" lon="-5.6438080">
        <ele>121.1</ele>
        <time>2018-10-17T10:16:23Z</time>
      </trkpt>
      <trkpt lat="36.0787710" lon="-5.6437940">
        <ele>121.1</ele>
        <time>2018-10-17T10:16:24Z</time>
      </trkpt>
      <trkpt lat="36.0788010" lon="-5.6437810">
        <ele>121.1</ele>
        <time>2018-10-17T10:16:25Z</time>
      </trkpt>
      <trkpt lat="36.0788310" lon="-5.6437670">
        <ele>121.1</ele>
        <time>2018-10-17T10:16:26Z</time>
      </trkpt>
      <trkpt lat="36.0788590" lon="-5.6437560">
        <ele>121.1</ele>
        <time>2018-10-17T10:16:27Z</time>
      </trkpt>
      <trkpt lat="36.0788860" lon="-5.6437440">
        <ele>121.1</ele>
        <time>2018-10-17T10:16:28Z</time>
      </trkpt>
      <trkpt lat="36.0789150" lon="-5.6437330">
        <ele>121.1</ele>
        <time>2018-10-17T10:16:29Z</time>
      </trkpt>
      <trkpt lat="36.0789430" lon="-5.6437240">
        <ele>121.1</ele>
        <time>2018-10-17T10:16:30Z</time>
      </trkpt>
      <trkpt lat="36.0789730" lon="-5.6437120">
        <ele>121.1</ele>
        <time>2018-10-17T10:16:31Z</time>
      </trkpt>
      <trkpt lat="36.0790020" lon="-5.6436980">
        <ele>121.1</ele>
        <time>2018-10-17T10:16:32Z</time>
      </trkpt>
      <trkpt lat="36.0790340" lon="-5.6436850">
        <ele>121.1</ele>
        <time>2018-10-17T10:16:33Z</time>
      </trkpt>
      <trkpt lat="36.0790660" lon="-5.6436730">
        <ele>121.1</ele>
        <time>2018-10-17T10:16:34Z</time>
      </trkpt>
      <trkpt lat="36.0790970" lon="-5.6436640">
        <ele>121.1</ele>
        <time>2018-10-17T10:16:35Z</time>
      </trkpt>
      <trkpt lat="36.0791260" lon="-5.6436560">
        <ele>121.1</ele>
        <time>2018-10-17T10:16:36Z</time>
      </trkpt>
      <trkpt lat="36.0791580" lon="-5.6436480">
        <ele>121.1</ele>
        <time>2018-10-17T10:16:37Z</time>
      </trkpt>
      <trkpt lat="36.0791880" lon="-5.6436420">
        <ele>121.1</ele>
        <time>2018-10-17T10:16:38Z</time>
      </trkpt>
      <trkpt lat="36.0792160" lon="-5.6436360">
        <ele>121.1</ele>
        <time>2018-10-17T10:16:39Z</time>
      </trkpt>
      <trkpt lat="36.0792450" lon="-5.6436310">
        <ele>121.1</ele>
        <time>2018-10-17T10:16:40Z</time>
      </trkpt>
      <trkpt lat="36.0792750" lon="-5.6436260">
        <ele>121.1</ele>
        <time>2018-10-17T10:16:41Z</time>
      </trkpt>
      <trkpt lat="36.0793050" lon="-5.6436230">
        <ele>121.1</ele>
        <time>2018-10-17T10:16:42Z</time>
      </trkpt>
      <trkpt lat="36.0793330" lon="-5.6436200">
        <ele>121.1</ele>
        <time>2018-10-17T10:16:43Z</time>
      </trkpt>
      <trkpt lat="36.0793610" lon="-5.6436160">
        <ele>121.1</ele>
        <time>2018-10-17T10:16:44Z</time>
      </trkpt>
      <trkpt lat="36.0793900" lon="-5.6436100">
        <ele>121.1</ele>
        <time>2018-10-17T10:16:45Z</time>
      </trkpt>
      <trkpt lat="36.0794430" lon="-5.6436070">
        <ele>121.1</ele>
        <time>2018-10-17T10:16:47Z</time>
      </trkpt>
      <trkpt lat="36.0794710" lon="-5.6436120">
        <ele>121.1</ele>
        <time>2018-10-17T10:16:48Z</time>
      </trkpt>
      <trkpt lat="36.0795030" lon="-5.6436170">
        <ele>121.1</ele>
        <time>2018-10-17T10:16:49Z</time>
      </trkpt>
      <trkpt lat="36.0795320" lon="-5.6436220">
        <ele>121.1</ele>
        <time>2018-10-17T10:16:50Z</time>
      </trkpt>
      <trkpt lat="36.0795720" lon="-5.6436320">
        <ele>121.1</ele>
        <time>2018-10-17T10:16:52Z</time>
      </trkpt>
      <trkpt lat="36.0795990" lon="-5.6436410">
        <ele>121.1</ele>
        <time>2018-10-17T10:16:54Z</time>
      </trkpt>
      <trkpt lat="36.0795730" lon="-5.6436590">
        <ele>121.1</ele>
        <time>2018-10-17T10:17:01Z</time>
      </trkpt>
    </trkseg>
  </trk>
</gpx>
